<?xml version="1.0" encoding="UTF-8" standalone="no" ?>
<gpx xmlns="http://www.topografix.com/GPX/1/1" xmlns:xsi="http://www.w3.org/2001/XMLSchema-instance" xsi:schemaLocation="http://www.topografix.com/GPX/1/1 http://www.topografix.com/GPX/1/1/gpx.xsd" version="1.1" creator="VisuGPX - https://www.visugpx.com">
  <metadata>
    <name>Grand tour du Vercors</name>
    <desc><![CDATA[Joli tour à vélo de route sur le Vercors]]></desc>
  </metadata>
  <trk>
    <name><![CDATA[Vercors - Tour d'Ambel et Combe Laval]]></name>
    <trkseg>
      <trkpt lat="44.75012" lon="5.37752">
        <ele>410.091011</ele>
        <time>2023-08-18T19:10:12.176Z</time>
      </trkpt>
      <trkpt lat="44.75016" lon="5.37745">
        <ele>410.233215</ele>
        <time>2023-08-18T19:10:13.572Z</time>
      </trkpt>
      <trkpt lat="44.75071" lon="5.37655">
        <ele>412.089041</ele>
        <time>2023-08-18T19:10:30.862Z</time>
      </trkpt>
      <trkpt lat="44.75113" lon="5.37601">
        <ele>413.360377</ele>
        <time>2023-08-18T19:10:41.533Z</time>
      </trkpt>
      <trkpt lat="44.75161" lon="5.37541">
        <ele>413.964921</ele>
        <time>2023-08-18T19:10:51.014Z</time>
      </trkpt>
      <trkpt lat="44.75168" lon="5.37531">
        <ele>414.048237</ele>
        <time>2023-08-18T19:10:52.281Z</time>
      </trkpt>
      <trkpt lat="44.75191" lon="5.37502">
        <ele>414.297883</ele>
        <time>2023-08-18T19:10:56.147Z</time>
      </trkpt>
      <trkpt lat="44.75202" lon="5.37493">
        <ele>414.395132</ele>
        <time>2023-08-18T19:10:57.557Z</time>
      </trkpt>
      <trkpt lat="44.75208" lon="5.37496">
        <ele>414.445473</ele>
        <time>2023-08-18T19:10:58.276Z</time>
      </trkpt>
      <trkpt lat="44.75212" lon="5.3749">
        <ele>414.496137</ele>
        <time>2023-08-18T19:10:58.987Z</time>
      </trkpt>
      <trkpt lat="44.75212" lon="5.37486">
        <ele>414.520153</ele>
        <time>2023-08-18T19:10:59.358Z</time>
      </trkpt>
      <trkpt lat="44.75208" lon="5.37481">
        <ele>414.565722</ele>
        <time>2023-08-18T19:11:00.070Z</time>
      </trkpt>
      <trkpt lat="44.75218" lon="5.37466">
        <ele>414.680262</ele>
        <time>2023-08-18T19:11:01.860Z</time>
      </trkpt>
      <trkpt lat="44.75239" lon="5.37438">
        <ele>414.912601</ele>
        <time>2023-08-18T19:11:05.680Z</time>
      </trkpt>
      <trkpt lat="44.75306" lon="5.37351">
        <ele>416.625207</ele>
        <time>2023-08-18T19:11:22.206Z</time>
      </trkpt>
      <trkpt lat="44.75313" lon="5.37343">
        <ele>416.796759</ele>
        <time>2023-08-18T19:11:23.870Z</time>
      </trkpt>
      <trkpt lat="44.75337" lon="5.37311">
        <ele>417.438786</ele>
        <time>2023-08-18T19:11:30.159Z</time>
      </trkpt>
      <trkpt lat="44.7534" lon="5.37305">
        <ele>417.529729</ele>
        <time>2023-08-18T19:11:31.220Z</time>
      </trkpt>
      <trkpt lat="44.75355" lon="5.37261">
        <ele>418.204656</ele>
        <time>2023-08-18T19:11:38.135Z</time>
      </trkpt>
      <trkpt lat="44.75363" lon="5.3723">
        <ele>418.557429</ele>
        <time>2023-08-18T19:11:42.807Z</time>
      </trkpt>
      <trkpt lat="44.75381" lon="5.37189">
        <ele>418.922429</ele>
        <time>2023-08-18T19:11:49.131Z</time>
      </trkpt>
      <trkpt lat="44.75392" lon="5.3716">
        <ele>419.180513</ele>
        <time>2023-08-18T19:11:53.493Z</time>
      </trkpt>
      <trkpt lat="44.75412" lon="5.37126">
        <ele>419.508377</ele>
        <time>2023-08-18T19:11:58.921Z</time>
      </trkpt>
      <trkpt lat="44.75431" lon="5.37094">
        <ele>419.824699</ele>
        <time>2023-08-18T19:12:03.656Z</time>
      </trkpt>
      <trkpt lat="44.75432" lon="5.37092">
        <ele>419.852897</ele>
        <time>2023-08-18T19:12:04.016Z</time>
      </trkpt>
      <trkpt lat="44.75449" lon="5.37064">
        <ele>420.128762</ele>
        <time>2023-08-18T19:12:07.360Z</time>
      </trkpt>
      <trkpt lat="44.75465" lon="5.37037">
        <ele>420.266553</ele>
        <time>2023-08-18T19:12:09.871Z</time>
      </trkpt>
      <trkpt lat="44.75471" lon="5.37028">
        <ele>420.000792</ele>
        <time>2023-08-18T19:12:10.726Z</time>
      </trkpt>
      <trkpt lat="44.75487" lon="5.37">
        <ele>419.246566</ele>
        <time>2023-08-18T19:12:12.973Z</time>
      </trkpt>
      <trkpt lat="44.75512" lon="5.36951">
        <ele>418.018769</ele>
        <time>2023-08-18T19:12:16.487Z</time>
      </trkpt>
      <trkpt lat="44.75518" lon="5.36941">
        <ele>417.743604</ele>
        <time>2023-08-18T19:12:17.242Z</time>
      </trkpt>
      <trkpt lat="44.75532" lon="5.36916">
        <ele>417.094497</ele>
        <time>2023-08-18T19:12:19.033Z</time>
      </trkpt>
      <trkpt lat="44.75556" lon="5.36876">
        <ele>416.005956</ele>
        <time>2023-08-18T19:12:21.992Z</time>
      </trkpt>
      <trkpt lat="44.75574" lon="5.36848">
        <ele>415.221904</ele>
        <time>2023-08-18T19:12:24.084Z</time>
      </trkpt>
      <trkpt lat="44.75576" lon="5.36843">
        <ele>415.083433</ele>
        <time>2023-08-18T19:12:24.420Z</time>
      </trkpt>
      <trkpt lat="44.75583" lon="5.36831">
        <ele>414.542998</ele>
        <time>2023-08-18T19:12:25.271Z</time>
      </trkpt>
      <trkpt lat="44.75592" lon="5.36814">
        <ele>413.806114</ele>
        <time>2023-08-18T19:12:26.416Z</time>
      </trkpt>
      <trkpt lat="44.75602" lon="5.36796">
        <ele>413.020859</ele>
        <time>2023-08-18T19:12:27.644Z</time>
      </trkpt>
      <trkpt lat="44.75615" lon="5.36772">
        <ele>411.97392</ele>
        <time>2023-08-18T19:12:29.247Z</time>
      </trkpt>
      <trkpt lat="44.75621" lon="5.36761">
        <ele>411.481413</ele>
        <time>2023-08-18T19:12:30.001Z</time>
      </trkpt>
      <trkpt lat="44.75652" lon="5.36708">
        <ele>409.075602</ele>
        <time>2023-08-18T19:12:33.651Z</time>
      </trkpt>
      <trkpt lat="44.7566" lon="5.36694">
        <ele>408.448524</ele>
        <time>2023-08-18T19:12:34.591Z</time>
      </trkpt>
      <trkpt lat="44.75704" lon="5.36618">
        <ele>405.386014</ele>
        <time>2023-08-18T19:12:39.775Z</time>
      </trkpt>
      <trkpt lat="44.75762" lon="5.36519">
        <ele>402.118284</ele>
        <time>2023-08-18T19:12:46.984Z</time>
      </trkpt>
      <trkpt lat="44.75778" lon="5.36492">
        <ele>401.223384</ele>
        <time>2023-08-18T19:12:49.053Z</time>
      </trkpt>
      <trkpt lat="44.75798" lon="5.36457">
        <ele>400.069178</ele>
        <time>2023-08-18T19:12:51.792Z</time>
      </trkpt>
      <trkpt lat="44.75864" lon="5.36337">
        <ele>398.463984</ele>
        <time>2023-08-18T19:13:01.321Z</time>
      </trkpt>
      <trkpt lat="44.7589" lon="5.3629">
        <ele>397.881434</ele>
        <time>2023-08-18T19:13:05.566Z</time>
      </trkpt>
      <trkpt lat="44.75898" lon="5.36275">
        <ele>397.700624</ele>
        <time>2023-08-18T19:13:06.953Z</time>
      </trkpt>
      <trkpt lat="44.75948" lon="5.36157">
        <ele>397.377051</ele>
        <time>2023-08-18T19:13:17.697Z</time>
      </trkpt>
      <trkpt lat="44.75958" lon="5.3616">
        <ele>397.375541</ele>
        <time>2023-08-18T19:13:18.938Z</time>
      </trkpt>
      <trkpt lat="44.75985" lon="5.36127">
        <ele>397.37044</ele>
        <time>2023-08-18T19:13:23.070Z</time>
      </trkpt>
      <trkpt lat="44.76016" lon="5.36088">
        <ele>397.364336</ele>
        <time>2023-08-18T19:13:28.363Z</time>
      </trkpt>
      <trkpt lat="44.7606" lon="5.36033">
        <ele>397.794489</ele>
        <time>2023-08-18T19:13:36.341Z</time>
      </trkpt>
      <trkpt lat="44.76078" lon="5.36014">
        <ele>398.026892</ele>
        <time>2023-08-18T19:13:39.731Z</time>
      </trkpt>
      <trkpt lat="44.76086" lon="5.36012">
        <ele>398.114895</ele>
        <time>2023-08-18T19:13:40.972Z</time>
      </trkpt>
      <trkpt lat="44.76099" lon="5.36016">
        <ele>398.2561</ele>
        <time>2023-08-18T19:13:42.994Z</time>
      </trkpt>
      <trkpt lat="44.7611" lon="5.36024">
        <ele>398.381413</ele>
        <time>2023-08-18T19:13:44.818Z</time>
      </trkpt>
      <trkpt lat="44.76174" lon="5.36093">
        <ele>399.232864</ele>
        <time>2023-08-18T19:13:57.883Z</time>
      </trkpt>
      <trkpt lat="44.76234" lon="5.36145">
        <ele>400.958591</ele>
        <time>2023-08-18T19:14:10.325Z</time>
      </trkpt>
      <trkpt lat="44.76234" lon="5.36145">
        <ele>400.964685</ele>
        <time>2023-08-18T19:14:10.376Z</time>
      </trkpt>
      <trkpt lat="44.76359" lon="5.36225">
        <ele>404.43715</ele>
        <time>2023-08-18T19:14:39.585Z</time>
      </trkpt>
      <trkpt lat="44.7638" lon="5.36231">
        <ele>405.027472</ele>
        <time>2023-08-18T19:14:44.446Z</time>
      </trkpt>
      <trkpt lat="44.76391" lon="5.36232">
        <ele>405.325238</ele>
        <time>2023-08-18T19:14:46.821Z</time>
      </trkpt>
      <trkpt lat="44.76485" lon="5.36241">
        <ele>407.888992</ele>
        <time>2023-08-18T19:15:06.470Z</time>
      </trkpt>
      <trkpt lat="44.76618" lon="5.36256">
        <ele>410.145164</ele>
        <time>2023-08-18T19:15:30.908Z</time>
      </trkpt>
      <trkpt lat="44.76623" lon="5.36257">
        <ele>410.215342</ele>
        <time>2023-08-18T19:15:31.686Z</time>
      </trkpt>
      <trkpt lat="44.76633" lon="5.36257">
        <ele>410.348453</ele>
        <time>2023-08-18T19:15:33.077Z</time>
      </trkpt>
      <trkpt lat="44.76659" lon="5.36259">
        <ele>410.730696</ele>
        <time>2023-08-18T19:15:36.843Z</time>
      </trkpt>
      <trkpt lat="44.76681" lon="5.36255">
        <ele>411.042325</ele>
        <time>2023-08-18T19:15:39.754Z</time>
      </trkpt>
      <trkpt lat="44.76733" lon="5.36227">
        <ele>410.949447</ele>
        <time>2023-08-18T19:15:46.581Z</time>
      </trkpt>
      <trkpt lat="44.76759" lon="5.36211">
        <ele>410.796113</ele>
        <time>2023-08-18T19:15:49.739Z</time>
      </trkpt>
      <trkpt lat="44.76836" lon="5.36166">
        <ele>410.358034</ele>
        <time>2023-08-18T19:15:57.942Z</time>
      </trkpt>
      <trkpt lat="44.76857" lon="5.36157">
        <ele>410.244457</ele>
        <time>2023-08-18T19:16:00.045Z</time>
      </trkpt>
      <trkpt lat="44.7692" lon="5.3614">
        <ele>410.203808</ele>
        <time>2023-08-18T19:16:06.250Z</time>
      </trkpt>
      <trkpt lat="44.76927" lon="5.36138">
        <ele>410.199261</ele>
        <time>2023-08-18T19:16:07.018Z</time>
      </trkpt>
      <trkpt lat="44.76979" lon="5.36123">
        <ele>410.168043</ele>
        <time>2023-08-18T19:16:12.703Z</time>
      </trkpt>
      <trkpt lat="44.76998" lon="5.36118">
        <ele>410.1571</ele>
        <time>2023-08-18T19:16:15.106Z</time>
      </trkpt>
      <trkpt lat="44.77051" lon="5.36104">
        <ele>410.740373</ele>
        <time>2023-08-18T19:16:23.644Z</time>
      </trkpt>
      <trkpt lat="44.77071" lon="5.36103">
        <ele>411.475406</ele>
        <time>2023-08-18T19:16:27.660Z</time>
      </trkpt>
      <trkpt lat="44.77078" lon="5.36103">
        <ele>411.746959</ele>
        <time>2023-08-18T19:16:29.206Z</time>
      </trkpt>
      <trkpt lat="44.77114" lon="5.36114">
        <ele>413.081035</ele>
        <time>2023-08-18T19:16:37.641Z</time>
      </trkpt>
      <trkpt lat="44.77133" lon="5.36124">
        <ele>413.793483</ele>
        <time>2023-08-18T19:16:42.590Z</time>
      </trkpt>
      <trkpt lat="44.77174" lon="5.36156">
        <ele>415.514477</ele>
        <time>2023-08-18T19:16:54.767Z</time>
      </trkpt>
      <trkpt lat="44.7718" lon="5.3616">
        <ele>415.732143</ele>
        <time>2023-08-18T19:16:56.342Z</time>
      </trkpt>
      <trkpt lat="44.7722" lon="5.3619">
        <ele>418.113733</ele>
        <time>2023-08-18T19:17:09.040Z</time>
      </trkpt>
      <trkpt lat="44.77224" lon="5.36193">
        <ele>418.464725</ele>
        <time>2023-08-18T19:17:10.497Z</time>
      </trkpt>
      <trkpt lat="44.77258" lon="5.36215">
        <ele>421.161973</ele>
        <time>2023-08-18T19:17:22.396Z</time>
      </trkpt>
      <trkpt lat="44.77294" lon="5.36232">
        <ele>424.006329</ele>
        <time>2023-08-18T19:17:36.058Z</time>
      </trkpt>
      <trkpt lat="44.77339" lon="5.36245">
        <ele>427.367448</ele>
        <time>2023-08-18T19:17:53.437Z</time>
      </trkpt>
      <trkpt lat="44.7744" lon="5.36279">
        <ele>436.537115</ele>
        <time>2023-08-18T19:18:36.404Z</time>
      </trkpt>
      <trkpt lat="44.7746" lon="5.36289">
        <ele>438.63952</ele>
        <time>2023-08-18T19:18:46.309Z</time>
      </trkpt>
      <trkpt lat="44.77481" lon="5.36306">
        <ele>440.95738</ele>
        <time>2023-08-18T19:18:57.557Z</time>
      </trkpt>
      <trkpt lat="44.77603" lon="5.36446">
        <ele>455.434889</ele>
        <time>2023-08-18T19:20:04.194Z</time>
      </trkpt>
      <trkpt lat="44.77615" lon="5.36454">
        <ele>456.624124</ele>
        <time>2023-08-18T19:20:08.901Z</time>
      </trkpt>
      <trkpt lat="44.77655" lon="5.36466">
        <ele>460.2471</ele>
        <time>2023-08-18T19:20:23.204Z</time>
      </trkpt>
      <trkpt lat="44.77667" lon="5.36472">
        <ele>461.373612</ele>
        <time>2023-08-18T19:20:27.846Z</time>
      </trkpt>
      <trkpt lat="44.77718" lon="5.36511">
        <ele>467.207218</ele>
        <time>2023-08-18T19:20:51.893Z</time>
      </trkpt>
      <trkpt lat="44.77735" lon="5.3652">
        <ele>469.103111</ele>
        <time>2023-08-18T19:21:00.511Z</time>
      </trkpt>
      <trkpt lat="44.77765" lon="5.36524">
        <ele>472.267321</ele>
        <time>2023-08-18T19:21:14.477Z</time>
      </trkpt>
      <trkpt lat="44.77796" lon="5.3653">
        <ele>475.553737</ele>
        <time>2023-08-18T19:21:29.668Z</time>
      </trkpt>
      <trkpt lat="44.77813" lon="5.36539">
        <ele>477.486611</ele>
        <time>2023-08-18T19:21:39.086Z</time>
      </trkpt>
      <trkpt lat="44.77828" lon="5.3655">
        <ele>479.302012</ele>
        <time>2023-08-18T19:21:47.235Z</time>
      </trkpt>
      <trkpt lat="44.77878" lon="5.36599">
        <ele>485.2264</ele>
        <time>2023-08-18T19:22:16.071Z</time>
      </trkpt>
      <trkpt lat="44.77927" lon="5.36647">
        <ele>490.719588</ele>
        <time>2023-08-18T19:22:41.837Z</time>
      </trkpt>
      <trkpt lat="44.77949" lon="5.36664">
        <ele>493.017387</ele>
        <time>2023-08-18T19:22:52.148Z</time>
      </trkpt>
      <trkpt lat="44.77968" lon="5.36669">
        <ele>494.751932</ele>
        <time>2023-08-18T19:22:59.858Z</time>
      </trkpt>
      <trkpt lat="44.78006" lon="5.36667">
        <ele>498.272931</ele>
        <time>2023-08-18T19:23:13.583Z</time>
      </trkpt>
      <trkpt lat="44.78038" lon="5.36672">
        <ele>501.072662</ele>
        <time>2023-08-18T19:23:23.021Z</time>
      </trkpt>
      <trkpt lat="44.78091" lon="5.3669">
        <ele>505.891274</ele>
        <time>2023-08-18T19:23:41.489Z</time>
      </trkpt>
      <trkpt lat="44.78187" lon="5.36709">
        <ele>514.527799</ele>
        <time>2023-08-18T19:24:26.599Z</time>
      </trkpt>
      <trkpt lat="44.78239" lon="5.36739">
        <ele>518.275213</ele>
        <time>2023-08-18T19:24:51.799Z</time>
      </trkpt>
      <trkpt lat="44.78279" lon="5.36753">
        <ele>520.972453</ele>
        <time>2023-08-18T19:25:05.794Z</time>
      </trkpt>
      <trkpt lat="44.78306" lon="5.36773">
        <ele>523.01309</ele>
        <time>2023-08-18T19:25:15.252Z</time>
      </trkpt>
      <trkpt lat="44.78328" lon="5.36782">
        <ele>524.567591</ele>
        <time>2023-08-18T19:25:21.752Z</time>
      </trkpt>
      <trkpt lat="44.78346" lon="5.36781">
        <ele>525.788399</ele>
        <time>2023-08-18T19:25:27.051Z</time>
      </trkpt>
      <trkpt lat="44.78371" lon="5.36763">
        <ele>525.92364</ele>
        <time>2023-08-18T19:25:32.859Z</time>
      </trkpt>
      <trkpt lat="44.78389" lon="5.36757">
        <ele>525.293086</ele>
        <time>2023-08-18T19:25:34.891Z</time>
      </trkpt>
      <trkpt lat="44.78403" lon="5.36765">
        <ele>524.730118</ele>
        <time>2023-08-18T19:25:36.396Z</time>
      </trkpt>
      <trkpt lat="44.78419" lon="5.36781">
        <ele>524.052832</ele>
        <time>2023-08-18T19:25:37.866Z</time>
      </trkpt>
      <trkpt lat="44.78448" lon="5.36828">
        <ele>522.465419</ele>
        <time>2023-08-18T19:25:41.075Z</time>
      </trkpt>
      <trkpt lat="44.78458" lon="5.36862">
        <ele>521.537069</ele>
        <time>2023-08-18T19:25:42.912Z</time>
      </trkpt>
      <trkpt lat="44.7847" lon="5.36874">
        <ele>521.01195</ele>
        <time>2023-08-18T19:25:43.965Z</time>
      </trkpt>
      <trkpt lat="44.7848" lon="5.36877">
        <ele>520.640957</ele>
        <time>2023-08-18T19:25:44.713Z</time>
      </trkpt>
      <trkpt lat="44.78495" lon="5.36874">
        <ele>520.103407</ele>
        <time>2023-08-18T19:25:45.820Z</time>
      </trkpt>
      <trkpt lat="44.78507" lon="5.36863">
        <ele>519.760007</ele>
        <time>2023-08-18T19:25:46.907Z</time>
      </trkpt>
      <trkpt lat="44.7852" lon="5.36839">
        <ele>519.241077</ele>
        <time>2023-08-18T19:25:48.602Z</time>
      </trkpt>
      <trkpt lat="44.78534" lon="5.36821">
        <ele>518.802617</ele>
        <time>2023-08-18T19:25:50.089Z</time>
      </trkpt>
      <trkpt lat="44.78547" lon="5.3681">
        <ele>518.447714</ele>
        <time>2023-08-18T19:25:51.315Z</time>
      </trkpt>
      <trkpt lat="44.78568" lon="5.36803">
        <ele>517.924817</ele>
        <time>2023-08-18T19:25:53.071Z</time>
      </trkpt>
      <trkpt lat="44.78613" lon="5.36775">
        <ele>516.764276</ele>
        <time>2023-08-18T19:25:57.195Z</time>
      </trkpt>
      <trkpt lat="44.78627" lon="5.36761">
        <ele>516.35124</ele>
        <time>2023-08-18T19:25:58.966Z</time>
      </trkpt>
      <trkpt lat="44.78649" lon="5.36735">
        <ele>516.182512</ele>
        <time>2023-08-18T19:26:03.394Z</time>
      </trkpt>
      <trkpt lat="44.78677" lon="5.36682">
        <ele>518.623905</ele>
        <time>2023-08-18T19:26:14.553Z</time>
      </trkpt>
      <trkpt lat="44.78692" lon="5.36663">
        <ele>519.638063</ele>
        <time>2023-08-18T19:26:20.405Z</time>
      </trkpt>
      <trkpt lat="44.78708" lon="5.36655">
        <ele>520.53531</ele>
        <time>2023-08-18T19:26:25.729Z</time>
      </trkpt>
      <trkpt lat="44.78727" lon="5.36654">
        <ele>521.515685</ele>
        <time>2023-08-18T19:26:31.661Z</time>
      </trkpt>
      <trkpt lat="44.78756" lon="5.36659">
        <ele>523.060223</ele>
        <time>2023-08-18T19:26:41.494Z</time>
      </trkpt>
      <trkpt lat="44.78789" lon="5.36654">
        <ele>524.807819</ele>
        <time>2023-08-18T19:26:53.163Z</time>
      </trkpt>
      <trkpt lat="44.78815" lon="5.36654">
        <ele>526.706407</ele>
        <time>2023-08-18T19:27:02.549Z</time>
      </trkpt>
      <trkpt lat="44.78862" lon="5.36632">
        <ele>530.737109</ele>
        <time>2023-08-18T19:27:21.657Z</time>
      </trkpt>
      <trkpt lat="44.78875" lon="5.36631">
        <ele>531.820416</ele>
        <time>2023-08-18T19:27:26.705Z</time>
      </trkpt>
      <trkpt lat="44.78921" lon="5.36652">
        <ele>535.815704</ele>
        <time>2023-08-18T19:27:46.320Z</time>
      </trkpt>
      <trkpt lat="44.78938" lon="5.36656">
        <ele>537.256221</ele>
        <time>2023-08-18T19:27:52.763Z</time>
      </trkpt>
      <trkpt lat="44.78989" lon="5.36684">
        <ele>541.436291</ele>
        <time>2023-08-18T19:28:14.090Z</time>
      </trkpt>
      <trkpt lat="44.79004" lon="5.36698">
        <ele>542.630453</ele>
        <time>2023-08-18T19:28:20.688Z</time>
      </trkpt>
      <trkpt lat="44.79028" lon="5.36736">
        <ele>545.007013</ele>
        <time>2023-08-18T19:28:34.096Z</time>
      </trkpt>
      <trkpt lat="44.79038" lon="5.36757">
        <ele>546.163859</ele>
        <time>2023-08-18T19:28:40.598Z</time>
      </trkpt>
      <trkpt lat="44.79105" lon="5.36871">
        <ele>552.434368</ele>
        <time>2023-08-18T19:29:11.260Z</time>
      </trkpt>
      <trkpt lat="44.79121" lon="5.3689">
        <ele>553.060296</ele>
        <time>2023-08-18T19:29:16.240Z</time>
      </trkpt>
      <trkpt lat="44.79172" lon="5.36937">
        <ele>554.853689</ele>
        <time>2023-08-18T19:29:28.821Z</time>
      </trkpt>
      <trkpt lat="44.79189" lon="5.36959">
        <ele>555.533482</ele>
        <time>2023-08-18T19:29:33.128Z</time>
      </trkpt>
      <trkpt lat="44.79251" lon="5.37059">
        <ele>557.838444</ele>
        <time>2023-08-18T19:29:49.926Z</time>
      </trkpt>
      <trkpt lat="44.79294" lon="5.37141">
        <ele>559.069944</ele>
        <time>2023-08-18T19:30:04.067Z</time>
      </trkpt>
      <trkpt lat="44.79323" lon="5.37256">
        <ele>559.991998</ele>
        <time>2023-08-18T19:30:17.830Z</time>
      </trkpt>
      <trkpt lat="44.79333" lon="5.37311">
        <ele>559.402748</ele>
        <time>2023-08-18T19:30:22.415Z</time>
      </trkpt>
      <trkpt lat="44.79344" lon="5.37391">
        <ele>558.55115</ele>
        <time>2023-08-18T19:30:27.901Z</time>
      </trkpt>
      <trkpt lat="44.79349" lon="5.37484">
        <ele>557.553186</ele>
        <time>2023-08-18T19:30:33.311Z</time>
      </trkpt>
      <trkpt lat="44.79369" lon="5.37598">
        <ele>554.35594</ele>
        <time>2023-08-18T19:30:39.692Z</time>
      </trkpt>
      <trkpt lat="44.79382" lon="5.37654">
        <ele>552.738337</ele>
        <time>2023-08-18T19:30:42.957Z</time>
      </trkpt>
      <trkpt lat="44.79396" lon="5.37687">
        <ele>551.717978</ele>
        <time>2023-08-18T19:30:45.049Z</time>
      </trkpt>
      <trkpt lat="44.79411" lon="5.37772">
        <ele>550.162559</ele>
        <time>2023-08-18T19:30:50.107Z</time>
      </trkpt>
      <trkpt lat="44.79413" lon="5.37793">
        <ele>549.936802</ele>
        <time>2023-08-18T19:30:51.381Z</time>
      </trkpt>
      <trkpt lat="44.79411" lon="5.37951">
        <ele>548.262501</ele>
        <time>2023-08-18T19:31:02.303Z</time>
      </trkpt>
      <trkpt lat="44.79414" lon="5.37976">
        <ele>547.990706</ele>
        <time>2023-08-18T19:31:04.749Z</time>
      </trkpt>
      <trkpt lat="44.79419" lon="5.38003">
        <ele>547.644971</ele>
        <time>2023-08-18T19:31:07.381Z</time>
      </trkpt>
      <trkpt lat="44.79453" lon="5.38118">
        <ele>546.095368</ele>
        <time>2023-08-18T19:31:17.408Z</time>
      </trkpt>
      <trkpt lat="44.79465" lon="5.38157">
        <ele>545.560772</ele>
        <time>2023-08-18T19:31:19.931Z</time>
      </trkpt>
      <trkpt lat="44.79496" lon="5.38225">
        <ele>544.075372</ele>
        <time>2023-08-18T19:31:24.337Z</time>
      </trkpt>
      <trkpt lat="44.79507" lon="5.38267">
        <ele>542.6294</ele>
        <time>2023-08-18T19:31:26.684Z</time>
      </trkpt>
      <trkpt lat="44.79515" lon="5.38283">
        <ele>541.9898</ele>
        <time>2023-08-18T19:31:27.722Z</time>
      </trkpt>
      <trkpt lat="44.79522" lon="5.38293">
        <ele>541.516032</ele>
        <time>2023-08-18T19:31:28.499Z</time>
      </trkpt>
      <trkpt lat="44.79534" lon="5.38298">
        <ele>540.940831</ele>
        <time>2023-08-18T19:31:29.416Z</time>
      </trkpt>
      <trkpt lat="44.79538" lon="5.38299">
        <ele>540.779413</ele>
        <time>2023-08-18T19:31:29.675Z</time>
      </trkpt>
      <trkpt lat="44.79547" lon="5.38298">
        <ele>540.358314</ele>
        <time>2023-08-18T19:31:30.359Z</time>
      </trkpt>
      <trkpt lat="44.79599" lon="5.38293">
        <ele>537.964492</ele>
        <time>2023-08-18T19:31:34.301Z</time>
      </trkpt>
      <trkpt lat="44.79648" lon="5.38295">
        <ele>536.854055</ele>
        <time>2023-08-18T19:31:38.210Z</time>
      </trkpt>
      <trkpt lat="44.79697" lon="5.38306">
        <ele>537.387087</ele>
        <time>2023-08-18T19:31:43.048Z</time>
      </trkpt>
      <trkpt lat="44.79744" lon="5.3833">
        <ele>537.921961</ele>
        <time>2023-08-18T19:31:52.467Z</time>
      </trkpt>
      <trkpt lat="44.79775" lon="5.38323">
        <ele>538.266109</ele>
        <time>2023-08-18T19:32:00.127Z</time>
      </trkpt>
      <trkpt lat="44.79829" lon="5.38344">
        <ele>539.715834</ele>
        <time>2023-08-18T19:32:14.467Z</time>
      </trkpt>
      <trkpt lat="44.79848" lon="5.38355">
        <ele>540.574444</ele>
        <time>2023-08-18T19:32:19.881Z</time>
      </trkpt>
      <trkpt lat="44.79876" lon="5.38383">
        <ele>542.040063</ele>
        <time>2023-08-18T19:32:29.020Z</time>
      </trkpt>
      <trkpt lat="44.799" lon="5.3841">
        <ele>543.326337</ele>
        <time>2023-08-18T19:32:36.879Z</time>
      </trkpt>
      <trkpt lat="44.79914" lon="5.38432">
        <ele>544.196835</ele>
        <time>2023-08-18T19:32:41.981Z</time>
      </trkpt>
      <trkpt lat="44.79922" lon="5.38456">
        <ele>545.002383</ele>
        <time>2023-08-18T19:32:46.639Z</time>
      </trkpt>
      <trkpt lat="44.79932" lon="5.38475">
        <ele>545.708945</ele>
        <time>2023-08-18T19:32:50.545Z</time>
      </trkpt>
      <trkpt lat="44.80068" lon="5.38627">
        <ele>553.740649</ele>
        <time>2023-08-18T19:33:34.955Z</time>
      </trkpt>
      <trkpt lat="44.8011" lon="5.38665">
        <ele>556.109372</ele>
        <time>2023-08-18T19:33:52.148Z</time>
      </trkpt>
      <trkpt lat="44.80139" lon="5.38685">
        <ele>557.663927</ele>
        <time>2023-08-18T19:34:01.564Z</time>
      </trkpt>
      <trkpt lat="44.80166" lon="5.38691">
        <ele>558.971894</ele>
        <time>2023-08-18T19:34:09.260Z</time>
      </trkpt>
      <trkpt lat="44.80194" lon="5.38689">
        <ele>560.310676</ele>
        <time>2023-08-18T19:34:16.223Z</time>
      </trkpt>
      <trkpt lat="44.80216" lon="5.38685">
        <ele>561.400648</ele>
        <time>2023-08-18T19:34:21.714Z</time>
      </trkpt>
      <trkpt lat="44.8023" lon="5.38688">
        <ele>562.036144</ele>
        <time>2023-08-18T19:34:25.179Z</time>
      </trkpt>
      <trkpt lat="44.80236" lon="5.38694">
        <ele>562.390982</ele>
        <time>2023-08-18T19:34:27.203Z</time>
      </trkpt>
      <trkpt lat="44.80236" lon="5.38713">
        <ele>563.047808</ele>
        <time>2023-08-18T19:34:30.074Z</time>
      </trkpt>
      <trkpt lat="44.80221" lon="5.38755">
        <ele>563.982991</ele>
        <time>2023-08-18T19:34:38.235Z</time>
      </trkpt>
      <trkpt lat="44.80218" lon="5.3877">
        <ele>564.264861</ele>
        <time>2023-08-18T19:34:40.877Z</time>
      </trkpt>
      <trkpt lat="44.80218" lon="5.38787">
        <ele>564.593104</ele>
        <time>2023-08-18T19:34:44.136Z</time>
      </trkpt>
      <trkpt lat="44.80225" lon="5.38822">
        <ele>565.258478</ele>
        <time>2023-08-18T19:34:49.402Z</time>
      </trkpt>
      <trkpt lat="44.80261" lon="5.38887">
        <ele>566.789882</ele>
        <time>2023-08-18T19:34:59.961Z</time>
      </trkpt>
      <trkpt lat="44.80276" lon="5.38928">
        <ele>567.62973</ele>
        <time>2023-08-18T19:35:04.270Z</time>
      </trkpt>
      <trkpt lat="44.80285" lon="5.38945">
        <ele>568.191531</ele>
        <time>2023-08-18T19:35:06.620Z</time>
      </trkpt>
      <trkpt lat="44.80313" lon="5.38972">
        <ele>570.078389</ele>
        <time>2023-08-18T19:35:13.399Z</time>
      </trkpt>
      <trkpt lat="44.8032" lon="5.38983">
        <ele>570.695465</ele>
        <time>2023-08-18T19:35:15.877Z</time>
      </trkpt>
      <trkpt lat="44.80333" lon="5.39026">
        <ele>572.545422</ele>
        <time>2023-08-18T19:35:24.380Z</time>
      </trkpt>
      <trkpt lat="44.80361" lon="5.39069">
        <ele>574.847382</ele>
        <time>2023-08-18T19:35:37.141Z</time>
      </trkpt>
      <trkpt lat="44.80384" lon="5.39099">
        <ele>576.609893</ele>
        <time>2023-08-18T19:35:48.482Z</time>
      </trkpt>
      <trkpt lat="44.80405" lon="5.39112">
        <ele>577.89649</ele>
        <time>2023-08-18T19:35:57.871Z</time>
      </trkpt>
      <trkpt lat="44.80445" lon="5.39115">
        <ele>581.95762</ele>
        <time>2023-08-18T19:36:16.621Z</time>
      </trkpt>
      <trkpt lat="44.80497" lon="5.39115">
        <ele>587.140848</ele>
        <time>2023-08-18T19:36:42.962Z</time>
      </trkpt>
      <trkpt lat="44.80512" lon="5.39111">
        <ele>588.741017</ele>
        <time>2023-08-18T19:36:50.879Z</time>
      </trkpt>
      <trkpt lat="44.80534" lon="5.391">
        <ele>591.084968</ele>
        <time>2023-08-18T19:37:02.477Z</time>
      </trkpt>
      <trkpt lat="44.80593" lon="5.39064">
        <ele>596.484716</ele>
        <time>2023-08-18T19:37:29.263Z</time>
      </trkpt>
      <trkpt lat="44.80628" lon="5.39046">
        <ele>597.293619</ele>
        <time>2023-08-18T19:37:39.526Z</time>
      </trkpt>
      <trkpt lat="44.80646" lon="5.39042">
        <ele>597.68242</ele>
        <time>2023-08-18T19:37:43.173Z</time>
      </trkpt>
      <trkpt lat="44.80652" lon="5.39046">
        <ele>597.82652</ele>
        <time>2023-08-18T19:37:44.553Z</time>
      </trkpt>
      <trkpt lat="44.80656" lon="5.39056">
        <ele>598.010839</ele>
        <time>2023-08-18T19:37:46.256Z</time>
      </trkpt>
      <trkpt lat="44.80658" lon="5.39071">
        <ele>598.250335</ele>
        <time>2023-08-18T19:37:47.987Z</time>
      </trkpt>
      <trkpt lat="44.80643" lon="5.39116">
        <ele>599.002522</ele>
        <time>2023-08-18T19:37:52.379Z</time>
      </trkpt>
      <trkpt lat="44.80641" lon="5.3913">
        <ele>599.228909</ele>
        <time>2023-08-18T19:37:53.367Z</time>
      </trkpt>
      <trkpt lat="44.8065" lon="5.39201">
        <ele>600.116723</ele>
        <time>2023-08-18T19:37:57.866Z</time>
      </trkpt>
      <trkpt lat="44.80656" lon="5.39222">
        <ele>600.142864</ele>
        <time>2023-08-18T19:37:59.123Z</time>
      </trkpt>
      <trkpt lat="44.80683" lon="5.39287">
        <ele>600.235046</ele>
        <time>2023-08-18T19:38:03.551Z</time>
      </trkpt>
      <trkpt lat="44.80688" lon="5.39296">
        <ele>600.248267</ele>
        <time>2023-08-18T19:38:04.287Z</time>
      </trkpt>
      <trkpt lat="44.807" lon="5.39307">
        <ele>600.272383</ele>
        <time>2023-08-18T19:38:05.693Z</time>
      </trkpt>
      <trkpt lat="44.80739" lon="5.39309">
        <ele>600.338341</ele>
        <time>2023-08-18T19:38:11.259Z</time>
      </trkpt>
      <trkpt lat="44.80759" lon="5.39314">
        <ele>600.373393</ele>
        <time>2023-08-18T19:38:15.646Z</time>
      </trkpt>
      <trkpt lat="44.80824" lon="5.39357">
        <ele>604.353401</ele>
        <time>2023-08-18T19:38:37.857Z</time>
      </trkpt>
      <trkpt lat="44.80882" lon="5.39359">
        <ele>608.497349</ele>
        <time>2023-08-18T19:38:59.320Z</time>
      </trkpt>
      <trkpt lat="44.80959" lon="5.39382">
        <ele>614.490411</ele>
        <time>2023-08-18T19:39:30.073Z</time>
      </trkpt>
      <trkpt lat="44.81062" lon="5.39386">
        <ele>624.906106</ele>
        <time>2023-08-18T19:40:12.017Z</time>
      </trkpt>
      <trkpt lat="44.8116" lon="5.39439">
        <ele>635.840573</ele>
        <time>2023-08-18T19:41:05.489Z</time>
      </trkpt>
      <trkpt lat="44.81182" lon="5.39444">
        <ele>638.231949</ele>
        <time>2023-08-18T19:41:16.941Z</time>
      </trkpt>
      <trkpt lat="44.81201" lon="5.39439">
        <ele>640.37622</ele>
        <time>2023-08-18T19:41:27.149Z</time>
      </trkpt>
      <trkpt lat="44.81217" lon="5.39426">
        <ele>642.332337</ele>
        <time>2023-08-18T19:41:36.193Z</time>
      </trkpt>
      <trkpt lat="44.81226" lon="5.39406">
        <ele>644.220502</ele>
        <time>2023-08-18T19:41:44.958Z</time>
      </trkpt>
      <trkpt lat="44.81238" lon="5.39357">
        <ele>648.19679</ele>
        <time>2023-08-18T19:42:01.848Z</time>
      </trkpt>
      <trkpt lat="44.81249" lon="5.39328">
        <ele>650.728326</ele>
        <time>2023-08-18T19:42:11.262Z</time>
      </trkpt>
      <trkpt lat="44.81318" lon="5.39231">
        <ele>655.498973</ele>
        <time>2023-08-18T19:42:41.228Z</time>
      </trkpt>
      <trkpt lat="44.81332" lon="5.39223">
        <ele>656.187454</ele>
        <time>2023-08-18T19:42:44.144Z</time>
      </trkpt>
      <trkpt lat="44.81342" lon="5.39222">
        <ele>656.668575</ele>
        <time>2023-08-18T19:42:46.487Z</time>
      </trkpt>
      <trkpt lat="44.81351" lon="5.39229">
        <ele>657.175153</ele>
        <time>2023-08-18T19:42:48.945Z</time>
      </trkpt>
      <trkpt lat="44.81372" lon="5.39267">
        <ele>658.758109</ele>
        <time>2023-08-18T19:42:54.678Z</time>
      </trkpt>
      <trkpt lat="44.8138" lon="5.39273">
        <ele>659.197673</ele>
        <time>2023-08-18T19:42:55.993Z</time>
      </trkpt>
      <trkpt lat="44.81389" lon="5.39274">
        <ele>659.594656</ele>
        <time>2023-08-18T19:42:57.162Z</time>
      </trkpt>
      <trkpt lat="44.81584" lon="5.39235">
        <ele>666.156908</ele>
        <time>2023-08-18T19:43:40.392Z</time>
      </trkpt>
      <trkpt lat="44.81628" lon="5.39238">
        <ele>668.543172</ele>
        <time>2023-08-18T19:43:53.453Z</time>
      </trkpt>
      <trkpt lat="44.81728" lon="5.39259">
        <ele>673.982396</ele>
        <time>2023-08-18T19:44:22.845Z</time>
      </trkpt>
      <trkpt lat="44.81824" lon="5.39276">
        <ele>681.221408</ele>
        <time>2023-08-18T19:44:57.899Z</time>
      </trkpt>
      <trkpt lat="44.81859" lon="5.39275">
        <ele>683.984219</ele>
        <time>2023-08-18T19:45:12.564Z</time>
      </trkpt>
      <trkpt lat="44.81876" lon="5.39269">
        <ele>685.362165</ele>
        <time>2023-08-18T19:45:18.808Z</time>
      </trkpt>
      <trkpt lat="44.81892" lon="5.39259">
        <ele>686.707597</ele>
        <time>2023-08-18T19:45:24.788Z</time>
      </trkpt>
      <trkpt lat="44.81957" lon="5.39196">
        <ele>692.938983</ele>
        <time>2023-08-18T19:45:54.991Z</time>
      </trkpt>
      <trkpt lat="44.81966" lon="5.39192">
        <ele>693.687056</ele>
        <time>2023-08-18T19:45:59.132Z</time>
      </trkpt>
      <trkpt lat="44.81975" lon="5.39193">
        <ele>694.423971</ele>
        <time>2023-08-18T19:46:03.462Z</time>
      </trkpt>
      <trkpt lat="44.81981" lon="5.392">
        <ele>695.050066</ele>
        <time>2023-08-18T19:46:06.986Z</time>
      </trkpt>
      <trkpt lat="44.82" lon="5.3924">
        <ele>697.73042</ele>
        <time>2023-08-18T19:46:21.740Z</time>
      </trkpt>
      <trkpt lat="44.8201" lon="5.39254">
        <ele>698.793271</ele>
        <time>2023-08-18T19:46:27.003Z</time>
      </trkpt>
      <trkpt lat="44.82049" lon="5.39283">
        <ele>702.323114</ele>
        <time>2023-08-18T19:46:43.123Z</time>
      </trkpt>
      <trkpt lat="44.8206" lon="5.39295">
        <ele>703.269047</ele>
        <time>2023-08-18T19:46:47.211Z</time>
      </trkpt>
      <trkpt lat="44.82066" lon="5.39307">
        <ele>703.662454</ele>
        <time>2023-08-18T19:46:49.614Z</time>
      </trkpt>
      <trkpt lat="44.82074" lon="5.39327">
        <ele>704.263347</ele>
        <time>2023-08-18T19:46:53.452Z</time>
      </trkpt>
      <trkpt lat="44.82082" lon="5.39357">
        <ele>705.09201</ele>
        <time>2023-08-18T19:46:56.946Z</time>
      </trkpt>
      <trkpt lat="44.82084" lon="5.39377">
        <ele>705.635826</ele>
        <time>2023-08-18T19:46:59.436Z</time>
      </trkpt>
      <trkpt lat="44.82078" lon="5.39413">
        <ele>706.623187</ele>
        <time>2023-08-18T19:47:04.313Z</time>
      </trkpt>
      <trkpt lat="44.82066" lon="5.39432">
        <ele>707.281403</ele>
        <time>2023-08-18T19:47:08.837Z</time>
      </trkpt>
      <trkpt lat="44.82039" lon="5.39456">
        <ele>708.446056</ele>
        <time>2023-08-18T19:47:16.449Z</time>
      </trkpt>
      <trkpt lat="44.82024" lon="5.3948">
        <ele>709.308532</ele>
        <time>2023-08-18T19:47:22.171Z</time>
      </trkpt>
      <trkpt lat="44.82018" lon="5.39502">
        <ele>709.941458</ele>
        <time>2023-08-18T19:47:26.494Z</time>
      </trkpt>
      <trkpt lat="44.82018" lon="5.39512">
        <ele>710.283259</ele>
        <time>2023-08-18T19:47:28.263Z</time>
      </trkpt>
      <trkpt lat="44.82026" lon="5.39534">
        <ele>711.119747</ele>
        <time>2023-08-18T19:47:32.649Z</time>
      </trkpt>
      <trkpt lat="44.82053" lon="5.39555">
        <ele>712.566495</ele>
        <time>2023-08-18T19:47:39.927Z</time>
      </trkpt>
      <trkpt lat="44.82065" lon="5.3956">
        <ele>713.152109</ele>
        <time>2023-08-18T19:47:42.930Z</time>
      </trkpt>
      <trkpt lat="44.82086" lon="5.39562">
        <ele>714.151545</ele>
        <time>2023-08-18T19:47:47.827Z</time>
      </trkpt>
      <trkpt lat="44.82113" lon="5.39552">
        <ele>715.470041</ele>
        <time>2023-08-18T19:47:54.789Z</time>
      </trkpt>
      <trkpt lat="44.82153" lon="5.39524">
        <ele>717.593822</ele>
        <time>2023-08-18T19:48:07.718Z</time>
      </trkpt>
      <trkpt lat="44.82187" lon="5.39506">
        <ele>719.611852</ele>
        <time>2023-08-18T19:48:20.205Z</time>
      </trkpt>
      <trkpt lat="44.82207" lon="5.39496">
        <ele>720.904385</ele>
        <time>2023-08-18T19:48:28.049Z</time>
      </trkpt>
      <trkpt lat="44.82262" lon="5.395">
        <ele>724.280041</ele>
        <time>2023-08-18T19:48:47.270Z</time>
      </trkpt>
      <trkpt lat="44.82399" lon="5.39544">
        <ele>732.466608</ele>
        <time>2023-08-18T19:49:27.366Z</time>
      </trkpt>
      <trkpt lat="44.82405" lon="5.39539">
        <ele>732.821041</ele>
        <time>2023-08-18T19:49:29.272Z</time>
      </trkpt>
      <trkpt lat="44.82406" lon="5.39532">
        <ele>733.082723</ele>
        <time>2023-08-18T19:49:30.733Z</time>
      </trkpt>
      <trkpt lat="44.82399" lon="5.39522">
        <ele>733.606367</ele>
        <time>2023-08-18T19:49:33.696Z</time>
      </trkpt>
      <trkpt lat="44.82376" lon="5.3952">
        <ele>734.870158</ele>
        <time>2023-08-18T19:49:40.827Z</time>
      </trkpt>
      <trkpt lat="44.82345" lon="5.3951">
        <ele>736.539538</ele>
        <time>2023-08-18T19:49:50.216Z</time>
      </trkpt>
      <trkpt lat="44.82309" lon="5.3949">
        <ele>738.669407</ele>
        <time>2023-08-18T19:50:01.744Z</time>
      </trkpt>
      <trkpt lat="44.8228" lon="5.3947">
        <ele>740.125732</ele>
        <time>2023-08-18T19:50:10.775Z</time>
      </trkpt>
      <trkpt lat="44.82247" lon="5.39443">
        <ele>741.778321</ele>
        <time>2023-08-18T19:50:21.005Z</time>
      </trkpt>
      <trkpt lat="44.822" lon="5.39386">
        <ele>744.459485</ele>
        <time>2023-08-18T19:50:36.749Z</time>
      </trkpt>
      <trkpt lat="44.8219" lon="5.39365">
        <ele>745.227947</ele>
        <time>2023-08-18T19:50:41.072Z</time>
      </trkpt>
      <trkpt lat="44.82165" lon="5.39254">
        <ele>748.752342</ele>
        <time>2023-08-18T19:51:00.232Z</time>
      </trkpt>
      <trkpt lat="44.82141" lon="5.39191">
        <ele>750.854857</ele>
        <time>2023-08-18T19:51:11.897Z</time>
      </trkpt>
      <trkpt lat="44.82143" lon="5.39182">
        <ele>751.130721</ele>
        <time>2023-08-18T19:51:13.478Z</time>
      </trkpt>
      <trkpt lat="44.82149" lon="5.39178">
        <ele>751.388118</ele>
        <time>2023-08-18T19:51:14.978Z</time>
      </trkpt>
      <trkpt lat="44.82154" lon="5.39181">
        <ele>751.634092</ele>
        <time>2023-08-18T19:51:16.422Z</time>
      </trkpt>
      <trkpt lat="44.82158" lon="5.39189">
        <ele>751.920499</ele>
        <time>2023-08-18T19:51:18.169Z</time>
      </trkpt>
      <trkpt lat="44.82172" lon="5.39237">
        <ele>753.445024</ele>
        <time>2023-08-18T19:51:28.202Z</time>
      </trkpt>
      <trkpt lat="44.8218" lon="5.3926">
        <ele>754.221165</ele>
        <time>2023-08-18T19:51:33.645Z</time>
      </trkpt>
      <trkpt lat="44.82207" lon="5.3932">
        <ele>756.748715</ele>
        <time>2023-08-18T19:51:48.701Z</time>
      </trkpt>
      <trkpt lat="44.82217" lon="5.39338">
        <ele>757.571809</ele>
        <time>2023-08-18T19:51:53.655Z</time>
      </trkpt>
      <trkpt lat="44.82228" lon="5.3935">
        <ele>758.268785</ele>
        <time>2023-08-18T19:51:57.755Z</time>
      </trkpt>
      <trkpt lat="44.82262" lon="5.39377">
        <ele>760.273234</ele>
        <time>2023-08-18T19:52:09.331Z</time>
      </trkpt>
      <trkpt lat="44.8229" lon="5.39409">
        <ele>762.069576</ele>
        <time>2023-08-18T19:52:19.094Z</time>
      </trkpt>
      <trkpt lat="44.82306" lon="5.39421">
        <ele>763.019166</ele>
        <time>2023-08-18T19:52:23.887Z</time>
      </trkpt>
      <trkpt lat="44.82344" lon="5.39436">
        <ele>765.225331</ele>
        <time>2023-08-18T19:52:33.152Z</time>
      </trkpt>
      <trkpt lat="44.82408" lon="5.39448">
        <ele>768.977451</ele>
        <time>2023-08-18T19:52:49.314Z</time>
      </trkpt>
      <trkpt lat="44.8242" lon="5.39455">
        <ele>769.751564</ele>
        <time>2023-08-18T19:52:52.979Z</time>
      </trkpt>
      <trkpt lat="44.82452" lon="5.39481">
        <ele>771.923846</ele>
        <time>2023-08-18T19:53:05.238Z</time>
      </trkpt>
      <trkpt lat="44.82489" lon="5.39497">
        <ele>774.468122</ele>
        <time>2023-08-18T19:53:20.038Z</time>
      </trkpt>
      <trkpt lat="44.82507" lon="5.39501">
        <ele>776.588031</ele>
        <time>2023-08-18T19:53:27.712Z</time>
      </trkpt>
      <trkpt lat="44.82524" lon="5.39502">
        <ele>778.686762</ele>
        <time>2023-08-18T19:53:35.211Z</time>
      </trkpt>
      <trkpt lat="44.82561" lon="5.39497">
        <ele>783.142707</ele>
        <time>2023-08-18T19:53:53.427Z</time>
      </trkpt>
      <trkpt lat="44.82588" lon="5.39506">
        <ele>786.477007</ele>
        <time>2023-08-18T19:54:08.573Z</time>
      </trkpt>
      <trkpt lat="44.82677" lon="5.39517">
        <ele>796.53727</ele>
        <time>2023-08-18T19:55:00.285Z</time>
      </trkpt>
      <trkpt lat="44.82701" lon="5.39531">
        <ele>798.356687</ele>
        <time>2023-08-18T19:55:14.239Z</time>
      </trkpt>
      <trkpt lat="44.82721" lon="5.39549">
        <ele>800.010067</ele>
        <time>2023-08-18T19:55:25.170Z</time>
      </trkpt>
      <trkpt lat="44.82725" lon="5.39572">
        <ele>801.165807</ele>
        <time>2023-08-18T19:55:31.578Z</time>
      </trkpt>
      <trkpt lat="44.82723" lon="5.39582">
        <ele>801.704261</ele>
        <time>2023-08-18T19:55:34.222Z</time>
      </trkpt>
      <trkpt lat="44.82718" lon="5.39593">
        <ele>802.364577</ele>
        <time>2023-08-18T19:55:37.322Z</time>
      </trkpt>
      <trkpt lat="44.82708" lon="5.39606">
        <ele>803.316193</ele>
        <time>2023-08-18T19:55:41.094Z</time>
      </trkpt>
      <trkpt lat="44.82664" lon="5.39645">
        <ele>806.92447</ele>
        <time>2023-08-18T19:55:51.118Z</time>
      </trkpt>
      <trkpt lat="44.8265" lon="5.39663">
        <ele>808.177446</ele>
        <time>2023-08-18T19:55:53.563Z</time>
      </trkpt>
      <trkpt lat="44.82634" lon="5.39684">
        <ele>808.883175</ele>
        <time>2023-08-18T19:55:56.538Z</time>
      </trkpt>
      <trkpt lat="44.8261" lon="5.39728">
        <ele>810.150485</ele>
        <time>2023-08-18T19:56:02.022Z</time>
      </trkpt>
      <trkpt lat="44.82602" lon="5.39737">
        <ele>810.495098</ele>
        <time>2023-08-18T19:56:03.500Z</time>
      </trkpt>
      <trkpt lat="44.82564" lon="5.3976">
        <ele>811.849362</ele>
        <time>2023-08-18T19:56:12.077Z</time>
      </trkpt>
      <trkpt lat="44.82558" lon="5.39767">
        <ele>812.103828</ele>
        <time>2023-08-18T19:56:14.042Z</time>
      </trkpt>
      <trkpt lat="44.82557" lon="5.39777">
        <ele>812.31801</ele>
        <time>2023-08-18T19:56:15.700Z</time>
      </trkpt>
      <trkpt lat="44.82562" lon="5.39789">
        <ele>812.649446</ele>
        <time>2023-08-18T19:56:18.006Z</time>
      </trkpt>
      <trkpt lat="44.82569" lon="5.39789">
        <ele>812.857852</ele>
        <time>2023-08-18T19:56:19.669Z</time>
      </trkpt>
      <trkpt lat="44.82593" lon="5.39761">
        <ele>813.869772</ele>
        <time>2023-08-18T19:56:28.671Z</time>
      </trkpt>
      <trkpt lat="44.82616" lon="5.39744">
        <ele>815.823606</ele>
        <time>2023-08-18T19:56:37.861Z</time>
      </trkpt>
      <trkpt lat="44.82653" lon="5.39695">
        <ele>819.963947</ele>
        <time>2023-08-18T19:56:59.689Z</time>
      </trkpt>
      <trkpt lat="44.82726" lon="5.39641">
        <ele>826.66675</ele>
        <time>2023-08-18T19:57:38.186Z</time>
      </trkpt>
      <trkpt lat="44.82801" lon="5.39571">
        <ele>828.743413</ele>
        <time>2023-08-18T19:58:00.020Z</time>
      </trkpt>
      <trkpt lat="44.82807" lon="5.39563">
        <ele>828.75996</ele>
        <time>2023-08-18T19:58:00.870Z</time>
      </trkpt>
      <trkpt lat="44.8281" lon="5.39554">
        <ele>828.775131</ele>
        <time>2023-08-18T19:58:01.481Z</time>
      </trkpt>
      <trkpt lat="44.82808" lon="5.39533">
        <ele>828.806679</ele>
        <time>2023-08-18T19:58:02.788Z</time>
      </trkpt>
      <trkpt lat="44.82803" lon="5.39524">
        <ele>828.824045</ele>
        <time>2023-08-18T19:58:03.666Z</time>
      </trkpt>
      <trkpt lat="44.8276" lon="5.39489">
        <ele>828.927374</ele>
        <time>2023-08-18T19:58:07.576Z</time>
      </trkpt>
      <trkpt lat="44.82741" lon="5.39482">
        <ele>828.969764</ele>
        <time>2023-08-18T19:58:09.181Z</time>
      </trkpt>
      <trkpt lat="44.82699" lon="5.39474">
        <ele>829.218479</ele>
        <time>2023-08-18T19:58:12.551Z</time>
      </trkpt>
      <trkpt lat="44.8269" lon="5.3947">
        <ele>829.28069</ele>
        <time>2023-08-18T19:58:13.297Z</time>
      </trkpt>
      <trkpt lat="44.82671" lon="5.39453">
        <ele>829.428947</ele>
        <time>2023-08-18T19:58:15.244Z</time>
      </trkpt>
      <trkpt lat="44.82649" lon="5.39449">
        <ele>829.571285</ele>
        <time>2023-08-18T19:58:17.501Z</time>
      </trkpt>
      <trkpt lat="44.82611" lon="5.39449">
        <ele>829.816785</ele>
        <time>2023-08-18T19:58:23.636Z</time>
      </trkpt>
      <trkpt lat="44.82595" lon="5.39443">
        <ele>829.925715</ele>
        <time>2023-08-18T19:58:27.348Z</time>
      </trkpt>
      <trkpt lat="44.82517" lon="5.3938">
        <ele>834.005146</ele>
        <time>2023-08-18T19:58:55.404Z</time>
      </trkpt>
      <trkpt lat="44.82465" lon="5.39311">
        <ele>838.916958</ele>
        <time>2023-08-18T19:59:22.193Z</time>
      </trkpt>
      <trkpt lat="44.82455" lon="5.39301">
        <ele>839.804609</ele>
        <time>2023-08-18T19:59:26.980Z</time>
      </trkpt>
      <trkpt lat="44.82424" lon="5.39281">
        <ele>842.207156</ele>
        <time>2023-08-18T19:59:39.544Z</time>
      </trkpt>
      <trkpt lat="44.82398" lon="5.39254">
        <ele>844.158053</ele>
        <time>2023-08-18T19:59:50.237Z</time>
      </trkpt>
      <trkpt lat="44.82387" lon="5.39235">
        <ele>845.195187</ele>
        <time>2023-08-18T19:59:55.735Z</time>
      </trkpt>
      <trkpt lat="44.82366" lon="5.39181">
        <ele>847.767821</ele>
        <time>2023-08-18T20:00:09.268Z</time>
      </trkpt>
      <trkpt lat="44.82318" lon="5.39099">
        <ele>852.251258</ele>
        <time>2023-08-18T20:00:31.454Z</time>
      </trkpt>
      <trkpt lat="44.82307" lon="5.39075">
        <ele>853.452211</ele>
        <time>2023-08-18T20:00:37.154Z</time>
      </trkpt>
      <trkpt lat="44.82299" lon="5.3905">
        <ele>854.43949</ele>
        <time>2023-08-18T20:00:42.707Z</time>
      </trkpt>
      <trkpt lat="44.82296" lon="5.39032">
        <ele>855.119587</ele>
        <time>2023-08-18T20:00:46.350Z</time>
      </trkpt>
      <trkpt lat="44.82295" lon="5.39013">
        <ele>855.792037</ele>
        <time>2023-08-18T20:00:50.020Z</time>
      </trkpt>
      <trkpt lat="44.82298" lon="5.38995">
        <ele>856.469938</ele>
        <time>2023-08-18T20:00:53.662Z</time>
      </trkpt>
      <trkpt lat="44.82318" lon="5.38945">
        <ele>858.537913</ele>
        <time>2023-08-18T20:01:04.933Z</time>
      </trkpt>
      <trkpt lat="44.82326" lon="5.38912">
        <ele>859.835596</ele>
        <time>2023-08-18T20:01:12.377Z</time>
      </trkpt>
      <trkpt lat="44.82327" lon="5.38893">
        <ele>860.520368</ele>
        <time>2023-08-18T20:01:16.320Z</time>
      </trkpt>
      <trkpt lat="44.82325" lon="5.38872">
        <ele>861.27365</ele>
        <time>2023-08-18T20:01:20.594Z</time>
      </trkpt>
      <trkpt lat="44.82306" lon="5.38804">
        <ele>863.749735</ele>
        <time>2023-08-18T20:01:35.317Z</time>
      </trkpt>
      <trkpt lat="44.82308" lon="5.38797">
        <ele>863.980992</ele>
        <time>2023-08-18T20:01:36.684Z</time>
      </trkpt>
      <trkpt lat="44.82316" lon="5.38792">
        <ele>864.348706</ele>
        <time>2023-08-18T20:01:38.892Z</time>
      </trkpt>
      <trkpt lat="44.82323" lon="5.38799">
        <ele>864.735084</ele>
        <time>2023-08-18T20:01:41.013Z</time>
      </trkpt>
      <trkpt lat="44.82325" lon="5.38832">
        <ele>865.777381</ele>
        <time>2023-08-18T20:01:46.815Z</time>
      </trkpt>
      <trkpt lat="44.82336" lon="5.38884">
        <ele>867.496749</ele>
        <time>2023-08-18T20:01:56.246Z</time>
      </trkpt>
      <trkpt lat="44.82338" lon="5.38903">
        <ele>868.083584</ele>
        <time>2023-08-18T20:01:59.382Z</time>
      </trkpt>
      <trkpt lat="44.82338" lon="5.38921">
        <ele>868.641975</ele>
        <time>2023-08-18T20:02:02.602Z</time>
      </trkpt>
      <trkpt lat="44.82327" lon="5.38971">
        <ele>870.292369</ele>
        <time>2023-08-18T20:02:12.366Z</time>
      </trkpt>
      <trkpt lat="44.82325" lon="5.38997">
        <ele>871.159721</ele>
        <time>2023-08-18T20:02:17.324Z</time>
      </trkpt>
      <trkpt lat="44.82329" lon="5.39023">
        <ele>872.060694</ele>
        <time>2023-08-18T20:02:22.521Z</time>
      </trkpt>
      <trkpt lat="44.8234" lon="5.39048">
        <ele>873.051734</ele>
        <time>2023-08-18T20:02:28.157Z</time>
      </trkpt>
      <trkpt lat="44.82361" lon="5.39077">
        <ele>874.468063</ele>
        <time>2023-08-18T20:02:36.216Z</time>
      </trkpt>
      <trkpt lat="44.82413" lon="5.39135">
        <ele>877.672035</ele>
        <time>2023-08-18T20:02:54.197Z</time>
      </trkpt>
      <trkpt lat="44.8243" lon="5.39168">
        <ele>879.050073</ele>
        <time>2023-08-18T20:03:01.987Z</time>
      </trkpt>
      <trkpt lat="44.82444" lon="5.39187">
        <ele>880.243137</ele>
        <time>2023-08-18T20:03:07.335Z</time>
      </trkpt>
      <trkpt lat="44.82464" lon="5.39204">
        <ele>881.780208</ele>
        <time>2023-08-18T20:03:14.264Z</time>
      </trkpt>
      <trkpt lat="44.82508" lon="5.39223">
        <ele>884.791399</ele>
        <time>2023-08-18T20:03:28.332Z</time>
      </trkpt>
      <trkpt lat="44.82542" lon="5.39268">
        <ele>887.838169</ele>
        <time>2023-08-18T20:03:44.673Z</time>
      </trkpt>
      <trkpt lat="44.82556" lon="5.39282">
        <ele>888.956348</ele>
        <time>2023-08-18T20:03:51.168Z</time>
      </trkpt>
      <trkpt lat="44.82633" lon="5.39336">
        <ele>894.933783</ele>
        <time>2023-08-18T20:04:22.997Z</time>
      </trkpt>
      <trkpt lat="44.82644" lon="5.39337">
        <ele>895.698992</ele>
        <time>2023-08-18T20:04:26.810Z</time>
      </trkpt>
      <trkpt lat="44.82656" lon="5.39332">
        <ele>896.59834</ele>
        <time>2023-08-18T20:04:30.925Z</time>
      </trkpt>
      <trkpt lat="44.82679" lon="5.39309">
        <ele>898.58941</ele>
        <time>2023-08-18T20:04:40.614Z</time>
      </trkpt>
      <trkpt lat="44.82695" lon="5.39305">
        <ele>899.751143</ele>
        <time>2023-08-18T20:04:45.925Z</time>
      </trkpt>
      <trkpt lat="44.82713" lon="5.3931">
        <ele>901.087912</ele>
        <time>2023-08-18T20:04:52.692Z</time>
      </trkpt>
      <trkpt lat="44.82755" lon="5.39346">
        <ele>904.353683</ele>
        <time>2023-08-18T20:05:09.108Z</time>
      </trkpt>
      <trkpt lat="44.8279" lon="5.39357">
        <ele>906.168238</ele>
        <time>2023-08-18T20:05:20.482Z</time>
      </trkpt>
      <trkpt lat="44.82813" lon="5.39371">
        <ele>907.47143</ele>
        <time>2023-08-18T20:05:27.877Z</time>
      </trkpt>
      <trkpt lat="44.82872" lon="5.39369">
        <ele>910.494559</ele>
        <time>2023-08-18T20:05:42.271Z</time>
      </trkpt>
      <trkpt lat="44.82906" lon="5.39389">
        <ele>912.398567</ele>
        <time>2023-08-18T20:05:51.307Z</time>
      </trkpt>
      <trkpt lat="44.82947" lon="5.39388">
        <ele>915.266888</ele>
        <time>2023-08-18T20:06:02.225Z</time>
      </trkpt>
      <trkpt lat="44.83033" lon="5.39409">
        <ele>922.020221</ele>
        <time>2023-08-18T20:06:32.148Z</time>
      </trkpt>
      <trkpt lat="44.83055" lon="5.39419">
        <ele>923.825378</ele>
        <time>2023-08-18T20:06:41.689Z</time>
      </trkpt>
      <trkpt lat="44.83086" lon="5.39439">
        <ele>926.424963</ele>
        <time>2023-08-18T20:06:56.679Z</time>
      </trkpt>
      <trkpt lat="44.83105" lon="5.39446">
        <ele>928.580153</ele>
        <time>2023-08-18T20:07:06.112Z</time>
      </trkpt>
      <trkpt lat="44.83212" lon="5.39472">
        <ele>941.864846</ele>
        <time>2023-08-18T20:08:03.196Z</time>
      </trkpt>
      <trkpt lat="44.83226" lon="5.39487">
        <ele>944.035491</ele>
        <time>2023-08-18T20:08:12.953Z</time>
      </trkpt>
      <trkpt lat="44.83235" lon="5.39512">
        <ele>946.491186</ele>
        <time>2023-08-18T20:08:23.729Z</time>
      </trkpt>
      <trkpt lat="44.83233" lon="5.39537">
        <ele>948.653714</ele>
        <time>2023-08-18T20:08:33.366Z</time>
      </trkpt>
      <trkpt lat="44.83228" lon="5.39549">
        <ele>949.505549</ele>
        <time>2023-08-18T20:08:38.728Z</time>
      </trkpt>
      <trkpt lat="44.8318" lon="5.3962">
        <ele>954.824373</ele>
        <time>2023-08-18T20:09:12.380Z</time>
      </trkpt>
      <trkpt lat="44.83166" lon="5.39637">
        <ele>956.180637</ele>
        <time>2023-08-18T20:09:19.461Z</time>
      </trkpt>
      <trkpt lat="44.83122" lon="5.39667">
        <ele>959.938825</ele>
        <time>2023-08-18T20:09:35.147Z</time>
      </trkpt>
      <trkpt lat="44.83085" lon="5.397">
        <ele>962.671894</ele>
        <time>2023-08-18T20:09:42.756Z</time>
      </trkpt>
      <trkpt lat="44.83056" lon="5.39734">
        <ele>963.226941</ele>
        <time>2023-08-18T20:09:46.530Z</time>
      </trkpt>
      <trkpt lat="44.83026" lon="5.39757">
        <ele>963.718019</ele>
        <time>2023-08-18T20:09:49.631Z</time>
      </trkpt>
      <trkpt lat="44.82965" lon="5.398">
        <ele>964.718618</ele>
        <time>2023-08-18T20:09:59.775Z</time>
      </trkpt>
      <trkpt lat="44.82926" lon="5.39813">
        <ele>965.901847</ele>
        <time>2023-08-18T20:10:09.572Z</time>
      </trkpt>
      <trkpt lat="44.82919" lon="5.39821">
        <ele>966.624476</ele>
        <time>2023-08-18T20:10:12.100Z</time>
      </trkpt>
      <trkpt lat="44.82918" lon="5.39825">
        <ele>966.884907</ele>
        <time>2023-08-18T20:10:13.006Z</time>
      </trkpt>
      <trkpt lat="44.8292" lon="5.39836">
        <ele>967.521453</ele>
        <time>2023-08-18T20:10:15.033Z</time>
      </trkpt>
      <trkpt lat="44.82923" lon="5.39839">
        <ele>967.803327</ele>
        <time>2023-08-18T20:10:15.970Z</time>
      </trkpt>
      <trkpt lat="44.82931" lon="5.39838">
        <ele>968.446143</ele>
        <time>2023-08-18T20:10:18.268Z</time>
      </trkpt>
      <trkpt lat="44.82958" lon="5.39817">
        <ele>970.949686</ele>
        <time>2023-08-18T20:10:27.921Z</time>
      </trkpt>
      <trkpt lat="44.83004" lon="5.39802">
        <ele>974.720777</ele>
        <time>2023-08-18T20:10:46.604Z</time>
      </trkpt>
      <trkpt lat="44.83049" lon="5.39782">
        <ele>978.477585</ele>
        <time>2023-08-18T20:11:09.558Z</time>
      </trkpt>
      <trkpt lat="44.83063" lon="5.39773">
        <ele>979.700784</ele>
        <time>2023-08-18T20:11:17.549Z</time>
      </trkpt>
      <trkpt lat="44.8311" lon="5.39727">
        <ele>983.471156</ele>
        <time>2023-08-18T20:11:46.223Z</time>
      </trkpt>
      <trkpt lat="44.83135" lon="5.39711">
        <ele>985.293793</ele>
        <time>2023-08-18T20:11:56.506Z</time>
      </trkpt>
      <trkpt lat="44.83165" lon="5.39709">
        <ele>987.225599</ele>
        <time>2023-08-18T20:12:04.636Z</time>
      </trkpt>
      <trkpt lat="44.83187" lon="5.39712">
        <ele>988.672923</ele>
        <time>2023-08-18T20:12:09.408Z</time>
      </trkpt>
      <trkpt lat="44.83199" lon="5.39702">
        <ele>989.598741</ele>
        <time>2023-08-18T20:12:12.092Z</time>
      </trkpt>
      <trkpt lat="44.83217" lon="5.3967">
        <ele>991.442472</ele>
        <time>2023-08-18T20:12:16.983Z</time>
      </trkpt>
      <trkpt lat="44.83235" lon="5.39656">
        <ele>991.679519</ele>
        <time>2023-08-18T20:12:20.188Z</time>
      </trkpt>
      <trkpt lat="44.83258" lon="5.39648">
        <ele>991.950133</ele>
        <time>2023-08-18T20:12:24.004Z</time>
      </trkpt>
      <trkpt lat="44.83272" lon="5.3963">
        <ele>992.167716</ele>
        <time>2023-08-18T20:12:26.851Z</time>
      </trkpt>
      <trkpt lat="44.833" lon="5.39572">
        <ele>992.739419</ele>
        <time>2023-08-18T20:12:33.661Z</time>
      </trkpt>
      <trkpt lat="44.83338" lon="5.39528">
        <ele>993.309703</ele>
        <time>2023-08-18T20:12:40.225Z</time>
      </trkpt>
      <trkpt lat="44.83371" lon="5.39473">
        <ele>994.500204</ele>
        <time>2023-08-18T20:12:48.621Z</time>
      </trkpt>
      <trkpt lat="44.83385" lon="5.39441">
        <ele>995.275705</ele>
        <time>2023-08-18T20:12:54.777Z</time>
      </trkpt>
      <trkpt lat="44.83393" lon="5.3939">
        <ele>996.345632</ele>
        <time>2023-08-18T20:13:03.815Z</time>
      </trkpt>
      <trkpt lat="44.83395" lon="5.39367">
        <ele>996.815041</ele>
        <time>2023-08-18T20:13:07.504Z</time>
      </trkpt>
      <trkpt lat="44.83393" lon="5.39347">
        <ele>997.23542</ele>
        <time>2023-08-18T20:13:11.367Z</time>
      </trkpt>
      <trkpt lat="44.83389" lon="5.39332">
        <ele>997.568113</ele>
        <time>2023-08-18T20:13:14.043Z</time>
      </trkpt>
      <trkpt lat="44.83383" lon="5.3932">
        <ele>997.86261</ele>
        <time>2023-08-18T20:13:16.210Z</time>
      </trkpt>
      <trkpt lat="44.83376" lon="5.39314">
        <ele>998.104923</ele>
        <time>2023-08-18T20:13:18.382Z</time>
      </trkpt>
      <trkpt lat="44.83365" lon="5.3931">
        <ele>998.41466</ele>
        <time>2023-08-18T20:13:20.861Z</time>
      </trkpt>
      <trkpt lat="44.83311" lon="5.39303">
        <ele>999.801621</ele>
        <time>2023-08-18T20:13:31.130Z</time>
      </trkpt>
      <trkpt lat="44.83299" lon="5.39299">
        <ele>1000.110912</ele>
        <time>2023-08-18T20:13:33.914Z</time>
      </trkpt>
      <trkpt lat="44.83287" lon="5.3929">
        <ele>1000.440191</ele>
        <time>2023-08-18T20:13:36.320Z</time>
      </trkpt>
      <trkpt lat="44.8327" lon="5.39284">
        <ele>1000.882032</ele>
        <time>2023-08-18T20:13:40.071Z</time>
      </trkpt>
      <trkpt lat="44.83261" lon="5.39286">
        <ele>1001.086034</ele>
        <time>2023-08-18T20:13:41.917Z</time>
      </trkpt>
      <trkpt lat="44.83231" lon="5.39304">
        <ele>1001.908089</ele>
        <time>2023-08-18T20:13:48.181Z</time>
      </trkpt>
      <trkpt lat="44.8321" lon="5.39307">
        <ele>1002.427909</ele>
        <time>2023-08-18T20:13:52.024Z</time>
      </trkpt>
      <trkpt lat="44.83172" lon="5.39289">
        <ele>1003.43064</ele>
        <time>2023-08-18T20:13:59.387Z</time>
      </trkpt>
      <trkpt lat="44.83117" lon="5.39279">
        <ele>1004.952173</ele>
        <time>2023-08-18T20:14:09.979Z</time>
      </trkpt>
      <trkpt lat="44.83102" lon="5.39273">
        <ele>1005.384096</ele>
        <time>2023-08-18T20:14:12.968Z</time>
      </trkpt>
      <trkpt lat="44.83068" lon="5.3925">
        <ele>1006.414733</ele>
        <time>2023-08-18T20:14:20.832Z</time>
      </trkpt>
      <trkpt lat="44.83048" lon="5.3925">
        <ele>1006.962672</ele>
        <time>2023-08-18T20:14:25.445Z</time>
      </trkpt>
      <trkpt lat="44.83027" lon="5.39246">
        <ele>1007.558743</ele>
        <time>2023-08-18T20:14:30.396Z</time>
      </trkpt>
      <trkpt lat="44.82982" lon="5.39214">
        <ele>1009.075955</ele>
        <time>2023-08-18T20:14:41.682Z</time>
      </trkpt>
      <trkpt lat="44.82901" lon="5.39166">
        <ele>1011.933809</ele>
        <time>2023-08-18T20:15:02.018Z</time>
      </trkpt>
      <trkpt lat="44.82879" lon="5.39159">
        <ele>1012.685279</ele>
        <time>2023-08-18T20:15:07.068Z</time>
      </trkpt>
      <trkpt lat="44.82851" lon="5.39159">
        <ele>1013.587905</ele>
        <time>2023-08-18T20:15:13.025Z</time>
      </trkpt>
      <trkpt lat="44.82831" lon="5.39154">
        <ele>1014.190153</ele>
        <time>2023-08-18T20:15:17.071Z</time>
      </trkpt>
      <trkpt lat="44.82787" lon="5.39118">
        <ele>1015.678734</ele>
        <time>2023-08-18T20:15:27.170Z</time>
      </trkpt>
      <trkpt lat="44.82668" lon="5.39052">
        <ele>1019.601775</ele>
        <time>2023-08-18T20:15:54.261Z</time>
      </trkpt>
      <trkpt lat="44.82656" lon="5.39042">
        <ele>1020.337357</ele>
        <time>2023-08-18T20:15:57.301Z</time>
      </trkpt>
      <trkpt lat="44.82645" lon="5.39027">
        <ele>1021.197</ele>
        <time>2023-08-18T20:16:00.742Z</time>
      </trkpt>
      <trkpt lat="44.82626" lon="5.38988">
        <ele>1022.98943</ele>
        <time>2023-08-18T20:16:08.583Z</time>
      </trkpt>
      <trkpt lat="44.82603" lon="5.3893">
        <ele>1025.532259</ele>
        <time>2023-08-18T20:16:22.011Z</time>
      </trkpt>
      <trkpt lat="44.82564" lon="5.38849">
        <ele>1029.585454</ele>
        <time>2023-08-18T20:16:46.772Z</time>
      </trkpt>
      <trkpt lat="44.82553" lon="5.38814">
        <ele>1032.026491</ele>
        <time>2023-08-18T20:16:58.028Z</time>
      </trkpt>
      <trkpt lat="44.82553" lon="5.38797">
        <ele>1033.12288</ele>
        <time>2023-08-18T20:17:03.142Z</time>
      </trkpt>
      <trkpt lat="44.82566" lon="5.38738">
        <ele>1037.088878</ele>
        <time>2023-08-18T20:17:22.375Z</time>
      </trkpt>
      <trkpt lat="44.82567" lon="5.38715">
        <ele>1038.549514</ele>
        <time>2023-08-18T20:17:29.429Z</time>
      </trkpt>
      <trkpt lat="44.82557" lon="5.38608">
        <ele>1045.328016</ele>
        <time>2023-08-18T20:18:00.815Z</time>
      </trkpt>
      <trkpt lat="44.82547" lon="5.38553">
        <ele>1048.182315</ele>
        <time>2023-08-18T20:18:16.079Z</time>
      </trkpt>
      <trkpt lat="44.8254" lon="5.38529">
        <ele>1049.484292</ele>
        <time>2023-08-18T20:18:22.940Z</time>
      </trkpt>
      <trkpt lat="44.82524" lon="5.38497">
        <ele>1051.484795</ele>
        <time>2023-08-18T20:18:33.405Z</time>
      </trkpt>
      <trkpt lat="44.82511" lon="5.38484">
        <ele>1052.615756</ele>
        <time>2023-08-18T20:18:39.060Z</time>
      </trkpt>
      <trkpt lat="44.82479" lon="5.38466">
        <ele>1055.115653</ele>
        <time>2023-08-18T20:18:51.106Z</time>
      </trkpt>
      <trkpt lat="44.82466" lon="5.38454">
        <ele>1056.177643</ele>
        <time>2023-08-18T20:18:55.977Z</time>
      </trkpt>
      <trkpt lat="44.82458" lon="5.38439">
        <ele>1057.151246</ele>
        <time>2023-08-18T20:18:59.934Z</time>
      </trkpt>
      <trkpt lat="44.82461" lon="5.38427">
        <ele>1057.776944</ele>
        <time>2023-08-18T20:19:02.350Z</time>
      </trkpt>
      <trkpt lat="44.82471" lon="5.38427">
        <ele>1058.048003</ele>
        <time>2023-08-18T20:19:05.037Z</time>
      </trkpt>
      <trkpt lat="44.82487" lon="5.38454">
        <ele>1058.735795</ele>
        <time>2023-08-18T20:19:10.884Z</time>
      </trkpt>
      <trkpt lat="44.82517" lon="5.38466">
        <ele>1059.591954</ele>
        <time>2023-08-18T20:19:17.457Z</time>
      </trkpt>
      <trkpt lat="44.82527" lon="5.38473">
        <ele>1059.894925</ele>
        <time>2023-08-18T20:19:19.603Z</time>
      </trkpt>
      <trkpt lat="44.82535" lon="5.38482">
        <ele>1060.203673</ele>
        <time>2023-08-18T20:19:21.880Z</time>
      </trkpt>
      <trkpt lat="44.82558" lon="5.38519">
        <ele>1061.156168</ele>
        <time>2023-08-18T20:19:28.419Z</time>
      </trkpt>
      <trkpt lat="44.82566" lon="5.38538">
        <ele>1061.583147</ele>
        <time>2023-08-18T20:19:31.238Z</time>
      </trkpt>
      <trkpt lat="44.82571" lon="5.3856">
        <ele>1062.04909</ele>
        <time>2023-08-18T20:19:34.295Z</time>
      </trkpt>
      <trkpt lat="44.82581" lon="5.38612">
        <ele>1062.870234</ele>
        <time>2023-08-18T20:19:40.688Z</time>
      </trkpt>
      <trkpt lat="44.82595" lon="5.3867">
        <ele>1063.309737</ele>
        <time>2023-08-18T20:19:46.441Z</time>
      </trkpt>
      <trkpt lat="44.826" lon="5.38705">
        <ele>1063.559101</ele>
        <time>2023-08-18T20:19:49.188Z</time>
      </trkpt>
      <trkpt lat="44.82601" lon="5.3878">
        <ele>1064.09542</ele>
        <time>2023-08-18T20:19:55.294Z</time>
      </trkpt>
      <trkpt lat="44.82604" lon="5.388">
        <ele>1064.245068</ele>
        <time>2023-08-18T20:19:57.293Z</time>
      </trkpt>
      <trkpt lat="44.82678" lon="5.38939">
        <ele>1069.219135</ele>
        <time>2023-08-18T20:20:24.391Z</time>
      </trkpt>
      <trkpt lat="44.82689" lon="5.38954">
        <ele>1069.968836</ele>
        <time>2023-08-18T20:20:28.970Z</time>
      </trkpt>
      <trkpt lat="44.82701" lon="5.38967">
        <ele>1070.722591</ele>
        <time>2023-08-18T20:20:33.920Z</time>
      </trkpt>
      <trkpt lat="44.8275" lon="5.38995">
        <ele>1073.405126</ele>
        <time>2023-08-18T20:20:52.970Z</time>
      </trkpt>
      <trkpt lat="44.82817" lon="5.39013">
        <ele>1079.332506</ele>
        <time>2023-08-18T20:21:19.562Z</time>
      </trkpt>
      <trkpt lat="44.82837" lon="5.39016">
        <ele>1081.043071</ele>
        <time>2023-08-18T20:21:27.552Z</time>
      </trkpt>
      <trkpt lat="44.82911" lon="5.39015">
        <ele>1087.61462</ele>
        <time>2023-08-18T20:21:58.817Z</time>
      </trkpt>
      <trkpt lat="44.83034" lon="5.39054">
        <ele>1098.758302</ele>
        <time>2023-08-18T20:22:50.739Z</time>
      </trkpt>
      <trkpt lat="44.83092" lon="5.39058">
        <ele>1103.936242</ele>
        <time>2023-08-18T20:23:14.297Z</time>
      </trkpt>
      <trkpt lat="44.83132" lon="5.39066">
        <ele>1107.08281</ele>
        <time>2023-08-18T20:23:29.872Z</time>
      </trkpt>
      <trkpt lat="44.83197" lon="5.39052">
        <ele>1111.840265</ele>
        <time>2023-08-18T20:23:51.409Z</time>
      </trkpt>
      <trkpt lat="44.83217" lon="5.39044">
        <ele>1113.326588</ele>
        <time>2023-08-18T20:23:58.095Z</time>
      </trkpt>
      <trkpt lat="44.83257" lon="5.3902">
        <ele>1116.459337</ele>
        <time>2023-08-18T20:24:12.965Z</time>
      </trkpt>
      <trkpt lat="44.83278" lon="5.39012">
        <ele>1117.996248</ele>
        <time>2023-08-18T20:24:20.762Z</time>
      </trkpt>
      <trkpt lat="44.83295" lon="5.3901">
        <ele>1119.021813</ele>
        <time>2023-08-18T20:24:27.407Z</time>
      </trkpt>
      <trkpt lat="44.83308" lon="5.39017">
        <ele>1119.760949</ele>
        <time>2023-08-18T20:24:32.124Z</time>
      </trkpt>
      <trkpt lat="44.83334" lon="5.39046">
        <ele>1121.591388</ele>
        <time>2023-08-18T20:24:43.402Z</time>
      </trkpt>
      <trkpt lat="44.83349" lon="5.39047">
        <ele>1122.407084</ele>
        <time>2023-08-18T20:24:48.438Z</time>
      </trkpt>
      <trkpt lat="44.8336" lon="5.3904">
        <ele>1123.080173</ele>
        <time>2023-08-18T20:24:51.971Z</time>
      </trkpt>
      <trkpt lat="44.83393" lon="5.39001">
        <ele>1125.440478</ele>
        <time>2023-08-18T20:25:03.236Z</time>
      </trkpt>
      <trkpt lat="44.83408" lon="5.38994">
        <ele>1126.291659</ele>
        <time>2023-08-18T20:25:07.169Z</time>
      </trkpt>
      <trkpt lat="44.83423" lon="5.38992">
        <ele>1127.121375</ele>
        <time>2023-08-18T20:25:10.784Z</time>
      </trkpt>
      <trkpt lat="44.83437" lon="5.38995">
        <ele>1127.892816</ele>
        <time>2023-08-18T20:25:14.334Z</time>
      </trkpt>
      <trkpt lat="44.83448" lon="5.39002">
        <ele>1128.421407</ele>
        <time>2023-08-18T20:25:17.454Z</time>
      </trkpt>
      <trkpt lat="44.83655" lon="5.39216">
        <ele>1140.225393</ele>
        <time>2023-08-18T20:26:17.373Z</time>
      </trkpt>
      <trkpt lat="44.83764" lon="5.39324">
        <ele>1149.355796</ele>
        <time>2023-08-18T20:27:11.650Z</time>
      </trkpt>
      <trkpt lat="44.83775" lon="5.3934">
        <ele>1150.615403</ele>
        <time>2023-08-18T20:27:18.016Z</time>
      </trkpt>
      <trkpt lat="44.83782" lon="5.39355">
        <ele>1151.593138</ele>
        <time>2023-08-18T20:27:23.266Z</time>
      </trkpt>
      <trkpt lat="44.83784" lon="5.39376">
        <ele>1152.784535</ele>
        <time>2023-08-18T20:27:29.462Z</time>
      </trkpt>
      <trkpt lat="44.83774" lon="5.3941">
        <ele>1154.866789</ele>
        <time>2023-08-18T20:27:39.488Z</time>
      </trkpt>
      <trkpt lat="44.83751" lon="5.39468">
        <ele>1158.560029</ele>
        <time>2023-08-18T20:27:55.788Z</time>
      </trkpt>
      <trkpt lat="44.83715" lon="5.39541">
        <ele>1162.539593</ele>
        <time>2023-08-18T20:28:15.339Z</time>
      </trkpt>
      <trkpt lat="44.83698" lon="5.39606">
        <ele>1165.172344</ele>
        <time>2023-08-18T20:28:29.420Z</time>
      </trkpt>
      <trkpt lat="44.83695" lon="5.39683">
        <ele>1168.055206</ele>
        <time>2023-08-18T20:28:44.185Z</time>
      </trkpt>
      <trkpt lat="44.83692" lon="5.39693">
        <ele>1168.474788</ele>
        <time>2023-08-18T20:28:46.388Z</time>
      </trkpt>
      <trkpt lat="44.83659" lon="5.39754">
        <ele>1171.417352</ele>
        <time>2023-08-18T20:29:01.148Z</time>
      </trkpt>
      <trkpt lat="44.8366" lon="5.39766">
        <ele>1171.896452</ele>
        <time>2023-08-18T20:29:03.516Z</time>
      </trkpt>
      <trkpt lat="44.83663" lon="5.39769">
        <ele>1172.111273</ele>
        <time>2023-08-18T20:29:04.630Z</time>
      </trkpt>
      <trkpt lat="44.83668" lon="5.39769">
        <ele>1172.385727</ele>
        <time>2023-08-18T20:29:06.025Z</time>
      </trkpt>
      <trkpt lat="44.83674" lon="5.39765">
        <ele>1172.743293</ele>
        <time>2023-08-18T20:29:07.776Z</time>
      </trkpt>
      <trkpt lat="44.83685" lon="5.3973">
        <ele>1174.24817</ele>
        <time>2023-08-18T20:29:15.745Z</time>
      </trkpt>
      <trkpt lat="44.8371" lon="5.39694">
        <ele>1176.247846</ele>
        <time>2023-08-18T20:29:26.608Z</time>
      </trkpt>
      <trkpt lat="44.83721" lon="5.39618">
        <ele>1179.329648</ele>
        <time>2023-08-18T20:29:44.230Z</time>
      </trkpt>
      <trkpt lat="44.8373" lon="5.39587">
        <ele>1180.502733</ele>
        <time>2023-08-18T20:29:51.685Z</time>
      </trkpt>
      <trkpt lat="44.83743" lon="5.39557">
        <ele>1181.443754</ele>
        <time>2023-08-18T20:29:59.436Z</time>
      </trkpt>
      <trkpt lat="44.83774" lon="5.39519">
        <ele>1183.03051</ele>
        <time>2023-08-18T20:30:11.344Z</time>
      </trkpt>
      <trkpt lat="44.83803" lon="5.39467">
        <ele>1184.793266</ele>
        <time>2023-08-18T20:30:22.748Z</time>
      </trkpt>
      <trkpt lat="44.83841" lon="5.39414">
        <ele>1186.821213</ele>
        <time>2023-08-18T20:30:32.882Z</time>
      </trkpt>
      <trkpt lat="44.83856" lon="5.39379">
        <ele>1186.758738</ele>
        <time>2023-08-18T20:30:36.934Z</time>
      </trkpt>
      <trkpt lat="44.83858" lon="5.39367">
        <ele>1186.670307</ele>
        <time>2023-08-18T20:30:37.920Z</time>
      </trkpt>
      <trkpt lat="44.83858" lon="5.39355">
        <ele>1186.585143</ele>
        <time>2023-08-18T20:30:38.769Z</time>
      </trkpt>
      <trkpt lat="44.83853" lon="5.39339">
        <ele>1186.456365</ele>
        <time>2023-08-18T20:30:40.171Z</time>
      </trkpt>
      <trkpt lat="44.83838" lon="5.39309">
        <ele>1186.200144</ele>
        <time>2023-08-18T20:30:42.528Z</time>
      </trkpt>
      <trkpt lat="44.83797" lon="5.39255">
        <ele>1185.63117</ele>
        <time>2023-08-18T20:30:47.313Z</time>
      </trkpt>
      <trkpt lat="44.83758" lon="5.39211">
        <ele>1185.395179</ele>
        <time>2023-08-18T20:30:51.470Z</time>
      </trkpt>
      <trkpt lat="44.83709" lon="5.39149">
        <ele>1187.919462</ele>
        <time>2023-08-18T20:30:59.211Z</time>
      </trkpt>
      <trkpt lat="44.83686" lon="5.39129">
        <ele>1188.936315</ele>
        <time>2023-08-18T20:31:05.083Z</time>
      </trkpt>
      <trkpt lat="44.83686" lon="5.39116">
        <ele>1189.285303</ele>
        <time>2023-08-18T20:31:07.404Z</time>
      </trkpt>
      <trkpt lat="44.83688" lon="5.39112">
        <ele>1189.427852</ele>
        <time>2023-08-18T20:31:08.437Z</time>
      </trkpt>
      <trkpt lat="44.83692" lon="5.3911">
        <ele>1189.607042</ele>
        <time>2023-08-18T20:31:09.837Z</time>
      </trkpt>
      <trkpt lat="44.837" lon="5.39112">
        <ele>1189.901059</ele>
        <time>2023-08-18T20:31:12.230Z</time>
      </trkpt>
      <trkpt lat="44.83711" lon="5.39132">
        <ele>1190.575236</ele>
        <time>2023-08-18T20:31:17.730Z</time>
      </trkpt>
      <trkpt lat="44.83728" lon="5.39153">
        <ele>1191.434301</ele>
        <time>2023-08-18T20:31:26.156Z</time>
      </trkpt>
      <trkpt lat="44.83836" lon="5.39248">
        <ele>1204.570039</ele>
        <time>2023-08-18T20:32:28.372Z</time>
      </trkpt>
      <trkpt lat="44.83874" lon="5.39288">
        <ele>1209.87126</ele>
        <time>2023-08-18T20:32:53.443Z</time>
      </trkpt>
      <trkpt lat="44.83887" lon="5.39308">
        <ele>1212.060209</ele>
        <time>2023-08-18T20:33:03.151Z</time>
      </trkpt>
      <trkpt lat="44.83911" lon="5.39352">
        <ele>1215.335851</ele>
        <time>2023-08-18T20:33:21.203Z</time>
      </trkpt>
      <trkpt lat="44.83917" lon="5.39372">
        <ele>1216.601602</ele>
        <time>2023-08-18T20:33:27.780Z</time>
      </trkpt>
      <trkpt lat="44.83917" lon="5.39392">
        <ele>1217.762507</ele>
        <time>2023-08-18T20:33:33.597Z</time>
      </trkpt>
      <trkpt lat="44.83904" lon="5.39434">
        <ele>1220.399031</ele>
        <time>2023-08-18T20:33:45.441Z</time>
      </trkpt>
      <trkpt lat="44.83897" lon="5.39449">
        <ele>1221.471081</ele>
        <time>2023-08-18T20:33:49.533Z</time>
      </trkpt>
      <trkpt lat="44.83869" lon="5.39491">
        <ele>1224.785998</ele>
        <time>2023-08-18T20:34:02.854Z</time>
      </trkpt>
      <trkpt lat="44.83857" lon="5.39514">
        <ele>1226.419465</ele>
        <time>2023-08-18T20:34:10.101Z</time>
      </trkpt>
      <trkpt lat="44.8383" lon="5.39588">
        <ele>1229.302258</ele>
        <time>2023-08-18T20:34:26.994Z</time>
      </trkpt>
      <trkpt lat="44.83818" lon="5.39615">
        <ele>1230.331909</ele>
        <time>2023-08-18T20:34:32.913Z</time>
      </trkpt>
      <trkpt lat="44.83815" lon="5.39623">
        <ele>1230.590077</ele>
        <time>2023-08-18T20:34:34.005Z</time>
      </trkpt>
      <trkpt lat="44.83813" lon="5.39634">
        <ele>1230.971494</ele>
        <time>2023-08-18T20:34:36.057Z</time>
      </trkpt>
      <trkpt lat="44.83811" lon="5.39646">
        <ele>1231.341027</ele>
        <time>2023-08-18T20:34:38.021Z</time>
      </trkpt>
      <trkpt lat="44.83811" lon="5.39653">
        <ele>1231.560224</ele>
        <time>2023-08-18T20:34:39.368Z</time>
      </trkpt>
      <trkpt lat="44.8381" lon="5.39674">
        <ele>1232.224427</ele>
        <time>2023-08-18T20:34:42.722Z</time>
      </trkpt>
      <trkpt lat="44.8381" lon="5.39695">
        <ele>1232.878611</ele>
        <time>2023-08-18T20:34:46.343Z</time>
      </trkpt>
      <trkpt lat="44.83811" lon="5.3971">
        <ele>1233.372907</ele>
        <time>2023-08-18T20:34:49.511Z</time>
      </trkpt>
      <trkpt lat="44.83813" lon="5.39729">
        <ele>1233.972436</ele>
        <time>2023-08-18T20:34:52.527Z</time>
      </trkpt>
      <trkpt lat="44.83816" lon="5.39752">
        <ele>1234.701376</ele>
        <time>2023-08-18T20:34:57.003Z</time>
      </trkpt>
      <trkpt lat="44.84036" lon="5.40543">
        <ele>1252.269561</ele>
        <time>2023-08-18T20:37:10.267Z</time>
      </trkpt>
      <trkpt lat="44.8404" lon="5.40557">
        <ele>1252.250769</ele>
        <time>2023-08-18T20:37:11.560Z</time>
      </trkpt>
      <trkpt lat="44.84046" lon="5.40596">
        <ele>1252.200832</ele>
        <time>2023-08-18T20:37:14.602Z</time>
      </trkpt>
      <trkpt lat="44.84046" lon="5.40602">
        <ele>1252.193364</ele>
        <time>2023-08-18T20:37:15.052Z</time>
      </trkpt>
      <trkpt lat="44.84046" lon="5.40607">
        <ele>1252.18678</ele>
        <time>2023-08-18T20:37:15.432Z</time>
      </trkpt>
      <trkpt lat="44.84052" lon="5.40614">
        <ele>1252.173975</ele>
        <time>2023-08-18T20:37:16.176Z</time>
      </trkpt>
      <trkpt lat="44.84055" lon="5.40615">
        <ele>1252.167888</ele>
        <time>2023-08-18T20:37:16.506Z</time>
      </trkpt>
      <trkpt lat="44.84064" lon="5.40608">
        <ele>1252.149707</ele>
        <time>2023-08-18T20:37:17.472Z</time>
      </trkpt>
      <trkpt lat="44.84087" lon="5.40588">
        <ele>1252.102504</ele>
        <time>2023-08-18T20:37:19.900Z</time>
      </trkpt>
      <trkpt lat="44.8409" lon="5.40586">
        <ele>1252.096044</ele>
        <time>2023-08-18T20:37:20.212Z</time>
      </trkpt>
      <trkpt lat="44.84104" lon="5.40579">
        <ele>1252.071274</ele>
        <time>2023-08-18T20:37:21.395Z</time>
      </trkpt>
      <trkpt lat="44.84148" lon="5.40558">
        <ele>1250.00442</ele>
        <time>2023-08-18T20:37:25.082Z</time>
      </trkpt>
      <trkpt lat="44.84213" lon="5.4053">
        <ele>1246.325447</ele>
        <time>2023-08-18T20:37:30.059Z</time>
      </trkpt>
      <trkpt lat="44.84297" lon="5.4051">
        <ele>1241.494172</ele>
        <time>2023-08-18T20:37:36.288Z</time>
      </trkpt>
      <trkpt lat="44.84387" lon="5.40508">
        <ele>1235.353178</ele>
        <time>2023-08-18T20:37:42.752Z</time>
      </trkpt>
      <trkpt lat="44.84464" lon="5.40494">
        <ele>1230.031148</ele>
        <time>2023-08-18T20:37:48.344Z</time>
      </trkpt>
      <trkpt lat="44.84515" lon="5.40494">
        <ele>1226.312555</ele>
        <time>2023-08-18T20:37:52.038Z</time>
      </trkpt>
      <trkpt lat="44.84669" lon="5.40473">
        <ele>1214.975094</ele>
        <time>2023-08-18T20:38:03.075Z</time>
      </trkpt>
      <trkpt lat="44.84712" lon="5.40473">
        <ele>1211.772107</ele>
        <time>2023-08-18T20:38:06.094Z</time>
      </trkpt>
      <trkpt lat="44.84742" lon="5.40464">
        <ele>1209.413791</ele>
        <time>2023-08-18T20:38:08.318Z</time>
      </trkpt>
      <trkpt lat="44.84757" lon="5.40464">
        <ele>1208.295485</ele>
        <time>2023-08-18T20:38:09.363Z</time>
      </trkpt>
      <trkpt lat="44.84809" lon="5.40477">
        <ele>1204.283658</ele>
        <time>2023-08-18T20:38:13.149Z</time>
      </trkpt>
      <trkpt lat="44.8486" lon="5.40475">
        <ele>1200.74245</ele>
        <time>2023-08-18T20:38:16.754Z</time>
      </trkpt>
      <trkpt lat="44.8497" lon="5.40497">
        <ele>1193.240732</ele>
        <time>2023-08-18T20:38:24.727Z</time>
      </trkpt>
      <trkpt lat="44.85097" lon="5.40505">
        <ele>1185.306452</ele>
        <time>2023-08-18T20:38:34.176Z</time>
      </trkpt>
      <trkpt lat="44.85162" lon="5.40505">
        <ele>1181.369418</ele>
        <time>2023-08-18T20:38:38.940Z</time>
      </trkpt>
      <trkpt lat="44.85223" lon="5.40485">
        <ele>1176.958306</ele>
        <time>2023-08-18T20:38:43.421Z</time>
      </trkpt>
      <trkpt lat="44.85238" lon="5.40485">
        <ele>1175.789235</ele>
        <time>2023-08-18T20:38:44.523Z</time>
      </trkpt>
      <trkpt lat="44.85251" lon="5.40488">
        <ele>1174.814638</ele>
        <time>2023-08-18T20:38:45.444Z</time>
      </trkpt>
      <trkpt lat="44.853" lon="5.40513">
        <ele>1170.886309</ele>
        <time>2023-08-18T20:38:49.121Z</time>
      </trkpt>
      <trkpt lat="44.85378" lon="5.40528">
        <ele>1165.39679</ele>
        <time>2023-08-18T20:38:54.657Z</time>
      </trkpt>
      <trkpt lat="44.85466" lon="5.40551">
        <ele>1160.456068</ele>
        <time>2023-08-18T20:39:01.245Z</time>
      </trkpt>
      <trkpt lat="44.85551" lon="5.40553">
        <ele>1155.961149</ele>
        <time>2023-08-18T20:39:07.949Z</time>
      </trkpt>
      <trkpt lat="44.85627" lon="5.40538">
        <ele>1152.674473</ele>
        <time>2023-08-18T20:39:14.078Z</time>
      </trkpt>
      <trkpt lat="44.85677" lon="5.40568">
        <ele>1150.378677</ele>
        <time>2023-08-18T20:39:18.336Z</time>
      </trkpt>
      <trkpt lat="44.85703" lon="5.4058">
        <ele>1149.188444</ele>
        <time>2023-08-18T20:39:20.440Z</time>
      </trkpt>
      <trkpt lat="44.85726" lon="5.40587">
        <ele>1147.680624</ele>
        <time>2023-08-18T20:39:22.167Z</time>
      </trkpt>
      <trkpt lat="44.85802" lon="5.40591">
        <ele>1142.41408</ele>
        <time>2023-08-18T20:39:27.610Z</time>
      </trkpt>
      <trkpt lat="44.85866" lon="5.40619">
        <ele>1137.8308</ele>
        <time>2023-08-18T20:39:32.332Z</time>
      </trkpt>
      <trkpt lat="44.85948" lon="5.40634">
        <ele>1132.173615</ele>
        <time>2023-08-18T20:39:38.274Z</time>
      </trkpt>
      <trkpt lat="44.85964" lon="5.40642">
        <ele>1131.011635</ele>
        <time>2023-08-18T20:39:39.492Z</time>
      </trkpt>
      <trkpt lat="44.85988" lon="5.40661">
        <ele>1129.115062</ele>
        <time>2023-08-18T20:39:41.496Z</time>
      </trkpt>
      <trkpt lat="44.86009" lon="5.40671">
        <ele>1127.5793</ele>
        <time>2023-08-18T20:39:43.113Z</time>
      </trkpt>
      <trkpt lat="44.8607" lon="5.40691">
        <ele>1123.34999</ele>
        <time>2023-08-18T20:39:47.672Z</time>
      </trkpt>
      <trkpt lat="44.86131" lon="5.40714">
        <ele>1119.339422</ele>
        <time>2023-08-18T20:39:52.238Z</time>
      </trkpt>
      <trkpt lat="44.86161" lon="5.40718">
        <ele>1117.3762</ele>
        <time>2023-08-18T20:39:54.467Z</time>
      </trkpt>
      <trkpt lat="44.8618" lon="5.40725">
        <ele>1116.136449</ele>
        <time>2023-08-18T20:39:55.879Z</time>
      </trkpt>
      <trkpt lat="44.86227" lon="5.40756">
        <ele>1112.819206</ele>
        <time>2023-08-18T20:39:59.640Z</time>
      </trkpt>
      <trkpt lat="44.86364" lon="5.40814">
        <ele>1103.675095</ele>
        <time>2023-08-18T20:40:10.082Z</time>
      </trkpt>
      <trkpt lat="44.86459" lon="5.40839">
        <ele>1097.628719</ele>
        <time>2023-08-18T20:40:17.113Z</time>
      </trkpt>
      <trkpt lat="44.86579" lon="5.40889">
        <ele>1089.853914</ele>
        <time>2023-08-18T20:40:26.271Z</time>
      </trkpt>
      <trkpt lat="44.8668" lon="5.40918">
        <ele>1082.9076</ele>
        <time>2023-08-18T20:40:33.764Z</time>
      </trkpt>
      <trkpt lat="44.8676" lon="5.40928">
        <ele>1077.578788</ele>
        <time>2023-08-18T20:40:39.475Z</time>
      </trkpt>
      <trkpt lat="44.86777" lon="5.40934">
        <ele>1076.379492</ele>
        <time>2023-08-18T20:40:40.801Z</time>
      </trkpt>
      <trkpt lat="44.86853" lon="5.40984">
        <ele>1070.933783</ele>
        <time>2023-08-18T20:40:46.858Z</time>
      </trkpt>
      <trkpt lat="44.86895" lon="5.40997">
        <ele>1068.084729</ele>
        <time>2023-08-18T20:40:50.027Z</time>
      </trkpt>
      <trkpt lat="44.86942" lon="5.41005">
        <ele>1065.177654</ele>
        <time>2023-08-18T20:40:53.399Z</time>
      </trkpt>
      <trkpt lat="44.86964" lon="5.41006">
        <ele>1063.87628</ele>
        <time>2023-08-18T20:40:55.018Z</time>
      </trkpt>
      <trkpt lat="44.86981" lon="5.41004">
        <ele>1062.850463</ele>
        <time>2023-08-18T20:40:56.323Z</time>
      </trkpt>
      <trkpt lat="44.86989" lon="5.41003">
        <ele>1062.399322</ele>
        <time>2023-08-18T20:40:56.893Z</time>
      </trkpt>
      <trkpt lat="44.86994" lon="5.41005">
        <ele>1062.110415</ele>
        <time>2023-08-18T20:40:57.254Z</time>
      </trkpt>
      <trkpt lat="44.86996" lon="5.4101">
        <ele>1061.856446</ele>
        <time>2023-08-18T20:40:57.581Z</time>
      </trkpt>
      <trkpt lat="44.86995" lon="5.41017">
        <ele>1061.55866</ele>
        <time>2023-08-18T20:40:57.962Z</time>
      </trkpt>
      <trkpt lat="44.86991" lon="5.41021">
        <ele>1061.27692</ele>
        <time>2023-08-18T20:40:58.333Z</time>
      </trkpt>
      <trkpt lat="44.86892" lon="5.41024">
        <ele>1055.456996</ele>
        <time>2023-08-18T20:41:05.707Z</time>
      </trkpt>
      <trkpt lat="44.86839" lon="5.41021">
        <ele>1052.083989</ele>
        <time>2023-08-18T20:41:09.511Z</time>
      </trkpt>
      <trkpt lat="44.86806" lon="5.41012">
        <ele>1049.869328</ele>
        <time>2023-08-18T20:41:11.992Z</time>
      </trkpt>
      <trkpt lat="44.86757" lon="5.41013">
        <ele>1046.72582</ele>
        <time>2023-08-18T20:41:15.522Z</time>
      </trkpt>
      <trkpt lat="44.86709" lon="5.41004">
        <ele>1043.613181</ele>
        <time>2023-08-18T20:41:19.056Z</time>
      </trkpt>
      <trkpt lat="44.86686" lon="5.41003">
        <ele>1042.287701</ele>
        <time>2023-08-18T20:41:20.677Z</time>
      </trkpt>
      <trkpt lat="44.86622" lon="5.41006">
        <ele>1038.524162</ele>
        <time>2023-08-18T20:41:25.272Z</time>
      </trkpt>
      <trkpt lat="44.86547" lon="5.41002">
        <ele>1034.124678</ele>
        <time>2023-08-18T20:41:30.874Z</time>
      </trkpt>
      <trkpt lat="44.86505" lon="5.41011">
        <ele>1032.32344</ele>
        <time>2023-08-18T20:41:34.244Z</time>
      </trkpt>
      <trkpt lat="44.86489" lon="5.4101">
        <ele>1031.713463</ele>
        <time>2023-08-18T20:41:35.531Z</time>
      </trkpt>
      <trkpt lat="44.86419" lon="5.40982">
        <ele>1028.928332</ele>
        <time>2023-08-18T20:41:41.451Z</time>
      </trkpt>
      <trkpt lat="44.86384" lon="5.40975">
        <ele>1027.593158</ele>
        <time>2023-08-18T20:41:44.244Z</time>
      </trkpt>
      <trkpt lat="44.86365" lon="5.40978">
        <ele>1026.841956</ele>
        <time>2023-08-18T20:41:45.785Z</time>
      </trkpt>
      <trkpt lat="44.86336" lon="5.40987">
        <ele>1025.170182</ele>
        <time>2023-08-18T20:41:48.028Z</time>
      </trkpt>
      <trkpt lat="44.86299" lon="5.40991">
        <ele>1022.970808</ele>
        <time>2023-08-18T20:41:50.800Z</time>
      </trkpt>
      <trkpt lat="44.86264" lon="5.40991">
        <ele>1020.900831</ele>
        <time>2023-08-18T20:41:53.335Z</time>
      </trkpt>
      <trkpt lat="44.86196" lon="5.40998">
        <ele>1016.901411</ele>
        <time>2023-08-18T20:41:58.200Z</time>
      </trkpt>
      <trkpt lat="44.86134" lon="5.40987">
        <ele>1015.971137</ele>
        <time>2023-08-18T20:42:02.863Z</time>
      </trkpt>
      <trkpt lat="44.86086" lon="5.40964">
        <ele>1015.761452</ele>
        <time>2023-08-18T20:42:07.281Z</time>
      </trkpt>
      <trkpt lat="44.85984" lon="5.40927">
        <ele>1016.54503</ele>
        <time>2023-08-18T20:42:33.299Z</time>
      </trkpt>
      <trkpt lat="44.85897" lon="5.40918">
        <ele>1020.176386</ele>
        <time>2023-08-18T20:43:01.507Z</time>
      </trkpt>
      <trkpt lat="44.85886" lon="5.40922">
        <ele>1020.629572</ele>
        <time>2023-08-18T20:43:04.323Z</time>
      </trkpt>
      <trkpt lat="44.85881" lon="5.4093">
        <ele>1020.954007</ele>
        <time>2023-08-18T20:43:06.179Z</time>
      </trkpt>
      <trkpt lat="44.85881" lon="5.40943">
        <ele>1021.32321</ele>
        <time>2023-08-18T20:43:08.295Z</time>
      </trkpt>
      <trkpt lat="44.85888" lon="5.40953">
        <ele>1021.724624</ele>
        <time>2023-08-18T20:43:10.564Z</time>
      </trkpt>
      <trkpt lat="44.85933" lon="5.40984">
        <ele>1021.920833</ele>
        <time>2023-08-18T20:43:19.292Z</time>
      </trkpt>
      <trkpt lat="44.8595" lon="5.40998">
        <ele>1020.95359</ele>
        <time>2023-08-18T20:43:21.481Z</time>
      </trkpt>
      <trkpt lat="44.85962" lon="5.41012">
        <ele>1020.224237</ele>
        <time>2023-08-18T20:43:22.852Z</time>
      </trkpt>
      <trkpt lat="44.86058" lon="5.41141">
        <ele>1013.520787</ele>
        <time>2023-08-18T20:43:32.381Z</time>
      </trkpt>
      <trkpt lat="44.86105" lon="5.4122">
        <ele>1006.986883</ele>
        <time>2023-08-18T20:43:37.357Z</time>
      </trkpt>
      <trkpt lat="44.86195" lon="5.41292">
        <ele>997.828347</ele>
        <time>2023-08-18T20:43:44.668Z</time>
      </trkpt>
      <trkpt lat="44.86209" lon="5.41309">
        <ele>996.522543</ele>
        <time>2023-08-18T20:43:45.983Z</time>
      </trkpt>
      <trkpt lat="44.86225" lon="5.41335">
        <ele>994.792475</ele>
        <time>2023-08-18T20:43:47.741Z</time>
      </trkpt>
      <trkpt lat="44.86239" lon="5.414">
        <ele>991.415625</ele>
        <time>2023-08-18T20:43:51.108Z</time>
      </trkpt>
      <trkpt lat="44.86252" lon="5.41435">
        <ele>989.43116</ele>
        <time>2023-08-18T20:43:53.144Z</time>
      </trkpt>
      <trkpt lat="44.86276" lon="5.41467">
        <ele>987.110657</ele>
        <time>2023-08-18T20:43:55.585Z</time>
      </trkpt>
      <trkpt lat="44.86306" lon="5.41482">
        <ele>984.730903</ele>
        <time>2023-08-18T20:43:58.009Z</time>
      </trkpt>
      <trkpt lat="44.86364" lon="5.41502">
        <ele>979.877083</ele>
        <time>2023-08-18T20:44:02.368Z</time>
      </trkpt>
      <trkpt lat="44.8641" lon="5.41531">
        <ele>975.841596</ele>
        <time>2023-08-18T20:44:05.850Z</time>
      </trkpt>
      <trkpt lat="44.86439" lon="5.41545">
        <ele>973.388992</ele>
        <time>2023-08-18T20:44:07.923Z</time>
      </trkpt>
      <trkpt lat="44.86522" lon="5.41557">
        <ele>965.980858</ele>
        <time>2023-08-18T20:44:13.715Z</time>
      </trkpt>
      <trkpt lat="44.86594" lon="5.41568">
        <ele>959.27603</ele>
        <time>2023-08-18T20:44:18.770Z</time>
      </trkpt>
      <trkpt lat="44.86694" lon="5.41577">
        <ele>951.47566</ele>
        <time>2023-08-18T20:44:25.758Z</time>
      </trkpt>
      <trkpt lat="44.86715" lon="5.41577">
        <ele>950.120446</ele>
        <time>2023-08-18T20:44:27.314Z</time>
      </trkpt>
      <trkpt lat="44.8673" lon="5.41572">
        <ele>949.199014</ele>
        <time>2023-08-18T20:44:28.379Z</time>
      </trkpt>
      <trkpt lat="44.86754" lon="5.41563">
        <ele>947.609351</ele>
        <time>2023-08-18T20:44:30.263Z</time>
      </trkpt>
      <trkpt lat="44.86844" lon="5.41546">
        <ele>942.15789</ele>
        <time>2023-08-18T20:44:37.131Z</time>
      </trkpt>
      <trkpt lat="44.86874" lon="5.41562">
        <ele>940.584065</ele>
        <time>2023-08-18T20:44:39.528Z</time>
      </trkpt>
      <trkpt lat="44.86895" lon="5.41584">
        <ele>939.259613</ele>
        <time>2023-08-18T20:44:41.537Z</time>
      </trkpt>
      <trkpt lat="44.86923" lon="5.41615">
        <ele>937.483344</ele>
        <time>2023-08-18T20:44:44.221Z</time>
      </trkpt>
      <trkpt lat="44.86969" lon="5.4166">
        <ele>934.711396</ele>
        <time>2023-08-18T20:44:48.397Z</time>
      </trkpt>
      <trkpt lat="44.86994" lon="5.41678">
        <ele>933.345052</ele>
        <time>2023-08-18T20:44:50.554Z</time>
      </trkpt>
      <trkpt lat="44.87016" lon="5.41685">
        <ele>932.257524</ele>
        <time>2023-08-18T20:44:52.278Z</time>
      </trkpt>
      <trkpt lat="44.87033" lon="5.41686">
        <ele>931.435215</ele>
        <time>2023-08-18T20:44:53.555Z</time>
      </trkpt>
      <trkpt lat="44.8708" lon="5.41688">
        <ele>929.198279</ele>
        <time>2023-08-18T20:44:57.041Z</time>
      </trkpt>
      <trkpt lat="44.871" lon="5.41685">
        <ele>928.243779</ele>
        <time>2023-08-18T20:44:58.545Z</time>
      </trkpt>
      <trkpt lat="44.87167" lon="5.41677">
        <ele>925.156594</ele>
        <time>2023-08-18T20:45:03.793Z</time>
      </trkpt>
      <trkpt lat="44.87187" lon="5.4168">
        <ele>924.417132</ele>
        <time>2023-08-18T20:45:05.443Z</time>
      </trkpt>
      <trkpt lat="44.87335" lon="5.41739">
        <ele>918.908615</ele>
        <time>2023-08-18T20:45:17.686Z</time>
      </trkpt>
      <trkpt lat="44.8741" lon="5.41772">
        <ele>916.618386</ele>
        <time>2023-08-18T20:45:23.946Z</time>
      </trkpt>
      <trkpt lat="44.87536" lon="5.41827">
        <ele>913.623377</ele>
        <time>2023-08-18T20:45:35.049Z</time>
      </trkpt>
      <trkpt lat="44.87818" lon="5.41917">
        <ele>912.055688</ele>
        <time>2023-08-18T20:46:08.432Z</time>
      </trkpt>
      <trkpt lat="44.87881" lon="5.41929">
        <ele>911.41452</ele>
        <time>2023-08-18T20:46:14.573Z</time>
      </trkpt>
      <trkpt lat="44.87947" lon="5.41936">
        <ele>910.312478</ele>
        <time>2023-08-18T20:46:20.443Z</time>
      </trkpt>
      <trkpt lat="44.8811" lon="5.41943">
        <ele>907.332822</ele>
        <time>2023-08-18T20:46:34.862Z</time>
      </trkpt>
      <trkpt lat="44.88131" lon="5.4195">
        <ele>906.899984</ele>
        <time>2023-08-18T20:46:36.879Z</time>
      </trkpt>
      <trkpt lat="44.88236" lon="5.42">
        <ele>903.916563</ele>
        <time>2023-08-18T20:46:46.738Z</time>
      </trkpt>
      <trkpt lat="44.88356" lon="5.42063">
        <ele>898.030888</ele>
        <time>2023-08-18T20:46:56.476Z</time>
      </trkpt>
      <trkpt lat="44.884" lon="5.42068">
        <ele>895.586894</ele>
        <time>2023-08-18T20:46:59.678Z</time>
      </trkpt>
      <trkpt lat="44.88464" lon="5.42064">
        <ele>891.551954</ele>
        <time>2023-08-18T20:47:04.261Z</time>
      </trkpt>
      <trkpt lat="44.88489" lon="5.42066">
        <ele>890.009879</ele>
        <time>2023-08-18T20:47:06.004Z</time>
      </trkpt>
      <trkpt lat="44.88748" lon="5.42105">
        <ele>876.253666</ele>
        <time>2023-08-18T20:47:25.472Z</time>
      </trkpt>
      <trkpt lat="44.89006" lon="5.42147">
        <ele>868.727002</ele>
        <time>2023-08-18T20:47:47.329Z</time>
      </trkpt>
      <trkpt lat="44.89075" lon="5.42145">
        <ele>866.840423</ele>
        <time>2023-08-18T20:47:53.034Z</time>
      </trkpt>
      <trkpt lat="44.89149" lon="5.42136">
        <ele>864.786967</ele>
        <time>2023-08-18T20:47:59.132Z</time>
      </trkpt>
      <trkpt lat="44.8918" lon="5.42142">
        <ele>863.918664</ele>
        <time>2023-08-18T20:48:01.696Z</time>
      </trkpt>
      <trkpt lat="44.8949" lon="5.42303">
        <ele>854.941164</ele>
        <time>2023-08-18T20:48:29.550Z</time>
      </trkpt>
      <trkpt lat="44.89575" lon="5.42346">
        <ele>852.132817</ele>
        <time>2023-08-18T20:48:36.797Z</time>
      </trkpt>
      <trkpt lat="44.89619" lon="5.42349">
        <ele>850.788147</ele>
        <time>2023-08-18T20:48:40.312Z</time>
      </trkpt>
      <trkpt lat="44.89637" lon="5.42349">
        <ele>850.263115</ele>
        <time>2023-08-18T20:48:41.743Z</time>
      </trkpt>
      <trkpt lat="44.89677" lon="5.42348">
        <ele>849.077406</ele>
        <time>2023-08-18T20:48:44.983Z</time>
      </trkpt>
      <trkpt lat="44.89858" lon="5.42442">
        <ele>843.715219</ele>
        <time>2023-08-18T20:49:01.082Z</time>
      </trkpt>
      <trkpt lat="44.90068" lon="5.4254">
        <ele>838.212416</ele>
        <time>2023-08-18T20:49:19.898Z</time>
      </trkpt>
      <trkpt lat="44.901" lon="5.42548">
        <ele>837.41957</ele>
        <time>2023-08-18T20:49:22.638Z</time>
      </trkpt>
      <trkpt lat="44.90243" lon="5.42558">
        <ele>834.881163</ele>
        <time>2023-08-18T20:49:35.006Z</time>
      </trkpt>
      <trkpt lat="44.9029" lon="5.42561">
        <ele>834.098866</ele>
        <time>2023-08-18T20:49:39.485Z</time>
      </trkpt>
      <trkpt lat="44.90543" lon="5.42579">
        <ele>833.248701</ele>
        <time>2023-08-18T20:50:09.162Z</time>
      </trkpt>
      <trkpt lat="44.90632" lon="5.42577">
        <ele>832.722457</ele>
        <time>2023-08-18T20:50:18.523Z</time>
      </trkpt>
      <trkpt lat="44.90691" lon="5.42594">
        <ele>831.946761</ele>
        <time>2023-08-18T20:50:24.289Z</time>
      </trkpt>
      <trkpt lat="44.90755" lon="5.42621">
        <ele>830.649907</ele>
        <time>2023-08-18T20:50:30.246Z</time>
      </trkpt>
      <trkpt lat="44.90823" lon="5.42666">
        <ele>829.202553</ele>
        <time>2023-08-18T20:50:36.608Z</time>
      </trkpt>
      <trkpt lat="44.90848" lon="5.42674">
        <ele>828.524839</ele>
        <time>2023-08-18T20:50:38.778Z</time>
      </trkpt>
      <trkpt lat="44.90886" lon="5.42675">
        <ele>827.401487</ele>
        <time>2023-08-18T20:50:41.976Z</time>
      </trkpt>
      <trkpt lat="44.90995" lon="5.42659">
        <ele>824.208306</ele>
        <time>2023-08-18T20:50:50.876Z</time>
      </trkpt>
      <trkpt lat="44.91029" lon="5.42665">
        <ele>823.323598</ele>
        <time>2023-08-18T20:50:53.593Z</time>
      </trkpt>
      <trkpt lat="44.9114" lon="5.42689">
        <ele>820.560398</ele>
        <time>2023-08-18T20:51:03.069Z</time>
      </trkpt>
      <trkpt lat="44.91157" lon="5.42689">
        <ele>820.144407</ele>
        <time>2023-08-18T20:51:04.539Z</time>
      </trkpt>
      <trkpt lat="44.91358" lon="5.42699">
        <ele>817.153001</ele>
        <time>2023-08-18T20:51:23.327Z</time>
      </trkpt>
      <trkpt lat="44.91406" lon="5.42704">
        <ele>816.739474</ele>
        <time>2023-08-18T20:51:28.097Z</time>
      </trkpt>
      <trkpt lat="44.91517" lon="5.42722">
        <ele>815.902463</ele>
        <time>2023-08-18T20:51:39.632Z</time>
      </trkpt>
      <trkpt lat="44.91755" lon="5.42757">
        <ele>813.664032</ele>
        <time>2023-08-18T20:52:04.104Z</time>
      </trkpt>
      <trkpt lat="44.91785" lon="5.42775">
        <ele>813.006399</ele>
        <time>2023-08-18T20:52:06.965Z</time>
      </trkpt>
      <trkpt lat="44.91829" lon="5.42806">
        <ele>812.030417</ele>
        <time>2023-08-18T20:52:11.148Z</time>
      </trkpt>
      <trkpt lat="44.91922" lon="5.42843">
        <ele>810.202751</ele>
        <time>2023-08-18T20:52:19.328Z</time>
      </trkpt>
      <trkpt lat="44.91979" lon="5.42853">
        <ele>809.264455</ele>
        <time>2023-08-18T20:52:24.396Z</time>
      </trkpt>
      <trkpt lat="44.92016" lon="5.42847">
        <ele>808.653605</ele>
        <time>2023-08-18T20:52:27.920Z</time>
      </trkpt>
      <trkpt lat="44.92058" lon="5.42831">
        <ele>807.94522</ele>
        <time>2023-08-18T20:52:32.103Z</time>
      </trkpt>
      <trkpt lat="44.92173" lon="5.42833">
        <ele>806.262905</ele>
        <time>2023-08-18T20:52:43.186Z</time>
      </trkpt>
      <trkpt lat="44.92396" lon="5.4279">
        <ele>802.499829</ele>
        <time>2023-08-18T20:53:03.213Z</time>
      </trkpt>
      <trkpt lat="44.92553" lon="5.42755">
        <ele>799.849002</ele>
        <time>2023-08-18T20:53:17.764Z</time>
      </trkpt>
      <trkpt lat="44.92586" lon="5.42748">
        <ele>799.30989</ele>
        <time>2023-08-18T20:53:20.787Z</time>
      </trkpt>
      <trkpt lat="44.92628" lon="5.4275">
        <ele>798.523154</ele>
        <time>2023-08-18T20:53:24.546Z</time>
      </trkpt>
      <trkpt lat="44.92738" lon="5.42769">
        <ele>796.18026</ele>
        <time>2023-08-18T20:53:34.211Z</time>
      </trkpt>
      <trkpt lat="44.93006" lon="5.42799">
        <ele>790.336388</ele>
        <time>2023-08-18T20:53:57.161Z</time>
      </trkpt>
      <trkpt lat="44.9306" lon="5.42808">
        <ele>789.456543</ele>
        <time>2023-08-18T20:54:02.058Z</time>
      </trkpt>
      <trkpt lat="44.93102" lon="5.42824">
        <ele>788.747346</ele>
        <time>2023-08-18T20:54:06.120Z</time>
      </trkpt>
      <trkpt lat="44.93207" lon="5.42901">
        <ele>788.064504</ele>
        <time>2023-08-18T20:54:17.847Z</time>
      </trkpt>
      <trkpt lat="44.93317" lon="5.42952">
        <ele>788.483571</ele>
        <time>2023-08-18T20:54:32.908Z</time>
      </trkpt>
      <trkpt lat="44.93371" lon="5.42969">
        <ele>790.231899</ele>
        <time>2023-08-18T20:54:43.474Z</time>
      </trkpt>
      <trkpt lat="44.93436" lon="5.42992">
        <ele>792.384854</ele>
        <time>2023-08-18T20:54:59.736Z</time>
      </trkpt>
      <trkpt lat="44.93464" lon="5.43002">
        <ele>793.29121</ele>
        <time>2023-08-18T20:55:07.283Z</time>
      </trkpt>
      <trkpt lat="44.93482" lon="5.43009">
        <ele>793.885087</ele>
        <time>2023-08-18T20:55:12.404Z</time>
      </trkpt>
      <trkpt lat="44.93487" lon="5.43011">
        <ele>794.037</ele>
        <time>2023-08-18T20:55:13.887Z</time>
      </trkpt>
      <trkpt lat="44.93519" lon="5.43021">
        <ele>794.988361</ele>
        <time>2023-08-18T20:55:23.330Z</time>
      </trkpt>
      <trkpt lat="44.93572" lon="5.43028">
        <ele>796.501267</ele>
        <time>2023-08-18T20:55:38.230Z</time>
      </trkpt>
      <trkpt lat="44.93616" lon="5.43034">
        <ele>797.776746</ele>
        <time>2023-08-18T20:55:48.203Z</time>
      </trkpt>
      <trkpt lat="44.93628" lon="5.43035">
        <ele>798.134364</ele>
        <time>2023-08-18T20:55:50.010Z</time>
      </trkpt>
      <trkpt lat="44.93628" lon="5.43077">
        <ele>798.865843</ele>
        <time>2023-08-18T20:55:52.934Z</time>
      </trkpt>
      <trkpt lat="44.93628" lon="5.43077">
        <ele>798.859884</ele>
        <time>2023-08-18T20:55:52.949Z</time>
      </trkpt>
      <trkpt lat="44.93632" lon="5.43103">
        <ele>798.065421</ele>
        <time>2023-08-18T20:55:54.582Z</time>
      </trkpt>
      <trkpt lat="44.9364" lon="5.4312">
        <ele>797.469563</ele>
        <time>2023-08-18T20:55:55.693Z</time>
      </trkpt>
      <trkpt lat="44.93651" lon="5.43159">
        <ele>796.231583</ele>
        <time>2023-08-18T20:55:57.993Z</time>
      </trkpt>
      <trkpt lat="44.93651" lon="5.43178">
        <ele>795.641228</ele>
        <time>2023-08-18T20:55:59.050Z</time>
      </trkpt>
      <trkpt lat="44.93649" lon="5.43198">
        <ele>795.04997</ele>
        <time>2023-08-18T20:56:00.143Z</time>
      </trkpt>
      <trkpt lat="44.93646" lon="5.43244">
        <ele>793.675893</ele>
        <time>2023-08-18T20:56:02.577Z</time>
      </trkpt>
      <trkpt lat="44.93648" lon="5.43258">
        <ele>793.241563</ele>
        <time>2023-08-18T20:56:03.339Z</time>
      </trkpt>
      <trkpt lat="44.93655" lon="5.43279">
        <ele>792.558544</ele>
        <time>2023-08-18T20:56:04.531Z</time>
      </trkpt>
      <trkpt lat="44.93669" lon="5.43295">
        <ele>791.801994</ele>
        <time>2023-08-18T20:56:05.863Z</time>
      </trkpt>
      <trkpt lat="44.93691" lon="5.43312">
        <ele>790.710385</ele>
        <time>2023-08-18T20:56:07.707Z</time>
      </trkpt>
      <trkpt lat="44.93729" lon="5.43331">
        <ele>788.932095</ele>
        <time>2023-08-18T20:56:10.653Z</time>
      </trkpt>
      <trkpt lat="44.93845" lon="5.43364">
        <ele>783.735312</ele>
        <time>2023-08-18T20:56:19.881Z</time>
      </trkpt>
      <trkpt lat="44.94027" lon="5.43399">
        <ele>779.288955</ele>
        <time>2023-08-18T20:56:35.983Z</time>
      </trkpt>
      <trkpt lat="44.94061" lon="5.43404">
        <ele>778.21483</ele>
        <time>2023-08-18T20:56:38.828Z</time>
      </trkpt>
      <trkpt lat="44.94163" lon="5.43411">
        <ele>774.928567</ele>
        <time>2023-08-18T20:56:47.066Z</time>
      </trkpt>
      <trkpt lat="44.94315" lon="5.43403">
        <ele>770.18783</ele>
        <time>2023-08-18T20:56:59.132Z</time>
      </trkpt>
      <trkpt lat="44.944" lon="5.43408">
        <ele>767.751325</ele>
        <time>2023-08-18T20:57:06.243Z</time>
      </trkpt>
      <trkpt lat="44.94926" lon="5.43434">
        <ele>761.340057</ele>
        <time>2023-08-18T20:57:56.314Z</time>
      </trkpt>
      <trkpt lat="44.95041" lon="5.43465">
        <ele>761.225964</ele>
        <time>2023-08-18T20:58:11.121Z</time>
      </trkpt>
      <trkpt lat="44.95146" lon="5.43482">
        <ele>760.979728</ele>
        <time>2023-08-18T20:58:23.318Z</time>
      </trkpt>
      <trkpt lat="44.95162" lon="5.43489">
        <ele>760.899365</ele>
        <time>2023-08-18T20:58:25.317Z</time>
      </trkpt>
      <trkpt lat="44.95238" lon="5.43549">
        <ele>760.484839</ele>
        <time>2023-08-18T20:58:35.065Z</time>
      </trkpt>
      <trkpt lat="44.95255" lon="5.43558">
        <ele>760.401269</ele>
        <time>2023-08-18T20:58:36.782Z</time>
      </trkpt>
      <trkpt lat="44.95277" lon="5.43565">
        <ele>760.220784</ele>
        <time>2023-08-18T20:58:38.970Z</time>
      </trkpt>
      <trkpt lat="44.9535" lon="5.43577">
        <ele>758.977597</ele>
        <time>2023-08-18T20:58:45.482Z</time>
      </trkpt>
      <trkpt lat="44.95602" lon="5.43603">
        <ele>754.354651</ele>
        <time>2023-08-18T20:59:07.977Z</time>
      </trkpt>
      <trkpt lat="44.95638" lon="5.43615">
        <ele>753.624314</ele>
        <time>2023-08-18T20:59:11.175Z</time>
      </trkpt>
      <trkpt lat="44.95693" lon="5.43645">
        <ele>752.340006</ele>
        <time>2023-08-18T20:59:16.223Z</time>
      </trkpt>
      <trkpt lat="44.95729" lon="5.43659">
        <ele>751.516918</ele>
        <time>2023-08-18T20:59:19.432Z</time>
      </trkpt>
      <trkpt lat="44.95783" lon="5.43675">
        <ele>750.32283</ele>
        <time>2023-08-18T20:59:24.075Z</time>
      </trkpt>
      <trkpt lat="44.95994" lon="5.43722">
        <ele>747.634175</ele>
        <time>2023-08-18T20:59:43.988Z</time>
      </trkpt>
      <trkpt lat="44.96031" lon="5.43721">
        <ele>747.854152</ele>
        <time>2023-08-18T20:59:48.652Z</time>
      </trkpt>
      <trkpt lat="44.96156" lon="5.43695">
        <ele>748.59905</ele>
        <time>2023-08-18T21:00:07.857Z</time>
      </trkpt>
      <trkpt lat="44.96171" lon="5.43695">
        <ele>748.79619</ele>
        <time>2023-08-18T21:00:10.470Z</time>
      </trkpt>
      <trkpt lat="44.96186" lon="5.437">
        <ele>749.015065</ele>
        <time>2023-08-18T21:00:12.900Z</time>
      </trkpt>
      <trkpt lat="44.96194" lon="5.43707">
        <ele>749.160003</ele>
        <time>2023-08-18T21:00:14.667Z</time>
      </trkpt>
      <trkpt lat="44.9622" lon="5.43749">
        <ele>749.734479</ele>
        <time>2023-08-18T21:00:21.318Z</time>
      </trkpt>
      <trkpt lat="44.96231" lon="5.43761">
        <ele>749.923758</ele>
        <time>2023-08-18T21:00:23.451Z</time>
      </trkpt>
      <trkpt lat="44.96241" lon="5.43767">
        <ele>750.084643</ele>
        <time>2023-08-18T21:00:25.200Z</time>
      </trkpt>
      <trkpt lat="44.96253" lon="5.4377">
        <ele>750.262479</ele>
        <time>2023-08-18T21:00:27.341Z</time>
      </trkpt>
      <trkpt lat="44.9632" lon="5.43774">
        <ele>751.232605</ele>
        <time>2023-08-18T21:00:38.148Z</time>
      </trkpt>
      <trkpt lat="44.96334" lon="5.43768">
        <ele>751.499747</ele>
        <time>2023-08-18T21:00:40.763Z</time>
      </trkpt>
      <trkpt lat="44.96348" lon="5.43758">
        <ele>751.788011</ele>
        <time>2023-08-18T21:00:43.557Z</time>
      </trkpt>
      <trkpt lat="44.96489" lon="5.43614">
        <ele>754.642587</ele>
        <time>2023-08-18T21:01:14.812Z</time>
      </trkpt>
      <trkpt lat="44.96505" lon="5.43606">
        <ele>754.760454</ele>
        <time>2023-08-18T21:01:17.711Z</time>
      </trkpt>
      <trkpt lat="44.96562" lon="5.4359">
        <ele>755.165975</ele>
        <time>2023-08-18T21:01:26.793Z</time>
      </trkpt>
      <trkpt lat="44.96585" lon="5.43588">
        <ele>755.324407</ele>
        <time>2023-08-18T21:01:30.003Z</time>
      </trkpt>
      <trkpt lat="44.96743" lon="5.43617">
        <ele>754.963394</ele>
        <time>2023-08-18T21:01:46.486Z</time>
      </trkpt>
      <trkpt lat="44.96826" lon="5.43625">
        <ele>754.394603</ele>
        <time>2023-08-18T21:01:54.480Z</time>
      </trkpt>
      <trkpt lat="44.96869" lon="5.43633">
        <ele>754.299707</ele>
        <time>2023-08-18T21:01:59.009Z</time>
      </trkpt>
      <trkpt lat="44.96918" lon="5.43641">
        <ele>754.190123</ele>
        <time>2023-08-18T21:02:04.894Z</time>
      </trkpt>
      <trkpt lat="44.96942" lon="5.4364">
        <ele>754.136668</ele>
        <time>2023-08-18T21:02:07.572Z</time>
      </trkpt>
      <trkpt lat="44.9698" lon="5.43631">
        <ele>754.051108</ele>
        <time>2023-08-18T21:02:11.773Z</time>
      </trkpt>
      <trkpt lat="44.97055" lon="5.43607">
        <ele>754.900691</ele>
        <time>2023-08-18T21:02:21.920Z</time>
      </trkpt>
      <trkpt lat="44.97121" lon="5.43602">
        <ele>755.914278</ele>
        <time>2023-08-18T21:02:33.976Z</time>
      </trkpt>
      <trkpt lat="44.97154" lon="5.43601">
        <ele>756.417622</ele>
        <time>2023-08-18T21:02:39.970Z</time>
      </trkpt>
      <trkpt lat="44.97199" lon="5.43594">
        <ele>758.238577</ele>
        <time>2023-08-18T21:02:48.189Z</time>
      </trkpt>
      <trkpt lat="44.972" lon="5.43586">
        <ele>758.595105</ele>
        <time>2023-08-18T21:02:49.857Z</time>
      </trkpt>
      <trkpt lat="44.97205" lon="5.43581">
        <ele>758.980131</ele>
        <time>2023-08-18T21:02:51.130Z</time>
      </trkpt>
      <trkpt lat="44.97294" lon="5.43569">
        <ele>764.806029</ele>
        <time>2023-08-18T21:03:14.141Z</time>
      </trkpt>
      <trkpt lat="44.97384" lon="5.43563">
        <ele>774.459866</ele>
        <time>2023-08-18T21:03:58.085Z</time>
      </trkpt>
      <trkpt lat="44.97418" lon="5.43555">
        <ele>780.528293</ele>
        <time>2023-08-18T21:04:20.294Z</time>
      </trkpt>
      <trkpt lat="44.97436" lon="5.43541">
        <ele>784.226357</ele>
        <time>2023-08-18T21:04:35.397Z</time>
      </trkpt>
      <trkpt lat="44.97475" lon="5.43483">
        <ele>794.18206</ele>
        <time>2023-08-18T21:05:19.840Z</time>
      </trkpt>
      <trkpt lat="44.97479" lon="5.43475">
        <ele>795.346706</ele>
        <time>2023-08-18T21:05:25.461Z</time>
      </trkpt>
      <trkpt lat="44.97478" lon="5.43466">
        <ele>796.521868</ele>
        <time>2023-08-18T21:05:30.988Z</time>
      </trkpt>
      <trkpt lat="44.97474" lon="5.43459">
        <ele>797.622971</ele>
        <time>2023-08-18T21:05:36.045Z</time>
      </trkpt>
      <trkpt lat="44.97451" lon="5.4344">
        <ele>801.589155</ele>
        <time>2023-08-18T21:05:58.423Z</time>
      </trkpt>
      <trkpt lat="44.97442" lon="5.4343">
        <ele>803.009735</ele>
        <time>2023-08-18T21:06:08.124Z</time>
      </trkpt>
      <trkpt lat="44.97402" lon="5.43365">
        <ele>810.365282</ele>
        <time>2023-08-18T21:06:51.034Z</time>
      </trkpt>
      <trkpt lat="44.97358" lon="5.43275">
        <ele>819.646676</ele>
        <time>2023-08-18T21:07:20.437Z</time>
      </trkpt>
      <trkpt lat="44.97356" lon="5.43267">
        <ele>820.308406</ele>
        <time>2023-08-18T21:07:21.378Z</time>
      </trkpt>
      <trkpt lat="44.97359" lon="5.43263">
        <ele>820.773433</ele>
        <time>2023-08-18T21:07:21.950Z</time>
      </trkpt>
      <trkpt lat="44.97364" lon="5.43261">
        <ele>821.457174</ele>
        <time>2023-08-18T21:07:22.767Z</time>
      </trkpt>
      <trkpt lat="44.97418" lon="5.43275">
        <ele>820.179706</ele>
        <time>2023-08-18T21:07:27.754Z</time>
      </trkpt>
      <trkpt lat="44.97476" lon="5.43283">
        <ele>818.533512</ele>
        <time>2023-08-18T21:07:32.084Z</time>
      </trkpt>
      <trkpt lat="44.97545" lon="5.43302">
        <ele>816.671298</ele>
        <time>2023-08-18T21:07:37.296Z</time>
      </trkpt>
      <trkpt lat="44.97561" lon="5.43303">
        <ele>817.404898</ele>
        <time>2023-08-18T21:07:38.625Z</time>
      </trkpt>
      <trkpt lat="44.97596" lon="5.43299">
        <ele>819.041761</ele>
        <time>2023-08-18T21:07:42.187Z</time>
      </trkpt>
      <trkpt lat="44.97628" lon="5.43301">
        <ele>820.517165</ele>
        <time>2023-08-18T21:07:48.937Z</time>
      </trkpt>
      <trkpt lat="44.97629" lon="5.43294">
        <ele>820.738106</ele>
        <time>2023-08-18T21:07:50.296Z</time>
      </trkpt>
      <trkpt lat="44.97627" lon="5.43292">
        <ele>820.869861</ele>
        <time>2023-08-18T21:07:51.244Z</time>
      </trkpt>
      <trkpt lat="44.97561" lon="5.43272">
        <ele>823.982799</ele>
        <time>2023-08-18T21:08:17.586Z</time>
      </trkpt>
      <trkpt lat="44.97505" lon="5.43241">
        <ele>829.843843</ele>
        <time>2023-08-18T21:08:48.971Z</time>
      </trkpt>
      <trkpt lat="44.97491" lon="5.43237">
        <ele>831.631689</ele>
        <time>2023-08-18T21:08:56.907Z</time>
      </trkpt>
      <trkpt lat="44.97407" lon="5.43172">
        <ele>843.329694</ele>
        <time>2023-08-18T21:09:48.250Z</time>
      </trkpt>
      <trkpt lat="44.97371" lon="5.43135">
        <ele>848.232963</ele>
        <time>2023-08-18T21:10:10.502Z</time>
      </trkpt>
      <trkpt lat="44.9734" lon="5.43129">
        <ele>850.813272</ele>
        <time>2023-08-18T21:10:24.788Z</time>
      </trkpt>
      <trkpt lat="44.9733" lon="5.4313">
        <ele>851.671258</ele>
        <time>2023-08-18T21:10:29.210Z</time>
      </trkpt>
      <trkpt lat="44.9732" lon="5.43134">
        <ele>852.581535</ele>
        <time>2023-08-18T21:10:33.810Z</time>
      </trkpt>
      <trkpt lat="44.97312" lon="5.43144">
        <ele>853.494498</ele>
        <time>2023-08-18T21:10:38.338Z</time>
      </trkpt>
      <trkpt lat="44.97292" lon="5.43145">
        <ele>855.149086</ele>
        <time>2023-08-18T21:10:46.001Z</time>
      </trkpt>
      <trkpt lat="44.97271" lon="5.43136">
        <ele>857.024876</ele>
        <time>2023-08-18T21:10:54.179Z</time>
      </trkpt>
      <trkpt lat="44.97233" lon="5.4312">
        <ele>860.437027</ele>
        <time>2023-08-18T21:11:07.418Z</time>
      </trkpt>
      <trkpt lat="44.97192" lon="5.43096">
        <ele>863.087157</ele>
        <time>2023-08-18T21:11:19.719Z</time>
      </trkpt>
      <trkpt lat="44.97098" lon="5.43024">
        <ele>867.245737</ele>
        <time>2023-08-18T21:11:45.984Z</time>
      </trkpt>
      <trkpt lat="44.97078" lon="5.43009">
        <ele>868.15317</ele>
        <time>2023-08-18T21:11:51.443Z</time>
      </trkpt>
      <trkpt lat="44.96903" lon="5.42906">
        <ele>872.158141</ele>
        <time>2023-08-18T21:12:26.773Z</time>
      </trkpt>
      <trkpt lat="44.9686" lon="5.42879">
        <ele>872.295558</ele>
        <time>2023-08-18T21:12:32.579Z</time>
      </trkpt>
      <trkpt lat="44.96801" lon="5.4276">
        <ele>871.725116</ele>
        <time>2023-08-18T21:12:43.119Z</time>
      </trkpt>
      <trkpt lat="44.96781" lon="5.4274">
        <ele>871.585697</ele>
        <time>2023-08-18T21:12:45.416Z</time>
      </trkpt>
      <trkpt lat="44.96706" lon="5.42694">
        <ele>871.374039</ele>
        <time>2023-08-18T21:12:52.921Z</time>
      </trkpt>
      <trkpt lat="44.96688" lon="5.42668">
        <ele>871.335455</ele>
        <time>2023-08-18T21:12:55.507Z</time>
      </trkpt>
      <trkpt lat="44.96664" lon="5.42618">
        <ele>871.271164</ele>
        <time>2023-08-18T21:13:00.379Z</time>
      </trkpt>
      <trkpt lat="44.96653" lon="5.426">
        <ele>871.245918</ele>
        <time>2023-08-18T21:13:02.521Z</time>
      </trkpt>
      <trkpt lat="44.96644" lon="5.42589">
        <ele>871.228615</ele>
        <time>2023-08-18T21:13:04.170Z</time>
      </trkpt>
      <trkpt lat="44.96614" lon="5.42559">
        <ele>871.79014</ele>
        <time>2023-08-18T21:13:10.273Z</time>
      </trkpt>
      <trkpt lat="44.96602" lon="5.42542">
        <ele>872.497795</ele>
        <time>2023-08-18T21:13:13.414Z</time>
      </trkpt>
      <trkpt lat="44.96564" lon="5.42467">
        <ele>875.252397</ele>
        <time>2023-08-18T21:13:28.166Z</time>
      </trkpt>
      <trkpt lat="44.96556" lon="5.42446">
        <ele>875.978324</ele>
        <time>2023-08-18T21:13:32.749Z</time>
      </trkpt>
      <trkpt lat="44.96543" lon="5.42383">
        <ele>877.95466</ele>
        <time>2023-08-18T21:13:47.029Z</time>
      </trkpt>
      <trkpt lat="44.96535" lon="5.42369">
        <ele>878.475214</ele>
        <time>2023-08-18T21:13:51.127Z</time>
      </trkpt>
      <trkpt lat="44.96501" lon="5.42336">
        <ele>881.733207</ele>
        <time>2023-08-18T21:14:05.803Z</time>
      </trkpt>
      <trkpt lat="44.96437" lon="5.42273">
        <ele>888.448578</ele>
        <time>2023-08-18T21:14:35.928Z</time>
      </trkpt>
      <trkpt lat="44.96431" lon="5.42265">
        <ele>889.181787</ele>
        <time>2023-08-18T21:14:39.515Z</time>
      </trkpt>
      <trkpt lat="44.96428" lon="5.42256">
        <ele>889.789173</ele>
        <time>2023-08-18T21:14:42.623Z</time>
      </trkpt>
      <trkpt lat="44.96429" lon="5.42244">
        <ele>890.500508</ele>
        <time>2023-08-18T21:14:46.309Z</time>
      </trkpt>
      <trkpt lat="44.96436" lon="5.42228">
        <ele>891.680373</ele>
        <time>2023-08-18T21:14:52.411Z</time>
      </trkpt>
      <trkpt lat="44.96441" lon="5.42224">
        <ele>892.189628</ele>
        <time>2023-08-18T21:14:55.043Z</time>
      </trkpt>
      <trkpt lat="44.965" lon="5.42226">
        <ele>896.08895</ele>
        <time>2023-08-18T21:15:21.754Z</time>
      </trkpt>
      <trkpt lat="44.96512" lon="5.42222">
        <ele>896.749092</ele>
        <time>2023-08-18T21:15:26.868Z</time>
      </trkpt>
      <trkpt lat="44.96524" lon="5.42212">
        <ele>897.484797</ele>
        <time>2023-08-18T21:15:32.513Z</time>
      </trkpt>
      <trkpt lat="44.9653" lon="5.42203">
        <ele>897.92207</ele>
        <time>2023-08-18T21:15:35.397Z</time>
      </trkpt>
      <trkpt lat="44.96537" lon="5.42171">
        <ele>899.156693</ele>
        <time>2023-08-18T21:15:43.598Z</time>
      </trkpt>
      <trkpt lat="44.9654" lon="5.42135">
        <ele>900.48182</ele>
        <time>2023-08-18T21:15:49.780Z</time>
      </trkpt>
      <trkpt lat="44.9655" lon="5.421">
        <ele>901.855798</ele>
        <time>2023-08-18T21:15:55.013Z</time>
      </trkpt>
      <trkpt lat="44.9656" lon="5.42076">
        <ele>902.873388</ele>
        <time>2023-08-18T21:15:58.103Z</time>
      </trkpt>
      <trkpt lat="44.96598" lon="5.41982">
        <ele>901.392538</ele>
        <time>2023-08-18T21:16:05.358Z</time>
      </trkpt>
      <trkpt lat="44.96613" lon="5.41948">
        <ele>900.32197</ele>
        <time>2023-08-18T21:16:07.572Z</time>
      </trkpt>
      <trkpt lat="44.96642" lon="5.41898">
        <ele>898.575111</ele>
        <time>2023-08-18T21:16:10.982Z</time>
      </trkpt>
      <trkpt lat="44.96645" lon="5.41891">
        <ele>898.338107</ele>
        <time>2023-08-18T21:16:11.420Z</time>
      </trkpt>
      <trkpt lat="44.96644" lon="5.4188">
        <ele>898.035802</ele>
        <time>2023-08-18T21:16:11.984Z</time>
      </trkpt>
      <trkpt lat="44.96661" lon="5.41853">
        <ele>897.061876</ele>
        <time>2023-08-18T21:16:13.823Z</time>
      </trkpt>
      <trkpt lat="44.96689" lon="5.41765">
        <ele>893.839833</ele>
        <time>2023-08-18T21:16:18.782Z</time>
      </trkpt>
      <trkpt lat="44.96698" lon="5.41733">
        <ele>892.68977</ele>
        <time>2023-08-18T21:16:20.590Z</time>
      </trkpt>
      <trkpt lat="44.96708" lon="5.41698">
        <ele>891.397817</ele>
        <time>2023-08-18T21:16:22.655Z</time>
      </trkpt>
      <trkpt lat="44.96719" lon="5.41661">
        <ele>890.060926</ele>
        <time>2023-08-18T21:16:24.882Z</time>
      </trkpt>
      <trkpt lat="44.96729" lon="5.41628">
        <ele>888.831906</ele>
        <time>2023-08-18T21:16:26.983Z</time>
      </trkpt>
      <trkpt lat="44.96738" lon="5.41581">
        <ele>887.701009</ele>
        <time>2023-08-18T21:16:29.827Z</time>
      </trkpt>
      <trkpt lat="44.96739" lon="5.4157">
        <ele>887.525386</ele>
        <time>2023-08-18T21:16:30.422Z</time>
      </trkpt>
      <trkpt lat="44.96741" lon="5.41561">
        <ele>887.358098</ele>
        <time>2023-08-18T21:16:31.010Z</time>
      </trkpt>
      <trkpt lat="44.96742" lon="5.41555">
        <ele>887.255856</ele>
        <time>2023-08-18T21:16:31.376Z</time>
      </trkpt>
      <trkpt lat="44.96732" lon="5.41552">
        <ele>887.006382</ele>
        <time>2023-08-18T21:16:32.238Z</time>
      </trkpt>
      <trkpt lat="44.9672" lon="5.41552">
        <ele>886.728473</ele>
        <time>2023-08-18T21:16:33.195Z</time>
      </trkpt>
      <trkpt lat="44.96716" lon="5.4155">
        <ele>886.626138</ele>
        <time>2023-08-18T21:16:33.539Z</time>
      </trkpt>
      <trkpt lat="44.9666" lon="5.41513">
        <ele>885.131104</ele>
        <time>2023-08-18T21:16:38.723Z</time>
      </trkpt>
      <trkpt lat="44.96632" lon="5.41496">
        <ele>884.409348</ele>
        <time>2023-08-18T21:16:41.353Z</time>
      </trkpt>
      <trkpt lat="44.96587" lon="5.4147">
        <ele>883.968154</ele>
        <time>2023-08-18T21:16:46.170Z</time>
      </trkpt>
      <trkpt lat="44.96561" lon="5.41452">
        <ele>884.014621</ele>
        <time>2023-08-18T21:16:49.462Z</time>
      </trkpt>
      <trkpt lat="44.96534" lon="5.41422">
        <ele>884.070831</ele>
        <time>2023-08-18T21:16:53.807Z</time>
      </trkpt>
      <trkpt lat="44.96519" lon="5.41397">
        <ele>884.108226</ele>
        <time>2023-08-18T21:16:56.992Z</time>
      </trkpt>
      <trkpt lat="44.96509" lon="5.41372">
        <ele>884.141116</ele>
        <time>2023-08-18T21:16:59.866Z</time>
      </trkpt>
      <trkpt lat="44.96505" lon="5.41354">
        <ele>884.163539</ele>
        <time>2023-08-18T21:17:01.887Z</time>
      </trkpt>
      <trkpt lat="44.96499" lon="5.41258">
        <ele>884.214351</ele>
        <time>2023-08-18T21:17:12.458Z</time>
      </trkpt>
      <trkpt lat="44.96496" lon="5.41244">
        <ele>884.214391</ele>
        <time>2023-08-18T21:17:14.232Z</time>
      </trkpt>
      <trkpt lat="44.96491" lon="5.41233">
        <ele>884.214428</ele>
        <time>2023-08-18T21:17:15.552Z</time>
      </trkpt>
      <trkpt lat="44.96478" lon="5.41219">
        <ele>884.214495</ele>
        <time>2023-08-18T21:17:18.095Z</time>
      </trkpt>
      <trkpt lat="44.96412" lon="5.41171">
        <ele>884.214789</ele>
        <time>2023-08-18T21:17:27.044Z</time>
      </trkpt>
      <trkpt lat="44.96375" lon="5.41139">
        <ele>883.78576</ele>
        <time>2023-08-18T21:17:31.266Z</time>
      </trkpt>
      <trkpt lat="44.96279" lon="5.41035">
        <ele>878.873729</ele>
        <time>2023-08-18T21:17:40.988Z</time>
      </trkpt>
      <trkpt lat="44.9622" lon="5.40997">
        <ele>875.947411</ele>
        <time>2023-08-18T21:17:45.649Z</time>
      </trkpt>
      <trkpt lat="44.96102" lon="5.40921">
        <ele>868.487821</ele>
        <time>2023-08-18T21:17:55.024Z</time>
      </trkpt>
      <trkpt lat="44.96051" lon="5.40909">
        <ele>866.675304</ele>
        <time>2023-08-18T21:17:59.045Z</time>
      </trkpt>
      <trkpt lat="44.96012" lon="5.40901">
        <ele>866.936026</ele>
        <time>2023-08-18T21:18:02.680Z</time>
      </trkpt>
      <trkpt lat="44.95975" lon="5.40888">
        <ele>867.183292</ele>
        <time>2023-08-18T21:18:07.462Z</time>
      </trkpt>
      <trkpt lat="44.95968" lon="5.40883">
        <ele>867.23144</ele>
        <time>2023-08-18T21:18:08.768Z</time>
      </trkpt>
      <trkpt lat="44.95946" lon="5.40863">
        <ele>867.402264</ele>
        <time>2023-08-18T21:18:13.556Z</time>
      </trkpt>
      <trkpt lat="44.95865" lon="5.40776">
        <ele>869.725846</ele>
        <time>2023-08-18T21:18:40.183Z</time>
      </trkpt>
      <trkpt lat="44.9585" lon="5.40756">
        <ele>870.553734</ele>
        <time>2023-08-18T21:18:45.662Z</time>
      </trkpt>
      <trkpt lat="44.95817" lon="5.40703">
        <ele>872.495829</ele>
        <time>2023-08-18T21:18:57.935Z</time>
      </trkpt>
      <trkpt lat="44.95806" lon="5.40689">
        <ele>873.092352</ele>
        <time>2023-08-18T21:19:01.640Z</time>
      </trkpt>
      <trkpt lat="44.95756" lon="5.40643">
        <ele>875.134936</ele>
        <time>2023-08-18T21:19:15.793Z</time>
      </trkpt>
      <trkpt lat="44.95731" lon="5.4063">
        <ele>875.68476</ele>
        <time>2023-08-18T21:19:21.256Z</time>
      </trkpt>
      <trkpt lat="44.95671" lon="5.40603">
        <ele>877.007218</ele>
        <time>2023-08-18T21:19:32.140Z</time>
      </trkpt>
      <trkpt lat="44.95619" lon="5.40581">
        <ele>878.157869</ele>
        <time>2023-08-18T21:19:40.507Z</time>
      </trkpt>
      <trkpt lat="44.95598" lon="5.40558">
        <ele>878.842145</ele>
        <time>2023-08-18T21:19:44.675Z</time>
      </trkpt>
      <trkpt lat="44.95568" lon="5.40518">
        <ele>880.573097</ele>
        <time>2023-08-18T21:19:52.412Z</time>
      </trkpt>
      <trkpt lat="44.95524" lon="5.40468">
        <ele>882.941182</ele>
        <time>2023-08-18T21:20:07.241Z</time>
      </trkpt>
      <trkpt lat="44.95453" lon="5.40414">
        <ele>886.343135</ele>
        <time>2023-08-18T21:20:30.980Z</time>
      </trkpt>
      <trkpt lat="44.95425" lon="5.40396">
        <ele>887.885125</ele>
        <time>2023-08-18T21:20:41.045Z</time>
      </trkpt>
      <trkpt lat="44.95414" lon="5.40384">
        <ele>888.585348</ele>
        <time>2023-08-18T21:20:45.570Z</time>
      </trkpt>
      <trkpt lat="44.95387" lon="5.40342">
        <ele>890.568128</ele>
        <time>2023-08-18T21:20:57.970Z</time>
      </trkpt>
      <trkpt lat="44.95353" lon="5.40283">
        <ele>893.226822</ele>
        <time>2023-08-18T21:21:12.833Z</time>
      </trkpt>
      <trkpt lat="44.95301" lon="5.4023">
        <ele>895.731602</ele>
        <time>2023-08-18T21:21:27.259Z</time>
      </trkpt>
      <trkpt lat="44.95256" lon="5.40166">
        <ele>897.428655</ele>
        <time>2023-08-18T21:21:37.527Z</time>
      </trkpt>
      <trkpt lat="44.9524" lon="5.40149">
        <ele>897.966025</ele>
        <time>2023-08-18T21:21:40.811Z</time>
      </trkpt>
      <trkpt lat="44.95228" lon="5.40141">
        <ele>898.326723</ele>
        <time>2023-08-18T21:21:42.984Z</time>
      </trkpt>
      <trkpt lat="44.95197" lon="5.40132">
        <ele>899.163254</ele>
        <time>2023-08-18T21:21:48.984Z</time>
      </trkpt>
      <trkpt lat="44.95185" lon="5.40124">
        <ele>899.510252</ele>
        <time>2023-08-18T21:21:51.826Z</time>
      </trkpt>
      <trkpt lat="44.95175" lon="5.40114">
        <ele>899.899788</ele>
        <time>2023-08-18T21:21:54.809Z</time>
      </trkpt>
      <trkpt lat="44.95127" lon="5.40044">
        <ele>902.941089</ele>
        <time>2023-08-18T21:22:15.901Z</time>
      </trkpt>
      <trkpt lat="44.95103" lon="5.40023">
        <ele>904.171652</ele>
        <time>2023-08-18T21:22:24.947Z</time>
      </trkpt>
      <trkpt lat="44.95049" lon="5.40003">
        <ele>906.671164</ele>
        <time>2023-08-18T21:22:38.335Z</time>
      </trkpt>
      <trkpt lat="44.95028" lon="5.39982">
        <ele>907.747829</ele>
        <time>2023-08-18T21:22:43.314Z</time>
      </trkpt>
      <trkpt lat="44.95009" lon="5.39952">
        <ele>908.421193</ele>
        <time>2023-08-18T21:22:49.526Z</time>
      </trkpt>
      <trkpt lat="44.95001" lon="5.39934">
        <ele>908.776422</ele>
        <time>2023-08-18T21:22:53.771Z</time>
      </trkpt>
      <trkpt lat="44.95" lon="5.39916">
        <ele>909.08612</ele>
        <time>2023-08-18T21:22:55.978Z</time>
      </trkpt>
      <trkpt lat="44.95006" lon="5.39896">
        <ele>909.45345</ele>
        <time>2023-08-18T21:23:00.048Z</time>
      </trkpt>
      <trkpt lat="44.95019" lon="5.39878">
        <ele>909.891254</ele>
        <time>2023-08-18T21:23:03.231Z</time>
      </trkpt>
      <trkpt lat="44.95048" lon="5.39845">
        <ele>910.774062</ele>
        <time>2023-08-18T21:23:10.026Z</time>
      </trkpt>
      <trkpt lat="44.95055" lon="5.39826">
        <ele>911.134765</ele>
        <time>2023-08-18T21:23:13.029Z</time>
      </trkpt>
      <trkpt lat="44.95055" lon="5.3982">
        <ele>911.23447</ele>
        <time>2023-08-18T21:23:13.971Z</time>
      </trkpt>
      <trkpt lat="44.95051" lon="5.39804">
        <ele>911.516843</ele>
        <time>2023-08-18T21:23:15.661Z</time>
      </trkpt>
      <trkpt lat="44.95046" lon="5.39798">
        <ele>911.689457</ele>
        <time>2023-08-18T21:23:16.561Z</time>
      </trkpt>
      <trkpt lat="44.95028" lon="5.39792">
        <ele>912.184366</ele>
        <time>2023-08-18T21:23:19.892Z</time>
      </trkpt>
      <trkpt lat="44.95024" lon="5.39792">
        <ele>912.320211</ele>
        <time>2023-08-18T21:23:20.619Z</time>
      </trkpt>
      <trkpt lat="44.95016" lon="5.39762">
        <ele>913.055467</ele>
        <time>2023-08-18T21:23:22.962Z</time>
      </trkpt>
      <trkpt lat="44.95014" lon="5.39738">
        <ele>913.634606</ele>
        <time>2023-08-18T21:23:25.612Z</time>
      </trkpt>
      <trkpt lat="44.95017" lon="5.39707">
        <ele>914.351674</ele>
        <time>2023-08-18T21:23:29.356Z</time>
      </trkpt>
      <trkpt lat="44.9502" lon="5.39661">
        <ele>915.436188</ele>
        <time>2023-08-18T21:23:37.659Z</time>
      </trkpt>
      <trkpt lat="44.95021" lon="5.39625">
        <ele>916.281969</ele>
        <time>2023-08-18T21:23:45.496Z</time>
      </trkpt>
      <trkpt lat="44.95019" lon="5.39571">
        <ele>917.568348</ele>
        <time>2023-08-18T21:23:56.252Z</time>
      </trkpt>
      <trkpt lat="44.9502" lon="5.39548">
        <ele>918.155481</ele>
        <time>2023-08-18T21:24:00.102Z</time>
      </trkpt>
      <trkpt lat="44.95027" lon="5.39514">
        <ele>919.247888</ele>
        <time>2023-08-18T21:24:06.648Z</time>
      </trkpt>
      <trkpt lat="44.95052" lon="5.39451">
        <ele>921.43128</ele>
        <time>2023-08-18T21:24:20.417Z</time>
      </trkpt>
      <trkpt lat="44.95066" lon="5.39407">
        <ele>922.919873</ele>
        <time>2023-08-18T21:24:29.361Z</time>
      </trkpt>
      <trkpt lat="44.95071" lon="5.39364">
        <ele>924.24338</ele>
        <time>2023-08-18T21:24:36.857Z</time>
      </trkpt>
      <trkpt lat="44.95075" lon="5.39353">
        <ele>924.622776</ele>
        <time>2023-08-18T21:24:38.921Z</time>
      </trkpt>
      <trkpt lat="44.95107" lon="5.39305">
        <ele>926.538324</ele>
        <time>2023-08-18T21:24:49.954Z</time>
      </trkpt>
      <trkpt lat="44.95116" lon="5.39283">
        <ele>927.252964</ele>
        <time>2023-08-18T21:24:54.298Z</time>
      </trkpt>
      <trkpt lat="44.95121" lon="5.39249">
        <ele>928.214843</ele>
        <time>2023-08-18T21:25:00.416Z</time>
      </trkpt>
      <trkpt lat="44.95129" lon="5.39197">
        <ele>929.691778</ele>
        <time>2023-08-18T21:25:09.768Z</time>
      </trkpt>
      <trkpt lat="44.95134" lon="5.39185">
        <ele>930.083569</ele>
        <time>2023-08-18T21:25:12.119Z</time>
      </trkpt>
      <trkpt lat="44.95141" lon="5.39176">
        <ele>930.443977</ele>
        <time>2023-08-18T21:25:14.339Z</time>
      </trkpt>
      <trkpt lat="44.95153" lon="5.39167">
        <ele>930.997783</ele>
        <time>2023-08-18T21:25:17.661Z</time>
      </trkpt>
      <trkpt lat="44.95168" lon="5.39163">
        <ele>931.575332</ele>
        <time>2023-08-18T21:25:20.981Z</time>
      </trkpt>
      <trkpt lat="44.95229" lon="5.39167">
        <ele>934.262774</ele>
        <time>2023-08-18T21:25:36.223Z</time>
      </trkpt>
      <trkpt lat="44.95252" lon="5.39161">
        <ele>935.377583</ele>
        <time>2023-08-18T21:25:42.584Z</time>
      </trkpt>
      <trkpt lat="44.95262" lon="5.3915">
        <ele>935.992874</ele>
        <time>2023-08-18T21:25:46.255Z</time>
      </trkpt>
      <trkpt lat="44.95299" lon="5.39086">
        <ele>938.782459</ele>
        <time>2023-08-18T21:26:02.459Z</time>
      </trkpt>
      <trkpt lat="44.95319" lon="5.39056">
        <ele>940.168069</ele>
        <time>2023-08-18T21:26:10.607Z</time>
      </trkpt>
      <trkpt lat="44.95356" lon="5.39018">
        <ele>942.570967</ele>
        <time>2023-08-18T21:26:23.623Z</time>
      </trkpt>
      <trkpt lat="44.95366" lon="5.39001">
        <ele>943.452542</ele>
        <time>2023-08-18T21:26:28.062Z</time>
      </trkpt>
      <trkpt lat="44.9537" lon="5.38985">
        <ele>944.153517</ele>
        <time>2023-08-18T21:26:31.318Z</time>
      </trkpt>
      <trkpt lat="44.9537" lon="5.3896">
        <ele>945.175874</ele>
        <time>2023-08-18T21:26:36.645Z</time>
      </trkpt>
      <trkpt lat="44.95362" lon="5.38933">
        <ele>946.345312</ele>
        <time>2023-08-18T21:26:42.527Z</time>
      </trkpt>
      <trkpt lat="44.95249" lon="5.38754">
        <ele>956.575476</ele>
        <time>2023-08-18T21:27:36.335Z</time>
      </trkpt>
      <trkpt lat="44.95213" lon="5.38719">
        <ele>959.420724</ele>
        <time>2023-08-18T21:27:50.833Z</time>
      </trkpt>
      <trkpt lat="44.95209" lon="5.38711">
        <ele>959.847062</ele>
        <time>2023-08-18T21:27:52.977Z</time>
      </trkpt>
      <trkpt lat="44.95208" lon="5.38702">
        <ele>960.227384</ele>
        <time>2023-08-18T21:27:54.915Z</time>
      </trkpt>
      <trkpt lat="44.9521" lon="5.38697">
        <ele>960.508136</ele>
        <time>2023-08-18T21:27:56.341Z</time>
      </trkpt>
      <trkpt lat="44.95213" lon="5.38694">
        <ele>960.746654</ele>
        <time>2023-08-18T21:27:57.528Z</time>
      </trkpt>
      <trkpt lat="44.95223" lon="5.38695">
        <ele>961.330912</ele>
        <time>2023-08-18T21:28:00.535Z</time>
      </trkpt>
      <trkpt lat="44.95255" lon="5.38725">
        <ele>963.925354</ele>
        <time>2023-08-18T21:28:13.579Z</time>
      </trkpt>
      <trkpt lat="44.95292" lon="5.38744">
        <ele>966.733089</ele>
        <time>2023-08-18T21:28:26.765Z</time>
      </trkpt>
      <trkpt lat="44.95356" lon="5.38782">
        <ele>971.680322</ele>
        <time>2023-08-18T21:28:50.476Z</time>
      </trkpt>
      <trkpt lat="44.95439" lon="5.38845">
        <ele>978.879006</ele>
        <time>2023-08-18T21:29:24.680Z</time>
      </trkpt>
      <trkpt lat="44.95475" lon="5.38876">
        <ele>982.441822</ele>
        <time>2023-08-18T21:29:41.041Z</time>
      </trkpt>
      <trkpt lat="44.9548" lon="5.38878">
        <ele>982.935404</ele>
        <time>2023-08-18T21:29:43.429Z</time>
      </trkpt>
      <trkpt lat="44.95486" lon="5.38877">
        <ele>983.370165</ele>
        <time>2023-08-18T21:29:45.439Z</time>
      </trkpt>
      <trkpt lat="44.95491" lon="5.3887">
        <ele>983.983621</ele>
        <time>2023-08-18T21:29:48.317Z</time>
      </trkpt>
      <trkpt lat="44.95489" lon="5.38858">
        <ele>984.684753</ele>
        <time>2023-08-18T21:29:51.574Z</time>
      </trkpt>
      <trkpt lat="44.95485" lon="5.38852">
        <ele>985.158668</ele>
        <time>2023-08-18T21:29:53.822Z</time>
      </trkpt>
      <trkpt lat="44.95456" lon="5.38817">
        <ele>988.408071</ele>
        <time>2023-08-18T21:30:09.334Z</time>
      </trkpt>
      <trkpt lat="44.95407" lon="5.38739">
        <ele>994.551757</ele>
        <time>2023-08-18T21:30:39.356Z</time>
      </trkpt>
      <trkpt lat="44.95371" lon="5.38691">
        <ele>998.529068</ele>
        <time>2023-08-18T21:30:58.325Z</time>
      </trkpt>
      <trkpt lat="44.95273" lon="5.38597">
        <ele>1008.038173</ele>
        <time>2023-08-18T21:31:41.115Z</time>
      </trkpt>
      <trkpt lat="44.95238" lon="5.38572">
        <ele>1011.116324</ele>
        <time>2023-08-18T21:31:54.909Z</time>
      </trkpt>
      <trkpt lat="44.95123" lon="5.38467">
        <ele>1022.945977</ele>
        <time>2023-08-18T21:32:45.710Z</time>
      </trkpt>
      <trkpt lat="44.95078" lon="5.38436">
        <ele>1029.146493</ele>
        <time>2023-08-18T21:33:06.936Z</time>
      </trkpt>
      <trkpt lat="44.95049" lon="5.3842">
        <ele>1033.09457</ele>
        <time>2023-08-18T21:33:21.752Z</time>
      </trkpt>
      <trkpt lat="44.94972" lon="5.38394">
        <ele>1043.235762</ele>
        <time>2023-08-18T21:34:09.886Z</time>
      </trkpt>
      <trkpt lat="44.94958" lon="5.38387">
        <ele>1046.410019</ele>
        <time>2023-08-18T21:34:20.959Z</time>
      </trkpt>
      <trkpt lat="44.94894" lon="5.38345">
        <ele>1061.324941</ele>
        <time>2023-08-18T21:35:15.716Z</time>
      </trkpt>
      <trkpt lat="44.94885" lon="5.38333">
        <ele>1063.929549</ele>
        <time>2023-08-18T21:35:25.288Z</time>
      </trkpt>
      <trkpt lat="44.94882" lon="5.38322">
        <ele>1065.777187</ele>
        <time>2023-08-18T21:35:32.671Z</time>
      </trkpt>
      <trkpt lat="44.9488" lon="5.38303">
        <ele>1068.649623</ele>
        <time>2023-08-18T21:35:44.186Z</time>
      </trkpt>
      <trkpt lat="44.94884" lon="5.38256">
        <ele>1075.848398</ele>
        <time>2023-08-18T21:36:13.059Z</time>
      </trkpt>
      <trkpt lat="44.94877" lon="5.38241">
        <ele>1078.465875</ele>
        <time>2023-08-18T21:36:23.496Z</time>
      </trkpt>
      <trkpt lat="44.9486" lon="5.3823">
        <ele>1082.617433</ele>
        <time>2023-08-18T21:36:39.479Z</time>
      </trkpt>
      <trkpt lat="44.94801" lon="5.38193">
        <ele>1097.445543</ele>
        <time>2023-08-18T21:37:34.523Z</time>
      </trkpt>
      <trkpt lat="44.94743" lon="5.38168">
        <ele>1111.475187</ele>
        <time>2023-08-18T21:38:26.373Z</time>
      </trkpt>
      <trkpt lat="44.94691" lon="5.38138">
        <ele>1123.349574</ele>
        <time>2023-08-18T21:39:09.529Z</time>
      </trkpt>
      <trkpt lat="44.94649" lon="5.38108">
        <ele>1130.259507</ele>
        <time>2023-08-18T21:39:42.888Z</time>
      </trkpt>
      <trkpt lat="44.94587" lon="5.3805">
        <ele>1141.211998</ele>
        <time>2023-08-18T21:40:27.026Z</time>
      </trkpt>
      <trkpt lat="44.94541" lon="5.37984">
        <ele>1149.351442</ele>
        <time>2023-08-18T21:40:55.852Z</time>
      </trkpt>
      <trkpt lat="44.94515" lon="5.3792">
        <ele>1152.608532</ele>
        <time>2023-08-18T21:41:12.534Z</time>
      </trkpt>
      <trkpt lat="44.94498" lon="5.37836">
        <ele>1156.448902</ele>
        <time>2023-08-18T21:41:28.942Z</time>
      </trkpt>
      <trkpt lat="44.94493" lon="5.37746">
        <ele>1160.614985</ele>
        <time>2023-08-18T21:41:45.344Z</time>
      </trkpt>
      <trkpt lat="44.94488" lon="5.3753">
        <ele>1171.761292</ele>
        <time>2023-08-18T21:42:39.114Z</time>
      </trkpt>
      <trkpt lat="44.94478" lon="5.37383">
        <ele>1181.910481</ele>
        <time>2023-08-18T21:43:27.444Z</time>
      </trkpt>
      <trkpt lat="44.94395" lon="5.37124">
        <ele>1199.145992</ele>
        <time>2023-08-18T21:44:54.914Z</time>
      </trkpt>
      <trkpt lat="44.94384" lon="5.37038">
        <ele>1203.782919</ele>
        <time>2023-08-18T21:45:10.463Z</time>
      </trkpt>
      <trkpt lat="44.94397" lon="5.36965">
        <ele>1204.616175</ele>
        <time>2023-08-18T21:45:20.977Z</time>
      </trkpt>
      <trkpt lat="44.944" lon="5.36911">
        <ele>1205.105566</ele>
        <time>2023-08-18T21:45:27.052Z</time>
      </trkpt>
      <trkpt lat="44.94387" lon="5.36861">
        <ele>1205.590526</ele>
        <time>2023-08-18T21:45:31.884Z</time>
      </trkpt>
      <trkpt lat="44.94377" lon="5.36795">
        <ele>1206.210478</ele>
        <time>2023-08-18T21:45:37.319Z</time>
      </trkpt>
      <trkpt lat="44.94368" lon="5.36753">
        <ele>1206.684073</ele>
        <time>2023-08-18T21:45:40.632Z</time>
      </trkpt>
      <trkpt lat="44.94353" lon="5.36698">
        <ele>1207.339604</ele>
        <time>2023-08-18T21:45:46.393Z</time>
      </trkpt>
      <trkpt lat="44.9435" lon="5.36678">
        <ele>1207.57245</ele>
        <time>2023-08-18T21:45:48.837Z</time>
      </trkpt>
      <trkpt lat="44.94354" lon="5.36645">
        <ele>1207.943729</ele>
        <time>2023-08-18T21:45:53.089Z</time>
      </trkpt>
      <trkpt lat="44.94372" lon="5.36612">
        <ele>1208.41392</ele>
        <time>2023-08-18T21:45:59.002Z</time>
      </trkpt>
      <trkpt lat="44.94379" lon="5.3659">
        <ele>1208.684231</ele>
        <time>2023-08-18T21:46:02.900Z</time>
      </trkpt>
      <trkpt lat="44.94383" lon="5.36565">
        <ele>1208.972619</ele>
        <time>2023-08-18T21:46:06.872Z</time>
      </trkpt>
      <trkpt lat="44.94382" lon="5.36505">
        <ele>1210.006054</ele>
        <time>2023-08-18T21:46:15.560Z</time>
      </trkpt>
      <trkpt lat="44.9438" lon="5.36478">
        <ele>1210.519824</ele>
        <time>2023-08-18T21:46:19.382Z</time>
      </trkpt>
      <trkpt lat="44.94363" lon="5.36414">
        <ele>1211.816031</ele>
        <time>2023-08-18T21:46:29.039Z</time>
      </trkpt>
      <trkpt lat="44.94355" lon="5.3638">
        <ele>1212.487345</ele>
        <time>2023-08-18T21:46:34.113Z</time>
      </trkpt>
      <trkpt lat="44.94356" lon="5.36361">
        <ele>1212.857263</ele>
        <time>2023-08-18T21:46:36.577Z</time>
      </trkpt>
      <trkpt lat="44.9436" lon="5.36345">
        <ele>1213.177571</ele>
        <time>2023-08-18T21:46:39.172Z</time>
      </trkpt>
      <trkpt lat="44.94414" lon="5.36244">
        <ele>1215.05694</ele>
        <time>2023-08-18T21:46:58.163Z</time>
      </trkpt>
      <trkpt lat="44.94416" lon="5.36241">
        <ele>1215.114947</ele>
        <time>2023-08-18T21:46:58.700Z</time>
      </trkpt>
      <trkpt lat="44.94418" lon="5.36237">
        <ele>1215.181555</ele>
        <time>2023-08-18T21:46:59.404Z</time>
      </trkpt>
      <trkpt lat="44.94419" lon="5.36235">
        <ele>1215.209562</ele>
        <time>2023-08-18T21:46:59.702Z</time>
      </trkpt>
      <trkpt lat="44.94428" lon="5.3622">
        <ele>1215.472618</ele>
        <time>2023-08-18T21:47:02.437Z</time>
      </trkpt>
      <trkpt lat="44.94441" lon="5.36204">
        <ele>1215.792833</ele>
        <time>2023-08-18T21:47:05.189Z</time>
      </trkpt>
      <trkpt lat="44.94457" lon="5.36193">
        <ele>1216.116358</ele>
        <time>2023-08-18T21:47:07.944Z</time>
      </trkpt>
      <trkpt lat="44.94514" lon="5.36174">
        <ele>1217.194834</ele>
        <time>2023-08-18T21:47:17.179Z</time>
      </trkpt>
      <trkpt lat="44.94661" lon="5.36078">
        <ele>1218.236063</ele>
        <time>2023-08-18T21:47:39.539Z</time>
      </trkpt>
      <trkpt lat="44.94669" lon="5.36063">
        <ele>1218.318207</ele>
        <time>2023-08-18T21:47:41.041Z</time>
      </trkpt>
      <trkpt lat="44.94673" lon="5.36042">
        <ele>1218.382124</ele>
        <time>2023-08-18T21:47:43.156Z</time>
      </trkpt>
      <trkpt lat="44.94664" lon="5.3595">
        <ele>1218.550815</ele>
        <time>2023-08-18T21:47:51.875Z</time>
      </trkpt>
      <trkpt lat="44.94666" lon="5.35929">
        <ele>1218.588425</ele>
        <time>2023-08-18T21:47:54.048Z</time>
      </trkpt>
      <trkpt lat="44.9469" lon="5.35843">
        <ele>1218.75738</ele>
        <time>2023-08-18T21:48:01.348Z</time>
      </trkpt>
      <trkpt lat="44.94701" lon="5.35824">
        <ele>1218.801766</ele>
        <time>2023-08-18T21:48:03.728Z</time>
      </trkpt>
      <trkpt lat="44.94736" lon="5.3577">
        <ele>1218.754553</ele>
        <time>2023-08-18T21:48:10.573Z</time>
      </trkpt>
      <trkpt lat="44.94749" lon="5.35756">
        <ele>1218.728169</ele>
        <time>2023-08-18T21:48:12.805Z</time>
      </trkpt>
      <trkpt lat="44.94779" lon="5.3574">
        <ele>1218.6782</ele>
        <time>2023-08-18T21:48:16.800Z</time>
      </trkpt>
      <trkpt lat="44.94823" lon="5.35694">
        <ele>1218.592316</ele>
        <time>2023-08-18T21:48:23.276Z</time>
      </trkpt>
      <trkpt lat="44.94843" lon="5.35677">
        <ele>1218.555493</ele>
        <time>2023-08-18T21:48:25.797Z</time>
      </trkpt>
      <trkpt lat="44.94873" lon="5.35659">
        <ele>1217.830147</ele>
        <time>2023-08-18T21:48:28.919Z</time>
      </trkpt>
      <trkpt lat="44.94901" lon="5.35637">
        <ele>1216.861929</ele>
        <time>2023-08-18T21:48:31.672Z</time>
      </trkpt>
      <trkpt lat="44.94956" lon="5.3558">
        <ele>1214.799681</ele>
        <time>2023-08-18T21:48:37.106Z</time>
      </trkpt>
      <trkpt lat="44.94979" lon="5.35558">
        <ele>1213.953438</ele>
        <time>2023-08-18T21:48:39.281Z</time>
      </trkpt>
      <trkpt lat="44.94993" lon="5.35551">
        <ele>1213.502195</ele>
        <time>2023-08-18T21:48:40.424Z</time>
      </trkpt>
      <trkpt lat="44.95005" lon="5.3555">
        <ele>1213.146899</ele>
        <time>2023-08-18T21:48:41.331Z</time>
      </trkpt>
      <trkpt lat="44.95036" lon="5.35562">
        <ele>1211.785393</ele>
        <time>2023-08-18T21:48:43.803Z</time>
      </trkpt>
      <trkpt lat="44.95063" lon="5.35568">
        <ele>1210.572605</ele>
        <time>2023-08-18T21:48:45.984Z</time>
      </trkpt>
      <trkpt lat="44.95074" lon="5.35577">
        <ele>1210.041546</ele>
        <time>2023-08-18T21:48:46.917Z</time>
      </trkpt>
      <trkpt lat="44.95093" lon="5.35616">
        <ele>1208.585625</ele>
        <time>2023-08-18T21:48:49.481Z</time>
      </trkpt>
      <trkpt lat="44.95101" lon="5.35621">
        <ele>1208.20959</ele>
        <time>2023-08-18T21:48:50.141Z</time>
      </trkpt>
      <trkpt lat="44.95124" lon="5.35616">
        <ele>1207.162783</ele>
        <time>2023-08-18T21:48:51.956Z</time>
      </trkpt>
      <trkpt lat="44.95161" lon="5.35595">
        <ele>1205.455071</ele>
        <time>2023-08-18T21:48:54.963Z</time>
      </trkpt>
      <trkpt lat="44.95195" lon="5.35581">
        <ele>1204.189143</ele>
        <time>2023-08-18T21:48:57.770Z</time>
      </trkpt>
      <trkpt lat="44.95341" lon="5.3556">
        <ele>1199.142393</ele>
        <time>2023-08-18T21:49:09.786Z</time>
      </trkpt>
      <trkpt lat="44.95411" lon="5.35533">
        <ele>1196.340752</ele>
        <time>2023-08-18T21:49:15.528Z</time>
      </trkpt>
      <trkpt lat="44.95448" lon="5.35512">
        <ele>1194.810072</ele>
        <time>2023-08-18T21:49:18.531Z</time>
      </trkpt>
      <trkpt lat="44.95498" lon="5.35461">
        <ele>1192.421587</ele>
        <time>2023-08-18T21:49:23.190Z</time>
      </trkpt>
      <trkpt lat="44.9552" lon="5.35451">
        <ele>1192.121672</ele>
        <time>2023-08-18T21:49:25.020Z</time>
      </trkpt>
      <trkpt lat="44.9561" lon="5.35443">
        <ele>1191.900494</ele>
        <time>2023-08-18T21:49:34.637Z</time>
      </trkpt>
      <trkpt lat="44.95626" lon="5.35436">
        <ele>1191.857978</ele>
        <time>2023-08-18T21:49:37.080Z</time>
      </trkpt>
      <trkpt lat="44.95634" lon="5.35423">
        <ele>1191.828218</ele>
        <time>2023-08-18T21:49:39.115Z</time>
      </trkpt>
      <trkpt lat="44.95635" lon="5.35404">
        <ele>1191.79523</ele>
        <time>2023-08-18T21:49:41.397Z</time>
      </trkpt>
      <trkpt lat="44.95629" lon="5.35387">
        <ele>1191.760964</ele>
        <time>2023-08-18T21:49:43.824Z</time>
      </trkpt>
      <trkpt lat="44.95622" lon="5.35377">
        <ele>1191.738796</ele>
        <time>2023-08-18T21:49:45.491Z</time>
      </trkpt>
      <trkpt lat="44.95572" lon="5.35328">
        <ele>1191.936126</ele>
        <time>2023-08-18T21:49:57.157Z</time>
      </trkpt>
      <trkpt lat="44.95493" lon="5.3528">
        <ele>1192.286228</ele>
        <time>2023-08-18T21:50:12.022Z</time>
      </trkpt>
      <trkpt lat="44.95482" lon="5.3526">
        <ele>1192.359549</ele>
        <time>2023-08-18T21:50:13.659Z</time>
      </trkpt>
      <trkpt lat="44.95471" lon="5.35221">
        <ele>1191.996856</ele>
        <time>2023-08-18T21:50:16.104Z</time>
      </trkpt>
      <trkpt lat="44.95448" lon="5.35181">
        <ele>1189.609118</ele>
        <time>2023-08-18T21:50:18.852Z</time>
      </trkpt>
      <trkpt lat="44.95443" lon="5.3516">
        <ele>1188.580217</ele>
        <time>2023-08-18T21:50:20.003Z</time>
      </trkpt>
      <trkpt lat="44.95443" lon="5.35151">
        <ele>1188.155412</ele>
        <time>2023-08-18T21:50:20.479Z</time>
      </trkpt>
      <trkpt lat="44.95447" lon="5.35141">
        <ele>1187.635043</ele>
        <time>2023-08-18T21:50:21.048Z</time>
      </trkpt>
      <trkpt lat="44.95469" lon="5.35117">
        <ele>1185.850722</ele>
        <time>2023-08-18T21:50:22.991Z</time>
      </trkpt>
      <trkpt lat="44.95491" lon="5.35108">
        <ele>1184.310898</ele>
        <time>2023-08-18T21:50:24.641Z</time>
      </trkpt>
      <trkpt lat="44.95561" lon="5.35137">
        <ele>1179.539564</ele>
        <time>2023-08-18T21:50:29.721Z</time>
      </trkpt>
      <trkpt lat="44.95627" lon="5.35147">
        <ele>1175.158481</ele>
        <time>2023-08-18T21:50:34.397Z</time>
      </trkpt>
      <trkpt lat="44.95648" lon="5.35155">
        <ele>1173.70234</ele>
        <time>2023-08-18T21:50:35.981Z</time>
      </trkpt>
      <trkpt lat="44.9574" lon="5.35211">
        <ele>1168.053773</ele>
        <time>2023-08-18T21:50:43.513Z</time>
      </trkpt>
      <trkpt lat="44.95779" lon="5.35223">
        <ele>1166.960848</ele>
        <time>2023-08-18T21:50:46.767Z</time>
      </trkpt>
      <trkpt lat="44.958" lon="5.35225">
        <ele>1166.378074</ele>
        <time>2023-08-18T21:50:48.576Z</time>
      </trkpt>
      <trkpt lat="44.95837" lon="5.3524">
        <ele>1165.295013</ele>
        <time>2023-08-18T21:50:51.977Z</time>
      </trkpt>
      <trkpt lat="44.95867" lon="5.35242">
        <ele>1164.466457</ele>
        <time>2023-08-18T21:50:54.607Z</time>
      </trkpt>
      <trkpt lat="44.95912" lon="5.35219">
        <ele>1163.633641</ele>
        <time>2023-08-18T21:50:58.925Z</time>
      </trkpt>
      <trkpt lat="44.95929" lon="5.35215">
        <ele>1163.51772</ele>
        <time>2023-08-18T21:51:00.537Z</time>
      </trkpt>
      <trkpt lat="44.9594" lon="5.35217">
        <ele>1163.443308</ele>
        <time>2023-08-18T21:51:01.603Z</time>
      </trkpt>
      <trkpt lat="44.95976" lon="5.3523">
        <ele>1163.188019</ele>
        <time>2023-08-18T21:51:05.187Z</time>
      </trkpt>
      <trkpt lat="44.96022" lon="5.35261">
        <ele>1162.840931</ele>
        <time>2023-08-18T21:51:10.429Z</time>
      </trkpt>
      <trkpt lat="44.96093" lon="5.35339">
        <ele>1163.531056</ele>
        <time>2023-08-18T21:51:22.780Z</time>
      </trkpt>
      <trkpt lat="44.9614" lon="5.35364">
        <ele>1164.498936</ele>
        <time>2023-08-18T21:51:31.879Z</time>
      </trkpt>
      <trkpt lat="44.9618" lon="5.35408">
        <ele>1165.484215</ele>
        <time>2023-08-18T21:51:42.318Z</time>
      </trkpt>
      <trkpt lat="44.96194" lon="5.35418">
        <ele>1165.788861</ele>
        <time>2023-08-18T21:51:45.551Z</time>
      </trkpt>
      <trkpt lat="44.96216" lon="5.35427">
        <ele>1166.466054</ele>
        <time>2023-08-18T21:51:50.396Z</time>
      </trkpt>
      <trkpt lat="44.96227" lon="5.35434">
        <ele>1167.004399</ele>
        <time>2023-08-18T21:51:53.052Z</time>
      </trkpt>
      <trkpt lat="44.96261" lon="5.35481">
        <ele>1169.145179</ele>
        <time>2023-08-18T21:52:04.230Z</time>
      </trkpt>
      <trkpt lat="44.96279" lon="5.35513">
        <ele>1170.435026</ele>
        <time>2023-08-18T21:52:11.512Z</time>
      </trkpt>
      <trkpt lat="44.96299" lon="5.35555">
        <ele>1172.050017</ele>
        <time>2023-08-18T21:52:21.245Z</time>
      </trkpt>
      <trkpt lat="44.96314" lon="5.35576">
        <ele>1173.006962</ele>
        <time>2023-08-18T21:52:27.473Z</time>
      </trkpt>
      <trkpt lat="44.96332" lon="5.35592">
        <ele>1173.960127</ele>
        <time>2023-08-18T21:52:34.023Z</time>
      </trkpt>
      <trkpt lat="44.96369" lon="5.35619">
        <ele>1176.303589</ele>
        <time>2023-08-18T21:52:47.931Z</time>
      </trkpt>
      <trkpt lat="44.96385" lon="5.35625">
        <ele>1177.252782</ele>
        <time>2023-08-18T21:52:53.568Z</time>
      </trkpt>
      <trkpt lat="44.96402" lon="5.35625">
        <ele>1178.198188</ele>
        <time>2023-08-18T21:52:59.343Z</time>
      </trkpt>
      <trkpt lat="44.96412" lon="5.35616">
        <ele>1178.901244</ele>
        <time>2023-08-18T21:53:03.702Z</time>
      </trkpt>
      <trkpt lat="44.96426" lon="5.35599">
        <ele>1179.918699</ele>
        <time>2023-08-18T21:53:09.973Z</time>
      </trkpt>
      <trkpt lat="44.96451" lon="5.35544">
        <ele>1182.56802</ele>
        <time>2023-08-18T21:53:24.331Z</time>
      </trkpt>
      <trkpt lat="44.96458" lon="5.35509">
        <ele>1184.074501</ele>
        <time>2023-08-18T21:53:31.354Z</time>
      </trkpt>
      <trkpt lat="44.96463" lon="5.35417">
        <ele>1183.98215</ele>
        <time>2023-08-18T21:53:44.061Z</time>
      </trkpt>
      <trkpt lat="44.96473" lon="5.35392">
        <ele>1183.821503</ele>
        <time>2023-08-18T21:53:46.542Z</time>
      </trkpt>
      <trkpt lat="44.96492" lon="5.35378">
        <ele>1183.654765</ele>
        <time>2023-08-18T21:53:48.908Z</time>
      </trkpt>
      <trkpt lat="44.96532" lon="5.35385">
        <ele>1183.342769</ele>
        <time>2023-08-18T21:53:52.265Z</time>
      </trkpt>
      <trkpt lat="44.96544" lon="5.35383">
        <ele>1183.248336</ele>
        <time>2023-08-18T21:53:53.193Z</time>
      </trkpt>
      <trkpt lat="44.96563" lon="5.35371">
        <ele>1183.084414</ele>
        <time>2023-08-18T21:53:54.785Z</time>
      </trkpt>
      <trkpt lat="44.96572" lon="5.35362">
        <ele>1182.803108</ele>
        <time>2023-08-18T21:53:55.601Z</time>
      </trkpt>
      <trkpt lat="44.96587" lon="5.35336">
        <ele>1181.546814</ele>
        <time>2023-08-18T21:53:57.356Z</time>
      </trkpt>
      <trkpt lat="44.96599" lon="5.35287">
        <ele>1179.621499</ele>
        <time>2023-08-18T21:53:59.968Z</time>
      </trkpt>
      <trkpt lat="44.96619" lon="5.35215">
        <ele>1176.725163</ele>
        <time>2023-08-18T21:54:03.964Z</time>
      </trkpt>
      <trkpt lat="44.96619" lon="5.35192">
        <ele>1175.833332</ele>
        <time>2023-08-18T21:54:05.243Z</time>
      </trkpt>
      <trkpt lat="44.96612" lon="5.35159">
        <ele>1174.546849</ele>
        <time>2023-08-18T21:54:07.112Z</time>
      </trkpt>
      <trkpt lat="44.96597" lon="5.35124">
        <ele>1173.161973</ele>
        <time>2023-08-18T21:54:09.361Z</time>
      </trkpt>
      <trkpt lat="44.96571" lon="5.35083">
        <ele>1171.66515</ele>
        <time>2023-08-18T21:54:12.479Z</time>
      </trkpt>
      <trkpt lat="44.96554" lon="5.35069">
        <ele>1170.919689</ele>
        <time>2023-08-18T21:54:14.040Z</time>
      </trkpt>
      <trkpt lat="44.96518" lon="5.35077">
        <ele>1169.547081</ele>
        <time>2023-08-18T21:54:16.912Z</time>
      </trkpt>
      <trkpt lat="44.96495" lon="5.35098">
        <ele>1168.519692</ele>
        <time>2023-08-18T21:54:19.066Z</time>
      </trkpt>
      <trkpt lat="44.9648" lon="5.35104">
        <ele>1167.89753</ele>
        <time>2023-08-18T21:54:20.364Z</time>
      </trkpt>
      <trkpt lat="44.96462" lon="5.3509">
        <ele>1167.126341</ele>
        <time>2023-08-18T21:54:21.972Z</time>
      </trkpt>
      <trkpt lat="44.96437" lon="5.35029">
        <ele>1164.944222</ele>
        <time>2023-08-18T21:54:25.933Z</time>
      </trkpt>
      <trkpt lat="44.96405" lon="5.34994">
        <ele>1163.147285</ele>
        <time>2023-08-18T21:54:28.997Z</time>
      </trkpt>
      <trkpt lat="44.96398" lon="5.34968">
        <ele>1162.245655</ele>
        <time>2023-08-18T21:54:30.523Z</time>
      </trkpt>
      <trkpt lat="44.96401" lon="5.34937">
        <ele>1161.236241</ele>
        <time>2023-08-18T21:54:32.213Z</time>
      </trkpt>
      <trkpt lat="44.96444" lon="5.34808">
        <ele>1156.683439</ele>
        <time>2023-08-18T21:54:39.811Z</time>
      </trkpt>
      <trkpt lat="44.96448" lon="5.3478">
        <ele>1155.791398</ele>
        <time>2023-08-18T21:54:41.306Z</time>
      </trkpt>
      <trkpt lat="44.96437" lon="5.34749">
        <ele>1154.69113</ele>
        <time>2023-08-18T21:54:43.156Z</time>
      </trkpt>
      <trkpt lat="44.96416" lon="5.34725">
        <ele>1153.488206</ele>
        <time>2023-08-18T21:54:45.196Z</time>
      </trkpt>
      <trkpt lat="44.96368" lon="5.34697">
        <ele>1151.182978</ele>
        <time>2023-08-18T21:54:49.202Z</time>
      </trkpt>
      <trkpt lat="44.96288" lon="5.34661">
        <ele>1148.135525</ele>
        <time>2023-08-18T21:54:56.140Z</time>
      </trkpt>
      <trkpt lat="44.96209" lon="5.3465">
        <ele>1145.460288</ele>
        <time>2023-08-18T21:55:02.563Z</time>
      </trkpt>
      <trkpt lat="44.96146" lon="5.34616">
        <ele>1142.654389</ele>
        <time>2023-08-18T21:55:07.866Z</time>
      </trkpt>
      <trkpt lat="44.96091" lon="5.34604">
        <ele>1140.006791</ele>
        <time>2023-08-18T21:55:12.088Z</time>
      </trkpt>
      <trkpt lat="44.96072" lon="5.3459">
        <ele>1138.97864</ele>
        <time>2023-08-18T21:55:13.715Z</time>
      </trkpt>
      <trkpt lat="44.96052" lon="5.34553">
        <ele>1137.386804</ele>
        <time>2023-08-18T21:55:16.235Z</time>
      </trkpt>
      <trkpt lat="44.96027" lon="5.34523">
        <ele>1135.858098</ele>
        <time>2023-08-18T21:55:18.635Z</time>
      </trkpt>
      <trkpt lat="44.95982" lon="5.34493">
        <ele>1132.645421</ele>
        <time>2023-08-18T21:55:22.374Z</time>
      </trkpt>
      <trkpt lat="44.95961" lon="5.34473">
        <ele>1131.044334</ele>
        <time>2023-08-18T21:55:24.197Z</time>
      </trkpt>
      <trkpt lat="44.95946" lon="5.34447">
        <ele>1129.530764</ele>
        <time>2023-08-18T21:55:25.914Z</time>
      </trkpt>
      <trkpt lat="44.95948" lon="5.34409">
        <ele>1127.818918</ele>
        <time>2023-08-18T21:55:27.847Z</time>
      </trkpt>
      <trkpt lat="44.95973" lon="5.34362">
        <ele>1125.150639</ele>
        <time>2023-08-18T21:55:30.873Z</time>
      </trkpt>
      <trkpt lat="44.96202" lon="5.34279">
        <ele>1108.293122</ele>
        <time>2023-08-18T21:55:47.716Z</time>
      </trkpt>
      <trkpt lat="44.96426" lon="5.34279">
        <ele>1092.965176</ele>
        <time>2023-08-18T21:56:03.822Z</time>
      </trkpt>
      <trkpt lat="44.9646" lon="5.34271">
        <ele>1090.767949</ele>
        <time>2023-08-18T21:56:06.301Z</time>
      </trkpt>
      <trkpt lat="44.96534" lon="5.34246">
        <ele>1086.410592</ele>
        <time>2023-08-18T21:56:11.968Z</time>
      </trkpt>
      <trkpt lat="44.96576" lon="5.34247">
        <ele>1085.029049</ele>
        <time>2023-08-18T21:56:15.226Z</time>
      </trkpt>
      <trkpt lat="44.96615" lon="5.34242">
        <ele>1083.744504</ele>
        <time>2023-08-18T21:56:18.352Z</time>
      </trkpt>
      <trkpt lat="44.96637" lon="5.34229">
        <ele>1082.969555</ele>
        <time>2023-08-18T21:56:20.293Z</time>
      </trkpt>
      <trkpt lat="44.96648" lon="5.34206">
        <ele>1082.325911</ele>
        <time>2023-08-18T21:56:22.017Z</time>
      </trkpt>
      <trkpt lat="44.96652" lon="5.34177">
        <ele>1081.633767</ele>
        <time>2023-08-18T21:56:23.858Z</time>
      </trkpt>
      <trkpt lat="44.96647" lon="5.34081">
        <ele>1079.184692</ele>
        <time>2023-08-18T21:56:30.230Z</time>
      </trkpt>
      <trkpt lat="44.9664" lon="5.34055">
        <ele>1078.464674</ele>
        <time>2023-08-18T21:56:32.300Z</time>
      </trkpt>
      <trkpt lat="44.96627" lon="5.34038">
        <ele>1077.838639</ele>
        <time>2023-08-18T21:56:33.782Z</time>
      </trkpt>
      <trkpt lat="44.96579" lon="5.33997">
        <ele>1075.777777</ele>
        <time>2023-08-18T21:56:38.207Z</time>
      </trkpt>
      <trkpt lat="44.96532" lon="5.33919">
        <ele>1071.388568</ele>
        <time>2023-08-18T21:56:43.395Z</time>
      </trkpt>
      <trkpt lat="44.96524" lon="5.33897">
        <ele>1069.935653</ele>
        <time>2023-08-18T21:56:44.612Z</time>
      </trkpt>
      <trkpt lat="44.96522" lon="5.3384">
        <ele>1066.597389</ele>
        <time>2023-08-18T21:56:47.405Z</time>
      </trkpt>
      <trkpt lat="44.96515" lon="5.33814">
        <ele>1064.952565</ele>
        <time>2023-08-18T21:56:48.782Z</time>
      </trkpt>
      <trkpt lat="44.96507" lon="5.33794">
        <ele>1063.571229</ele>
        <time>2023-08-18T21:56:49.932Z</time>
      </trkpt>
      <trkpt lat="44.96482" lon="5.3375">
        <ele>1060.266577</ele>
        <time>2023-08-18T21:56:52.694Z</time>
      </trkpt>
      <trkpt lat="44.96463" lon="5.33688">
        <ele>1058.031644</ele>
        <time>2023-08-18T21:56:56.076Z</time>
      </trkpt>
      <trkpt lat="44.96432" lon="5.33625">
        <ele>1055.989437</ele>
        <time>2023-08-18T21:57:00.156Z</time>
      </trkpt>
      <trkpt lat="44.96429" lon="5.33604">
        <ele>1055.408486</ele>
        <time>2023-08-18T21:57:01.516Z</time>
      </trkpt>
      <trkpt lat="44.9643" lon="5.33582">
        <ele>1054.825812</ele>
        <time>2023-08-18T21:57:03.256Z</time>
      </trkpt>
      <trkpt lat="44.96437" lon="5.33561">
        <ele>1054.20955</ele>
        <time>2023-08-18T21:57:04.781Z</time>
      </trkpt>
      <trkpt lat="44.96476" lon="5.33471">
        <ele>1052.914065</ele>
        <time>2023-08-18T21:57:13.184Z</time>
      </trkpt>
      <trkpt lat="44.96486" lon="5.33456">
        <ele>1053.009226</ele>
        <time>2023-08-18T21:57:15.423Z</time>
      </trkpt>
      <trkpt lat="44.96518" lon="5.3342">
        <ele>1053.26777</ele>
        <time>2023-08-18T21:57:21.228Z</time>
      </trkpt>
      <trkpt lat="44.96537" lon="5.33438">
        <ele>1053.414768</ele>
        <time>2023-08-18T21:57:24.476Z</time>
      </trkpt>
      <trkpt lat="44.96562" lon="5.33454">
        <ele>1053.584896</ele>
        <time>2023-08-18T21:57:28.661Z</time>
      </trkpt>
      <trkpt lat="44.96589" lon="5.33468">
        <ele>1053.765152</ele>
        <time>2023-08-18T21:57:33.258Z</time>
      </trkpt>
      <trkpt lat="44.96653" lon="5.33482">
        <ele>1054.197866</ele>
        <time>2023-08-18T21:57:43.239Z</time>
      </trkpt>
      <trkpt lat="44.96674" lon="5.33495">
        <ele>1054.348817</ele>
        <time>2023-08-18T21:57:45.618Z</time>
      </trkpt>
      <trkpt lat="44.96697" lon="5.3352">
        <ele>1054.54428</ele>
        <time>2023-08-18T21:57:49.435Z</time>
      </trkpt>
      <trkpt lat="44.96744" lon="5.33588">
        <ele>1054.990046</ele>
        <time>2023-08-18T21:57:59.608Z</time>
      </trkpt>
      <trkpt lat="44.96768" lon="5.33611">
        <ele>1054.945739</ele>
        <time>2023-08-18T21:58:03.488Z</time>
      </trkpt>
      <trkpt lat="44.96777" lon="5.33617">
        <ele>1054.904313</ele>
        <time>2023-08-18T21:58:04.714Z</time>
      </trkpt>
      <trkpt lat="44.96798" lon="5.33619">
        <ele>1054.820309</ele>
        <time>2023-08-18T21:58:07.224Z</time>
      </trkpt>
      <trkpt lat="44.96846" lon="5.33614">
        <ele>1054.627897</ele>
        <time>2023-08-18T21:58:12.360Z</time>
      </trkpt>
      <trkpt lat="44.96873" lon="5.33618">
        <ele>1054.519581</ele>
        <time>2023-08-18T21:58:15.111Z</time>
      </trkpt>
      <trkpt lat="44.96948" lon="5.33649">
        <ele>1053.971791</ele>
        <time>2023-08-18T21:58:22.662Z</time>
      </trkpt>
      <trkpt lat="44.96979" lon="5.33653">
        <ele>1053.570831</ele>
        <time>2023-08-18T21:58:25.734Z</time>
      </trkpt>
      <trkpt lat="44.97023" lon="5.33644">
        <ele>1053.011653</ele>
        <time>2023-08-18T21:58:30.012Z</time>
      </trkpt>
      <trkpt lat="44.9704" lon="5.33633">
        <ele>1052.766611</ele>
        <time>2023-08-18T21:58:31.861Z</time>
      </trkpt>
      <trkpt lat="44.9705" lon="5.3362">
        <ele>1052.603736</ele>
        <time>2023-08-18T21:58:33.044Z</time>
      </trkpt>
      <trkpt lat="44.97081" lon="5.3355">
        <ele>1051.65909</ele>
        <time>2023-08-18T21:58:38.403Z</time>
      </trkpt>
      <trkpt lat="44.97096" lon="5.33528">
        <ele>1051.051534</ele>
        <time>2023-08-18T21:58:40.344Z</time>
      </trkpt>
      <trkpt lat="44.97113" lon="5.33514">
        <ele>1050.508495</ele>
        <time>2023-08-18T21:58:42.056Z</time>
      </trkpt>
      <trkpt lat="44.97135" lon="5.33504">
        <ele>1049.880409</ele>
        <time>2023-08-18T21:58:44.012Z</time>
      </trkpt>
      <trkpt lat="44.97247" lon="5.33465">
        <ele>1046.492656</ele>
        <time>2023-08-18T21:58:53.310Z</time>
      </trkpt>
      <trkpt lat="44.97336" lon="5.33445">
        <ele>1042.653838</ele>
        <time>2023-08-18T21:59:00.277Z</time>
      </trkpt>
      <trkpt lat="44.9738" lon="5.33447">
        <ele>1040.804793</ele>
        <time>2023-08-18T21:59:03.674Z</time>
      </trkpt>
      <trkpt lat="44.97438" lon="5.33467">
        <ele>1037.824556</ele>
        <time>2023-08-18T21:59:08.289Z</time>
      </trkpt>
      <trkpt lat="44.97474" lon="5.33477">
        <ele>1035.698305</ele>
        <time>2023-08-18T21:59:11.018Z</time>
      </trkpt>
      <trkpt lat="44.97489" lon="5.33475">
        <ele>1034.790127</ele>
        <time>2023-08-18T21:59:12.180Z</time>
      </trkpt>
      <trkpt lat="44.97561" lon="5.33431">
        <ele>1030.243565</ele>
        <time>2023-08-18T21:59:17.873Z</time>
      </trkpt>
      <trkpt lat="44.97649" lon="5.33366">
        <ele>1024.949737</ele>
        <time>2023-08-18T21:59:24.989Z</time>
      </trkpt>
      <trkpt lat="44.97665" lon="5.33357">
        <ele>1024.048934</ele>
        <time>2023-08-18T21:59:26.256Z</time>
      </trkpt>
      <trkpt lat="44.97691" lon="5.3335">
        <ele>1022.66959</ele>
        <time>2023-08-18T21:59:28.244Z</time>
      </trkpt>
      <trkpt lat="44.97747" lon="5.33347">
        <ele>1019.793478</ele>
        <time>2023-08-18T21:59:32.649Z</time>
      </trkpt>
      <trkpt lat="44.9776" lon="5.33342">
        <ele>1018.961532</ele>
        <time>2023-08-18T21:59:33.988Z</time>
      </trkpt>
      <trkpt lat="44.97783" lon="5.33326">
        <ele>1017.431036</ele>
        <time>2023-08-18T21:59:36.552Z</time>
      </trkpt>
      <trkpt lat="44.97804" lon="5.33294">
        <ele>1015.568392</ele>
        <time>2023-08-18T21:59:39.372Z</time>
      </trkpt>
      <trkpt lat="44.97906" lon="5.33242">
        <ele>1009.000869</ele>
        <time>2023-08-18T21:59:47.150Z</time>
      </trkpt>
      <trkpt lat="44.97921" lon="5.33244">
        <ele>1007.056414</ele>
        <time>2023-08-18T21:59:48.227Z</time>
      </trkpt>
      <trkpt lat="44.97998" lon="5.3326">
        <ele>994.820762</ele>
        <time>2023-08-18T21:59:53.388Z</time>
      </trkpt>
      <trkpt lat="44.98008" lon="5.33265">
        <ele>993.240664</ele>
        <time>2023-08-18T21:59:54.049Z</time>
      </trkpt>
      <trkpt lat="44.98019" lon="5.33286">
        <ele>990.304452</ele>
        <time>2023-08-18T21:59:55.278Z</time>
      </trkpt>
      <trkpt lat="44.98034" lon="5.33297">
        <ele>987.596964</ele>
        <time>2023-08-18T21:59:56.405Z</time>
      </trkpt>
      <trkpt lat="44.98044" lon="5.33298">
        <ele>986.021512</ele>
        <time>2023-08-18T21:59:57.054Z</time>
      </trkpt>
      <trkpt lat="44.98062" lon="5.33292">
        <ele>983.103661</ele>
        <time>2023-08-18T21:59:58.271Z</time>
      </trkpt>
      <trkpt lat="44.98079" lon="5.33292">
        <ele>980.460047</ele>
        <time>2023-08-18T21:59:59.369Z</time>
      </trkpt>
      <trkpt lat="44.98121" lon="5.33307">
        <ele>977.222881</ele>
        <time>2023-08-18T22:00:02.234Z</time>
      </trkpt>
      <trkpt lat="44.98139" lon="5.33308">
        <ele>975.926942</ele>
        <time>2023-08-18T22:00:03.417Z</time>
      </trkpt>
      <trkpt lat="44.98166" lon="5.33303">
        <ele>973.885302</ele>
        <time>2023-08-18T22:00:05.351Z</time>
      </trkpt>
      <trkpt lat="44.98211" lon="5.33307">
        <ele>970.560508</ele>
        <time>2023-08-18T22:00:08.884Z</time>
      </trkpt>
      <trkpt lat="44.98253" lon="5.33319">
        <ele>967.428019</ele>
        <time>2023-08-18T22:00:15.489Z</time>
      </trkpt>
      <trkpt lat="44.98271" lon="5.33319">
        <ele>967.48434</ele>
        <time>2023-08-18T22:00:19.109Z</time>
      </trkpt>
      <trkpt lat="44.9831" lon="5.333">
        <ele>968.534556</ele>
        <time>2023-08-18T22:00:29.215Z</time>
      </trkpt>
      <trkpt lat="44.98344" lon="5.33299">
        <ele>969.402623</ele>
        <time>2023-08-18T22:00:38.970Z</time>
      </trkpt>
      <trkpt lat="44.98357" lon="5.33295">
        <ele>969.738845</ele>
        <time>2023-08-18T22:00:42.424Z</time>
      </trkpt>
      <trkpt lat="44.98396" lon="5.33266">
        <ele>970.859944</ele>
        <time>2023-08-18T22:00:53.024Z</time>
      </trkpt>
      <trkpt lat="44.98479" lon="5.33255">
        <ele>970.05444</ele>
        <time>2023-08-18T22:01:02.208Z</time>
      </trkpt>
      <trkpt lat="44.98552" lon="5.33257">
        <ele>967.616775</ele>
        <time>2023-08-18T22:01:07.766Z</time>
      </trkpt>
      <trkpt lat="44.98571" lon="5.33262">
        <ele>966.961817</ele>
        <time>2023-08-18T22:01:09.196Z</time>
      </trkpt>
      <trkpt lat="44.98603" lon="5.33282">
        <ele>965.801335</ele>
        <time>2023-08-18T22:01:11.721Z</time>
      </trkpt>
      <trkpt lat="44.9871" lon="5.33312">
        <ele>969.915217</ele>
        <time>2023-08-18T22:01:20.962Z</time>
      </trkpt>
      <trkpt lat="44.98734" lon="5.33323">
        <ele>970.895755</ele>
        <time>2023-08-18T22:01:31.583Z</time>
      </trkpt>
      <trkpt lat="44.98778" lon="5.33356">
        <ele>972.951178</ele>
        <time>2023-08-18T22:02:03.364Z</time>
      </trkpt>
      <trkpt lat="44.9879" lon="5.33362">
        <ele>973.918841</ele>
        <time>2023-08-18T22:02:12.107Z</time>
      </trkpt>
      <trkpt lat="44.98813" lon="5.33359">
        <ele>975.697962</ele>
        <time>2023-08-18T22:02:26.752Z</time>
      </trkpt>
      <trkpt lat="44.98824" lon="5.33352">
        <ele>976.642169</ele>
        <time>2023-08-18T22:02:34.163Z</time>
      </trkpt>
      <trkpt lat="44.98833" lon="5.33341">
        <ele>977.623524</ele>
        <time>2023-08-18T22:02:41.546Z</time>
      </trkpt>
      <trkpt lat="44.98848" lon="5.33315">
        <ele>979.48907</ele>
        <time>2023-08-18T22:02:52.098Z</time>
      </trkpt>
      <trkpt lat="44.98864" lon="5.33275">
        <ele>982.052411</ele>
        <time>2023-08-18T22:03:03.347Z</time>
      </trkpt>
      <trkpt lat="44.98874" lon="5.33262">
        <ele>983.074988</ele>
        <time>2023-08-18T22:03:06.557Z</time>
      </trkpt>
      <trkpt lat="44.98884" lon="5.33258">
        <ele>983.927885</ele>
        <time>2023-08-18T22:03:08.702Z</time>
      </trkpt>
      <trkpt lat="44.98894" lon="5.33257">
        <ele>984.713669</ele>
        <time>2023-08-18T22:03:10.034Z</time>
      </trkpt>
      <trkpt lat="44.98911" lon="5.33269">
        <ele>986.14899</ele>
        <time>2023-08-18T22:03:12.366Z</time>
      </trkpt>
      <trkpt lat="44.98936" lon="5.33321">
        <ele>983.878637</ele>
        <time>2023-08-18T22:03:16.666Z</time>
      </trkpt>
      <trkpt lat="44.98959" lon="5.33348">
        <ele>981.247536</ele>
        <time>2023-08-18T22:03:18.968Z</time>
      </trkpt>
      <trkpt lat="44.99017" lon="5.33381">
        <ele>975.77242</ele>
        <time>2023-08-18T22:03:23.226Z</time>
      </trkpt>
      <trkpt lat="44.99044" lon="5.33388">
        <ele>973.373918</ele>
        <time>2023-08-18T22:03:25.044Z</time>
      </trkpt>
      <trkpt lat="44.9907" lon="5.33386">
        <ele>971.170313</ele>
        <time>2023-08-18T22:03:26.732Z</time>
      </trkpt>
      <trkpt lat="44.99118" lon="5.33375">
        <ele>967.998361</ele>
        <time>2023-08-18T22:03:29.983Z</time>
      </trkpt>
      <trkpt lat="44.99176" lon="5.33376">
        <ele>964.189471</ele>
        <time>2023-08-18T22:03:34.266Z</time>
      </trkpt>
      <trkpt lat="44.99212" lon="5.33381">
        <ele>961.829479</ele>
        <time>2023-08-18T22:03:37.295Z</time>
      </trkpt>
      <trkpt lat="44.99254" lon="5.33396">
        <ele>959.676081</ele>
        <time>2023-08-18T22:03:41.418Z</time>
      </trkpt>
      <trkpt lat="44.99354" lon="5.33406">
        <ele>962.087184</ele>
        <time>2023-08-18T22:03:57.909Z</time>
      </trkpt>
      <trkpt lat="44.99411" lon="5.33387">
        <ele>963.498011</ele>
        <time>2023-08-18T22:04:17.122Z</time>
      </trkpt>
      <trkpt lat="44.99453" lon="5.33393">
        <ele>962.199314</ele>
        <time>2023-08-18T22:04:28.815Z</time>
      </trkpt>
      <trkpt lat="44.99496" lon="5.33385">
        <ele>959.754451</ele>
        <time>2023-08-18T22:04:33.129Z</time>
      </trkpt>
      <trkpt lat="44.99523" lon="5.33388">
        <ele>958.241018</ele>
        <time>2023-08-18T22:04:35.185Z</time>
      </trkpt>
      <trkpt lat="44.99574" lon="5.33406">
        <ele>955.282155</ele>
        <time>2023-08-18T22:04:38.794Z</time>
      </trkpt>
      <trkpt lat="44.99625" lon="5.33434">
        <ele>951.036206</ele>
        <time>2023-08-18T22:04:42.454Z</time>
      </trkpt>
      <trkpt lat="44.99688" lon="5.33459">
        <ele>944.628546</ele>
        <time>2023-08-18T22:04:46.738Z</time>
      </trkpt>
      <trkpt lat="44.99789" lon="5.33445">
        <ele>936.955161</ele>
        <time>2023-08-18T22:04:54.409Z</time>
      </trkpt>
      <trkpt lat="44.99836" lon="5.33428">
        <ele>940.381951</ele>
        <time>2023-08-18T22:05:12.893Z</time>
      </trkpt>
      <trkpt lat="44.99843" lon="5.33424">
        <ele>940.964271</ele>
        <time>2023-08-18T22:05:18.352Z</time>
      </trkpt>
      <trkpt lat="44.99893" lon="5.33391">
        <ele>944.797959</ele>
        <time>2023-08-18T22:05:45.397Z</time>
      </trkpt>
      <trkpt lat="44.9991" lon="5.33392">
        <ele>945.997563</ele>
        <time>2023-08-18T22:05:53.405Z</time>
      </trkpt>
      <trkpt lat="44.9993" lon="5.33398">
        <ele>947.4688</ele>
        <time>2023-08-18T22:06:03.555Z</time>
      </trkpt>
      <trkpt lat="44.99943" lon="5.33397">
        <ele>948.379236</ele>
        <time>2023-08-18T22:06:09.018Z</time>
      </trkpt>
      <trkpt lat="44.99957" lon="5.3339">
        <ele>947.777091</ele>
        <time>2023-08-18T22:06:16.026Z</time>
      </trkpt>
      <trkpt lat="44.99979" lon="5.33364">
        <ele>945.230344</ele>
        <time>2023-08-18T22:06:22.291Z</time>
      </trkpt>
      <trkpt lat="45.00014" lon="5.33335">
        <ele>941.535676</ele>
        <time>2023-08-18T22:06:25.180Z</time>
      </trkpt>
      <trkpt lat="45.00031" lon="5.33297">
        <ele>938.660676</ele>
        <time>2023-08-18T22:06:27.291Z</time>
      </trkpt>
      <trkpt lat="45.00054" lon="5.33263">
        <ele>935.690175</ele>
        <time>2023-08-18T22:06:29.456Z</time>
      </trkpt>
      <trkpt lat="45.00087" lon="5.33242">
        <ele>932.439759</ele>
        <time>2023-08-18T22:06:31.832Z</time>
      </trkpt>
      <trkpt lat="45.00126" lon="5.33238">
        <ele>928.246597</ele>
        <time>2023-08-18T22:06:34.419Z</time>
      </trkpt>
      <trkpt lat="45.00141" lon="5.33237">
        <ele>926.683531</ele>
        <time>2023-08-18T22:06:35.407Z</time>
      </trkpt>
      <trkpt lat="45.00159" lon="5.33222">
        <ele>924.401362</ele>
        <time>2023-08-18T22:06:36.875Z</time>
      </trkpt>
      <trkpt lat="45.00176" lon="5.332">
        <ele>921.955679</ele>
        <time>2023-08-18T22:06:38.450Z</time>
      </trkpt>
      <trkpt lat="45.00185" lon="5.33179">
        <ele>920.051531</ele>
        <time>2023-08-18T22:06:39.656Z</time>
      </trkpt>
      <trkpt lat="45.00189" lon="5.33156">
        <ele>918.292562</ele>
        <time>2023-08-18T22:06:40.791Z</time>
      </trkpt>
      <trkpt lat="45.00188" lon="5.33127">
        <ele>916.074032</ele>
        <time>2023-08-18T22:06:42.225Z</time>
      </trkpt>
      <trkpt lat="45.00179" lon="5.33053">
        <ele>912.452516</ele>
        <time>2023-08-18T22:06:46.337Z</time>
      </trkpt>
      <trkpt lat="45.00181" lon="5.33039">
        <ele>912.145167</ele>
        <time>2023-08-18T22:06:47.270Z</time>
      </trkpt>
      <trkpt lat="45.00183" lon="5.3303">
        <ele>911.930412</ele>
        <time>2023-08-18T22:06:48.031Z</time>
      </trkpt>
      <trkpt lat="45.00192" lon="5.33014">
        <ele>911.495211</ele>
        <time>2023-08-18T22:06:50.581Z</time>
      </trkpt>
      <trkpt lat="45.00213" lon="5.33009">
        <ele>910.822954</ele>
        <time>2023-08-18T22:06:53.420Z</time>
      </trkpt>
      <trkpt lat="45.00355" lon="5.33007">
        <ele>905.619472</ele>
        <time>2023-08-18T22:07:04.837Z</time>
      </trkpt>
      <trkpt lat="45.00463" lon="5.32991">
        <ele>900.201231</ele>
        <time>2023-08-18T22:07:12.790Z</time>
      </trkpt>
      <trkpt lat="45.00496" lon="5.32981">
        <ele>898.440334</ele>
        <time>2023-08-18T22:07:15.368Z</time>
      </trkpt>
      <trkpt lat="45.00509" lon="5.32967">
        <ele>897.407714</ele>
        <time>2023-08-18T22:07:16.627Z</time>
      </trkpt>
      <trkpt lat="45.00529" lon="5.3294">
        <ele>895.665573</ele>
        <time>2023-08-18T22:07:18.716Z</time>
      </trkpt>
      <trkpt lat="45.00584" lon="5.32855">
        <ele>890.540134</ele>
        <time>2023-08-18T22:07:24.663Z</time>
      </trkpt>
      <trkpt lat="45.00596" lon="5.32828">
        <ele>889.140042</ele>
        <time>2023-08-18T22:07:26.255Z</time>
      </trkpt>
      <trkpt lat="45.00598" lon="5.32807">
        <ele>888.1634</ele>
        <time>2023-08-18T22:07:27.365Z</time>
      </trkpt>
      <trkpt lat="45.00596" lon="5.32772">
        <ele>886.461976</ele>
        <time>2023-08-18T22:07:29.115Z</time>
      </trkpt>
      <trkpt lat="45.00589" lon="5.32752">
        <ele>885.274906</ele>
        <time>2023-08-18T22:07:30.230Z</time>
      </trkpt>
      <trkpt lat="45.00554" lon="5.32696">
        <ele>881.283114</ele>
        <time>2023-08-18T22:07:33.966Z</time>
      </trkpt>
      <trkpt lat="45.00549" lon="5.32672">
        <ele>879.952108</ele>
        <time>2023-08-18T22:07:35.211Z</time>
      </trkpt>
      <trkpt lat="45.00548" lon="5.3265">
        <ele>878.775958</ele>
        <time>2023-08-18T22:07:36.311Z</time>
      </trkpt>
      <trkpt lat="45.00566" lon="5.32589">
        <ele>875.22872</ele>
        <time>2023-08-18T22:07:39.632Z</time>
      </trkpt>
      <trkpt lat="45.00566" lon="5.32567">
        <ele>874.046629</ele>
        <time>2023-08-18T22:07:40.746Z</time>
      </trkpt>
      <trkpt lat="45.00562" lon="5.32549">
        <ele>873.178679</ele>
        <time>2023-08-18T22:07:41.696Z</time>
      </trkpt>
      <trkpt lat="45.00553" lon="5.32529">
        <ele>872.145998</ele>
        <time>2023-08-18T22:07:42.909Z</time>
      </trkpt>
      <trkpt lat="45.00375" lon="5.32275">
        <ele>857.33455</ele>
        <time>2023-08-18T22:08:01.563Z</time>
      </trkpt>
      <trkpt lat="45.00333" lon="5.32238">
        <ele>854.571302</ele>
        <time>2023-08-18T22:08:05.315Z</time>
      </trkpt>
      <trkpt lat="45.0032" lon="5.32223">
        <ele>853.634657</ele>
        <time>2023-08-18T22:08:06.586Z</time>
      </trkpt>
      <trkpt lat="45.00313" lon="5.32212">
        <ele>853.085205</ele>
        <time>2023-08-18T22:08:07.330Z</time>
      </trkpt>
      <trkpt lat="45.00305" lon="5.32189">
        <ele>852.221118</ele>
        <time>2023-08-18T22:08:08.713Z</time>
      </trkpt>
      <trkpt lat="45.00301" lon="5.32165">
        <ele>851.460843</ele>
        <time>2023-08-18T22:08:10.001Z</time>
      </trkpt>
      <trkpt lat="45.00302" lon="5.32139">
        <ele>850.651305</ele>
        <time>2023-08-18T22:08:11.374Z</time>
      </trkpt>
      <trkpt lat="45.00313" lon="5.3206">
        <ele>848.110212</ele>
        <time>2023-08-18T22:08:15.802Z</time>
      </trkpt>
      <trkpt lat="45.00344" lon="5.32001">
        <ele>845.808631</ele>
        <time>2023-08-18T22:08:19.902Z</time>
      </trkpt>
      <trkpt lat="45.00366" lon="5.31979">
        <ele>844.594353</ele>
        <time>2023-08-18T22:08:21.980Z</time>
      </trkpt>
      <trkpt lat="45.0039" lon="5.31968">
        <ele>843.357612</ele>
        <time>2023-08-18T22:08:23.964Z</time>
      </trkpt>
      <trkpt lat="45.00455" lon="5.31956">
        <ele>840.135156</ele>
        <time>2023-08-18T22:08:29.043Z</time>
      </trkpt>
      <trkpt lat="45.00522" lon="5.3195">
        <ele>836.847411</ele>
        <time>2023-08-18T22:08:34.106Z</time>
      </trkpt>
      <trkpt lat="45.00532" lon="5.31948">
        <ele>836.356335</ele>
        <time>2023-08-18T22:08:34.843Z</time>
      </trkpt>
      <trkpt lat="45.0058" lon="5.31952">
        <ele>831.143179</ele>
        <time>2023-08-18T22:08:38.314Z</time>
      </trkpt>
      <trkpt lat="45.00649" lon="5.31966">
        <ele>823.124466</ele>
        <time>2023-08-18T22:08:43.103Z</time>
      </trkpt>
      <trkpt lat="45.0067" lon="5.31966">
        <ele>820.640206</ele>
        <time>2023-08-18T22:08:44.538Z</time>
      </trkpt>
      <trkpt lat="45.00786" lon="5.31927">
        <ele>805.019102</ele>
        <time>2023-08-18T22:08:52.375Z</time>
      </trkpt>
      <trkpt lat="45.00873" lon="5.31904">
        <ele>792.526721</ele>
        <time>2023-08-18T22:08:58.300Z</time>
      </trkpt>
      <trkpt lat="45.00879" lon="5.319">
        <ele>791.570295</ele>
        <time>2023-08-18T22:08:58.775Z</time>
      </trkpt>
      <trkpt lat="45.00884" lon="5.31893">
        <ele>790.647608</ele>
        <time>2023-08-18T22:08:59.233Z</time>
      </trkpt>
      <trkpt lat="45.00883" lon="5.31876">
        <ele>789.843517</ele>
        <time>2023-08-18T22:09:00.094Z</time>
      </trkpt>
      <trkpt lat="45.00862" lon="5.31841">
        <ele>789.42726</ele>
        <time>2023-08-18T22:09:02.431Z</time>
      </trkpt>
      <trkpt lat="45.00838" lon="5.31814">
        <ele>789.031823</ele>
        <time>2023-08-18T22:09:04.827Z</time>
      </trkpt>
      <trkpt lat="45.00816" lon="5.31777">
        <ele>788.589589</ele>
        <time>2023-08-18T22:09:09.631Z</time>
      </trkpt>
      <trkpt lat="45.00728" lon="5.31602">
        <ele>784.033659</ele>
        <time>2023-08-18T22:09:45.282Z</time>
      </trkpt>
      <trkpt lat="45.00709" lon="5.31558">
        <ele>782.303494</ele>
        <time>2023-08-18T22:09:48.050Z</time>
      </trkpt>
      <trkpt lat="45.00693" lon="5.31509">
        <ele>780.4961</ele>
        <time>2023-08-18T22:09:50.714Z</time>
      </trkpt>
      <trkpt lat="45.00625" lon="5.31277">
        <ele>755.327699</ele>
        <time>2023-08-18T22:10:02.399Z</time>
      </trkpt>
      <trkpt lat="45.00608" lon="5.31211">
        <ele>748.397801</ele>
        <time>2023-08-18T22:10:05.727Z</time>
      </trkpt>
      <trkpt lat="45.00598" lon="5.31189">
        <ele>746.551835</ele>
        <time>2023-08-18T22:10:06.957Z</time>
      </trkpt>
      <trkpt lat="45.00582" lon="5.31178">
        <ele>744.821506</ele>
        <time>2023-08-18T22:10:08.109Z</time>
      </trkpt>
      <trkpt lat="45.00543" lon="5.31172">
        <ele>740.826391</ele>
        <time>2023-08-18T22:10:10.821Z</time>
      </trkpt>
      <trkpt lat="45.00499" lon="5.31124">
        <ele>735.232709</ele>
        <time>2023-08-18T22:10:14.740Z</time>
      </trkpt>
      <trkpt lat="45.00334" lon="5.30979">
        <ele>720.787587</ele>
        <time>2023-08-18T22:10:29.017Z</time>
      </trkpt>
      <trkpt lat="45.00275" lon="5.30898">
        <ele>712.478022</ele>
        <time>2023-08-18T22:10:34.622Z</time>
      </trkpt>
      <trkpt lat="45.00253" lon="5.3083">
        <ele>706.693991</ele>
        <time>2023-08-18T22:10:38.208Z</time>
      </trkpt>
      <trkpt lat="45.00243" lon="5.30755">
        <ele>700.713935</ele>
        <time>2023-08-18T22:10:41.924Z</time>
      </trkpt>
      <trkpt lat="45.00232" lon="5.30705">
        <ele>696.720525</ele>
        <time>2023-08-18T22:10:44.406Z</time>
      </trkpt>
      <trkpt lat="45.0021" lon="5.30648">
        <ele>691.715927</ele>
        <time>2023-08-18T22:10:47.484Z</time>
      </trkpt>
      <trkpt lat="45.00173" lon="5.306">
        <ele>686.241787</ele>
        <time>2023-08-18T22:10:50.857Z</time>
      </trkpt>
      <trkpt lat="45.00141" lon="5.30551">
        <ele>681.116488</ele>
        <time>2023-08-18T22:10:54.126Z</time>
      </trkpt>
      <trkpt lat="45.00117" lon="5.30432">
        <ele>678.629656</ele>
        <time>2023-08-18T22:11:01.172Z</time>
      </trkpt>
      <trkpt lat="45.0008" lon="5.30381">
        <ele>677.512666</ele>
        <time>2023-08-18T22:11:07.254Z</time>
      </trkpt>
      <trkpt lat="44.9999" lon="5.30276">
        <ele>675.084924</ele>
        <time>2023-08-18T22:11:22.623Z</time>
      </trkpt>
      <trkpt lat="44.99833" lon="5.30146">
        <ele>668.125069</ele>
        <time>2023-08-18T22:11:37.153Z</time>
      </trkpt>
      <trkpt lat="44.99791" lon="5.30131">
        <ele>665.306545</ele>
        <time>2023-08-18T22:11:40.113Z</time>
      </trkpt>
      <trkpt lat="44.99782" lon="5.30132">
        <ele>664.710501</ele>
        <time>2023-08-18T22:11:40.735Z</time>
      </trkpt>
      <trkpt lat="44.99778" lon="5.30132">
        <ele>664.439219</ele>
        <time>2023-08-18T22:11:41.026Z</time>
      </trkpt>
      <trkpt lat="44.99756" lon="5.30133">
        <ele>662.975895</ele>
        <time>2023-08-18T22:11:42.558Z</time>
      </trkpt>
      <trkpt lat="44.99735" lon="5.30121">
        <ele>661.489318</ele>
        <time>2023-08-18T22:11:44.134Z</time>
      </trkpt>
      <trkpt lat="44.99668" lon="5.30056">
        <ele>656.028087</ele>
        <time>2023-08-18T22:11:50.010Z</time>
      </trkpt>
      <trkpt lat="44.99622" lon="5.30041">
        <ele>652.878456</ele>
        <time>2023-08-18T22:11:53.503Z</time>
      </trkpt>
      <trkpt lat="44.99591" lon="5.30024">
        <ele>650.683408</ele>
        <time>2023-08-18T22:11:55.875Z</time>
      </trkpt>
      <trkpt lat="44.99483" lon="5.29922">
        <ele>641.964247</ele>
        <time>2023-08-18T22:12:05.443Z</time>
      </trkpt>
      <trkpt lat="44.99475" lon="5.29901">
        <ele>640.826482</ele>
        <time>2023-08-18T22:12:06.691Z</time>
      </trkpt>
      <trkpt lat="44.99469" lon="5.2985">
        <ele>638.401182</ele>
        <time>2023-08-18T22:12:09.311Z</time>
      </trkpt>
      <trkpt lat="44.99461" lon="5.29823">
        <ele>636.98278</ele>
        <time>2023-08-18T22:12:10.802Z</time>
      </trkpt>
      <trkpt lat="44.99453" lon="5.29782">
        <ele>633.19925</ele>
        <time>2023-08-18T22:12:12.850Z</time>
      </trkpt>
      <trkpt lat="44.99437" lon="5.29733">
        <ele>628.11392</ele>
        <time>2023-08-18T22:12:15.488Z</time>
      </trkpt>
      <trkpt lat="44.99422" lon="5.29704">
        <ele>624.712424</ele>
        <time>2023-08-18T22:12:17.222Z</time>
      </trkpt>
      <trkpt lat="44.99413" lon="5.29657">
        <ele>620.235848</ele>
        <time>2023-08-18T22:12:19.476Z</time>
      </trkpt>
      <trkpt lat="44.99397" lon="5.29608">
        <ele>615.150489</ele>
        <time>2023-08-18T22:12:22.028Z</time>
      </trkpt>
      <trkpt lat="44.99395" lon="5.29577">
        <ele>611.930594</ele>
        <time>2023-08-18T22:12:23.473Z</time>
      </trkpt>
      <trkpt lat="44.99401" lon="5.29527">
        <ele>605.546264</ele>
        <time>2023-08-18T22:12:25.806Z</time>
      </trkpt>
      <trkpt lat="44.99418" lon="5.29503">
        <ele>601.091428</ele>
        <time>2023-08-18T22:12:27.433Z</time>
      </trkpt>
      <trkpt lat="44.99426" lon="5.29497">
        <ele>599.526711</ele>
        <time>2023-08-18T22:12:28.006Z</time>
      </trkpt>
      <trkpt lat="44.9945" lon="5.29481">
        <ele>594.745968</ele>
        <time>2023-08-18T22:12:29.746Z</time>
      </trkpt>
      <trkpt lat="44.99477" lon="5.29446">
        <ele>588.063767</ele>
        <time>2023-08-18T22:12:32.185Z</time>
      </trkpt>
      <trkpt lat="44.99506" lon="5.29433">
        <ele>582.708565</ele>
        <time>2023-08-18T22:12:34.134Z</time>
      </trkpt>
      <trkpt lat="44.99541" lon="5.29425">
        <ele>577.34293</ele>
        <time>2023-08-18T22:12:36.454Z</time>
      </trkpt>
      <trkpt lat="44.99567" lon="5.29412">
        <ele>573.452143</ele>
        <time>2023-08-18T22:12:38.291Z</time>
      </trkpt>
      <trkpt lat="44.99621" lon="5.29398">
        <ele>565.875315</ele>
        <time>2023-08-18T22:12:41.887Z</time>
      </trkpt>
      <trkpt lat="44.99664" lon="5.29381">
        <ele>559.57355</ele>
        <time>2023-08-18T22:12:44.963Z</time>
      </trkpt>
      <trkpt lat="44.99729" lon="5.29395">
        <ele>555.46516</ele>
        <time>2023-08-18T22:12:49.788Z</time>
      </trkpt>
      <trkpt lat="44.99764" lon="5.29376">
        <ele>555.160066</ele>
        <time>2023-08-18T22:12:53.452Z</time>
      </trkpt>
      <trkpt lat="44.99774" lon="5.29342">
        <ele>554.950012</ele>
        <time>2023-08-18T22:12:57.213Z</time>
      </trkpt>
      <trkpt lat="44.99763" lon="5.29288">
        <ele>554.629341</ele>
        <time>2023-08-18T22:13:04.071Z</time>
      </trkpt>
      <trkpt lat="44.9972" lon="5.29229">
        <ele>553.992224</ele>
        <time>2023-08-18T22:13:17.195Z</time>
      </trkpt>
      <trkpt lat="44.997" lon="5.29187">
        <ele>553.441223</ele>
        <time>2023-08-18T22:13:25.003Z</time>
      </trkpt>
      <trkpt lat="44.99682" lon="5.29136">
        <ele>552.812588</ele>
        <time>2023-08-18T22:13:31.733Z</time>
      </trkpt>
      <trkpt lat="44.99656" lon="5.29088">
        <ele>552.147238</ele>
        <time>2023-08-18T22:13:35.304Z</time>
      </trkpt>
      <trkpt lat="44.99661" lon="5.29075">
        <ele>551.972986</ele>
        <time>2023-08-18T22:13:36.138Z</time>
      </trkpt>
      <trkpt lat="44.99675" lon="5.29079">
        <ele>551.763266</ele>
        <time>2023-08-18T22:13:37.143Z</time>
      </trkpt>
      <trkpt lat="44.99693" lon="5.29119">
        <ele>549.128207</ele>
        <time>2023-08-18T22:13:39.500Z</time>
      </trkpt>
      <trkpt lat="44.99721" lon="5.29163">
        <ele>543.847426</ele>
        <time>2023-08-18T22:13:42.281Z</time>
      </trkpt>
      <trkpt lat="44.99751" lon="5.29198">
        <ele>538.767901</ele>
        <time>2023-08-18T22:13:44.930Z</time>
      </trkpt>
      <trkpt lat="44.99788" lon="5.29223">
        <ele>533.540107</ele>
        <time>2023-08-18T22:13:47.640Z</time>
      </trkpt>
      <trkpt lat="44.9983" lon="5.29296">
        <ele>524.787187</ele>
        <time>2023-08-18T22:13:52.053Z</time>
      </trkpt>
      <trkpt lat="44.99841" lon="5.2934">
        <ele>520.23122</ele>
        <time>2023-08-18T22:13:54.272Z</time>
      </trkpt>
      <trkpt lat="44.99841" lon="5.29376">
        <ele>516.811166</ele>
        <time>2023-08-18T22:13:55.939Z</time>
      </trkpt>
      <trkpt lat="44.99829" lon="5.29419">
        <ele>512.325417</ele>
        <time>2023-08-18T22:13:58.138Z</time>
      </trkpt>
      <trkpt lat="44.99803" lon="5.29449">
        <ele>507.761314</ele>
        <time>2023-08-18T22:14:00.404Z</time>
      </trkpt>
      <trkpt lat="44.99736" lon="5.29542">
        <ele>500.334424</ele>
        <time>2023-08-18T22:14:06.951Z</time>
      </trkpt>
      <trkpt lat="44.99728" lon="5.29575">
        <ele>498.980627</ele>
        <time>2023-08-18T22:14:08.791Z</time>
      </trkpt>
      <trkpt lat="44.99733" lon="5.29601">
        <ele>497.917823</ele>
        <time>2023-08-18T22:14:10.349Z</time>
      </trkpt>
      <trkpt lat="44.99745" lon="5.29625">
        <ele>496.758145</ele>
        <time>2023-08-18T22:14:12.024Z</time>
      </trkpt>
      <trkpt lat="44.9978" lon="5.29688">
        <ele>493.620189</ele>
        <time>2023-08-18T22:14:17.332Z</time>
      </trkpt>
      <trkpt lat="44.99783" lon="5.29695">
        <ele>493.312498</ele>
        <time>2023-08-18T22:14:17.817Z</time>
      </trkpt>
      <trkpt lat="44.99791" lon="5.29702">
        <ele>492.773113</ele>
        <time>2023-08-18T22:14:18.601Z</time>
      </trkpt>
      <trkpt lat="44.9983" lon="5.29719">
        <ele>490.507438</ele>
        <time>2023-08-18T22:14:22.344Z</time>
      </trkpt>
      <trkpt lat="44.99871" lon="5.29749">
        <ele>487.894918</ele>
        <time>2023-08-18T22:14:26.010Z</time>
      </trkpt>
      <trkpt lat="44.99887" lon="5.29749">
        <ele>486.969555</ele>
        <time>2023-08-18T22:14:27.214Z</time>
      </trkpt>
      <trkpt lat="44.99909" lon="5.29753">
        <ele>485.719709</ele>
        <time>2023-08-18T22:14:28.771Z</time>
      </trkpt>
      <trkpt lat="44.9996" lon="5.29771">
        <ele>480.355637</ele>
        <time>2023-08-18T22:14:32.331Z</time>
      </trkpt>
      <trkpt lat="44.99961" lon="5.29772">
        <ele>480.24909</ele>
        <time>2023-08-18T22:14:32.374Z</time>
      </trkpt>
      <trkpt lat="44.99991" lon="5.29773">
        <ele>474.956525</ele>
        <time>2023-08-18T22:14:34.414Z</time>
      </trkpt>
      <trkpt lat="45.00011" lon="5.29766">
        <ele>471.430325</ele>
        <time>2023-08-18T22:14:35.761Z</time>
      </trkpt>
      <trkpt lat="45.0004" lon="5.29737">
        <ele>465.319511</ele>
        <time>2023-08-18T22:14:38.082Z</time>
      </trkpt>
      <trkpt lat="45.00074" lon="5.29716">
        <ele>458.838621</ele>
        <time>2023-08-18T22:14:40.536Z</time>
      </trkpt>
      <trkpt lat="45.00165" lon="5.29691">
        <ele>442.683242</ele>
        <time>2023-08-18T22:14:46.562Z</time>
      </trkpt>
      <trkpt lat="45.00247" lon="5.29658">
        <ele>427.665492</ele>
        <time>2023-08-18T22:14:52.163Z</time>
      </trkpt>
      <trkpt lat="45.00314" lon="5.29647">
        <ele>419.153435</ele>
        <time>2023-08-18T22:14:56.731Z</time>
      </trkpt>
      <trkpt lat="45.00371" lon="5.29646">
        <ele>415.455967</ele>
        <time>2023-08-18T22:15:00.752Z</time>
      </trkpt>
      <trkpt lat="45.00405" lon="5.29662">
        <ele>413.073898</ele>
        <time>2023-08-18T22:15:03.552Z</time>
      </trkpt>
      <trkpt lat="45.00532" lon="5.29774">
        <ele>406.283013</ele>
        <time>2023-08-18T22:15:16.592Z</time>
      </trkpt>
      <trkpt lat="45.00564" lon="5.29792">
        <ele>405.127834</ele>
        <time>2023-08-18T22:15:19.415Z</time>
      </trkpt>
      <trkpt lat="45.00597" lon="5.29819">
        <ele>403.849961</ele>
        <time>2023-08-18T22:15:22.350Z</time>
      </trkpt>
      <trkpt lat="45.00615" lon="5.29841">
        <ele>402.66979</ele>
        <time>2023-08-18T22:15:24.100Z</time>
      </trkpt>
      <trkpt lat="45.00656" lon="5.2989">
        <ele>398.710058</ele>
        <time>2023-08-18T22:15:28.032Z</time>
      </trkpt>
      <trkpt lat="45.00709" lon="5.29989">
        <ele>392.325139</ele>
        <time>2023-08-18T22:15:34.177Z</time>
      </trkpt>
      <trkpt lat="45.00731" lon="5.3005">
        <ele>388.733398</ele>
        <time>2023-08-18T22:15:37.632Z</time>
      </trkpt>
      <trkpt lat="45.00733" lon="5.30079">
        <ele>387.201098</ele>
        <time>2023-08-18T22:15:39.069Z</time>
      </trkpt>
      <trkpt lat="45.0074" lon="5.30094">
        <ele>386.228503</ele>
        <time>2023-08-18T22:15:40.025Z</time>
      </trkpt>
      <trkpt lat="45.00747" lon="5.30097">
        <ele>385.724221</ele>
        <time>2023-08-18T22:15:40.509Z</time>
      </trkpt>
      <trkpt lat="45.00754" lon="5.30095">
        <ele>385.217193</ele>
        <time>2023-08-18T22:15:40.988Z</time>
      </trkpt>
      <trkpt lat="45.00759" lon="5.30086">
        <ele>384.581584</ele>
        <time>2023-08-18T22:15:41.583Z</time>
      </trkpt>
      <trkpt lat="45.00753" lon="5.30037">
        <ele>381.91036</ele>
        <time>2023-08-18T22:15:44.143Z</time>
      </trkpt>
      <trkpt lat="45.00738" lon="5.29961">
        <ele>377.745009</ele>
        <time>2023-08-18T22:15:48.149Z</time>
      </trkpt>
      <trkpt lat="45.00708" lon="5.29862">
        <ele>370.954941</ele>
        <time>2023-08-18T22:15:53.536Z</time>
      </trkpt>
      <trkpt lat="45.00708" lon="5.29855">
        <ele>370.489937</ele>
        <time>2023-08-18T22:15:53.896Z</time>
      </trkpt>
      <trkpt lat="45.00613" lon="5.2963">
        <ele>351.619986</ele>
        <time>2023-08-18T22:16:06.636Z</time>
      </trkpt>
      <trkpt lat="45.00603" lon="5.29573">
        <ele>346.799506</ele>
        <time>2023-08-18T22:16:09.425Z</time>
      </trkpt>
      <trkpt lat="45.00604" lon="5.29548">
        <ele>344.739051</ele>
        <time>2023-08-18T22:16:10.615Z</time>
      </trkpt>
      <trkpt lat="45.0061" lon="5.29521">
        <ele>342.440507</ele>
        <time>2023-08-18T22:16:11.947Z</time>
      </trkpt>
      <trkpt lat="45.00618" lon="5.29496">
        <ele>340.166763</ele>
        <time>2023-08-18T22:16:13.258Z</time>
      </trkpt>
      <trkpt lat="45.00658" lon="5.2938">
        <ele>329.183752</ele>
        <time>2023-08-18T22:16:19.394Z</time>
      </trkpt>
      <trkpt lat="45.00659" lon="5.29378">
        <ele>328.959222</ele>
        <time>2023-08-18T22:16:19.516Z</time>
      </trkpt>
      <trkpt lat="45.00659" lon="5.29376">
        <ele>328.838127</ele>
        <time>2023-08-18T22:16:19.585Z</time>
      </trkpt>
      <trkpt lat="45.00675" lon="5.29345">
        <ele>325.553255</ele>
        <time>2023-08-18T22:16:21.420Z</time>
      </trkpt>
      <trkpt lat="45.00683" lon="5.29332">
        <ele>324.094794</ele>
        <time>2023-08-18T22:16:22.235Z</time>
      </trkpt>
      <trkpt lat="45.00698" lon="5.29318">
        <ele>321.94941</ele>
        <time>2023-08-18T22:16:23.439Z</time>
      </trkpt>
      <trkpt lat="45.00858" lon="5.29202">
        <ele>302.491901</ele>
        <time>2023-08-18T22:16:35.795Z</time>
      </trkpt>
      <trkpt lat="45.00895" lon="5.29176">
        <ele>298.264764</ele>
        <time>2023-08-18T22:16:38.622Z</time>
      </trkpt>
      <trkpt lat="45.00897" lon="5.29175">
        <ele>298.120769</ele>
        <time>2023-08-18T22:16:38.734Z</time>
      </trkpt>
      <trkpt lat="45.00907" lon="5.29168">
        <ele>297.029687</ele>
        <time>2023-08-18T22:16:39.547Z</time>
      </trkpt>
      <trkpt lat="45.01064" lon="5.29054">
        <ele>281.223082</ele>
        <time>2023-08-18T22:16:51.768Z</time>
      </trkpt>
      <trkpt lat="45.01101" lon="5.29041">
        <ele>278.551817</ele>
        <time>2023-08-18T22:16:54.512Z</time>
      </trkpt>
      <trkpt lat="45.01129" lon="5.29037">
        <ele>276.614611</ele>
        <time>2023-08-18T22:16:56.519Z</time>
      </trkpt>
      <trkpt lat="45.01149" lon="5.29039">
        <ele>275.183848</ele>
        <time>2023-08-18T22:16:58.016Z</time>
      </trkpt>
      <trkpt lat="45.01149" lon="5.29039">
        <ele>275.176893</ele>
        <time>2023-08-18T22:16:58.025Z</time>
      </trkpt>
      <trkpt lat="45.01212" lon="5.29058">
        <ele>270.688576</ele>
        <time>2023-08-18T22:17:02.758Z</time>
      </trkpt>
      <trkpt lat="45.01325" lon="5.29092">
        <ele>263.112993</ele>
        <time>2023-08-18T22:17:11.160Z</time>
      </trkpt>
      <trkpt lat="45.01335" lon="5.29095">
        <ele>262.418602</ele>
        <time>2023-08-18T22:17:11.932Z</time>
      </trkpt>
      <trkpt lat="45.01344" lon="5.29097">
        <ele>261.849263</ele>
        <time>2023-08-18T22:17:12.567Z</time>
      </trkpt>
      <trkpt lat="45.0135" lon="5.29074">
        <ele>260.710989</ele>
        <time>2023-08-18T22:17:13.801Z</time>
      </trkpt>
      <trkpt lat="45.01344" lon="5.2906">
        <ele>259.932016</ele>
        <time>2023-08-18T22:17:14.659Z</time>
      </trkpt>
      <trkpt lat="45.01332" lon="5.29028">
        <ele>258.227601</ele>
        <time>2023-08-18T22:17:16.507Z</time>
      </trkpt>
      <trkpt lat="45.01305" lon="5.28962">
        <ele>255.373045</ele>
        <time>2023-08-18T22:17:20.376Z</time>
      </trkpt>
      <trkpt lat="45.01281" lon="5.28892">
        <ele>252.483996</ele>
        <time>2023-08-18T22:17:24.410Z</time>
      </trkpt>
      <trkpt lat="45.01254" lon="5.28849">
        <ele>250.362752</ele>
        <time>2023-08-18T22:17:27.494Z</time>
      </trkpt>
      <trkpt lat="45.01178" lon="5.28822">
        <ele>248.275768</ele>
        <time>2023-08-18T22:17:34.011Z</time>
      </trkpt>
      <trkpt lat="45.01109" lon="5.28763">
        <ele>247.789632</ele>
        <time>2023-08-18T22:17:42.853Z</time>
      </trkpt>
      <trkpt lat="45.00918" lon="5.28609">
        <ele>249.483952</ele>
        <time>2023-08-18T22:18:17.861Z</time>
      </trkpt>
      <trkpt lat="45.00882" lon="5.28575">
        <ele>250.073796</ele>
        <time>2023-08-18T22:18:24.698Z</time>
      </trkpt>
      <trkpt lat="45.008" lon="5.2851">
        <ele>251.441489</ele>
        <time>2023-08-18T22:18:39.543Z</time>
      </trkpt>
      <trkpt lat="45.00584" lon="5.28332">
        <ele>255.881357</ele>
        <time>2023-08-18T22:19:24.176Z</time>
      </trkpt>
      <trkpt lat="45.00525" lon="5.2828">
        <ele>257.299496</ele>
        <time>2023-08-18T22:19:36.956Z</time>
      </trkpt>
      <trkpt lat="45.00511" lon="5.28243">
        <ele>257.906944</ele>
        <time>2023-08-18T22:19:42.339Z</time>
      </trkpt>
      <trkpt lat="45.00516" lon="5.28184">
        <ele>258.771537</ele>
        <time>2023-08-18T22:19:49.987Z</time>
      </trkpt>
      <trkpt lat="45.00519" lon="5.28143">
        <ele>259.386541</ele>
        <time>2023-08-18T22:19:55.508Z</time>
      </trkpt>
      <trkpt lat="45.00521" lon="5.28104">
        <ele>260.117677</ele>
        <time>2023-08-18T22:20:00.829Z</time>
      </trkpt>
      <trkpt lat="45.00516" lon="5.28075">
        <ele>260.67127</ele>
        <time>2023-08-18T22:20:04.906Z</time>
      </trkpt>
      <trkpt lat="45.00516" lon="5.28074">
        <ele>260.694135</ele>
        <time>2023-08-18T22:20:05.077Z</time>
      </trkpt>
      <trkpt lat="45.00513" lon="5.28055">
        <ele>261.049155</ele>
        <time>2023-08-18T22:20:07.729Z</time>
      </trkpt>
      <trkpt lat="45.0049" lon="5.2802">
        <ele>261.931591</ele>
        <time>2023-08-18T22:20:14.432Z</time>
      </trkpt>
      <trkpt lat="45.00469" lon="5.28">
        <ele>262.613376</ele>
        <time>2023-08-18T22:20:19.842Z</time>
      </trkpt>
      <trkpt lat="45.00326" lon="5.27872">
        <ele>266.728265</ele>
        <time>2023-08-18T22:20:56.207Z</time>
      </trkpt>
      <trkpt lat="45.00032" lon="5.27607">
        <ele>272.326611</ele>
        <time>2023-08-18T22:21:51.078Z</time>
      </trkpt>
      <trkpt lat="44.99972" lon="5.27554">
        <ele>273.622891</ele>
        <time>2023-08-18T22:22:04.714Z</time>
      </trkpt>
      <trkpt lat="44.99941" lon="5.27512">
        <ele>274.937573</ele>
        <time>2023-08-18T22:22:14.143Z</time>
      </trkpt>
      <trkpt lat="44.99932" lon="5.27498">
        <ele>275.382979</ele>
        <time>2023-08-18T22:22:17.409Z</time>
      </trkpt>
      <trkpt lat="44.99895" lon="5.27443">
        <ele>277.12939</ele>
        <time>2023-08-18T22:22:30.142Z</time>
      </trkpt>
      <trkpt lat="44.9987" lon="5.27423">
        <ele>278.06427</ele>
        <time>2023-08-18T22:22:36.404Z</time>
      </trkpt>
      <trkpt lat="44.9986" lon="5.27421">
        <ele>278.378736</ele>
        <time>2023-08-18T22:22:38.593Z</time>
      </trkpt>
      <trkpt lat="44.99837" lon="5.27414">
        <ele>279.159559</ele>
        <time>2023-08-18T22:22:43.734Z</time>
      </trkpt>
      <trkpt lat="44.99827" lon="5.2741">
        <ele>279.485716</ele>
        <time>2023-08-18T22:22:46.032Z</time>
      </trkpt>
      <trkpt lat="44.99792" lon="5.27395">
        <ele>280.636484</ele>
        <time>2023-08-18T22:22:54.246Z</time>
      </trkpt>
      <trkpt lat="44.99787" lon="5.27393">
        <ele>280.778653</ele>
        <time>2023-08-18T22:22:55.341Z</time>
      </trkpt>
      <trkpt lat="44.9976" lon="5.27405">
        <ele>281.661734</ele>
        <time>2023-08-18T22:23:01.522Z</time>
      </trkpt>
      <trkpt lat="44.99755" lon="5.27408">
        <ele>281.840389</ele>
        <time>2023-08-18T22:23:02.804Z</time>
      </trkpt>
      <trkpt lat="44.99733" lon="5.27413">
        <ele>282.524274</ele>
        <time>2023-08-18T22:23:07.412Z</time>
      </trkpt>
      <trkpt lat="44.99715" lon="5.27411">
        <ele>283.08469</ele>
        <time>2023-08-18T22:23:11.379Z</time>
      </trkpt>
      <trkpt lat="44.99636" lon="5.27392">
        <ele>285.770547</ele>
        <time>2023-08-18T22:23:28.340Z</time>
      </trkpt>
      <trkpt lat="44.99584" lon="5.27368">
        <ele>288.230758</ele>
        <time>2023-08-18T22:23:40.994Z</time>
      </trkpt>
      <trkpt lat="44.99523" lon="5.27318">
        <ele>291.441045</ele>
        <time>2023-08-18T22:24:00.687Z</time>
      </trkpt>
      <trkpt lat="44.99424" lon="5.27235">
        <ele>297.668913</ele>
        <time>2023-08-18T22:24:35.526Z</time>
      </trkpt>
      <trkpt lat="44.99352" lon="5.27139">
        <ele>303.460599</ele>
        <time>2023-08-18T22:25:05.781Z</time>
      </trkpt>
      <trkpt lat="44.99281" lon="5.27059">
        <ele>309.358122</ele>
        <time>2023-08-18T22:25:35.444Z</time>
      </trkpt>
      <trkpt lat="44.99249" lon="5.27016">
        <ele>312.252642</ele>
        <time>2023-08-18T22:25:50.341Z</time>
      </trkpt>
      <trkpt lat="44.99217" lon="5.26919">
        <ele>316.684077</ele>
        <time>2023-08-18T22:26:15.922Z</time>
      </trkpt>
      <trkpt lat="44.99198" lon="5.26885">
        <ele>317.990552</ele>
        <time>2023-08-18T22:26:26.241Z</time>
      </trkpt>
      <trkpt lat="44.99078" lon="5.26754">
        <ele>323.762394</ele>
        <time>2023-08-18T22:27:00.922Z</time>
      </trkpt>
      <trkpt lat="44.99017" lon="5.26687">
        <ele>324.811987</ele>
        <time>2023-08-18T22:27:09.869Z</time>
      </trkpt>
      <trkpt lat="44.98983" lon="5.26645">
        <ele>325.428966</ele>
        <time>2023-08-18T22:27:15.849Z</time>
      </trkpt>
      <trkpt lat="44.9896" lon="5.26591">
        <ele>326.74665</ele>
        <time>2023-08-18T22:27:23.099Z</time>
      </trkpt>
      <trkpt lat="44.98954" lon="5.26538">
        <ele>329.486967</ele>
        <time>2023-08-18T22:27:31.887Z</time>
      </trkpt>
      <trkpt lat="44.98931" lon="5.26455">
        <ele>333.972296</ele>
        <time>2023-08-18T22:27:54.124Z</time>
      </trkpt>
      <trkpt lat="44.9892" lon="5.26393">
        <ele>337.247469</ele>
        <time>2023-08-18T22:28:14.556Z</time>
      </trkpt>
      <trkpt lat="44.98916" lon="5.26344">
        <ele>340.187144</ele>
        <time>2023-08-18T22:28:31.092Z</time>
      </trkpt>
      <trkpt lat="44.98929" lon="5.26293">
        <ele>344.342782</ele>
        <time>2023-08-18T22:28:50.414Z</time>
      </trkpt>
      <trkpt lat="44.98954" lon="5.26248">
        <ele>348.709592</ele>
        <time>2023-08-18T22:29:10.457Z</time>
      </trkpt>
      <trkpt lat="44.98996" lon="5.26175">
        <ele>355.933363</ele>
        <time>2023-08-18T22:29:42.193Z</time>
      </trkpt>
      <trkpt lat="44.99051" lon="5.261">
        <ele>362.192518</ele>
        <time>2023-08-18T22:30:12.469Z</time>
      </trkpt>
      <trkpt lat="44.99096" lon="5.26077">
        <ele>365.684755</ele>
        <time>2023-08-18T22:30:28.293Z</time>
      </trkpt>
      <trkpt lat="44.99103" lon="5.26073">
        <ele>366.260768</ele>
        <time>2023-08-18T22:30:30.848Z</time>
      </trkpt>
      <trkpt lat="44.99183" lon="5.26063">
        <ele>371.98413</ele>
        <time>2023-08-18T22:30:56.315Z</time>
      </trkpt>
      <trkpt lat="44.99229" lon="5.26061">
        <ele>374.789294</ele>
        <time>2023-08-18T22:31:10.644Z</time>
      </trkpt>
      <trkpt lat="44.99262" lon="5.26031">
        <ele>377.151054</ele>
        <time>2023-08-18T22:31:22.483Z</time>
      </trkpt>
      <trkpt lat="44.99297" lon="5.26007">
        <ele>379.544431</ele>
        <time>2023-08-18T22:31:34.799Z</time>
      </trkpt>
      <trkpt lat="44.99324" lon="5.25973">
        <ele>381.734814</ele>
        <time>2023-08-18T22:31:46.335Z</time>
      </trkpt>
      <trkpt lat="44.9933" lon="5.25971">
        <ele>382.158354</ele>
        <time>2023-08-18T22:31:48.544Z</time>
      </trkpt>
      <trkpt lat="44.99376" lon="5.25953">
        <ele>385.022384</ele>
        <time>2023-08-18T22:32:03.508Z</time>
      </trkpt>
      <trkpt lat="44.99404" lon="5.25936">
        <ele>386.815211</ele>
        <time>2023-08-18T22:32:12.845Z</time>
      </trkpt>
      <trkpt lat="44.99463" lon="5.25912">
        <ele>390.565612</ele>
        <time>2023-08-18T22:32:32.685Z</time>
      </trkpt>
      <trkpt lat="44.99547" lon="5.25895">
        <ele>394.578701</ele>
        <time>2023-08-18T22:32:58.586Z</time>
      </trkpt>
      <trkpt lat="44.9957" lon="5.25884">
        <ele>395.424623</ele>
        <time>2023-08-18T22:33:04.512Z</time>
      </trkpt>
      <trkpt lat="44.99583" lon="5.2586">
        <ele>396.180628</ele>
        <time>2023-08-18T22:33:09.221Z</time>
      </trkpt>
      <trkpt lat="44.99607" lon="5.25807">
        <ele>397.7527</ele>
        <time>2023-08-18T22:33:17.372Z</time>
      </trkpt>
      <trkpt lat="44.99608" lon="5.25791">
        <ele>398.13538</ele>
        <time>2023-08-18T22:33:19.247Z</time>
      </trkpt>
      <trkpt lat="44.99606" lon="5.25786">
        <ele>398.282045</ele>
        <time>2023-08-18T22:33:20.038Z</time>
      </trkpt>
      <trkpt lat="44.99597" lon="5.2578">
        <ele>398.604956</ele>
        <time>2023-08-18T22:33:21.756Z</time>
      </trkpt>
      <trkpt lat="44.99592" lon="5.25782">
        <ele>398.792927</ele>
        <time>2023-08-18T22:33:22.707Z</time>
      </trkpt>
      <trkpt lat="44.99585" lon="5.25803">
        <ele>399.362143</ele>
        <time>2023-08-18T22:33:25.564Z</time>
      </trkpt>
      <trkpt lat="44.99581" lon="5.25827">
        <ele>399.953264</ele>
        <time>2023-08-18T22:33:29.250Z</time>
      </trkpt>
      <trkpt lat="44.99571" lon="5.25844">
        <ele>400.481946</ele>
        <time>2023-08-18T22:33:32.479Z</time>
      </trkpt>
      <trkpt lat="44.99571" lon="5.25845">
        <ele>400.487718</ele>
        <time>2023-08-18T22:33:32.532Z</time>
      </trkpt>
      <trkpt lat="44.99559" lon="5.25854">
        <ele>400.939685</ele>
        <time>2023-08-18T22:33:35.783Z</time>
      </trkpt>
      <trkpt lat="44.99538" lon="5.25861">
        <ele>401.657627</ele>
        <time>2023-08-18T22:33:40.450Z</time>
      </trkpt>
      <trkpt lat="44.99507" lon="5.25852">
        <ele>402.722522</ele>
        <time>2023-08-18T22:33:47.277Z</time>
      </trkpt>
      <trkpt lat="44.99479" lon="5.25833">
        <ele>403.75047</ele>
        <time>2023-08-18T22:33:53.713Z</time>
      </trkpt>
      <trkpt lat="44.99468" lon="5.25816">
        <ele>404.293503</ele>
        <time>2023-08-18T22:33:57.365Z</time>
      </trkpt>
      <trkpt lat="44.99461" lon="5.25796">
        <ele>404.833822</ele>
        <time>2023-08-18T22:34:01.111Z</time>
      </trkpt>
      <trkpt lat="44.99456" lon="5.25771">
        <ele>405.474882</ele>
        <time>2023-08-18T22:34:05.757Z</time>
      </trkpt>
      <trkpt lat="44.99453" lon="5.25759">
        <ele>406.014194</ele>
        <time>2023-08-18T22:34:08.222Z</time>
      </trkpt>
      <trkpt lat="44.9943" lon="5.25727">
        <ele>408.011534</ele>
        <time>2023-08-18T22:34:17.941Z</time>
      </trkpt>
      <trkpt lat="44.99385" lon="5.25704">
        <ele>410.976375</ele>
        <time>2023-08-18T22:34:34.482Z</time>
      </trkpt>
      <trkpt lat="44.9932" lon="5.25677">
        <ele>415.109261</ele>
        <time>2023-08-18T22:34:58.097Z</time>
      </trkpt>
      <trkpt lat="44.99253" lon="5.25675">
        <ele>418.638402</ele>
        <time>2023-08-18T22:35:18.230Z</time>
      </trkpt>
      <trkpt lat="44.99227" lon="5.25674">
        <ele>419.915142</ele>
        <time>2023-08-18T22:35:25.328Z</time>
      </trkpt>
      <trkpt lat="44.99144" lon="5.25651">
        <ele>423.976726</ele>
        <time>2023-08-18T22:35:46.752Z</time>
      </trkpt>
      <trkpt lat="44.99091" lon="5.25659">
        <ele>426.652925</ele>
        <time>2023-08-18T22:36:00.398Z</time>
      </trkpt>
      <trkpt lat="44.9908" lon="5.25655">
        <ele>427.222562</ele>
        <time>2023-08-18T22:36:03.172Z</time>
      </trkpt>
      <trkpt lat="44.99073" lon="5.25646">
        <ele>427.743889</ele>
        <time>2023-08-18T22:36:05.710Z</time>
      </trkpt>
      <trkpt lat="44.99058" lon="5.25607">
        <ele>429.372579</ele>
        <time>2023-08-18T22:36:13.822Z</time>
      </trkpt>
      <trkpt lat="44.99043" lon="5.25556">
        <ele>431.393499</ele>
        <time>2023-08-18T22:36:24.527Z</time>
      </trkpt>
      <trkpt lat="44.99016" lon="5.25513">
        <ele>433.551335</ele>
        <time>2023-08-18T22:36:37.003Z</time>
      </trkpt>
      <trkpt lat="44.9898" lon="5.25472">
        <ele>436.721216</ele>
        <time>2023-08-18T22:36:52.836Z</time>
      </trkpt>
      <trkpt lat="44.98932" lon="5.25433">
        <ele>441.151524</ele>
        <time>2023-08-18T22:37:13.916Z</time>
      </trkpt>
      <trkpt lat="44.98865" lon="5.25391">
        <ele>447.047376</ele>
        <time>2023-08-18T22:37:43.040Z</time>
      </trkpt>
      <trkpt lat="44.98809" lon="5.25365">
        <ele>451.183223</ele>
        <time>2023-08-18T22:38:06.010Z</time>
      </trkpt>
      <trkpt lat="44.98741" lon="5.25348">
        <ele>455.687909</ele>
        <time>2023-08-18T22:38:31.240Z</time>
      </trkpt>
      <trkpt lat="44.98716" lon="5.25341">
        <ele>457.301503</ele>
        <time>2023-08-18T22:38:38.779Z</time>
      </trkpt>
      <trkpt lat="44.98691" lon="5.25344">
        <ele>458.908413</ele>
        <time>2023-08-18T22:38:45.101Z</time>
      </trkpt>
      <trkpt lat="44.9865" lon="5.2536">
        <ele>461.14567</ele>
        <time>2023-08-18T22:38:55.487Z</time>
      </trkpt>
      <trkpt lat="44.98605" lon="5.25384">
        <ele>462.761717</ele>
        <time>2023-08-18T22:39:05.766Z</time>
      </trkpt>
      <trkpt lat="44.98587" lon="5.25389">
        <ele>463.401144</ele>
        <time>2023-08-18T22:39:09.245Z</time>
      </trkpt>
      <trkpt lat="44.98575" lon="5.25381">
        <ele>463.856085</ele>
        <time>2023-08-18T22:39:12.019Z</time>
      </trkpt>
      <trkpt lat="44.9857" lon="5.25366">
        <ele>464.267588</ele>
        <time>2023-08-18T22:39:14.359Z</time>
      </trkpt>
      <trkpt lat="44.98571" lon="5.25352">
        <ele>464.602857</ele>
        <time>2023-08-18T22:39:16.232Z</time>
      </trkpt>
      <trkpt lat="44.98602" lon="5.25302">
        <ele>466.228167</ele>
        <time>2023-08-18T22:39:26.849Z</time>
      </trkpt>
      <trkpt lat="44.98653" lon="5.25231">
        <ele>470.540239</ele>
        <time>2023-08-18T22:39:45.799Z</time>
      </trkpt>
      <trkpt lat="44.98661" lon="5.25219">
        <ele>471.333441</ele>
        <time>2023-08-18T22:39:49.749Z</time>
      </trkpt>
      <trkpt lat="44.98703" lon="5.2512">
        <ele>476.727357</ele>
        <time>2023-08-18T22:40:20.484Z</time>
      </trkpt>
      <trkpt lat="44.98704" lon="5.25081">
        <ele>478.589658</ele>
        <time>2023-08-18T22:40:30.972Z</time>
      </trkpt>
      <trkpt lat="44.98701" lon="5.25049">
        <ele>480.199922</ele>
        <time>2023-08-18T22:40:39.201Z</time>
      </trkpt>
      <trkpt lat="44.98681" lon="5.24998">
        <ele>483.180555</ele>
        <time>2023-08-18T22:40:54.534Z</time>
      </trkpt>
      <trkpt lat="44.9866" lon="5.24987">
        <ele>484.803758</ele>
        <time>2023-08-18T22:41:02.732Z</time>
      </trkpt>
      <trkpt lat="44.98637" lon="5.24988">
        <ele>486.442168</ele>
        <time>2023-08-18T22:41:10.515Z</time>
      </trkpt>
      <trkpt lat="44.986" lon="5.25005">
        <ele>489.23861</ele>
        <time>2023-08-18T22:41:23.575Z</time>
      </trkpt>
      <trkpt lat="44.98568" lon="5.25013">
        <ele>491.644821</ele>
        <time>2023-08-18T22:41:34.558Z</time>
      </trkpt>
      <trkpt lat="44.98448" lon="5.25009">
        <ele>499.02987</ele>
        <time>2023-08-18T22:42:11.414Z</time>
      </trkpt>
      <trkpt lat="44.98401" lon="5.25009">
        <ele>501.943165</ele>
        <time>2023-08-18T22:42:26.805Z</time>
      </trkpt>
      <trkpt lat="44.98383" lon="5.25013">
        <ele>503.084156</ele>
        <time>2023-08-18T22:42:32.923Z</time>
      </trkpt>
      <trkpt lat="44.9834" lon="5.2503">
        <ele>505.669336</ele>
        <time>2023-08-18T22:42:47.059Z</time>
      </trkpt>
      <trkpt lat="44.98275" lon="5.25033">
        <ele>509.485258</ele>
        <time>2023-08-18T22:43:07.209Z</time>
      </trkpt>
      <trkpt lat="44.98234" lon="5.25026">
        <ele>511.89236</ele>
        <time>2023-08-18T22:43:19.406Z</time>
      </trkpt>
      <trkpt lat="44.98183" lon="5.25005">
        <ele>514.709249</ele>
        <time>2023-08-18T22:43:34.619Z</time>
      </trkpt>
      <trkpt lat="44.98034" lon="5.24978">
        <ele>522.133581</ele>
        <time>2023-08-18T22:44:15.935Z</time>
      </trkpt>
      <trkpt lat="44.98003" lon="5.24982">
        <ele>523.628188</ele>
        <time>2023-08-18T22:44:24.032Z</time>
      </trkpt>
      <trkpt lat="44.97899" lon="5.25013">
        <ele>528.671661</ele>
        <time>2023-08-18T22:44:52.649Z</time>
      </trkpt>
      <trkpt lat="44.97877" lon="5.2502">
        <ele>529.762126</ele>
        <time>2023-08-18T22:44:58.731Z</time>
      </trkpt>
      <trkpt lat="44.97859" lon="5.25018">
        <ele>530.609831</ele>
        <time>2023-08-18T22:45:03.666Z</time>
      </trkpt>
      <trkpt lat="44.97849" lon="5.25011">
        <ele>531.270556</ele>
        <time>2023-08-18T22:45:06.623Z</time>
      </trkpt>
      <trkpt lat="44.97849" lon="5.24993">
        <ele>532.046821</ele>
        <time>2023-08-18T22:45:10.131Z</time>
      </trkpt>
      <trkpt lat="44.97854" lon="5.24986">
        <ele>532.44272</ele>
        <time>2023-08-18T22:45:11.973Z</time>
      </trkpt>
      <trkpt lat="44.97897" lon="5.24929">
        <ele>536.095806</ele>
        <time>2023-08-18T22:45:29.301Z</time>
      </trkpt>
      <trkpt lat="44.9791" lon="5.24923">
        <ele>536.993539</ele>
        <time>2023-08-18T22:45:34.010Z</time>
      </trkpt>
      <trkpt lat="44.97943" lon="5.24916">
        <ele>539.029723</ele>
        <time>2023-08-18T22:45:44.942Z</time>
      </trkpt>
      <trkpt lat="44.97958" lon="5.24906">
        <ele>540.047399</ele>
        <time>2023-08-18T22:45:50.788Z</time>
      </trkpt>
      <trkpt lat="44.97998" lon="5.2485">
        <ele>543.702404</ele>
        <time>2023-08-18T22:46:11.211Z</time>
      </trkpt>
      <trkpt lat="44.98104" lon="5.24729">
        <ele>553.108595</ele>
        <time>2023-08-18T22:46:59.264Z</time>
      </trkpt>
      <trkpt lat="44.98113" lon="5.24707">
        <ele>554.286544</ele>
        <time>2023-08-18T22:47:04.152Z</time>
      </trkpt>
      <trkpt lat="44.98112" lon="5.2469">
        <ele>554.838857</ele>
        <time>2023-08-18T22:47:07.701Z</time>
      </trkpt>
      <trkpt lat="44.98102" lon="5.24684">
        <ele>555.33646</ele>
        <time>2023-08-18T22:47:10.653Z</time>
      </trkpt>
      <trkpt lat="44.98095" lon="5.24686">
        <ele>555.680034</ele>
        <time>2023-08-18T22:47:12.394Z</time>
      </trkpt>
      <trkpt lat="44.98069" lon="5.2471">
        <ele>557.154275</ele>
        <time>2023-08-18T22:47:20.516Z</time>
      </trkpt>
      <trkpt lat="44.98049" lon="5.24722">
        <ele>558.164965</ele>
        <time>2023-08-18T22:47:25.912Z</time>
      </trkpt>
      <trkpt lat="44.97985" lon="5.24747">
        <ele>561.31076</ele>
        <time>2023-08-18T22:47:43.595Z</time>
      </trkpt>
      <trkpt lat="44.97946" lon="5.24752">
        <ele>563.315386</ele>
        <time>2023-08-18T22:47:53.706Z</time>
      </trkpt>
      <trkpt lat="44.97921" lon="5.24741">
        <ele>564.859566</ele>
        <time>2023-08-18T22:47:59.936Z</time>
      </trkpt>
      <trkpt lat="44.97898" lon="5.2471">
        <ele>566.781044</ele>
        <time>2023-08-18T22:48:08.251Z</time>
      </trkpt>
      <trkpt lat="44.97889" lon="5.24679">
        <ele>568.202029</ele>
        <time>2023-08-18T22:48:14.973Z</time>
      </trkpt>
      <trkpt lat="44.97889" lon="5.2463">
        <ele>570.283028</ele>
        <time>2023-08-18T22:48:25.936Z</time>
      </trkpt>
      <trkpt lat="44.97883" lon="5.24617">
        <ele>570.923272</ele>
        <time>2023-08-18T22:48:29.590Z</time>
      </trkpt>
      <trkpt lat="44.97876" lon="5.2461">
        <ele>571.464455</ele>
        <time>2023-08-18T22:48:32.735Z</time>
      </trkpt>
      <trkpt lat="44.97855" lon="5.24613">
        <ele>572.735068</ele>
        <time>2023-08-18T22:48:40.794Z</time>
      </trkpt>
      <trkpt lat="44.97818" lon="5.24612">
        <ele>575.715006</ele>
        <time>2023-08-18T22:48:55.811Z</time>
      </trkpt>
      <trkpt lat="44.97795" lon="5.24595">
        <ele>578.076462</ele>
        <time>2023-08-18T22:49:06.550Z</time>
      </trkpt>
      <trkpt lat="44.97749" lon="5.24528">
        <ele>584.032594</ele>
        <time>2023-08-18T22:49:33.636Z</time>
      </trkpt>
      <trkpt lat="44.97714" lon="5.24469">
        <ele>589.018861</ele>
        <time>2023-08-18T22:49:56.450Z</time>
      </trkpt>
      <trkpt lat="44.97691" lon="5.24445">
        <ele>590.899215</ele>
        <time>2023-08-18T22:50:08.898Z</time>
      </trkpt>
      <trkpt lat="44.97668" lon="5.24435">
        <ele>592.188997</ele>
        <time>2023-08-18T22:50:19.776Z</time>
      </trkpt>
      <trkpt lat="44.97637" lon="5.2443">
        <ele>593.872623</ele>
        <time>2023-08-18T22:50:32.356Z</time>
      </trkpt>
      <trkpt lat="44.97603" lon="5.24418">
        <ele>595.753047</ele>
        <time>2023-08-18T22:50:43.475Z</time>
      </trkpt>
      <trkpt lat="44.97584" lon="5.24402">
        <ele>596.917873</ele>
        <time>2023-08-18T22:50:48.532Z</time>
      </trkpt>
      <trkpt lat="44.97565" lon="5.2437">
        <ele>598.492927</ele>
        <time>2023-08-18T22:50:53.655Z</time>
      </trkpt>
      <trkpt lat="44.97551" lon="5.24333">
        <ele>599.16903</ele>
        <time>2023-08-18T22:50:56.867Z</time>
      </trkpt>
      <trkpt lat="44.97525" lon="5.24328">
        <ele>598.503113</ele>
        <time>2023-08-18T22:50:59.026Z</time>
      </trkpt>
      <trkpt lat="44.97504" lon="5.24336">
        <ele>597.925361</ele>
        <time>2023-08-18T22:51:00.754Z</time>
      </trkpt>
      <trkpt lat="44.97497" lon="5.24345">
        <ele>597.667887</ele>
        <time>2023-08-18T22:51:01.580Z</time>
      </trkpt>
      <trkpt lat="44.97488" lon="5.24369">
        <ele>597.17182</ele>
        <time>2023-08-18T22:51:03.116Z</time>
      </trkpt>
      <trkpt lat="44.97488" lon="5.24377">
        <ele>597.034949</ele>
        <time>2023-08-18T22:51:03.515Z</time>
      </trkpt>
      <trkpt lat="44.97507" lon="5.24422">
        <ele>596.057802</ele>
        <time>2023-08-18T22:51:06.504Z</time>
      </trkpt>
      <trkpt lat="44.97508" lon="5.24429">
        <ele>595.920807</ele>
        <time>2023-08-18T22:51:06.931Z</time>
      </trkpt>
      <trkpt lat="44.97505" lon="5.24435">
        <ele>595.799792</ele>
        <time>2023-08-18T22:51:07.328Z</time>
      </trkpt>
      <trkpt lat="44.97497" lon="5.24433">
        <ele>595.575503</ele>
        <time>2023-08-18T22:51:08.029Z</time>
      </trkpt>
      <trkpt lat="44.97479" lon="5.24412">
        <ele>594.962594</ele>
        <time>2023-08-18T22:51:09.831Z</time>
      </trkpt>
      <trkpt lat="44.97451" lon="5.2439">
        <ele>594.731744</ele>
        <time>2023-08-18T22:51:12.303Z</time>
      </trkpt>
      <trkpt lat="44.97445" lon="5.24376">
        <ele>594.711852</ele>
        <time>2023-08-18T22:51:13.364Z</time>
      </trkpt>
      <trkpt lat="44.97437" lon="5.24333">
        <ele>594.660706</ele>
        <time>2023-08-18T22:51:16.205Z</time>
      </trkpt>
      <trkpt lat="44.97414" lon="5.24283">
        <ele>594.591637</ele>
        <time>2023-08-18T22:51:21.101Z</time>
      </trkpt>
      <trkpt lat="44.97351" lon="5.24178">
        <ele>595.368825</ele>
        <time>2023-08-18T22:51:39.767Z</time>
      </trkpt>
      <trkpt lat="44.97285" lon="5.241">
        <ele>598.160876</ele>
        <time>2023-08-18T22:51:58.044Z</time>
      </trkpt>
      <trkpt lat="44.97254" lon="5.24042">
        <ele>599.841474</ele>
        <time>2023-08-18T22:52:10.259Z</time>
      </trkpt>
      <trkpt lat="44.9724" lon="5.24002">
        <ele>601.347989</ele>
        <time>2023-08-18T22:52:18.142Z</time>
      </trkpt>
      <trkpt lat="44.97222" lon="5.23854">
        <ele>607.684592</ele>
        <time>2023-08-18T22:52:50.176Z</time>
      </trkpt>
      <trkpt lat="44.97209" lon="5.23802">
        <ele>610.03499</ele>
        <time>2023-08-18T22:53:04.466Z</time>
      </trkpt>
      <trkpt lat="44.97197" lon="5.2377">
        <ele>611.551325</ele>
        <time>2023-08-18T22:53:13.717Z</time>
      </trkpt>
      <trkpt lat="44.97189" lon="5.23737">
        <ele>613.069827</ele>
        <time>2023-08-18T22:53:22.514Z</time>
      </trkpt>
      <trkpt lat="44.9719" lon="5.23678">
        <ele>615.583797</ele>
        <time>2023-08-18T22:53:36.609Z</time>
      </trkpt>
      <trkpt lat="44.97183" lon="5.2363">
        <ele>617.725348</ele>
        <time>2023-08-18T22:53:47.920Z</time>
      </trkpt>
      <trkpt lat="44.97147" lon="5.23438">
        <ele>625.084907</ele>
        <time>2023-08-18T22:54:26.530Z</time>
      </trkpt>
      <trkpt lat="44.97124" lon="5.23358">
        <ele>627.73918</ele>
        <time>2023-08-18T22:54:40.012Z</time>
      </trkpt>
      <trkpt lat="44.97063" lon="5.23182">
        <ele>635.033507</ele>
        <time>2023-08-18T22:55:17.439Z</time>
      </trkpt>
      <trkpt lat="44.97044" lon="5.23059">
        <ele>640.199775</ele>
        <time>2023-08-18T22:55:46.992Z</time>
      </trkpt>
      <trkpt lat="44.97026" lon="5.23002">
        <ele>643.662766</ele>
        <time>2023-08-18T22:56:02.779Z</time>
      </trkpt>
      <trkpt lat="44.97005" lon="5.22955">
        <ele>646.825366</ele>
        <time>2023-08-18T22:56:17.892Z</time>
      </trkpt>
      <trkpt lat="44.96991" lon="5.22925">
        <ele>648.80777</ele>
        <time>2023-08-18T22:56:27.554Z</time>
      </trkpt>
      <trkpt lat="44.96978" lon="5.22895">
        <ele>650.781212</ele>
        <time>2023-08-18T22:56:37.118Z</time>
      </trkpt>
      <trkpt lat="44.96965" lon="5.22835">
        <ele>654.277458</ele>
        <time>2023-08-18T22:56:54.280Z</time>
      </trkpt>
      <trkpt lat="44.96961" lon="5.22778">
        <ele>657.786115</ele>
        <time>2023-08-18T22:57:09.482Z</time>
      </trkpt>
      <trkpt lat="44.96952" lon="5.22706">
        <ele>662.262647</ele>
        <time>2023-08-18T22:57:28.689Z</time>
      </trkpt>
      <trkpt lat="44.96964" lon="5.22632">
        <ele>666.947553</ele>
        <time>2023-08-18T22:57:50.470Z</time>
      </trkpt>
      <trkpt lat="44.96964" lon="5.226">
        <ele>668.896229</ele>
        <time>2023-08-18T22:57:59.930Z</time>
      </trkpt>
      <trkpt lat="44.96954" lon="5.22578">
        <ele>670.518739</ele>
        <time>2023-08-18T22:58:08.000Z</time>
      </trkpt>
      <trkpt lat="44.96937" lon="5.22555">
        <ele>672.617721</ele>
        <time>2023-08-18T22:58:18.395Z</time>
      </trkpt>
      <trkpt lat="44.96928" lon="5.22509">
        <ele>675.616066</ele>
        <time>2023-08-18T22:58:33.314Z</time>
      </trkpt>
      <trkpt lat="44.96911" lon="5.22437">
        <ele>680.366528</ele>
        <time>2023-08-18T22:58:55.587Z</time>
      </trkpt>
      <trkpt lat="44.96887" lon="5.22392">
        <ele>683.856758</ele>
        <time>2023-08-18T22:59:10.382Z</time>
      </trkpt>
      <trkpt lat="44.96847" lon="5.22362">
        <ele>687.644862</ele>
        <time>2023-08-18T22:59:26.528Z</time>
      </trkpt>
      <trkpt lat="44.96809" lon="5.22354">
        <ele>690.535609</ele>
        <time>2023-08-18T22:59:40.118Z</time>
      </trkpt>
      <trkpt lat="44.96727" lon="5.22374">
        <ele>696.812368</ele>
        <time>2023-08-18T23:00:10.062Z</time>
      </trkpt>
      <trkpt lat="44.96696" lon="5.2237">
        <ele>699.163073</ele>
        <time>2023-08-18T23:00:21.196Z</time>
      </trkpt>
      <trkpt lat="44.9667" lon="5.22356">
        <ele>701.54661</ele>
        <time>2023-08-18T23:00:31.436Z</time>
      </trkpt>
      <trkpt lat="44.96657" lon="5.22331">
        <ele>703.387339</ele>
        <time>2023-08-18T23:00:39.257Z</time>
      </trkpt>
      <trkpt lat="44.96647" lon="5.22287">
        <ele>706.163127</ele>
        <time>2023-08-18T23:00:51.824Z</time>
      </trkpt>
      <trkpt lat="44.96628" lon="5.22229">
        <ele>710.063334</ele>
        <time>2023-08-18T23:01:10.745Z</time>
      </trkpt>
      <trkpt lat="44.96599" lon="5.22183">
        <ele>713.827148</ele>
        <time>2023-08-18T23:01:29.772Z</time>
      </trkpt>
      <trkpt lat="44.96558" lon="5.22132">
        <ele>717.779102</ele>
        <time>2023-08-18T23:01:51.757Z</time>
      </trkpt>
      <trkpt lat="44.965" lon="5.22037">
        <ele>723.710905</ele>
        <time>2023-08-18T23:02:20.807Z</time>
      </trkpt>
      <trkpt lat="44.96467" lon="5.21994">
        <ele>726.69378</ele>
        <time>2023-08-18T23:02:33.570Z</time>
      </trkpt>
      <trkpt lat="44.96435" lon="5.21971">
        <ele>728.266327</ele>
        <time>2023-08-18T23:02:43.133Z</time>
      </trkpt>
      <trkpt lat="44.96399" lon="5.21955">
        <ele>729.727787</ele>
        <time>2023-08-18T23:02:52.721Z</time>
      </trkpt>
      <trkpt lat="44.96363" lon="5.21925">
        <ele>731.348768</ele>
        <time>2023-08-18T23:03:02.801Z</time>
      </trkpt>
      <trkpt lat="44.96317" lon="5.21907">
        <ele>733.172349</ele>
        <time>2023-08-18T23:03:13.648Z</time>
      </trkpt>
      <trkpt lat="44.96281" lon="5.21886">
        <ele>734.371491</ele>
        <time>2023-08-18T23:03:22.252Z</time>
      </trkpt>
      <trkpt lat="44.96206" lon="5.21803">
        <ele>736.131548</ele>
        <time>2023-08-18T23:03:39.923Z</time>
      </trkpt>
      <trkpt lat="44.96147" lon="5.21744">
        <ele>737.505231</ele>
        <time>2023-08-18T23:03:49.863Z</time>
      </trkpt>
      <trkpt lat="44.96096" lon="5.21709">
        <ele>739.093503</ele>
        <time>2023-08-18T23:03:59.403Z</time>
      </trkpt>
      <trkpt lat="44.96057" lon="5.21647">
        <ele>740.738206</ele>
        <time>2023-08-18T23:04:11.479Z</time>
      </trkpt>
      <trkpt lat="44.96028" lon="5.21627">
        <ele>741.626618</ele>
        <time>2023-08-18T23:04:19.176Z</time>
      </trkpt>
      <trkpt lat="44.95956" lon="5.21613">
        <ele>745.097715</ele>
        <time>2023-08-18T23:04:38.277Z</time>
      </trkpt>
      <trkpt lat="44.95883" lon="5.21587">
        <ele>749.672305</ele>
        <time>2023-08-18T23:05:03.370Z</time>
      </trkpt>
      <trkpt lat="44.95846" lon="5.21569">
        <ele>752.047861</ele>
        <time>2023-08-18T23:05:17.494Z</time>
      </trkpt>
      <trkpt lat="44.95833" lon="5.21567">
        <ele>752.834771</ele>
        <time>2023-08-18T23:05:21.903Z</time>
      </trkpt>
      <trkpt lat="44.95816" lon="5.21564">
        <ele>753.838358</ele>
        <time>2023-08-18T23:05:27.995Z</time>
      </trkpt>
      <trkpt lat="44.95762" lon="5.21587">
        <ele>756.900334</ele>
        <time>2023-08-18T23:05:44.569Z</time>
      </trkpt>
      <trkpt lat="44.95736" lon="5.21596">
        <ele>758.4004</ele>
        <time>2023-08-18T23:05:51.777Z</time>
      </trkpt>
      <trkpt lat="44.95672" lon="5.21585">
        <ele>761.923126</ele>
        <time>2023-08-18T23:06:08.552Z</time>
      </trkpt>
      <trkpt lat="44.95643" lon="5.21562">
        <ele>763.812071</ele>
        <time>2023-08-18T23:06:18.546Z</time>
      </trkpt>
      <trkpt lat="44.95616" lon="5.21487">
        <ele>767.658252</ele>
        <time>2023-08-18T23:06:38.235Z</time>
      </trkpt>
      <trkpt lat="44.95592" lon="5.21452">
        <ele>769.906452</ele>
        <time>2023-08-18T23:06:50.219Z</time>
      </trkpt>
      <trkpt lat="44.95548" lon="5.2142">
        <ele>773.105354</ele>
        <time>2023-08-18T23:07:06.872Z</time>
      </trkpt>
      <trkpt lat="44.95506" lon="5.21408">
        <ele>775.696364</ele>
        <time>2023-08-18T23:07:20.496Z</time>
      </trkpt>
      <trkpt lat="44.95469" lon="5.21409">
        <ele>777.733735</ele>
        <time>2023-08-18T23:07:32.279Z</time>
      </trkpt>
      <trkpt lat="44.95441" lon="5.21394">
        <ele>779.415298</ele>
        <time>2023-08-18T23:07:42.208Z</time>
      </trkpt>
      <trkpt lat="44.95397" lon="5.21352">
        <ele>782.325174</ele>
        <time>2023-08-18T23:07:58.271Z</time>
      </trkpt>
      <trkpt lat="44.95349" lon="5.21312">
        <ele>785.235178</ele>
        <time>2023-08-18T23:08:12.103Z</time>
      </trkpt>
      <trkpt lat="44.95232" lon="5.21263">
        <ele>790.12962</ele>
        <time>2023-08-18T23:08:38.862Z</time>
      </trkpt>
      <trkpt lat="44.95131" lon="5.21188">
        <ele>794.861223</ele>
        <time>2023-08-18T23:09:12.939Z</time>
      </trkpt>
      <trkpt lat="44.95084" lon="5.21163">
        <ele>796.931855</ele>
        <time>2023-08-18T23:09:25.890Z</time>
      </trkpt>
      <trkpt lat="44.95043" lon="5.21163">
        <ele>798.660924</ele>
        <time>2023-08-18T23:09:35.349Z</time>
      </trkpt>
      <trkpt lat="44.95025" lon="5.21155">
        <ele>799.42195</ele>
        <time>2023-08-18T23:09:39.069Z</time>
      </trkpt>
      <trkpt lat="44.95" lon="5.21121">
        <ele>799.970551</ele>
        <time>2023-08-18T23:09:45.492Z</time>
      </trkpt>
      <trkpt lat="44.94976" lon="5.21111">
        <ele>800.298474</ele>
        <time>2023-08-18T23:09:49.460Z</time>
      </trkpt>
      <trkpt lat="44.94957" lon="5.21098">
        <ele>800.58371</ele>
        <time>2023-08-18T23:09:52.730Z</time>
      </trkpt>
      <trkpt lat="44.94938" lon="5.21055">
        <ele>801.070254</ele>
        <time>2023-08-18T23:09:57.521Z</time>
      </trkpt>
      <trkpt lat="44.94899" lon="5.21005">
        <ele>801.777964</ele>
        <time>2023-08-18T23:10:04.637Z</time>
      </trkpt>
      <trkpt lat="44.94868" lon="5.20972">
        <ele>802.526646</ele>
        <time>2023-08-18T23:10:10.846Z</time>
      </trkpt>
      <trkpt lat="44.94838" lon="5.20966">
        <ele>803.205189</ele>
        <time>2023-08-18T23:10:16.632Z</time>
      </trkpt>
      <trkpt lat="44.94812" lon="5.20969">
        <ele>803.782499</ele>
        <time>2023-08-18T23:10:22.117Z</time>
      </trkpt>
      <trkpt lat="44.94789" lon="5.20966">
        <ele>804.282155</ele>
        <time>2023-08-18T23:10:26.835Z</time>
      </trkpt>
      <trkpt lat="44.94767" lon="5.20947">
        <ele>804.867354</ele>
        <time>2023-08-18T23:10:32.328Z</time>
      </trkpt>
      <trkpt lat="44.94751" lon="5.20899">
        <ele>805.698354</ele>
        <time>2023-08-18T23:10:40.191Z</time>
      </trkpt>
      <trkpt lat="44.9474" lon="5.20888">
        <ele>805.969604</ele>
        <time>2023-08-18T23:10:42.541Z</time>
      </trkpt>
      <trkpt lat="44.94731" lon="5.20889">
        <ele>806.072886</ele>
        <time>2023-08-18T23:10:44.202Z</time>
      </trkpt>
      <trkpt lat="44.94712" lon="5.2091">
        <ele>806.331832</ele>
        <time>2023-08-18T23:10:48.432Z</time>
      </trkpt>
      <trkpt lat="44.94691" lon="5.20911">
        <ele>806.556171</ele>
        <time>2023-08-18T23:10:52.129Z</time>
      </trkpt>
      <trkpt lat="44.94619" lon="5.20897">
        <ele>807.339526</ele>
        <time>2023-08-18T23:11:03.380Z</time>
      </trkpt>
      <trkpt lat="44.94581" lon="5.20879">
        <ele>807.77691</ele>
        <time>2023-08-18T23:11:08.123Z</time>
      </trkpt>
      <trkpt lat="44.94501" lon="5.20842">
        <ele>808.658357</ele>
        <time>2023-08-18T23:11:17.669Z</time>
      </trkpt>
      <trkpt lat="44.94421" lon="5.2077">
        <ele>809.632628</ele>
        <time>2023-08-18T23:11:33.284Z</time>
      </trkpt>
      <trkpt lat="44.94339" lon="5.20734">
        <ele>812.070211</ele>
        <time>2023-08-18T23:11:51.236Z</time>
      </trkpt>
      <trkpt lat="44.94305" lon="5.20715">
        <ele>813.190194</ele>
        <time>2023-08-18T23:11:59.064Z</time>
      </trkpt>
      <trkpt lat="44.94201" lon="5.20585">
        <ele>818.448573</ele>
        <time>2023-08-18T23:12:32.349Z</time>
      </trkpt>
      <trkpt lat="44.94182" lon="5.20571">
        <ele>819.401118</ele>
        <time>2023-08-18T23:12:37.724Z</time>
      </trkpt>
      <trkpt lat="44.94137" lon="5.20557">
        <ele>821.425243</ele>
        <time>2023-08-18T23:12:49.841Z</time>
      </trkpt>
      <trkpt lat="44.94117" lon="5.20527">
        <ele>822.726236</ele>
        <time>2023-08-18T23:12:58.088Z</time>
      </trkpt>
      <trkpt lat="44.94038" lon="5.20496">
        <ele>827.535045</ele>
        <time>2023-08-18T23:13:22.772Z</time>
      </trkpt>
      <trkpt lat="44.9401" lon="5.20461">
        <ele>829.83811</ele>
        <time>2023-08-18T23:13:34.646Z</time>
      </trkpt>
      <trkpt lat="44.93986" lon="5.20442">
        <ele>831.572386</ele>
        <time>2023-08-18T23:13:43.713Z</time>
      </trkpt>
      <trkpt lat="44.93888" lon="5.20377">
        <ele>838.799645</ele>
        <time>2023-08-18T23:14:20.316Z</time>
      </trkpt>
      <trkpt lat="44.93874" lon="5.20343">
        <ele>840.775655</ele>
        <time>2023-08-18T23:14:29.930Z</time>
      </trkpt>
      <trkpt lat="44.93867" lon="5.20335">
        <ele>841.445344</ele>
        <time>2023-08-18T23:14:33.179Z</time>
      </trkpt>
      <trkpt lat="44.93686" lon="5.20221">
        <ele>855.527471</ele>
        <time>2023-08-18T23:15:42.591Z</time>
      </trkpt>
      <trkpt lat="44.93586" lon="5.20164">
        <ele>862.873771</ele>
        <time>2023-08-18T23:16:19.913Z</time>
      </trkpt>
      <trkpt lat="44.93538" lon="5.20131">
        <ele>866.196481</ele>
        <time>2023-08-18T23:16:37.405Z</time>
      </trkpt>
      <trkpt lat="44.93365" lon="5.20047">
        <ele>876.342829</ele>
        <time>2023-08-18T23:17:31.569Z</time>
      </trkpt>
      <trkpt lat="44.93314" lon="5.20015">
        <ele>879.103872</ele>
        <time>2023-08-18T23:17:46.658Z</time>
      </trkpt>
      <trkpt lat="44.9329" lon="5.2001">
        <ele>880.288017</ele>
        <time>2023-08-18T23:17:52.743Z</time>
      </trkpt>
      <trkpt lat="44.93232" lon="5.20011">
        <ele>882.040085</ele>
        <time>2023-08-18T23:18:05.987Z</time>
      </trkpt>
      <trkpt lat="44.93211" lon="5.20005">
        <ele>882.670647</ele>
        <time>2023-08-18T23:18:10.589Z</time>
      </trkpt>
      <trkpt lat="44.93173" lon="5.19982">
        <ele>883.937183</ele>
        <time>2023-08-18T23:18:19.438Z</time>
      </trkpt>
      <trkpt lat="44.93126" lon="5.19968">
        <ele>885.360149</ele>
        <time>2023-08-18T23:18:28.781Z</time>
      </trkpt>
      <trkpt lat="44.93102" lon="5.19954">
        <ele>886.10517</ele>
        <time>2023-08-18T23:18:33.562Z</time>
      </trkpt>
      <trkpt lat="44.93042" lon="5.19906">
        <ele>887.983379</ele>
        <time>2023-08-18T23:18:45.765Z</time>
      </trkpt>
      <trkpt lat="44.93017" lon="5.19894">
        <ele>888.694847</ele>
        <time>2023-08-18T23:18:51.014Z</time>
      </trkpt>
      <trkpt lat="44.9294" lon="5.19881">
        <ele>890.905323</ele>
        <time>2023-08-18T23:19:09.034Z</time>
      </trkpt>
      <trkpt lat="44.92895" lon="5.19863">
        <ele>892.759129</ele>
        <time>2023-08-18T23:19:20.693Z</time>
      </trkpt>
      <trkpt lat="44.92851" lon="5.19852">
        <ele>894.478855</ele>
        <time>2023-08-18T23:19:31.550Z</time>
      </trkpt>
      <trkpt lat="44.92814" lon="5.19831">
        <ele>896.042762</ele>
        <time>2023-08-18T23:19:41.531Z</time>
      </trkpt>
      <trkpt lat="44.92761" lon="5.19822">
        <ele>897.944526</ele>
        <time>2023-08-18T23:19:54.877Z</time>
      </trkpt>
      <trkpt lat="44.92727" lon="5.19834">
        <ele>898.881675</ele>
        <time>2023-08-18T23:20:03.398Z</time>
      </trkpt>
      <trkpt lat="44.9271" lon="5.19847">
        <ele>899.390002</ele>
        <time>2023-08-18T23:20:07.726Z</time>
      </trkpt>
      <trkpt lat="44.92696" lon="5.19847">
        <ele>899.775395</ele>
        <time>2023-08-18T23:20:10.784Z</time>
      </trkpt>
      <trkpt lat="44.92645" lon="5.19829">
        <ele>901.152584</ele>
        <time>2023-08-18T23:20:20.840Z</time>
      </trkpt>
      <trkpt lat="44.92583" lon="5.19837">
        <ele>902.406187</ele>
        <time>2023-08-18T23:20:31.166Z</time>
      </trkpt>
      <trkpt lat="44.92519" lon="5.19828">
        <ele>902.582919</ele>
        <time>2023-08-18T23:20:39.800Z</time>
      </trkpt>
      <trkpt lat="44.92408" lon="5.19803">
        <ele>902.950855</ele>
        <time>2023-08-18T23:20:52.241Z</time>
      </trkpt>
      <trkpt lat="44.92387" lon="5.19802">
        <ele>903.090503</ele>
        <time>2023-08-18T23:20:54.529Z</time>
      </trkpt>
      <trkpt lat="44.92361" lon="5.19807">
        <ele>903.271928</ele>
        <time>2023-08-18T23:20:57.614Z</time>
      </trkpt>
      <trkpt lat="44.92327" lon="5.19808">
        <ele>903.504648</ele>
        <time>2023-08-18T23:21:02.026Z</time>
      </trkpt>
      <trkpt lat="44.92291" lon="5.19795">
        <ele>903.757742</ele>
        <time>2023-08-18T23:21:07.611Z</time>
      </trkpt>
      <trkpt lat="44.92262" lon="5.19771">
        <ele>903.989813</ele>
        <time>2023-08-18T23:21:13.282Z</time>
      </trkpt>
      <trkpt lat="44.92186" lon="5.19733">
        <ele>905.516181</ele>
        <time>2023-08-18T23:21:27.981Z</time>
      </trkpt>
      <trkpt lat="44.92177" lon="5.19727">
        <ele>905.742006</ele>
        <time>2023-08-18T23:21:29.993Z</time>
      </trkpt>
      <trkpt lat="44.92154" lon="5.19699">
        <ele>906.382412</ele>
        <time>2023-08-18T23:21:35.747Z</time>
      </trkpt>
      <trkpt lat="44.92083" lon="5.19643">
        <ele>908.048309</ele>
        <time>2023-08-18T23:21:51.802Z</time>
      </trkpt>
      <trkpt lat="44.92053" lon="5.19632">
        <ele>908.447058</ele>
        <time>2023-08-18T23:21:57.694Z</time>
      </trkpt>
      <trkpt lat="44.92006" lon="5.19593">
        <ele>909.143698</ele>
        <time>2023-08-18T23:22:06.866Z</time>
      </trkpt>
      <trkpt lat="44.91981" lon="5.19581">
        <ele>909.472122</ele>
        <time>2023-08-18T23:22:10.839Z</time>
      </trkpt>
      <trkpt lat="44.91925" lon="5.19567">
        <ele>910.196503</ele>
        <time>2023-08-18T23:22:18.728Z</time>
      </trkpt>
      <trkpt lat="44.91892" lon="5.19539">
        <ele>910.108221</ele>
        <time>2023-08-18T23:22:23.429Z</time>
      </trkpt>
      <trkpt lat="44.91808" lon="5.19486">
        <ele>909.822505</ele>
        <time>2023-08-18T23:22:33.466Z</time>
      </trkpt>
      <trkpt lat="44.91755" lon="5.19459">
        <ele>909.634892</ele>
        <time>2023-08-18T23:22:39.153Z</time>
      </trkpt>
      <trkpt lat="44.91648" lon="5.19416">
        <ele>908.970311</ele>
        <time>2023-08-18T23:22:50.156Z</time>
      </trkpt>
      <trkpt lat="44.91519" lon="5.19375">
        <ele>909.37696</ele>
        <time>2023-08-18T23:23:05.383Z</time>
      </trkpt>
      <trkpt lat="44.91397" lon="5.19306">
        <ele>911.243965</ele>
        <time>2023-08-18T23:23:28.558Z</time>
      </trkpt>
      <trkpt lat="44.91355" lon="5.19279">
        <ele>912.623354</ele>
        <time>2023-08-18T23:23:38.062Z</time>
      </trkpt>
      <trkpt lat="44.91325" lon="5.19265">
        <ele>913.57539</ele>
        <time>2023-08-18T23:23:44.954Z</time>
      </trkpt>
      <trkpt lat="44.91304" lon="5.19261">
        <ele>914.228287</ele>
        <time>2023-08-18T23:23:49.806Z</time>
      </trkpt>
      <trkpt lat="44.91227" lon="5.1926">
        <ele>916.840538</ele>
        <time>2023-08-18T23:24:07.471Z</time>
      </trkpt>
      <trkpt lat="44.9122" lon="5.1926">
        <ele>917.203142</ele>
        <time>2023-08-18T23:24:09.116Z</time>
      </trkpt>
      <trkpt lat="44.91227" lon="5.1926">
        <ele>917.565746</ele>
        <time>2023-08-18T23:24:10.744Z</time>
      </trkpt>
      <trkpt lat="44.91221" lon="5.19242">
        <ele>918.309226</ele>
        <time>2023-08-18T23:24:14.415Z</time>
      </trkpt>
      <trkpt lat="44.91157" lon="5.19145">
        <ele>923.105588</ele>
        <time>2023-08-18T23:24:39.525Z</time>
      </trkpt>
      <trkpt lat="44.91133" lon="5.19105">
        <ele>925.011726</ele>
        <time>2023-08-18T23:24:51.705Z</time>
      </trkpt>
      <trkpt lat="44.91119" lon="5.19088">
        <ele>926.502219</ele>
        <time>2023-08-18T23:24:58.263Z</time>
      </trkpt>
      <trkpt lat="44.91079" lon="5.19064">
        <ele>930.502969</ele>
        <time>2023-08-18T23:25:14.996Z</time>
      </trkpt>
      <trkpt lat="44.90994" lon="5.19039">
        <ele>938.493696</ele>
        <time>2023-08-18T23:25:52.506Z</time>
      </trkpt>
      <trkpt lat="44.90909" lon="5.19035">
        <ele>946.804034</ele>
        <time>2023-08-18T23:26:32.000Z</time>
      </trkpt>
      <trkpt lat="44.90823" lon="5.19039">
        <ele>955.638419</ele>
        <time>2023-08-18T23:27:11.685Z</time>
      </trkpt>
      <trkpt lat="44.90628" lon="5.19048">
        <ele>973.584722</ele>
        <time>2023-08-18T23:28:32.510Z</time>
      </trkpt>
      <trkpt lat="44.90618" lon="5.19043">
        <ele>974.522254</ele>
        <time>2023-08-18T23:28:36.322Z</time>
      </trkpt>
      <trkpt lat="44.90617" lon="5.19038">
        <ele>974.849538</ele>
        <time>2023-08-18T23:28:37.654Z</time>
      </trkpt>
      <trkpt lat="44.90671" lon="5.19025">
        <ele>978.988919</ele>
        <time>2023-08-18T23:28:56.914Z</time>
      </trkpt>
      <trkpt lat="44.90694" lon="5.19014">
        <ele>980.695958</ele>
        <time>2023-08-18T23:29:05.139Z</time>
      </trkpt>
      <trkpt lat="44.90735" lon="5.1898">
        <ele>984.106831</ele>
        <time>2023-08-18T23:29:21.472Z</time>
      </trkpt>
      <trkpt lat="44.90768" lon="5.18962">
        <ele>986.654285</ele>
        <time>2023-08-18T23:29:33.428Z</time>
      </trkpt>
      <trkpt lat="44.9083" lon="5.18943">
        <ele>991.419054</ele>
        <time>2023-08-18T23:29:54.707Z</time>
      </trkpt>
      <trkpt lat="44.90869" lon="5.18921">
        <ele>994.795197</ele>
        <time>2023-08-18T23:30:09.453Z</time>
      </trkpt>
      <trkpt lat="44.91018" lon="5.18865">
        <ele>1009.676835</ele>
        <time>2023-08-18T23:31:08.708Z</time>
      </trkpt>
      <trkpt lat="44.91107" lon="5.18815">
        <ele>1022.633177</ele>
        <time>2023-08-18T23:32:06.666Z</time>
      </trkpt>
      <trkpt lat="44.91115" lon="5.1881">
        <ele>1023.869555</ele>
        <time>2023-08-18T23:32:12.383Z</time>
      </trkpt>
      <trkpt lat="44.91122" lon="5.18797">
        <ele>1025.295789</ele>
        <time>2023-08-18T23:32:19.637Z</time>
      </trkpt>
      <trkpt lat="44.9112" lon="5.1879">
        <ele>1026.05206</ele>
        <time>2023-08-18T23:32:23.606Z</time>
      </trkpt>
      <trkpt lat="44.91114" lon="5.18783">
        <ele>1027.079064</ele>
        <time>2023-08-18T23:32:28.470Z</time>
      </trkpt>
      <trkpt lat="44.91085" lon="5.18759">
        <ele>1031.462886</ele>
        <time>2023-08-18T23:32:50.070Z</time>
      </trkpt>
      <trkpt lat="44.91067" lon="5.18731">
        <ele>1035.037877</ele>
        <time>2023-08-18T23:33:07.070Z</time>
      </trkpt>
      <trkpt lat="44.91049" lon="5.1869">
        <ele>1039.538891</ele>
        <time>2023-08-18T23:33:27.937Z</time>
      </trkpt>
      <trkpt lat="44.91031" lon="5.18633">
        <ele>1045.338582</ele>
        <time>2023-08-18T23:33:53.893Z</time>
      </trkpt>
      <trkpt lat="44.91023" lon="5.18597">
        <ele>1048.919379</ele>
        <time>2023-08-18T23:34:07.826Z</time>
      </trkpt>
      <trkpt lat="44.90988" lon="5.18492">
        <ele>1051.329172</ele>
        <time>2023-08-18T23:34:29.809Z</time>
      </trkpt>
      <trkpt lat="44.90974" lon="5.18468">
        <ele>1051.338472</ele>
        <time>2023-08-18T23:34:31.866Z</time>
      </trkpt>
      <trkpt lat="44.90949" lon="5.1844">
        <ele>1051.351798</ele>
        <time>2023-08-18T23:34:34.454Z</time>
      </trkpt>
      <trkpt lat="44.90939" lon="5.18419">
        <ele>1051.359414</ele>
        <time>2023-08-18T23:34:35.861Z</time>
      </trkpt>
      <trkpt lat="44.90942" lon="5.18401">
        <ele>1051.364976</ele>
        <time>2023-08-18T23:34:36.867Z</time>
      </trkpt>
      <trkpt lat="44.90948" lon="5.18394">
        <ele>1051.367905</ele>
        <time>2023-08-18T23:34:37.428Z</time>
      </trkpt>
      <trkpt lat="44.90959" lon="5.18388">
        <ele>1051.373168</ele>
        <time>2023-08-18T23:34:38.374Z</time>
      </trkpt>
      <trkpt lat="44.90973" lon="5.18383">
        <ele>1051.313406</ele>
        <time>2023-08-18T23:34:39.416Z</time>
      </trkpt>
      <trkpt lat="44.91006" lon="5.18384">
        <ele>1050.373428</ele>
        <time>2023-08-18T23:34:41.913Z</time>
      </trkpt>
      <trkpt lat="44.91035" lon="5.18394">
        <ele>1049.538059</ele>
        <time>2023-08-18T23:34:44.124Z</time>
      </trkpt>
      <trkpt lat="44.91058" lon="5.18413">
        <ele>1048.783282</ele>
        <time>2023-08-18T23:34:46.150Z</time>
      </trkpt>
      <trkpt lat="44.91103" lon="5.18472">
        <ele>1047.064034</ele>
        <time>2023-08-18T23:34:51.078Z</time>
      </trkpt>
      <trkpt lat="44.91133" lon="5.18519">
        <ele>1047.941575</ele>
        <time>2023-08-18T23:34:58.777Z</time>
      </trkpt>
      <trkpt lat="44.91174" lon="5.18566">
        <ele>1052.547835</ele>
        <time>2023-08-18T23:35:15.093Z</time>
      </trkpt>
      <trkpt lat="44.91208" lon="5.18577">
        <ele>1055.552462</ele>
        <time>2023-08-18T23:35:29.161Z</time>
      </trkpt>
      <trkpt lat="44.91233" lon="5.18574">
        <ele>1057.785745</ele>
        <time>2023-08-18T23:35:41.421Z</time>
      </trkpt>
      <trkpt lat="44.9125" lon="5.18561">
        <ele>1059.487997</ele>
        <time>2023-08-18T23:35:51.695Z</time>
      </trkpt>
      <trkpt lat="44.91275" lon="5.18526">
        <ele>1062.817441</ele>
        <time>2023-08-18T23:36:11.734Z</time>
      </trkpt>
      <trkpt lat="44.91349" lon="5.18409">
        <ele>1078.641488</ele>
        <time>2023-08-18T23:37:26.058Z</time>
      </trkpt>
      <trkpt lat="44.91382" lon="5.18343">
        <ele>1086.759755</ele>
        <time>2023-08-18T23:37:55.670Z</time>
      </trkpt>
      <trkpt lat="44.91391" lon="5.18309">
        <ele>1088.6624</ele>
        <time>2023-08-18T23:38:05.695Z</time>
      </trkpt>
      <trkpt lat="44.91395" lon="5.18249">
        <ele>1090.993328</ele>
        <time>2023-08-18T23:38:20.217Z</time>
      </trkpt>
      <trkpt lat="44.91401" lon="5.18229">
        <ele>1091.806079</ele>
        <time>2023-08-18T23:38:24.912Z</time>
      </trkpt>
      <trkpt lat="44.91412" lon="5.18219">
        <ele>1092.519988</ele>
        <time>2023-08-18T23:38:29.037Z</time>
      </trkpt>
      <trkpt lat="44.91423" lon="5.18225">
        <ele>1093.167783</ele>
        <time>2023-08-18T23:38:32.801Z</time>
      </trkpt>
      <trkpt lat="44.91441" lon="5.18247">
        <ele>1094.437453</ele>
        <time>2023-08-18T23:38:39.482Z</time>
      </trkpt>
      <trkpt lat="44.91454" lon="5.18258">
        <ele>1095.29327</ele>
        <time>2023-08-18T23:38:43.478Z</time>
      </trkpt>
      <trkpt lat="44.91465" lon="5.1826">
        <ele>1095.90486</ele>
        <time>2023-08-18T23:38:45.935Z</time>
      </trkpt>
      <trkpt lat="44.91478" lon="5.18254">
        <ele>1096.639516</ele>
        <time>2023-08-18T23:38:48.265Z</time>
      </trkpt>
      <trkpt lat="44.91505" lon="5.18237">
        <ele>1097.554402</ele>
        <time>2023-08-18T23:38:51.636Z</time>
      </trkpt>
      <trkpt lat="44.91559" lon="5.18189">
        <ele>1098.306431</ele>
        <time>2023-08-18T23:38:57.227Z</time>
      </trkpt>
      <trkpt lat="44.91569" lon="5.18184">
        <ele>1098.426484</ele>
        <time>2023-08-18T23:38:58.098Z</time>
      </trkpt>
      <trkpt lat="44.91577" lon="5.18185">
        <ele>1098.525766</ele>
        <time>2023-08-18T23:38:58.970Z</time>
      </trkpt>
      <trkpt lat="44.91584" lon="5.1819">
        <ele>1098.613723</ele>
        <time>2023-08-18T23:39:00.068Z</time>
      </trkpt>
      <trkpt lat="44.91588" lon="5.18203">
        <ele>1098.727248</ele>
        <time>2023-08-18T23:39:01.478Z</time>
      </trkpt>
      <trkpt lat="44.91594" lon="5.18277">
        <ele>1099.356734</ele>
        <time>2023-08-18T23:39:13.234Z</time>
      </trkpt>
      <trkpt lat="44.91604" lon="5.1833">
        <ele>1100.813815</ele>
        <time>2023-08-18T23:39:24.615Z</time>
      </trkpt>
      <trkpt lat="44.9161" lon="5.18351">
        <ele>1101.566874</ele>
        <time>2023-08-18T23:39:29.461Z</time>
      </trkpt>
      <trkpt lat="44.91618" lon="5.18367">
        <ele>1102.240868</ele>
        <time>2023-08-18T23:39:33.226Z</time>
      </trkpt>
      <trkpt lat="44.91643" lon="5.18392">
        <ele>1103.723458</ele>
        <time>2023-08-18T23:39:41.602Z</time>
      </trkpt>
      <trkpt lat="44.91668" lon="5.18406">
        <ele>1104.985851</ele>
        <time>2023-08-18T23:39:48.467Z</time>
      </trkpt>
      <trkpt lat="44.91694" lon="5.18414">
        <ele>1106.237782</ele>
        <time>2023-08-18T23:39:55.241Z</time>
      </trkpt>
      <trkpt lat="44.9173" lon="5.18419">
        <ele>1107.983634</ele>
        <time>2023-08-18T23:40:04.080Z</time>
      </trkpt>
      <trkpt lat="44.91761" lon="5.18441">
        <ele>1110.584452</ele>
        <time>2023-08-18T23:40:15.063Z</time>
      </trkpt>
      <trkpt lat="44.91765" lon="5.18441">
        <ele>1110.93436</ele>
        <time>2023-08-18T23:40:16.557Z</time>
      </trkpt>
      <trkpt lat="44.91765" lon="5.18435">
        <ele>1111.231207</ele>
        <time>2023-08-18T23:40:18.032Z</time>
      </trkpt>
      <trkpt lat="44.9176" lon="5.18426">
        <ele>1111.83671</ele>
        <time>2023-08-18T23:40:20.881Z</time>
      </trkpt>
      <trkpt lat="44.91742" lon="5.1841">
        <ele>1113.490924</ele>
        <time>2023-08-18T23:40:28.799Z</time>
      </trkpt>
      <trkpt lat="44.91681" lon="5.18376">
        <ele>1118.640757</ele>
        <time>2023-08-18T23:40:54.234Z</time>
      </trkpt>
      <trkpt lat="44.91674" lon="5.18371">
        <ele>1119.219412</ele>
        <time>2023-08-18T23:40:56.915Z</time>
      </trkpt>
      <trkpt lat="44.91674" lon="5.18365">
        <ele>1119.523247</ele>
        <time>2023-08-18T23:40:58.533Z</time>
      </trkpt>
      <trkpt lat="44.91777" lon="5.184">
        <ele>1131.330994</ele>
        <time>2023-08-18T23:41:42.912Z</time>
      </trkpt>
      <trkpt lat="44.91845" lon="5.18442">
        <ele>1140.819921</ele>
        <time>2023-08-18T23:42:30.823Z</time>
      </trkpt>
      <trkpt lat="44.91865" lon="5.18454">
        <ele>1143.475221</ele>
        <time>2023-08-18T23:42:43.340Z</time>
      </trkpt>
      <trkpt lat="44.91896" lon="5.18466">
        <ele>1146.329241</ele>
        <time>2023-08-18T23:43:01.734Z</time>
      </trkpt>
      <trkpt lat="44.91913" lon="5.18486">
        <ele>1147.785853</ele>
        <time>2023-08-18T23:43:12.819Z</time>
      </trkpt>
      <trkpt lat="44.9193" lon="5.18498">
        <ele>1149.086275</ele>
        <time>2023-08-18T23:43:21.238Z</time>
      </trkpt>
      <trkpt lat="44.91944" lon="5.18504">
        <ele>1150.053079</ele>
        <time>2023-08-18T23:43:27.021Z</time>
      </trkpt>
      <trkpt lat="44.92041" lon="5.18528">
        <ele>1156.738647</ele>
        <time>2023-08-18T23:43:52.779Z</time>
      </trkpt>
      <trkpt lat="44.9214" lon="5.18538">
        <ele>1151.926773</ele>
        <time>2023-08-18T23:44:00.627Z</time>
      </trkpt>
      <trkpt lat="44.9222" lon="5.18555">
        <ele>1147.667197</ele>
        <time>2023-08-18T23:44:06.290Z</time>
      </trkpt>
      <trkpt lat="44.92259" lon="5.18559">
        <ele>1144.073373</ele>
        <time>2023-08-18T23:44:08.938Z</time>
      </trkpt>
      <trkpt lat="44.92373" lon="5.18557">
        <ele>1132.91689</ele>
        <time>2023-08-18T23:44:16.849Z</time>
      </trkpt>
      <trkpt lat="44.92405" lon="5.18561">
        <ele>1129.812689</ele>
        <time>2023-08-18T23:44:19.045Z</time>
      </trkpt>
      <trkpt lat="44.92431" lon="5.18573">
        <ele>1127.336948</ele>
        <time>2023-08-18T23:44:20.913Z</time>
      </trkpt>
      <trkpt lat="44.92496" lon="5.18572">
        <ele>1121.416712</ele>
        <time>2023-08-18T23:44:25.418Z</time>
      </trkpt>
      <trkpt lat="44.92517" lon="5.18575">
        <ele>1119.516602</ele>
        <time>2023-08-18T23:44:26.874Z</time>
      </trkpt>
      <trkpt lat="44.92551" lon="5.18588">
        <ele>1116.293607</ele>
        <time>2023-08-18T23:44:29.363Z</time>
      </trkpt>
      <trkpt lat="44.92582" lon="5.18604">
        <ele>1113.375432</ele>
        <time>2023-08-18T23:44:31.699Z</time>
      </trkpt>
      <trkpt lat="44.9259" lon="5.18601">
        <ele>1112.86268</ele>
        <time>2023-08-18T23:44:32.232Z</time>
      </trkpt>
      <trkpt lat="44.92588" lon="5.18596">
        <ele>1112.594212</ele>
        <time>2023-08-18T23:44:32.511Z</time>
      </trkpt>
      <trkpt lat="44.92582" lon="5.1859">
        <ele>1112.095</ele>
        <time>2023-08-18T23:44:33.031Z</time>
      </trkpt>
      <trkpt lat="44.92511" lon="5.18549">
        <ele>1106.797439</ele>
        <time>2023-08-18T23:44:38.546Z</time>
      </trkpt>
      <trkpt lat="44.92446" lon="5.18523">
        <ele>1102.169515</ele>
        <time>2023-08-18T23:44:43.467Z</time>
      </trkpt>
      <trkpt lat="44.92407" lon="5.18499">
        <ele>1099.496405</ele>
        <time>2023-08-18T23:44:46.593Z</time>
      </trkpt>
      <trkpt lat="44.92265" lon="5.18448">
        <ele>1090.501142</ele>
        <time>2023-08-18T23:44:57.427Z</time>
      </trkpt>
      <trkpt lat="44.92233" lon="5.18441">
        <ele>1087.871534</ele>
        <time>2023-08-18T23:44:59.724Z</time>
      </trkpt>
      <trkpt lat="44.92229" lon="5.18438">
        <ele>1087.476819</ele>
        <time>2023-08-18T23:45:00.061Z</time>
      </trkpt>
      <trkpt lat="44.92228" lon="5.18434">
        <ele>1087.196105</ele>
        <time>2023-08-18T23:45:00.289Z</time>
      </trkpt>
      <trkpt lat="44.92234" lon="5.18428">
        <ele>1086.61414</ele>
        <time>2023-08-18T23:45:00.762Z</time>
      </trkpt>
      <trkpt lat="44.92242" lon="5.1843">
        <ele>1085.853822</ele>
        <time>2023-08-18T23:45:01.402Z</time>
      </trkpt>
      <trkpt lat="44.92267" lon="5.18436">
        <ele>1083.778227</ele>
        <time>2023-08-18T23:45:03.141Z</time>
      </trkpt>
      <trkpt lat="44.92384" lon="5.18439">
        <ele>1073.86239</ele>
        <time>2023-08-18T23:45:11.315Z</time>
      </trkpt>
      <trkpt lat="44.92445" lon="5.18444">
        <ele>1068.706889</ele>
        <time>2023-08-18T23:45:15.579Z</time>
      </trkpt>
      <trkpt lat="44.92572" lon="5.18476">
        <ele>1058.014844</ele>
        <time>2023-08-18T23:45:24.682Z</time>
      </trkpt>
      <trkpt lat="44.92624" lon="5.18492">
        <ele>1054.075728</ele>
        <time>2023-08-18T23:45:28.417Z</time>
      </trkpt>
      <trkpt lat="44.92644" lon="5.18506">
        <ele>1052.399085</ele>
        <time>2023-08-18T23:45:30.005Z</time>
      </trkpt>
      <trkpt lat="44.92651" lon="5.18506">
        <ele>1051.880723</ele>
        <time>2023-08-18T23:45:30.497Z</time>
      </trkpt>
      <trkpt lat="44.92653" lon="5.18502">
        <ele>1051.611564</ele>
        <time>2023-08-18T23:45:30.752Z</time>
      </trkpt>
      <trkpt lat="44.92652" lon="5.18496">
        <ele>1051.303857</ele>
        <time>2023-08-18T23:45:31.042Z</time>
      </trkpt>
      <trkpt lat="44.92645" lon="5.1849">
        <ele>1050.697903</ele>
        <time>2023-08-18T23:45:31.615Z</time>
      </trkpt>
      <trkpt lat="44.92469" lon="5.18385">
        <ele>1037.44427</ele>
        <time>2023-08-18T23:45:45.296Z</time>
      </trkpt>
      <trkpt lat="44.92431" lon="5.18367">
        <ele>1034.765044</ele>
        <time>2023-08-18T23:45:48.245Z</time>
      </trkpt>
      <trkpt lat="44.92308" lon="5.18322">
        <ele>1027.673624</ele>
        <time>2023-08-18T23:45:57.826Z</time>
      </trkpt>
      <trkpt lat="44.92214" lon="5.18295">
        <ele>1021.686614</ele>
        <time>2023-08-18T23:46:04.914Z</time>
      </trkpt>
      <trkpt lat="44.92181" lon="5.18277">
        <ele>1019.090526</ele>
        <time>2023-08-18T23:46:07.450Z</time>
      </trkpt>
      <trkpt lat="44.92156" lon="5.18272">
        <ele>1017.146749</ele>
        <time>2023-08-18T23:46:09.310Z</time>
      </trkpt>
      <trkpt lat="44.92154" lon="5.18265">
        <ele>1016.768324</ele>
        <time>2023-08-18T23:46:09.676Z</time>
      </trkpt>
      <trkpt lat="44.92157" lon="5.18261">
        <ele>1016.464807</ele>
        <time>2023-08-18T23:46:09.967Z</time>
      </trkpt>
      <trkpt lat="44.9217" lon="5.18259">
        <ele>1015.447767</ele>
        <time>2023-08-18T23:46:10.927Z</time>
      </trkpt>
      <trkpt lat="44.92219" lon="5.18272">
        <ele>1011.793637</ele>
        <time>2023-08-18T23:46:14.354Z</time>
      </trkpt>
      <trkpt lat="44.92271" lon="5.18264">
        <ele>1007.209504</ele>
        <time>2023-08-18T23:46:17.996Z</time>
      </trkpt>
      <trkpt lat="44.92329" lon="5.18272">
        <ele>1001.962648</ele>
        <time>2023-08-18T23:46:22.031Z</time>
      </trkpt>
      <trkpt lat="44.92487" lon="5.18268">
        <ele>988.564766</ele>
        <time>2023-08-18T23:46:33.173Z</time>
      </trkpt>
      <trkpt lat="44.92568" lon="5.18307">
        <ele>981.767797</ele>
        <time>2023-08-18T23:46:39.272Z</time>
      </trkpt>
      <trkpt lat="44.92636" lon="5.18328">
        <ele>976.70359</ele>
        <time>2023-08-18T23:46:44.161Z</time>
      </trkpt>
      <trkpt lat="44.92657" lon="5.18332">
        <ele>975.169023</ele>
        <time>2023-08-18T23:46:45.697Z</time>
      </trkpt>
      <trkpt lat="44.9275" lon="5.18337">
        <ele>968.585686</ele>
        <time>2023-08-18T23:46:52.403Z</time>
      </trkpt>
      <trkpt lat="44.92759" lon="5.18331">
        <ele>967.869171</ele>
        <time>2023-08-18T23:46:53.146Z</time>
      </trkpt>
      <trkpt lat="44.92758" lon="5.18321">
        <ele>967.375995</ele>
        <time>2023-08-18T23:46:53.715Z</time>
      </trkpt>
      <trkpt lat="44.9275" lon="5.18316">
        <ele>966.834356</ele>
        <time>2023-08-18T23:46:54.334Z</time>
      </trkpt>
      <trkpt lat="44.92716" lon="5.18319">
        <ele>964.722921</ele>
        <time>2023-08-18T23:46:56.761Z</time>
      </trkpt>
      <trkpt lat="44.92683" lon="5.18309">
        <ele>962.534915</ele>
        <time>2023-08-18T23:46:59.285Z</time>
      </trkpt>
      <trkpt lat="44.92649" lon="5.18297">
        <ele>960.311174</ele>
        <time>2023-08-18T23:47:01.854Z</time>
      </trkpt>
      <trkpt lat="44.92608" lon="5.18272">
        <ele>957.508086</ele>
        <time>2023-08-18T23:47:05.089Z</time>
      </trkpt>
      <trkpt lat="44.92547" lon="5.18214">
        <ele>952.257853</ele>
        <time>2023-08-18T23:47:10.450Z</time>
      </trkpt>
      <trkpt lat="44.92516" lon="5.18176">
        <ele>949.260105</ele>
        <time>2023-08-18T23:47:13.337Z</time>
      </trkpt>
      <trkpt lat="44.92496" lon="5.18156">
        <ele>947.428235</ele>
        <time>2023-08-18T23:47:15.097Z</time>
      </trkpt>
      <trkpt lat="44.92474" lon="5.18146">
        <ele>945.756901</ele>
        <time>2023-08-18T23:47:16.693Z</time>
      </trkpt>
      <trkpt lat="44.92382" lon="5.18134">
        <ele>938.941518</ele>
        <time>2023-08-18T23:47:23.299Z</time>
      </trkpt>
      <trkpt lat="44.92348" lon="5.18122">
        <ele>936.392977</ele>
        <time>2023-08-18T23:47:25.782Z</time>
      </trkpt>
      <trkpt lat="44.92278" lon="5.18081">
        <ele>930.874903</ele>
        <time>2023-08-18T23:47:31.268Z</time>
      </trkpt>
      <trkpt lat="44.92251" lon="5.18074">
        <ele>928.672556</ele>
        <time>2023-08-18T23:47:33.250Z</time>
      </trkpt>
      <trkpt lat="44.92254" lon="5.18064">
        <ele>928.009892</ele>
        <time>2023-08-18T23:47:33.798Z</time>
      </trkpt>
      <trkpt lat="44.92261" lon="5.18063">
        <ele>927.418468</ele>
        <time>2023-08-18T23:47:34.281Z</time>
      </trkpt>
      <trkpt lat="44.92281" lon="5.18065">
        <ele>925.70888</ele>
        <time>2023-08-18T23:47:35.721Z</time>
      </trkpt>
      <trkpt lat="44.92357" lon="5.18082">
        <ele>919.202185</ele>
        <time>2023-08-18T23:47:41.022Z</time>
      </trkpt>
      <trkpt lat="44.92385" lon="5.1808">
        <ele>916.777624</ele>
        <time>2023-08-18T23:47:42.977Z</time>
      </trkpt>
      <trkpt lat="44.92435" lon="5.18072">
        <ele>912.473931</ele>
        <time>2023-08-18T23:47:46.456Z</time>
      </trkpt>
      <trkpt lat="44.9248" lon="5.18057">
        <ele>908.475641</ele>
        <time>2023-08-18T23:47:49.768Z</time>
      </trkpt>
      <trkpt lat="44.92516" lon="5.18033">
        <ele>905.048847</ele>
        <time>2023-08-18T23:47:52.598Z</time>
      </trkpt>
      <trkpt lat="44.92536" lon="5.18029">
        <ele>903.250794</ele>
        <time>2023-08-18T23:47:54.068Z</time>
      </trkpt>
      <trkpt lat="44.92553" lon="5.18044">
        <ele>901.555683</ele>
        <time>2023-08-18T23:47:55.431Z</time>
      </trkpt>
      <trkpt lat="44.92571" lon="5.18073">
        <ele>899.216205</ele>
        <time>2023-08-18T23:47:57.301Z</time>
      </trkpt>
      <trkpt lat="44.92606" lon="5.18086">
        <ele>894.393596</ele>
        <time>2023-08-18T23:47:59.786Z</time>
      </trkpt>
      <trkpt lat="44.92642" lon="5.18088">
        <ele>889.541388</ele>
        <time>2023-08-18T23:48:02.260Z</time>
      </trkpt>
      <trkpt lat="44.9267" lon="5.18104">
        <ele>885.530905</ele>
        <time>2023-08-18T23:48:04.284Z</time>
      </trkpt>
      <trkpt lat="44.92683" lon="5.18104">
        <ele>883.825921</ele>
        <time>2023-08-18T23:48:05.141Z</time>
      </trkpt>
      <trkpt lat="44.92703" lon="5.18085">
        <ele>880.605566</ele>
        <time>2023-08-18T23:48:06.749Z</time>
      </trkpt>
      <trkpt lat="44.92736" lon="5.18003">
        <ele>871.288977</ele>
        <time>2023-08-18T23:48:11.169Z</time>
      </trkpt>
      <trkpt lat="44.92758" lon="5.17959">
        <ele>865.729591</ele>
        <time>2023-08-18T23:48:13.630Z</time>
      </trkpt>
      <trkpt lat="44.92765" lon="5.17921">
        <ele>861.554491</ele>
        <time>2023-08-18T23:48:15.483Z</time>
      </trkpt>
      <trkpt lat="44.92767" lon="5.17885">
        <ele>857.763679</ele>
        <time>2023-08-18T23:48:17.170Z</time>
      </trkpt>
      <trkpt lat="44.92765" lon="5.17834">
        <ele>852.355371</ele>
        <time>2023-08-18T23:48:19.606Z</time>
      </trkpt>
      <trkpt lat="44.92768" lon="5.17819">
        <ele>850.718244</ele>
        <time>2023-08-18T23:48:20.349Z</time>
      </trkpt>
      <trkpt lat="44.92788" lon="5.17798">
        <ele>847.973894</ele>
        <time>2023-08-18T23:48:22.069Z</time>
      </trkpt>
      <trkpt lat="44.92798" lon="5.17782">
        <ele>847.190942</ele>
        <time>2023-08-18T23:48:23.103Z</time>
      </trkpt>
      <trkpt lat="44.928" lon="5.17764">
        <ele>846.480664</ele>
        <time>2023-08-18T23:48:24.049Z</time>
      </trkpt>
      <trkpt lat="44.92793" lon="5.17718">
        <ele>844.71005</ele>
        <time>2023-08-18T23:48:26.531Z</time>
      </trkpt>
      <trkpt lat="44.92796" lon="5.17692">
        <ele>843.73423</ele>
        <time>2023-08-18T23:48:27.986Z</time>
      </trkpt>
      <trkpt lat="44.92808" lon="5.17673">
        <ele>842.790674</ele>
        <time>2023-08-18T23:48:29.407Z</time>
      </trkpt>
      <trkpt lat="44.92847" lon="5.1765">
        <ele>840.535203</ele>
        <time>2023-08-18T23:48:32.961Z</time>
      </trkpt>
      <trkpt lat="44.92918" lon="5.17624">
        <ele>836.600014</ele>
        <time>2023-08-18T23:48:39.057Z</time>
      </trkpt>
      <trkpt lat="44.92966" lon="5.17603">
        <ele>833.932866</ele>
        <time>2023-08-18T23:48:42.915Z</time>
      </trkpt>
      <trkpt lat="44.93023" lon="5.17567">
        <ele>830.632268</ele>
        <time>2023-08-18T23:48:47.401Z</time>
      </trkpt>
      <trkpt lat="44.93054" lon="5.17536">
        <ele>828.042673</ele>
        <time>2023-08-18T23:48:50.097Z</time>
      </trkpt>
      <trkpt lat="44.93083" lon="5.17495">
        <ele>824.223471</ele>
        <time>2023-08-18T23:48:52.983Z</time>
      </trkpt>
      <trkpt lat="44.93104" lon="5.17457">
        <ele>821.034579</ele>
        <time>2023-08-18T23:48:55.396Z</time>
      </trkpt>
      <trkpt lat="44.93121" lon="5.17409">
        <ele>817.493553</ele>
        <time>2023-08-18T23:48:58.035Z</time>
      </trkpt>
      <trkpt lat="44.93137" lon="5.17388">
        <ele>815.512109</ele>
        <time>2023-08-18T23:48:59.505Z</time>
      </trkpt>
      <trkpt lat="44.93155" lon="5.17377">
        <ele>813.642501</ele>
        <time>2023-08-18T23:49:00.877Z</time>
      </trkpt>
      <trkpt lat="44.93182" lon="5.17378">
        <ele>811.24104</ele>
        <time>2023-08-18T23:49:02.723Z</time>
      </trkpt>
      <trkpt lat="44.93204" lon="5.17363">
        <ele>809.19078</ele>
        <time>2023-08-18T23:49:04.344Z</time>
      </trkpt>
      <trkpt lat="44.93212" lon="5.17347">
        <ele>807.943097</ele>
        <time>2023-08-18T23:49:05.347Z</time>
      </trkpt>
      <trkpt lat="44.93239" lon="5.17217">
        <ele>799.707935</ele>
        <time>2023-08-18T23:49:12.105Z</time>
      </trkpt>
      <trkpt lat="44.93251" lon="5.17174">
        <ele>796.961564</ele>
        <time>2023-08-18T23:49:14.465Z</time>
      </trkpt>
      <trkpt lat="44.93292" lon="5.17091">
        <ele>791.419965</ele>
        <time>2023-08-18T23:49:19.671Z</time>
      </trkpt>
      <trkpt lat="44.93302" lon="5.17085">
        <ele>790.589393</ele>
        <time>2023-08-18T23:49:20.470Z</time>
      </trkpt>
      <trkpt lat="44.93335" lon="5.171">
        <ele>787.942821</ele>
        <time>2023-08-18T23:49:22.935Z</time>
      </trkpt>
      <trkpt lat="44.93353" lon="5.17099">
        <ele>786.540985</ele>
        <time>2023-08-18T23:49:24.238Z</time>
      </trkpt>
      <trkpt lat="44.93372" lon="5.17082">
        <ele>784.832945</ele>
        <time>2023-08-18T23:49:25.823Z</time>
      </trkpt>
      <trkpt lat="44.93381" lon="5.17059">
        <ele>783.399339</ele>
        <time>2023-08-18T23:49:27.134Z</time>
      </trkpt>
      <trkpt lat="44.93431" lon="5.16849">
        <ele>764.753591</ele>
        <time>2023-08-18T23:49:37.738Z</time>
      </trkpt>
      <trkpt lat="44.93433" lon="5.16835">
        <ele>763.550164</ele>
        <time>2023-08-18T23:49:38.414Z</time>
      </trkpt>
      <trkpt lat="44.93434" lon="5.16824">
        <ele>762.654834</ele>
        <time>2023-08-18T23:49:38.921Z</time>
      </trkpt>
      <trkpt lat="44.9343" lon="5.16797">
        <ele>760.964794</ele>
        <time>2023-08-18T23:49:40.223Z</time>
      </trkpt>
      <trkpt lat="44.93418" lon="5.16757">
        <ele>758.627396</ele>
        <time>2023-08-18T23:49:42.341Z</time>
      </trkpt>
      <trkpt lat="44.93435" lon="5.1667">
        <ele>753.840575</ele>
        <time>2023-08-18T23:49:46.926Z</time>
      </trkpt>
      <trkpt lat="44.93429" lon="5.16583">
        <ele>749.202894</ele>
        <time>2023-08-18T23:49:51.779Z</time>
      </trkpt>
      <trkpt lat="44.93434" lon="5.16564">
        <ele>748.368855</ele>
        <time>2023-08-18T23:49:52.878Z</time>
      </trkpt>
      <trkpt lat="44.93478" lon="5.16516">
        <ele>746.390845</ele>
        <time>2023-08-18T23:49:57.088Z</time>
      </trkpt>
      <trkpt lat="44.93492" lon="5.16486">
        <ele>745.455436</ele>
        <time>2023-08-18T23:49:59.096Z</time>
      </trkpt>
      <trkpt lat="44.93503" lon="5.16452">
        <ele>744.52201</ele>
        <time>2023-08-18T23:50:01.115Z</time>
      </trkpt>
      <trkpt lat="44.93507" lon="5.16412">
        <ele>743.497738</ele>
        <time>2023-08-18T23:50:03.465Z</time>
      </trkpt>
      <trkpt lat="44.935" lon="5.16342">
        <ele>741.978785</ele>
        <time>2023-08-18T23:50:07.953Z</time>
      </trkpt>
      <trkpt lat="44.93482" lon="5.16259">
        <ele>741.215187</ele>
        <time>2023-08-18T23:50:13.296Z</time>
      </trkpt>
      <trkpt lat="44.93491" lon="5.16236">
        <ele>740.984991</ele>
        <time>2023-08-18T23:50:14.871Z</time>
      </trkpt>
      <trkpt lat="44.93543" lon="5.16214">
        <ele>740.325232</ele>
        <time>2023-08-18T23:50:19.939Z</time>
      </trkpt>
      <trkpt lat="44.93564" lon="5.16195">
        <ele>740.017122</ele>
        <time>2023-08-18T23:50:23.762Z</time>
      </trkpt>
      <trkpt lat="44.93597" lon="5.16145">
        <ele>739.481475</ele>
        <time>2023-08-18T23:50:31.318Z</time>
      </trkpt>
      <trkpt lat="44.93612" lon="5.16128">
        <ele>739.273996</ele>
        <time>2023-08-18T23:50:34.437Z</time>
      </trkpt>
      <trkpt lat="44.93645" lon="5.16129">
        <ele>738.928533</ele>
        <time>2023-08-18T23:50:37.987Z</time>
      </trkpt>
      <trkpt lat="44.93683" lon="5.16119">
        <ele>738.511765</ele>
        <time>2023-08-18T23:50:41.482Z</time>
      </trkpt>
      <trkpt lat="44.93719" lon="5.16092">
        <ele>738.072752</ele>
        <time>2023-08-18T23:50:44.885Z</time>
      </trkpt>
      <trkpt lat="44.93771" lon="5.16039">
        <ele>735.419249</ele>
        <time>2023-08-18T23:50:50.010Z</time>
      </trkpt>
      <trkpt lat="44.93801" lon="5.16023">
        <ele>733.941661</ele>
        <time>2023-08-18T23:50:52.445Z</time>
      </trkpt>
      <trkpt lat="44.93816" lon="5.16026">
        <ele>733.24678</ele>
        <time>2023-08-18T23:50:53.558Z</time>
      </trkpt>
      <trkpt lat="44.93827" lon="5.16043">
        <ele>732.502882</ele>
        <time>2023-08-18T23:50:54.728Z</time>
      </trkpt>
      <trkpt lat="44.93835" lon="5.16082">
        <ele>731.157907</ele>
        <time>2023-08-18T23:50:56.865Z</time>
      </trkpt>
      <trkpt lat="44.93843" lon="5.16136">
        <ele>729.297131</ele>
        <time>2023-08-18T23:50:59.778Z</time>
      </trkpt>
      <trkpt lat="44.93845" lon="5.16187">
        <ele>727.371055</ele>
        <time>2023-08-18T23:51:02.936Z</time>
      </trkpt>
      <trkpt lat="44.93842" lon="5.16241">
        <ele>725.280855</ele>
        <time>2023-08-18T23:51:05.792Z</time>
      </trkpt>
      <trkpt lat="44.9383" lon="5.16271">
        <ele>723.96094</ele>
        <time>2023-08-18T23:51:07.548Z</time>
      </trkpt>
      <trkpt lat="44.9382" lon="5.16285">
        <ele>723.2229</ele>
        <time>2023-08-18T23:51:08.509Z</time>
      </trkpt>
      <trkpt lat="44.93809" lon="5.16291">
        <ele>722.580712</ele>
        <time>2023-08-18T23:51:09.346Z</time>
      </trkpt>
      <trkpt lat="44.93786" lon="5.16288">
        <ele>721.366383</ele>
        <time>2023-08-18T23:51:11.009Z</time>
      </trkpt>
      <trkpt lat="44.93765" lon="5.16278">
        <ele>720.176861</ele>
        <time>2023-08-18T23:51:12.659Z</time>
      </trkpt>
      <trkpt lat="44.93761" lon="5.16285">
        <ele>719.917607</ele>
        <time>2023-08-18T23:51:13.180Z</time>
      </trkpt>
      <trkpt lat="44.93762" lon="5.16293">
        <ele>719.763153</ele>
        <time>2023-08-18T23:51:13.592Z</time>
      </trkpt>
      <trkpt lat="44.93778" lon="5.16302">
        <ele>719.304254</ele>
        <time>2023-08-18T23:51:14.904Z</time>
      </trkpt>
      <trkpt lat="44.9381" lon="5.16307">
        <ele>718.444982</ele>
        <time>2023-08-18T23:51:17.669Z</time>
      </trkpt>
      <trkpt lat="44.93828" lon="5.16302">
        <ele>717.950521</ele>
        <time>2023-08-18T23:51:20.332Z</time>
      </trkpt>
      <trkpt lat="44.93845" lon="5.16285">
        <ele>717.39082</ele>
        <time>2023-08-18T23:51:22.310Z</time>
      </trkpt>
      <trkpt lat="44.93891" lon="5.16188">
        <ele>715.153421</ele>
        <time>2023-08-18T23:51:29.468Z</time>
      </trkpt>
      <trkpt lat="44.93892" lon="5.16159">
        <ele>713.945634</ele>
        <time>2023-08-18T23:51:31.070Z</time>
      </trkpt>
      <trkpt lat="44.93888" lon="5.16076">
        <ele>710.553189</ele>
        <time>2023-08-18T23:51:35.831Z</time>
      </trkpt>
      <trkpt lat="44.9388" lon="5.15981">
        <ele>706.603157</ele>
        <time>2023-08-18T23:51:40.718Z</time>
      </trkpt>
      <trkpt lat="44.93892" lon="5.15923">
        <ele>704.058186</ele>
        <time>2023-08-18T23:51:43.706Z</time>
      </trkpt>
      <trkpt lat="44.93892" lon="5.15896">
        <ele>702.898358</ele>
        <time>2023-08-18T23:51:45.004Z</time>
      </trkpt>
      <trkpt lat="44.93879" lon="5.15871">
        <ele>701.532853</ele>
        <time>2023-08-18T23:51:46.537Z</time>
      </trkpt>
      <trkpt lat="44.93861" lon="5.15866">
        <ele>700.405955</ele>
        <time>2023-08-18T23:51:47.807Z</time>
      </trkpt>
      <trkpt lat="44.93826" lon="5.15893">
        <ele>697.994314</ele>
        <time>2023-08-18T23:51:50.590Z</time>
      </trkpt>
      <trkpt lat="44.93816" lon="5.15895">
        <ele>697.349935</ele>
        <time>2023-08-18T23:51:51.355Z</time>
      </trkpt>
      <trkpt lat="44.93811" lon="5.15889">
        <ele>696.969998</ele>
        <time>2023-08-18T23:51:51.817Z</time>
      </trkpt>
      <trkpt lat="44.93812" lon="5.15877">
        <ele>696.450519</ele>
        <time>2023-08-18T23:51:52.464Z</time>
      </trkpt>
      <trkpt lat="44.93818" lon="5.1587">
        <ele>695.963773</ele>
        <time>2023-08-18T23:51:53.089Z</time>
      </trkpt>
      <trkpt lat="44.93835" lon="5.15858">
        <ele>694.829893</ele>
        <time>2023-08-18T23:51:54.653Z</time>
      </trkpt>
      <trkpt lat="44.93876" lon="5.15846">
        <ele>693.787897</ele>
        <time>2023-08-18T23:51:59.965Z</time>
      </trkpt>
      <trkpt lat="44.93898" lon="5.1585">
        <ele>693.905473</ele>
        <time>2023-08-18T23:52:04.464Z</time>
      </trkpt>
      <trkpt lat="44.93911" lon="5.15865">
        <ele>693.988747</ele>
        <time>2023-08-18T23:52:07.287Z</time>
      </trkpt>
      <trkpt lat="44.93914" lon="5.15901">
        <ele>694.120183</ele>
        <time>2023-08-18T23:52:12.071Z</time>
      </trkpt>
      <trkpt lat="44.93912" lon="5.15954">
        <ele>694.313941</ele>
        <time>2023-08-18T23:52:18.425Z</time>
      </trkpt>
      <trkpt lat="44.93914" lon="5.15998">
        <ele>694.472002</ele>
        <time>2023-08-18T23:52:22.745Z</time>
      </trkpt>
      <trkpt lat="44.9392" lon="5.16035">
        <ele>694.513689</ele>
        <time>2023-08-18T23:52:25.242Z</time>
      </trkpt>
      <trkpt lat="44.93959" lon="5.16195">
        <ele>692.348204</ele>
        <time>2023-08-18T23:52:38.077Z</time>
      </trkpt>
      <trkpt lat="44.93966" lon="5.16209">
        <ele>692.13915</ele>
        <time>2023-08-18T23:52:38.974Z</time>
      </trkpt>
      <trkpt lat="44.9397" lon="5.16211">
        <ele>692.062293</ele>
        <time>2023-08-18T23:52:39.283Z</time>
      </trkpt>
      <trkpt lat="44.93973" lon="5.16205">
        <ele>691.975599</ele>
        <time>2023-08-18T23:52:39.681Z</time>
      </trkpt>
      <trkpt lat="44.93973" lon="5.16186">
        <ele>691.736424</ele>
        <time>2023-08-18T23:52:40.787Z</time>
      </trkpt>
      <trkpt lat="44.93959" lon="5.1612">
        <ele>689.573367</ele>
        <time>2023-08-18T23:52:44.454Z</time>
      </trkpt>
      <trkpt lat="44.93948" lon="5.16048">
        <ele>686.136397</ele>
        <time>2023-08-18T23:52:48.344Z</time>
      </trkpt>
      <trkpt lat="44.93944" lon="5.16001">
        <ele>683.913997</ele>
        <time>2023-08-18T23:52:50.825Z</time>
      </trkpt>
      <trkpt lat="44.93945" lon="5.15934">
        <ele>680.838864</ele>
        <time>2023-08-18T23:52:54.260Z</time>
      </trkpt>
      <trkpt lat="44.9395" lon="5.15877">
        <ele>676.933912</ele>
        <time>2023-08-18T23:52:57.069Z</time>
      </trkpt>
      <trkpt lat="44.9395" lon="5.1583">
        <ele>672.812818</ele>
        <time>2023-08-18T23:52:59.307Z</time>
      </trkpt>
      <trkpt lat="44.93946" lon="5.15807">
        <ele>670.692125</ele>
        <time>2023-08-18T23:53:00.448Z</time>
      </trkpt>
      <trkpt lat="44.9393" lon="5.15786">
        <ele>667.938031</ele>
        <time>2023-08-18T23:53:01.929Z</time>
      </trkpt>
      <trkpt lat="44.93863" lon="5.15745">
        <ele>658.881169</ele>
        <time>2023-08-18T23:53:06.806Z</time>
      </trkpt>
      <trkpt lat="44.9377" lon="5.15717">
        <ele>649.487278</ele>
        <time>2023-08-18T23:53:13.260Z</time>
      </trkpt>
      <trkpt lat="44.93748" lon="5.1572">
        <ele>647.477437</ele>
        <time>2023-08-18T23:53:14.726Z</time>
      </trkpt>
      <trkpt lat="44.93717" lon="5.15772">
        <ele>642.861547</ele>
        <time>2023-08-18T23:53:18.171Z</time>
      </trkpt>
      <trkpt lat="44.93709" lon="5.1577">
        <ele>642.17025</ele>
        <time>2023-08-18T23:53:18.699Z</time>
      </trkpt>
      <trkpt lat="44.93707" lon="5.15758">
        <ele>641.375617</ele>
        <time>2023-08-18T23:53:19.315Z</time>
      </trkpt>
      <trkpt lat="44.93731" lon="5.15705">
        <ele>639.220773</ele>
        <time>2023-08-18T23:53:22.704Z</time>
      </trkpt>
      <trkpt lat="44.93744" lon="5.15686">
        <ele>638.649146</ele>
        <time>2023-08-18T23:53:24.199Z</time>
      </trkpt>
      <trkpt lat="44.93755" lon="5.1568">
        <ele>638.273405</ele>
        <time>2023-08-18T23:53:25.233Z</time>
      </trkpt>
      <trkpt lat="44.93865" lon="5.15682">
        <ele>634.934319</ele>
        <time>2023-08-18T23:53:34.957Z</time>
      </trkpt>
      <trkpt lat="44.93923" lon="5.15695">
        <ele>632.826707</ele>
        <time>2023-08-18T23:53:40.205Z</time>
      </trkpt>
      <trkpt lat="44.93965" lon="5.15711">
        <ele>631.265816</ele>
        <time>2023-08-18T23:53:43.672Z</time>
      </trkpt>
      <trkpt lat="44.93992" lon="5.15738">
        <ele>630.069696</ele>
        <time>2023-08-18T23:53:46.191Z</time>
      </trkpt>
      <trkpt lat="44.94016" lon="5.15774">
        <ele>628.778001</ele>
        <time>2023-08-18T23:53:48.876Z</time>
      </trkpt>
      <trkpt lat="44.94039" lon="5.15822">
        <ele>626.641644</ele>
        <time>2023-08-18T23:53:51.937Z</time>
      </trkpt>
      <trkpt lat="44.94045" lon="5.15867">
        <ele>624.618114</ele>
        <time>2023-08-18T23:53:54.313Z</time>
      </trkpt>
      <trkpt lat="44.94044" lon="5.15891">
        <ele>623.567969</ele>
        <time>2023-08-18T23:53:55.562Z</time>
      </trkpt>
      <trkpt lat="44.94051" lon="5.15898">
        <ele>623.018639</ele>
        <time>2023-08-18T23:53:56.188Z</time>
      </trkpt>
      <trkpt lat="44.94059" lon="5.15894">
        <ele>622.490901</ele>
        <time>2023-08-18T23:53:56.790Z</time>
      </trkpt>
      <trkpt lat="44.9406" lon="5.15873">
        <ele>621.550913</ele>
        <time>2023-08-18T23:53:57.892Z</time>
      </trkpt>
      <trkpt lat="44.94053" lon="5.15818">
        <ele>619.080843</ele>
        <time>2023-08-18T23:54:00.751Z</time>
      </trkpt>
      <trkpt lat="44.9404" lon="5.15766">
        <ele>616.603956</ele>
        <time>2023-08-18T23:54:03.605Z</time>
      </trkpt>
      <trkpt lat="44.94021" lon="5.1572">
        <ele>614.144006</ele>
        <time>2023-08-18T23:54:06.280Z</time>
      </trkpt>
      <trkpt lat="44.9399" lon="5.1567">
        <ele>611.034002</ele>
        <time>2023-08-18T23:54:09.722Z</time>
      </trkpt>
      <trkpt lat="44.93952" lon="5.15628">
        <ele>607.902001</ele>
        <time>2023-08-18T23:54:13.223Z</time>
      </trkpt>
      <trkpt lat="44.93922" lon="5.15612">
        <ele>605.783008</ele>
        <time>2023-08-18T23:54:15.608Z</time>
      </trkpt>
      <trkpt lat="44.9392" lon="5.15602">
        <ele>605.316215</ele>
        <time>2023-08-18T23:54:16.103Z</time>
      </trkpt>
      <trkpt lat="44.9392" lon="5.15598">
        <ele>605.089635</ele>
        <time>2023-08-18T23:54:16.338Z</time>
      </trkpt>
      <trkpt lat="44.93927" lon="5.15591">
        <ele>604.467853</ele>
        <time>2023-08-18T23:54:16.950Z</time>
      </trkpt>
      <trkpt lat="44.93941" lon="5.15599">
        <ele>603.347371</ele>
        <time>2023-08-18T23:54:18.129Z</time>
      </trkpt>
      <trkpt lat="44.94066" lon="5.15719">
        <ele>592.050124</ele>
        <time>2023-08-18T23:54:28.859Z</time>
      </trkpt>
      <trkpt lat="44.94151" lon="5.15801">
        <ele>584.54684</ele>
        <time>2023-08-18T23:54:36.217Z</time>
      </trkpt>
      <trkpt lat="44.94162" lon="5.15831">
        <ele>582.830385</ele>
        <time>2023-08-18T23:54:37.891Z</time>
      </trkpt>
      <trkpt lat="44.94162" lon="5.15916">
        <ele>578.4651</ele>
        <time>2023-08-18T23:54:42.165Z</time>
      </trkpt>
      <trkpt lat="44.94183" lon="5.16007">
        <ele>573.452699</ele>
        <time>2023-08-18T23:54:47.201Z</time>
      </trkpt>
      <trkpt lat="44.94187" lon="5.16037">
        <ele>571.899601</ele>
        <time>2023-08-18T23:54:48.700Z</time>
      </trkpt>
      <trkpt lat="44.94189" lon="5.16128">
        <ele>567.122774</ele>
        <time>2023-08-18T23:54:53.333Z</time>
      </trkpt>
      <trkpt lat="44.94187" lon="5.1621">
        <ele>561.833777</ele>
        <time>2023-08-18T23:54:57.360Z</time>
      </trkpt>
      <trkpt lat="44.94191" lon="5.16219">
        <ele>561.068553</ele>
        <time>2023-08-18T23:54:57.871Z</time>
      </trkpt>
      <trkpt lat="44.94205" lon="5.16227">
        <ele>559.487504</ele>
        <time>2023-08-18T23:54:58.909Z</time>
      </trkpt>
      <trkpt lat="44.94214" lon="5.16226">
        <ele>558.583336</ele>
        <time>2023-08-18T23:54:59.514Z</time>
      </trkpt>
      <trkpt lat="44.94226" lon="5.1622">
        <ele>557.194667</ele>
        <time>2023-08-18T23:55:00.438Z</time>
      </trkpt>
      <trkpt lat="44.94267" lon="5.16114">
        <ele>548.286246</ele>
        <time>2023-08-18T23:55:06.260Z</time>
      </trkpt>
      <trkpt lat="44.94289" lon="5.16045">
        <ele>543.307419</ele>
        <time>2023-08-18T23:55:09.876Z</time>
      </trkpt>
      <trkpt lat="44.94415" lon="5.15454">
        <ele>505.228629</ele>
        <time>2023-08-18T23:55:40.502Z</time>
      </trkpt>
      <trkpt lat="44.94443" lon="5.15372">
        <ele>500.083954</ele>
        <time>2023-08-18T23:55:45.079Z</time>
      </trkpt>
      <trkpt lat="44.94453" lon="5.15315">
        <ele>497.490164</ele>
        <time>2023-08-18T23:55:48.107Z</time>
      </trkpt>
      <trkpt lat="44.94475" lon="5.151">
        <ele>488.497585</ele>
        <time>2023-08-18T23:55:59.395Z</time>
      </trkpt>
      <trkpt lat="44.94486" lon="5.15071">
        <ele>487.725292</ele>
        <time>2023-08-18T23:56:01.158Z</time>
      </trkpt>
      <trkpt lat="44.94494" lon="5.1505">
        <ele>487.15722</ele>
        <time>2023-08-18T23:56:02.454Z</time>
      </trkpt>
      <trkpt lat="44.94633" lon="5.14848">
        <ele>481.010719</ele>
        <time>2023-08-18T23:56:19.613Z</time>
      </trkpt>
      <trkpt lat="44.94663" lon="5.14827">
        <ele>480.115549</ele>
        <time>2023-08-18T23:56:22.654Z</time>
      </trkpt>
      <trkpt lat="44.9472" lon="5.1482">
        <ele>478.597523</ele>
        <time>2023-08-18T23:56:27.339Z</time>
      </trkpt>
      <trkpt lat="44.94751" lon="5.14809">
        <ele>477.017894</ele>
        <time>2023-08-18T23:56:29.870Z</time>
      </trkpt>
      <trkpt lat="44.94782" lon="5.14791">
        <ele>474.899236</ele>
        <time>2023-08-18T23:56:32.367Z</time>
      </trkpt>
      <trkpt lat="44.94831" lon="5.14738">
        <ele>470.915774</ele>
        <time>2023-08-18T23:56:36.894Z</time>
      </trkpt>
      <trkpt lat="44.94854" lon="5.14727">
        <ele>469.357297</ele>
        <time>2023-08-18T23:56:38.616Z</time>
      </trkpt>
      <trkpt lat="44.94898" lon="5.14716">
        <ele>466.425802</ele>
        <time>2023-08-18T23:56:41.746Z</time>
      </trkpt>
      <trkpt lat="44.94926" lon="5.14694">
        <ele>463.737796</ele>
        <time>2023-08-18T23:56:43.980Z</time>
      </trkpt>
      <trkpt lat="44.94968" lon="5.14652">
        <ele>459.45375</ele>
        <time>2023-08-18T23:56:47.543Z</time>
      </trkpt>
      <trkpt lat="44.94992" lon="5.14633">
        <ele>457.159437</ele>
        <time>2023-08-18T23:56:49.442Z</time>
      </trkpt>
      <trkpt lat="44.95049" lon="5.14601">
        <ele>451.951873</ele>
        <time>2023-08-18T23:56:53.814Z</time>
      </trkpt>
      <trkpt lat="44.95094" lon="5.1458">
        <ele>450.696093</ele>
        <time>2023-08-18T23:56:57.306Z</time>
      </trkpt>
      <trkpt lat="44.95122" lon="5.1456">
        <ele>450.043881</ele>
        <time>2023-08-18T23:56:59.780Z</time>
      </trkpt>
      <trkpt lat="44.95128" lon="5.14552">
        <ele>449.865923</ele>
        <time>2023-08-18T23:57:00.489Z</time>
      </trkpt>
      <trkpt lat="44.95136" lon="5.1454">
        <ele>449.611717</ele>
        <time>2023-08-18T23:57:01.549Z</time>
      </trkpt>
      <trkpt lat="44.95143" lon="5.14527">
        <ele>449.367889</ele>
        <time>2023-08-18T23:57:03.014Z</time>
      </trkpt>
      <trkpt lat="44.95146" lon="5.14521">
        <ele>449.260636</ele>
        <time>2023-08-18T23:57:03.558Z</time>
      </trkpt>
      <trkpt lat="44.95159" lon="5.1449">
        <ele>448.715053</ele>
        <time>2023-08-18T23:57:06.180Z</time>
      </trkpt>
      <trkpt lat="44.95176" lon="5.1447">
        <ele>448.236674</ele>
        <time>2023-08-18T23:57:10.121Z</time>
      </trkpt>
      <trkpt lat="44.95202" lon="5.14428">
        <ele>448.173759</ele>
        <time>2023-08-18T23:57:16.585Z</time>
      </trkpt>
      <trkpt lat="44.95212" lon="5.14419">
        <ele>448.424718</ele>
        <time>2023-08-18T23:57:18.740Z</time>
      </trkpt>
      <trkpt lat="44.95222" lon="5.14414">
        <ele>448.661088</ele>
        <time>2023-08-18T23:57:20.869Z</time>
      </trkpt>
      <trkpt lat="44.95244" lon="5.14411">
        <ele>449.144984</ele>
        <time>2023-08-18T23:57:25.558Z</time>
      </trkpt>
      <trkpt lat="44.95248" lon="5.1441">
        <ele>449.222654</ele>
        <time>2023-08-18T23:57:26.481Z</time>
      </trkpt>
      <trkpt lat="44.95263" lon="5.14391">
        <ele>449.64939</ele>
        <time>2023-08-18T23:57:31.592Z</time>
      </trkpt>
      <trkpt lat="44.9526" lon="5.14385">
        <ele>449.751482</ele>
        <time>2023-08-18T23:57:32.416Z</time>
      </trkpt>
      <trkpt lat="44.95252" lon="5.14362">
        <ele>450.148826</ele>
        <time>2023-08-18T23:57:36.767Z</time>
      </trkpt>
      <trkpt lat="44.9525" lon="5.14345">
        <ele>450.410692</ele>
        <time>2023-08-18T23:57:40.134Z</time>
      </trkpt>
      <trkpt lat="44.95254" lon="5.14326">
        <ele>450.713701</ele>
        <time>2023-08-18T23:57:43.308Z</time>
      </trkpt>
      <trkpt lat="44.95316" lon="5.14222">
        <ele>449.281076</ele>
        <time>2023-08-18T23:57:57.048Z</time>
      </trkpt>
      <trkpt lat="44.95328" lon="5.14197">
        <ele>448.315462</ele>
        <time>2023-08-18T23:57:58.643Z</time>
      </trkpt>
      <trkpt lat="44.95334" lon="5.14172">
        <ele>447.443484</ele>
        <time>2023-08-18T23:58:00.113Z</time>
      </trkpt>
      <trkpt lat="44.95339" lon="5.14106">
        <ele>445.319844</ele>
        <time>2023-08-18T23:58:03.449Z</time>
      </trkpt>
      <trkpt lat="44.95341" lon="5.14073">
        <ele>444.277764</ele>
        <time>2023-08-18T23:58:05.070Z</time>
      </trkpt>
      <trkpt lat="44.95351" lon="5.14008">
        <ele>440.942561</ele>
        <time>2023-08-18T23:58:08.416Z</time>
      </trkpt>
      <trkpt lat="44.95353" lon="5.13996">
        <ele>440.230432</ele>
        <time>2023-08-18T23:58:08.997Z</time>
      </trkpt>
      <trkpt lat="44.95355" lon="5.13895">
        <ele>434.176573</ele>
        <time>2023-08-18T23:58:13.996Z</time>
      </trkpt>
      <trkpt lat="44.95349" lon="5.13716">
        <ele>424.356075</ele>
        <time>2023-08-18T23:58:22.903Z</time>
      </trkpt>
      <trkpt lat="44.95352" lon="5.13663">
        <ele>421.724486</ele>
        <time>2023-08-18T23:58:25.675Z</time>
      </trkpt>
      <trkpt lat="44.95359" lon="5.13526">
        <ele>415.161917</ele>
        <time>2023-08-18T23:58:32.786Z</time>
      </trkpt>
      <trkpt lat="44.95374" lon="5.13428">
        <ele>411.179107</ele>
        <time>2023-08-18T23:58:38.000Z</time>
      </trkpt>
      <trkpt lat="44.95374" lon="5.13394">
        <ele>409.830126</ele>
        <time>2023-08-18T23:58:39.775Z</time>
      </trkpt>
      <trkpt lat="44.95366" lon="5.13292">
        <ele>405.747602</ele>
        <time>2023-08-18T23:58:45.192Z</time>
      </trkpt>
      <trkpt lat="44.95366" lon="5.132">
        <ele>402.937542</ele>
        <time>2023-08-18T23:58:50.156Z</time>
      </trkpt>
      <trkpt lat="44.95363" lon="5.13172">
        <ele>402.072893</ele>
        <time>2023-08-18T23:58:51.710Z</time>
      </trkpt>
      <trkpt lat="44.95336" lon="5.13078">
        <ele>398.991855</ele>
        <time>2023-08-18T23:58:57.311Z</time>
      </trkpt>
      <trkpt lat="44.95331" lon="5.13046">
        <ele>397.996133</ele>
        <time>2023-08-18T23:58:59.140Z</time>
      </trkpt>
      <trkpt lat="44.95333" lon="5.13004">
        <ele>396.960747</ele>
        <time>2023-08-18T23:59:01.527Z</time>
      </trkpt>
      <trkpt lat="44.95341" lon="5.12982">
        <ele>396.361942</ele>
        <time>2023-08-18T23:59:02.903Z</time>
      </trkpt>
      <trkpt lat="44.95359" lon="5.12943">
        <ele>395.233212</ele>
        <time>2023-08-18T23:59:05.506Z</time>
      </trkpt>
      <trkpt lat="44.95365" lon="5.1292">
        <ele>394.621796</ele>
        <time>2023-08-18T23:59:06.917Z</time>
      </trkpt>
      <trkpt lat="44.95365" lon="5.1289">
        <ele>393.901077</ele>
        <time>2023-08-18T23:59:08.602Z</time>
      </trkpt>
      <trkpt lat="44.95358" lon="5.12848">
        <ele>392.850821</ele>
        <time>2023-08-18T23:59:11.067Z</time>
      </trkpt>
      <trkpt lat="44.95363" lon="5.12786">
        <ele>391.415243</ele>
        <time>2023-08-18T23:59:14.678Z</time>
      </trkpt>
      <trkpt lat="44.95359" lon="5.12758">
        <ele>390.833607</ele>
        <time>2023-08-18T23:59:16.313Z</time>
      </trkpt>
      <trkpt lat="44.95334" lon="5.12703">
        <ele>389.494013</ele>
        <time>2023-08-18T23:59:21.791Z</time>
      </trkpt>
      <trkpt lat="44.95318" lon="5.12684">
        <ele>388.882312</ele>
        <time>2023-08-18T23:59:24.258Z</time>
      </trkpt>
      <trkpt lat="44.95287" lon="5.12663">
        <ele>387.91042</ele>
        <time>2023-08-18T23:59:28.210Z</time>
      </trkpt>
      <trkpt lat="44.95273" lon="5.12645">
        <ele>387.341964</ele>
        <time>2023-08-18T23:59:30.591Z</time>
      </trkpt>
      <trkpt lat="44.95273" lon="5.12622">
        <ele>386.853992</ele>
        <time>2023-08-18T23:59:32.584Z</time>
      </trkpt>
      <trkpt lat="44.95297" lon="5.12548">
        <ele>385.573178</ele>
        <time>2023-08-18T23:59:39.659Z</time>
      </trkpt>
      <trkpt lat="44.95321" lon="5.12523">
        <ele>384.942473</ele>
        <time>2023-08-18T23:59:43.353Z</time>
      </trkpt>
      <trkpt lat="44.95313" lon="5.12491">
        <ele>384.442203</ele>
        <time>2023-08-18T23:59:45.381Z</time>
      </trkpt>
      <trkpt lat="44.95177" lon="5.12428">
        <ele>381.728342</ele>
        <time>2023-08-18T23:59:58.119Z</time>
      </trkpt>
      <trkpt lat="44.95143" lon="5.12407">
        <ele>381.116598</ele>
        <time>2023-08-19T00:00:01.630Z</time>
      </trkpt>
      <trkpt lat="44.95019" lon="5.12273">
        <ele>378.761128</ele>
        <time>2023-08-19T00:00:15.979Z</time>
      </trkpt>
      <trkpt lat="44.94893" lon="5.1211">
        <ele>375.974233</ele>
        <time>2023-08-19T00:00:31.995Z</time>
      </trkpt>
      <trkpt lat="44.94878" lon="5.12096">
        <ele>375.629955</ele>
        <time>2023-08-19T00:00:33.613Z</time>
      </trkpt>
      <trkpt lat="44.94838" lon="5.12073">
        <ele>374.805653</ele>
        <time>2023-08-19T00:00:37.369Z</time>
      </trkpt>
      <trkpt lat="44.94766" lon="5.12046">
        <ele>373.055319</ele>
        <time>2023-08-19T00:00:43.702Z</time>
      </trkpt>
      <trkpt lat="44.94612" lon="5.11981">
        <ele>368.274296</ele>
        <time>2023-08-19T00:00:56.652Z</time>
      </trkpt>
      <trkpt lat="44.94553" lon="5.11967">
        <ele>367.501077</ele>
        <time>2023-08-19T00:01:01.640Z</time>
      </trkpt>
      <trkpt lat="44.94523" lon="5.11951">
        <ele>367.085716</ele>
        <time>2023-08-19T00:01:04.546Z</time>
      </trkpt>
      <trkpt lat="44.94471" lon="5.11912">
        <ele>366.318288</ele>
        <time>2023-08-19T00:01:10.812Z</time>
      </trkpt>
      <trkpt lat="44.94445" lon="5.119">
        <ele>366.107515</ele>
        <time>2023-08-19T00:01:14.510Z</time>
      </trkpt>
      <trkpt lat="44.9443" lon="5.11896">
        <ele>366.374545</ele>
        <time>2023-08-19T00:01:16.863Z</time>
      </trkpt>
      <trkpt lat="44.94383" lon="5.11898">
        <ele>367.174892</ele>
        <time>2023-08-19T00:01:24.722Z</time>
      </trkpt>
      <trkpt lat="44.94321" lon="5.11911">
        <ele>368.258683</ele>
        <time>2023-08-19T00:01:36.080Z</time>
      </trkpt>
      <trkpt lat="44.94277" lon="5.11904">
        <ele>369.020249</ele>
        <time>2023-08-19T00:01:44.364Z</time>
      </trkpt>
      <trkpt lat="44.94135" lon="5.11838">
        <ele>373.158959</ele>
        <time>2023-08-19T00:02:16.176Z</time>
      </trkpt>
      <trkpt lat="44.94092" lon="5.11828">
        <ele>374.252529</ele>
        <time>2023-08-19T00:02:25.188Z</time>
      </trkpt>
      <trkpt lat="44.94075" lon="5.1182">
        <ele>374.453029</ele>
        <time>2023-08-19T00:02:29.151Z</time>
      </trkpt>
      <trkpt lat="44.94046" lon="5.118">
        <ele>374.807787</ele>
        <time>2023-08-19T00:02:35.666Z</time>
      </trkpt>
      <trkpt lat="44.94034" lon="5.11789">
        <ele>374.964254</ele>
        <time>2023-08-19T00:02:38.195Z</time>
      </trkpt>
      <trkpt lat="44.94024" lon="5.11771">
        <ele>375.140204</ele>
        <time>2023-08-19T00:02:41.104Z</time>
      </trkpt>
      <trkpt lat="44.94021" lon="5.11739">
        <ele>375.390855</ele>
        <time>2023-08-19T00:02:44.740Z</time>
      </trkpt>
      <trkpt lat="44.94014" lon="5.11737">
        <ele>375.468432</ele>
        <time>2023-08-19T00:02:45.890Z</time>
      </trkpt>
      <trkpt lat="44.93955" lon="5.11694">
        <ele>376.065689</ele>
        <time>2023-08-19T00:02:53.219Z</time>
      </trkpt>
      <trkpt lat="44.93929" lon="5.11676">
        <ele>375.653665</ele>
        <time>2023-08-19T00:02:55.713Z</time>
      </trkpt>
      <trkpt lat="44.93885" lon="5.11648">
        <ele>374.979297</ele>
        <time>2023-08-19T00:02:59.802Z</time>
      </trkpt>
      <trkpt lat="44.93864" lon="5.11635">
        <ele>374.653755</ele>
        <time>2023-08-19T00:03:01.823Z</time>
      </trkpt>
      <trkpt lat="44.93855" lon="5.11632">
        <ele>374.515043</ele>
        <time>2023-08-19T00:03:02.739Z</time>
      </trkpt>
      <trkpt lat="44.93791" lon="5.11616">
        <ele>373.598694</ele>
        <time>2023-08-19T00:03:08.773Z</time>
      </trkpt>
      <trkpt lat="44.93769" lon="5.11615">
        <ele>373.733266</ele>
        <time>2023-08-19T00:03:11.161Z</time>
      </trkpt>
      <trkpt lat="44.93751" lon="5.1161">
        <ele>373.853022</ele>
        <time>2023-08-19T00:03:13.207Z</time>
      </trkpt>
      <trkpt lat="44.93702" lon="5.11575">
        <ele>374.208076</ele>
        <time>2023-08-19T00:03:20.580Z</time>
      </trkpt>
      <trkpt lat="44.93658" lon="5.11556">
        <ele>374.506862</ele>
        <time>2023-08-19T00:03:28.182Z</time>
      </trkpt>
      <trkpt lat="44.93625" lon="5.11509">
        <ele>374.742682</ele>
        <time>2023-08-19T00:03:36.824Z</time>
      </trkpt>
      <trkpt lat="44.93603" lon="5.11481">
        <ele>374.681073</ele>
        <time>2023-08-19T00:03:41.714Z</time>
      </trkpt>
      <trkpt lat="44.9357" lon="5.11458">
        <ele>374.607463</ele>
        <time>2023-08-19T00:03:46.621Z</time>
      </trkpt>
      <trkpt lat="44.93524" lon="5.11441">
        <ele>374.511069</ele>
        <time>2023-08-19T00:03:51.633Z</time>
      </trkpt>
      <trkpt lat="44.93492" lon="5.1143">
        <ele>374.44455</ele>
        <time>2023-08-19T00:03:54.661Z</time>
      </trkpt>
      <trkpt lat="44.93461" lon="5.11411">
        <ele>374.305726</ele>
        <time>2023-08-19T00:03:57.623Z</time>
      </trkpt>
      <trkpt lat="44.93341" lon="5.11309">
        <ele>372.887518</ele>
        <time>2023-08-19T00:04:10.434Z</time>
      </trkpt>
      <trkpt lat="44.93319" lon="5.11304">
        <ele>372.659901</ele>
        <time>2023-08-19T00:04:12.816Z</time>
      </trkpt>
      <trkpt lat="44.93179" lon="5.11322">
        <ele>374.479348</ele>
        <time>2023-08-19T00:04:35.899Z</time>
      </trkpt>
      <trkpt lat="44.93151" lon="5.11323">
        <ele>374.884545</ele>
        <time>2023-08-19T00:04:41.268Z</time>
      </trkpt>
      <trkpt lat="44.93138" lon="5.1133">
        <ele>375.086318</ele>
        <time>2023-08-19T00:04:44.133Z</time>
      </trkpt>
      <trkpt lat="44.9312" lon="5.11356">
        <ele>375.67246</ele>
        <time>2023-08-19T00:04:49.026Z</time>
      </trkpt>
      <trkpt lat="44.93103" lon="5.11363">
        <ele>376.142977</ele>
        <time>2023-08-19T00:04:52.758Z</time>
      </trkpt>
      <trkpt lat="44.93092" lon="5.11362">
        <ele>376.423106</ele>
        <time>2023-08-19T00:04:54.742Z</time>
      </trkpt>
      <trkpt lat="44.93061" lon="5.1132">
        <ele>377.510414</ele>
        <time>2023-08-19T00:05:03.047Z</time>
      </trkpt>
      <trkpt lat="44.93026" lon="5.11295">
        <ele>378.504496</ele>
        <time>2023-08-19T00:05:11.116Z</time>
      </trkpt>
      <trkpt lat="44.93004" lon="5.11285">
        <ele>379.11084</ele>
        <time>2023-08-19T00:05:16.369Z</time>
      </trkpt>
      <trkpt lat="44.92995" lon="5.11274">
        <ele>379.414641</ele>
        <time>2023-08-19T00:05:18.721Z</time>
      </trkpt>
      <trkpt lat="44.9298" lon="5.11251">
        <ele>380.057949</ele>
        <time>2023-08-19T00:05:23.330Z</time>
      </trkpt>
      <trkpt lat="44.92965" lon="5.11236">
        <ele>380.706511</ele>
        <time>2023-08-19T00:05:26.814Z</time>
      </trkpt>
      <trkpt lat="44.9291" lon="5.11233">
        <ele>382.661485</ele>
        <time>2023-08-19T00:05:38.740Z</time>
      </trkpt>
      <trkpt lat="44.92886" lon="5.11221">
        <ele>383.539625</ele>
        <time>2023-08-19T00:05:44.737Z</time>
      </trkpt>
      <trkpt lat="44.92843" lon="5.11182">
        <ele>385.359048</ele>
        <time>2023-08-19T00:05:57.589Z</time>
      </trkpt>
      <trkpt lat="44.92745" lon="5.11074">
        <ele>390.273578</ele>
        <time>2023-08-19T00:06:29.124Z</time>
      </trkpt>
      <trkpt lat="44.92716" lon="5.11038">
        <ele>391.838013</ele>
        <time>2023-08-19T00:06:38.651Z</time>
      </trkpt>
      <trkpt lat="44.92681" lon="5.10965">
        <ele>394.11033</ele>
        <time>2023-08-19T00:06:53.830Z</time>
      </trkpt>
      <trkpt lat="44.92661" lon="5.10932">
        <ele>394.984545</ele>
        <time>2023-08-19T00:07:01.030Z</time>
      </trkpt>
      <trkpt lat="44.92607" lon="5.10886">
        <ele>396.780138</ele>
        <time>2023-08-19T00:07:14.904Z</time>
      </trkpt>
      <trkpt lat="44.92544" lon="5.10838">
        <ele>398.607157</ele>
        <time>2023-08-19T00:07:28.218Z</time>
      </trkpt>
      <trkpt lat="44.9249" lon="5.10806">
        <ele>398.770352</ele>
        <time>2023-08-19T00:07:36.844Z</time>
      </trkpt>
      <trkpt lat="44.92458" lon="5.10791">
        <ele>398.865505</ele>
        <time>2023-08-19T00:07:40.756Z</time>
      </trkpt>
      <trkpt lat="44.92415" lon="5.10785">
        <ele>398.985048</ele>
        <time>2023-08-19T00:07:45.213Z</time>
      </trkpt>
      <trkpt lat="44.9241" lon="5.10785">
        <ele>399.001312</ele>
        <time>2023-08-19T00:07:45.798Z</time>
      </trkpt>
      <trkpt lat="44.9237" lon="5.10811">
        <ele>399.014168</ele>
        <time>2023-08-19T00:07:50.447Z</time>
      </trkpt>
      <trkpt lat="44.92346" lon="5.10828">
        <ele>398.872019</ele>
        <time>2023-08-19T00:07:53.370Z</time>
      </trkpt>
      <trkpt lat="44.92323" lon="5.1084">
        <ele>398.740543</ele>
        <time>2023-08-19T00:07:55.890Z</time>
      </trkpt>
      <trkpt lat="44.92278" lon="5.10853">
        <ele>398.490165</ele>
        <time>2023-08-19T00:08:00.547Z</time>
      </trkpt>
      <trkpt lat="44.92262" lon="5.10863">
        <ele>398.397042</ele>
        <time>2023-08-19T00:08:02.379Z</time>
      </trkpt>
      <trkpt lat="44.92244" lon="5.10884">
        <ele>398.272495</ele>
        <time>2023-08-19T00:08:04.835Z</time>
      </trkpt>
      <trkpt lat="44.92233" lon="5.1089">
        <ele>398.208081</ele>
        <time>2023-08-19T00:08:06.152Z</time>
      </trkpt>
      <trkpt lat="44.92222" lon="5.1089">
        <ele>398.149884</ele>
        <time>2023-08-19T00:08:07.320Z</time>
      </trkpt>
      <trkpt lat="44.92211" lon="5.10887">
        <ele>398.044705</ele>
        <time>2023-08-19T00:08:08.525Z</time>
      </trkpt>
      <trkpt lat="44.92196" lon="5.10877">
        <ele>397.799653</ele>
        <time>2023-08-19T00:08:10.394Z</time>
      </trkpt>
      <trkpt lat="44.92188" lon="5.10861">
        <ele>397.590491</ele>
        <time>2023-08-19T00:08:11.970Z</time>
      </trkpt>
      <trkpt lat="44.92175" lon="5.10818">
        <ele>397.093178</ele>
        <time>2023-08-19T00:08:15.678Z</time>
      </trkpt>
      <trkpt lat="44.92167" lon="5.10805">
        <ele>396.92238</ele>
        <time>2023-08-19T00:08:16.831Z</time>
      </trkpt>
      <trkpt lat="44.92156" lon="5.108">
        <ele>396.746487</ele>
        <time>2023-08-19T00:08:18.054Z</time>
      </trkpt>
      <trkpt lat="44.92085" lon="5.10757">
        <ele>395.596356</ele>
        <time>2023-08-19T00:08:24.809Z</time>
      </trkpt>
      <trkpt lat="44.92052" lon="5.10728">
        <ele>394.231477</ele>
        <time>2023-08-19T00:08:27.915Z</time>
      </trkpt>
      <trkpt lat="44.92023" lon="5.10695">
        <ele>392.68248</ele>
        <time>2023-08-19T00:08:30.850Z</time>
      </trkpt>
      <trkpt lat="44.92002" lon="5.10662">
        <ele>391.362519</ele>
        <time>2023-08-19T00:08:33.307Z</time>
      </trkpt>
      <trkpt lat="44.91984" lon="5.10621">
        <ele>389.943345</ele>
        <time>2023-08-19T00:08:35.906Z</time>
      </trkpt>
      <trkpt lat="44.91972" lon="5.10602">
        <ele>389.207252</ele>
        <time>2023-08-19T00:08:37.229Z</time>
      </trkpt>
      <trkpt lat="44.91957" lon="5.10585">
        <ele>388.403211</ele>
        <time>2023-08-19T00:08:38.669Z</time>
      </trkpt>
      <trkpt lat="44.91882" lon="5.10527">
        <ele>384.356342</ele>
        <time>2023-08-19T00:08:45.095Z</time>
      </trkpt>
      <trkpt lat="44.91874" lon="5.10522">
        <ele>383.962159</ele>
        <time>2023-08-19T00:08:45.723Z</time>
      </trkpt>
      <trkpt lat="44.91839" lon="5.10509">
        <ele>382.205816</ele>
        <time>2023-08-19T00:08:48.509Z</time>
      </trkpt>
      <trkpt lat="44.91816" lon="5.10507">
        <ele>381.126249</ele>
        <time>2023-08-19T00:08:50.231Z</time>
      </trkpt>
      <trkpt lat="44.91788" lon="5.10516">
        <ele>379.723978</ele>
        <time>2023-08-19T00:08:52.486Z</time>
      </trkpt>
      <trkpt lat="44.91764" lon="5.10524">
        <ele>379.038976</ele>
        <time>2023-08-19T00:08:54.387Z</time>
      </trkpt>
      <trkpt lat="44.91742" lon="5.10526">
        <ele>378.643371</ele>
        <time>2023-08-19T00:08:56.072Z</time>
      </trkpt>
      <trkpt lat="44.91722" lon="5.10513">
        <ele>378.232235</ele>
        <time>2023-08-19T00:08:57.891Z</time>
      </trkpt>
      <trkpt lat="44.91626" lon="5.10439">
        <ele>376.23986</ele>
        <time>2023-08-19T00:09:08.303Z</time>
      </trkpt>
      <trkpt lat="44.91622" lon="5.10429">
        <ele>376.102201</ele>
        <time>2023-08-19T00:09:09.197Z</time>
      </trkpt>
      <trkpt lat="44.91615" lon="5.10428">
        <ele>376.247655</ele>
        <time>2023-08-19T00:09:10.350Z</time>
      </trkpt>
      <trkpt lat="44.91582" lon="5.10406">
        <ele>377.562462</ele>
        <time>2023-08-19T00:09:16.120Z</time>
      </trkpt>
      <trkpt lat="44.91561" lon="5.1039">
        <ele>378.421083</ele>
        <time>2023-08-19T00:09:20.536Z</time>
      </trkpt>
      <trkpt lat="44.91523" lon="5.10371">
        <ele>379.863165</ele>
        <time>2023-08-19T00:09:29.139Z</time>
      </trkpt>
      <trkpt lat="44.91506" lon="5.10369">
        <ele>380.461005</ele>
        <time>2023-08-19T00:09:33.398Z</time>
      </trkpt>
      <trkpt lat="44.91453" lon="5.10372">
        <ele>382.382422</ele>
        <time>2023-08-19T00:09:49.503Z</time>
      </trkpt>
      <trkpt lat="44.91388" lon="5.10382">
        <ele>387.077423</ele>
        <time>2023-08-19T00:10:15.285Z</time>
      </trkpt>
      <trkpt lat="44.91375" lon="5.10379">
        <ele>388.030837</ele>
        <time>2023-08-19T00:10:21.123Z</time>
      </trkpt>
      <trkpt lat="44.91351" lon="5.10385">
        <ele>389.821855</ele>
        <time>2023-08-19T00:10:30.997Z</time>
      </trkpt>
      <trkpt lat="44.91344" lon="5.1042">
        <ele>391.708701</ele>
        <time>2023-08-19T00:10:40.791Z</time>
      </trkpt>
      <trkpt lat="44.91319" lon="5.1054">
        <ele>396.535748</ele>
        <time>2023-08-19T00:11:07.918Z</time>
      </trkpt>
      <trkpt lat="44.91312" lon="5.1055">
        <ele>396.727198</ele>
        <time>2023-08-19T00:11:11.021Z</time>
      </trkpt>
      <trkpt lat="44.91291" lon="5.10505">
        <ele>397.512261</ele>
        <time>2023-08-19T00:11:20.422Z</time>
      </trkpt>
      <trkpt lat="44.91291" lon="5.10468">
        <ele>398.06157</ele>
        <time>2023-08-19T00:11:25.321Z</time>
      </trkpt>
      <trkpt lat="44.91281" lon="5.10428">
        <ele>398.676882</ele>
        <time>2023-08-19T00:11:29.853Z</time>
      </trkpt>
      <trkpt lat="44.91225" lon="5.10332">
        <ele>398.218384</ele>
        <time>2023-08-19T00:11:37.337Z</time>
      </trkpt>
      <trkpt lat="44.91212" lon="5.1031">
        <ele>397.612146</ele>
        <time>2023-08-19T00:11:38.907Z</time>
      </trkpt>
      <trkpt lat="44.9114" lon="5.10141">
        <ele>393.535188</ele>
        <time>2023-08-19T00:11:50.272Z</time>
      </trkpt>
      <trkpt lat="44.91129" lon="5.10121">
        <ele>393.038661</ele>
        <time>2023-08-19T00:11:51.686Z</time>
      </trkpt>
      <trkpt lat="44.91106" lon="5.10089">
        <ele>392.131114</ele>
        <time>2023-08-19T00:11:54.298Z</time>
      </trkpt>
      <trkpt lat="44.91059" lon="5.1004">
        <ele>390.486677</ele>
        <time>2023-08-19T00:11:59.127Z</time>
      </trkpt>
      <trkpt lat="44.91054" lon="5.1003">
        <ele>390.227966</ele>
        <time>2023-08-19T00:11:59.898Z</time>
      </trkpt>
      <trkpt lat="44.91037" lon="5.09956">
        <ele>388.905311</ele>
        <time>2023-08-19T00:12:04.603Z</time>
      </trkpt>
      <trkpt lat="44.90964" lon="5.09858">
        <ele>387.304945</ele>
        <time>2023-08-19T00:12:13.527Z</time>
      </trkpt>
      <trkpt lat="44.90949" lon="5.09844">
        <ele>387.008181</ele>
        <time>2023-08-19T00:12:15.220Z</time>
      </trkpt>
      <trkpt lat="44.90905" lon="5.09818">
        <ele>386.345342</ele>
        <time>2023-08-19T00:12:19.845Z</time>
      </trkpt>
      <trkpt lat="44.90873" lon="5.09785">
        <ele>386.585391</ele>
        <time>2023-08-19T00:12:24.236Z</time>
      </trkpt>
      <trkpt lat="44.90859" lon="5.09775">
        <ele>386.67928</ele>
        <time>2023-08-19T00:12:26.106Z</time>
      </trkpt>
      <trkpt lat="44.9082" lon="5.0976">
        <ele>386.915992</ele>
        <time>2023-08-19T00:12:31.403Z</time>
      </trkpt>
      <trkpt lat="44.90774" lon="5.09745">
        <ele>387.204236</ele>
        <time>2023-08-19T00:12:38.762Z</time>
      </trkpt>
      <trkpt lat="44.90697" lon="5.09746">
        <ele>388.2235</ele>
        <time>2023-08-19T00:12:52.825Z</time>
      </trkpt>
      <trkpt lat="44.90666" lon="5.09747">
        <ele>388.791202</ele>
        <time>2023-08-19T00:12:59.194Z</time>
      </trkpt>
      <trkpt lat="44.90578" lon="5.09771">
        <ele>390.453971</ele>
        <time>2023-08-19T00:13:16.508Z</time>
      </trkpt>
      <trkpt lat="44.90545" lon="5.09766">
        <ele>390.500122</ele>
        <time>2023-08-19T00:13:21.107Z</time>
      </trkpt>
      <trkpt lat="44.90495" lon="5.09746">
        <ele>389.830294</ele>
        <time>2023-08-19T00:13:26.534Z</time>
      </trkpt>
      <trkpt lat="44.90298" lon="5.09691">
        <ele>388.205377</ele>
        <time>2023-08-19T00:13:43.632Z</time>
      </trkpt>
      <trkpt lat="44.90281" lon="5.09686">
        <ele>388.159949</ele>
        <time>2023-08-19T00:13:45.978Z</time>
      </trkpt>
      <trkpt lat="44.9025" lon="5.09677">
        <ele>388.082683</ele>
        <time>2023-08-19T00:13:50.906Z</time>
      </trkpt>
      <trkpt lat="44.90236" lon="5.09673">
        <ele>388.046804</ele>
        <time>2023-08-19T00:13:53.692Z</time>
      </trkpt>
      <trkpt lat="44.90222" lon="5.09668">
        <ele>388.009509</ele>
        <time>2023-08-19T00:13:56.750Z</time>
      </trkpt>
      <trkpt lat="44.90068" lon="5.09624">
        <ele>390.525047</ele>
        <time>2023-08-19T00:14:30.570Z</time>
      </trkpt>
      <trkpt lat="44.90051" lon="5.09618">
        <ele>390.837037</ele>
        <time>2023-08-19T00:14:32.351Z</time>
      </trkpt>
      <trkpt lat="44.9004" lon="5.09621">
        <ele>391.015098</ele>
        <time>2023-08-19T00:14:33.454Z</time>
      </trkpt>
      <trkpt lat="44.90032" lon="5.09626">
        <ele>390.883258</ele>
        <time>2023-08-19T00:14:34.420Z</time>
      </trkpt>
      <trkpt lat="44.90017" lon="5.09624">
        <ele>390.117059</ele>
        <time>2023-08-19T00:14:35.631Z</time>
      </trkpt>
      <trkpt lat="44.8999" lon="5.09603">
        <ele>388.491261</ele>
        <time>2023-08-19T00:14:38.146Z</time>
      </trkpt>
      <trkpt lat="44.89967" lon="5.09587">
        <ele>387.148503</ele>
        <time>2023-08-19T00:14:40.125Z</time>
      </trkpt>
      <trkpt lat="44.89943" lon="5.09575">
        <ele>385.799578</ele>
        <time>2023-08-19T00:14:42.004Z</time>
      </trkpt>
      <trkpt lat="44.89942" lon="5.0956">
        <ele>385.245737</ele>
        <time>2023-08-19T00:14:42.780Z</time>
      </trkpt>
      <trkpt lat="44.89948" lon="5.09533">
        <ele>384.204183</ele>
        <time>2023-08-19T00:14:44.180Z</time>
      </trkpt>
      <trkpt lat="44.89952" lon="5.09524">
        <ele>383.777488</ele>
        <time>2023-08-19T00:14:44.761Z</time>
      </trkpt>
      <trkpt lat="44.89956" lon="5.0952">
        <ele>383.543303</ele>
        <time>2023-08-19T00:14:45.078Z</time>
      </trkpt>
      <trkpt lat="44.89958" lon="5.09517">
        <ele>383.387526</ele>
        <time>2023-08-19T00:14:45.287Z</time>
      </trkpt>
      <trkpt lat="44.89961" lon="5.09506">
        <ele>382.956695</ele>
        <time>2023-08-19T00:14:45.859Z</time>
      </trkpt>
      <trkpt lat="44.89963" lon="5.09483">
        <ele>382.074323</ele>
        <time>2023-08-19T00:14:47.019Z</time>
      </trkpt>
      <trkpt lat="44.89961" lon="5.09422">
        <ele>379.402016</ele>
        <time>2023-08-19T00:14:50.040Z</time>
      </trkpt>
      <trkpt lat="44.89956" lon="5.09357">
        <ele>376.436741</ele>
        <time>2023-08-19T00:14:53.350Z</time>
      </trkpt>
      <trkpt lat="44.89956" lon="5.09337">
        <ele>375.539926</ele>
        <time>2023-08-19T00:14:54.367Z</time>
      </trkpt>
      <trkpt lat="44.89955" lon="5.093">
        <ele>373.855155</ele>
        <time>2023-08-19T00:14:56.340Z</time>
      </trkpt>
      <trkpt lat="44.89946" lon="5.09172">
        <ele>368.389306</ele>
        <time>2023-08-19T00:15:03.199Z</time>
      </trkpt>
      <trkpt lat="44.89947" lon="5.09069">
        <ele>364.5925</ele>
        <time>2023-08-19T00:15:08.707Z</time>
      </trkpt>
      <trkpt lat="44.89946" lon="5.0898">
        <ele>361.327994</ele>
        <time>2023-08-19T00:15:13.423Z</time>
      </trkpt>
      <trkpt lat="44.89958" lon="5.08901">
        <ele>358.358954</ele>
        <time>2023-08-19T00:15:17.705Z</time>
      </trkpt>
      <trkpt lat="44.89952" lon="5.08893">
        <ele>357.93932</ele>
        <time>2023-08-19T00:15:18.297Z</time>
      </trkpt>
      <trkpt lat="44.89939" lon="5.08775">
        <ele>353.564108</ele>
        <time>2023-08-19T00:15:24.565Z</time>
      </trkpt>
      <trkpt lat="44.89937" lon="5.08729">
        <ele>351.888658</ele>
        <time>2023-08-19T00:15:27.001Z</time>
      </trkpt>
      <trkpt lat="44.89938" lon="5.0867">
        <ele>350.752872</ele>
        <time>2023-08-19T00:15:30.264Z</time>
      </trkpt>
      <trkpt lat="44.89936" lon="5.08633">
        <ele>350.190159</ele>
        <time>2023-08-19T00:15:32.468Z</time>
      </trkpt>
      <trkpt lat="44.89931" lon="5.08618">
        <ele>349.95033</ele>
        <time>2023-08-19T00:15:33.459Z</time>
      </trkpt>
      <trkpt lat="44.89917" lon="5.08594">
        <ele>349.484027</ele>
        <time>2023-08-19T00:15:35.420Z</time>
      </trkpt>
      <trkpt lat="44.89885" lon="5.08563">
        <ele>348.674943</ele>
        <time>2023-08-19T00:15:39.013Z</time>
      </trkpt>
      <trkpt lat="44.89866" lon="5.08548">
        <ele>348.233288</ele>
        <time>2023-08-19T00:15:41.120Z</time>
      </trkpt>
      <trkpt lat="44.89788" lon="5.08482">
        <ele>347.89903</ele>
        <time>2023-08-19T00:15:51.653Z</time>
      </trkpt>
      <trkpt lat="44.89649" lon="5.08343">
        <ele>348.192064</ele>
        <time>2023-08-19T00:16:15.752Z</time>
      </trkpt>
      <trkpt lat="44.89633" lon="5.0833">
        <ele>348.160216</ele>
        <time>2023-08-19T00:16:18.058Z</time>
      </trkpt>
      <trkpt lat="44.896" lon="5.08309">
        <ele>348.097128</ele>
        <time>2023-08-19T00:16:22.412Z</time>
      </trkpt>
      <trkpt lat="44.89557" lon="5.08269">
        <ele>348.00858</ele>
        <time>2023-08-19T00:16:27.869Z</time>
      </trkpt>
      <trkpt lat="44.89488" lon="5.08216">
        <ele>346.230621</ele>
        <time>2023-08-19T00:16:35.032Z</time>
      </trkpt>
      <trkpt lat="44.89437" lon="5.08158">
        <ele>344.343903</ele>
        <time>2023-08-19T00:16:40.321Z</time>
      </trkpt>
      <trkpt lat="44.89424" lon="5.08147">
        <ele>343.902612</ele>
        <time>2023-08-19T00:16:41.509Z</time>
      </trkpt>
      <trkpt lat="44.8938" lon="5.08119">
        <ele>342.396752</ele>
        <time>2023-08-19T00:16:45.248Z</time>
      </trkpt>
      <trkpt lat="44.89359" lon="5.08109">
        <ele>341.514172</ele>
        <time>2023-08-19T00:16:46.952Z</time>
      </trkpt>
      <trkpt lat="44.89296" lon="5.08092">
        <ele>338.978307</ele>
        <time>2023-08-19T00:16:51.856Z</time>
      </trkpt>
      <trkpt lat="44.89274" lon="5.08076">
        <ele>337.982805</ele>
        <time>2023-08-19T00:16:53.804Z</time>
      </trkpt>
      <trkpt lat="44.89253" lon="5.08058">
        <ele>337.014828</ele>
        <time>2023-08-19T00:16:55.728Z</time>
      </trkpt>
      <trkpt lat="44.89235" lon="5.08048">
        <ele>336.263309</ele>
        <time>2023-08-19T00:16:57.244Z</time>
      </trkpt>
      <trkpt lat="44.89173" lon="5.08022">
        <ele>334.554877</ele>
        <time>2023-08-19T00:17:02.581Z</time>
      </trkpt>
      <trkpt lat="44.89074" lon="5.07966">
        <ele>332.237615</ele>
        <time>2023-08-19T00:17:11.743Z</time>
      </trkpt>
      <trkpt lat="44.88991" lon="5.07896">
        <ele>332.229261</ele>
        <time>2023-08-19T00:17:21.669Z</time>
      </trkpt>
      <trkpt lat="44.88969" lon="5.07882">
        <ele>332.406983</ele>
        <time>2023-08-19T00:17:24.728Z</time>
      </trkpt>
      <trkpt lat="44.88826" lon="5.07814">
        <ele>335.48973</ele>
        <time>2023-08-19T00:17:54.043Z</time>
      </trkpt>
      <trkpt lat="44.8872" lon="5.07784">
        <ele>339.452048</ele>
        <time>2023-08-19T00:18:21.606Z</time>
      </trkpt>
      <trkpt lat="44.88652" lon="5.07745">
        <ele>344.101678</ele>
        <time>2023-08-19T00:18:42.273Z</time>
      </trkpt>
      <trkpt lat="44.88483" lon="5.07694">
        <ele>355.87651</ele>
        <time>2023-08-19T00:19:44.684Z</time>
      </trkpt>
      <trkpt lat="44.88461" lon="5.07695">
        <ele>357.41721</ele>
        <time>2023-08-19T00:19:54.107Z</time>
      </trkpt>
      <trkpt lat="44.88383" lon="5.0774">
        <ele>363.604732</ele>
        <time>2023-08-19T00:20:24.717Z</time>
      </trkpt>
      <trkpt lat="44.8836" lon="5.07748">
        <ele>364.587257</ele>
        <time>2023-08-19T00:20:31.223Z</time>
      </trkpt>
      <trkpt lat="44.88307" lon="5.0775">
        <ele>365.447755</ele>
        <time>2023-08-19T00:20:43.889Z</time>
      </trkpt>
      <trkpt lat="44.88221" lon="5.07733">
        <ele>366.851197</ele>
        <time>2023-08-19T00:20:56.710Z</time>
      </trkpt>
      <trkpt lat="44.88205" lon="5.07728">
        <ele>367.107727</ele>
        <time>2023-08-19T00:20:58.110Z</time>
      </trkpt>
      <trkpt lat="44.88125" lon="5.07722">
        <ele>365.410817</ele>
        <time>2023-08-19T00:21:04.578Z</time>
      </trkpt>
      <trkpt lat="44.88073" lon="5.07698">
        <ele>363.899207</ele>
        <time>2023-08-19T00:21:09.049Z</time>
      </trkpt>
      <trkpt lat="44.88042" lon="5.07678">
        <ele>362.951743</ele>
        <time>2023-08-19T00:21:11.953Z</time>
      </trkpt>
      <trkpt lat="44.88012" lon="5.07643">
        <ele>362.097486</ele>
        <time>2023-08-19T00:21:15.151Z</time>
      </trkpt>
      <trkpt lat="44.88002" lon="5.07636">
        <ele>361.925466</ele>
        <time>2023-08-19T00:21:16.087Z</time>
      </trkpt>
      <trkpt lat="44.87989" lon="5.07633">
        <ele>361.734081</ele>
        <time>2023-08-19T00:21:17.134Z</time>
      </trkpt>
      <trkpt lat="44.87937" lon="5.07627">
        <ele>360.935784</ele>
        <time>2023-08-19T00:21:21.512Z</time>
      </trkpt>
      <trkpt lat="44.87902" lon="5.07628">
        <ele>360.409704</ele>
        <time>2023-08-19T00:21:24.623Z</time>
      </trkpt>
      <trkpt lat="44.87873" lon="5.07638">
        <ele>359.951964</ele>
        <time>2023-08-19T00:21:27.986Z</time>
      </trkpt>
      <trkpt lat="44.87836" lon="5.07661">
        <ele>360.045101</ele>
        <time>2023-08-19T00:21:34.219Z</time>
      </trkpt>
      <trkpt lat="44.8779" lon="5.0767">
        <ele>361.07665</ele>
        <time>2023-08-19T00:21:42.267Z</time>
      </trkpt>
      <trkpt lat="44.87782" lon="5.0767">
        <ele>361.246363</ele>
        <time>2023-08-19T00:21:44.280Z</time>
      </trkpt>
      <trkpt lat="44.87762" lon="5.0767">
        <ele>361.698086</ele>
        <time>2023-08-19T00:21:48.441Z</time>
      </trkpt>
      <trkpt lat="44.87756" lon="5.07663">
        <ele>361.871319</ele>
        <time>2023-08-19T00:21:49.705Z</time>
      </trkpt>
      <trkpt lat="44.87747" lon="5.07672">
        <ele>362.119525</ele>
        <time>2023-08-19T00:21:52.435Z</time>
      </trkpt>
      <trkpt lat="44.87709" lon="5.07677">
        <ele>362.971</ele>
        <time>2023-08-19T00:22:00.185Z</time>
      </trkpt>
      <trkpt lat="44.87613" lon="5.07648">
        <ele>364.815944</ele>
        <time>2023-08-19T00:22:21.136Z</time>
      </trkpt>
      <trkpt lat="44.87603" lon="5.07644">
        <ele>364.98917</ele>
        <time>2023-08-19T00:22:23.167Z</time>
      </trkpt>
      <trkpt lat="44.87584" lon="5.07645">
        <ele>365.320404</ele>
        <time>2023-08-19T00:22:26.278Z</time>
      </trkpt>
      <trkpt lat="44.87571" lon="5.0765">
        <ele>365.561388</ele>
        <time>2023-08-19T00:22:28.511Z</time>
      </trkpt>
      <trkpt lat="44.8756" lon="5.07658">
        <ele>365.782286</ele>
        <time>2023-08-19T00:22:30.120Z</time>
      </trkpt>
      <trkpt lat="44.87491" lon="5.07728">
        <ele>367.713397</ele>
        <time>2023-08-19T00:22:41.096Z</time>
      </trkpt>
      <trkpt lat="44.8744" lon="5.07781">
        <ele>369.839452</ele>
        <time>2023-08-19T00:22:52.487Z</time>
      </trkpt>
      <trkpt lat="44.87415" lon="5.07801">
        <ele>370.79508</ele>
        <time>2023-08-19T00:22:59.113Z</time>
      </trkpt>
      <trkpt lat="44.87387" lon="5.07816">
        <ele>371.784295</ele>
        <time>2023-08-19T00:23:07.177Z</time>
      </trkpt>
      <trkpt lat="44.87383" lon="5.07818">
        <ele>371.924818</ele>
        <time>2023-08-19T00:23:08.412Z</time>
      </trkpt>
      <trkpt lat="44.87362" lon="5.07815">
        <ele>372.61652</ele>
        <time>2023-08-19T00:23:14.887Z</time>
      </trkpt>
      <trkpt lat="44.87351" lon="5.0782">
        <ele>373.482698</ele>
        <time>2023-08-19T00:23:18.922Z</time>
      </trkpt>
      <trkpt lat="44.87342" lon="5.07843">
        <ele>375.265562</ele>
        <time>2023-08-19T00:23:25.519Z</time>
      </trkpt>
      <trkpt lat="44.87328" lon="5.07902">
        <ele>379.570277</ele>
        <time>2023-08-19T00:23:44.097Z</time>
      </trkpt>
      <trkpt lat="44.87316" lon="5.07936">
        <ele>382.158931</ele>
        <time>2023-08-19T00:23:56.639Z</time>
      </trkpt>
      <trkpt lat="44.87228" lon="5.08096">
        <ele>395.216197</ele>
        <time>2023-08-19T00:25:03.998Z</time>
      </trkpt>
      <trkpt lat="44.87218" lon="5.0814">
        <ele>397.92617</ele>
        <time>2023-08-19T00:25:17.683Z</time>
      </trkpt>
      <trkpt lat="44.87216" lon="5.08253">
        <ele>404.686107</ele>
        <time>2023-08-19T00:25:45.443Z</time>
      </trkpt>
      <trkpt lat="44.87206" lon="5.08297">
        <ele>406.273075</ele>
        <time>2023-08-19T00:25:54.367Z</time>
      </trkpt>
      <trkpt lat="44.87166" lon="5.08404">
        <ele>409.652069</ele>
        <time>2023-08-19T00:26:12.685Z</time>
      </trkpt>
      <trkpt lat="44.87148" lon="5.08483">
        <ele>411.952438</ele>
        <time>2023-08-19T00:26:26.114Z</time>
      </trkpt>
      <trkpt lat="44.87118" lon="5.08587">
        <ele>415.152864</ele>
        <time>2023-08-19T00:26:46.991Z</time>
      </trkpt>
      <trkpt lat="44.87057" lon="5.08724">
        <ele>419.728182</ele>
        <time>2023-08-19T00:27:15.660Z</time>
      </trkpt>
      <trkpt lat="44.87014" lon="5.0879">
        <ele>421.717678</ele>
        <time>2023-08-19T00:27:29.226Z</time>
      </trkpt>
      <trkpt lat="44.86954" lon="5.08864">
        <ele>424.239982</ele>
        <time>2023-08-19T00:27:45.845Z</time>
      </trkpt>
      <trkpt lat="44.86905" lon="5.08902">
        <ele>426.154963</ele>
        <time>2023-08-19T00:27:58.166Z</time>
      </trkpt>
      <trkpt lat="44.86867" lon="5.08911">
        <ele>427.628655</ele>
        <time>2023-08-19T00:28:07.473Z</time>
      </trkpt>
      <trkpt lat="44.86809" lon="5.08903">
        <ele>429.851477</ele>
        <time>2023-08-19T00:28:22.516Z</time>
      </trkpt>
      <trkpt lat="44.86775" lon="5.08904">
        <ele>431.146758</ele>
        <time>2023-08-19T00:28:31.002Z</time>
      </trkpt>
      <trkpt lat="44.86708" lon="5.08924">
        <ele>433.760465</ele>
        <time>2023-08-19T00:28:47.027Z</time>
      </trkpt>
      <trkpt lat="44.86675" lon="5.08926">
        <ele>435.025096</ele>
        <time>2023-08-19T00:28:54.770Z</time>
      </trkpt>
      <trkpt lat="44.86607" lon="5.08959">
        <ele>437.76295</ele>
        <time>2023-08-19T00:29:11.935Z</time>
      </trkpt>
      <trkpt lat="44.86573" lon="5.0896">
        <ele>439.111078</ele>
        <time>2023-08-19T00:29:20.257Z</time>
      </trkpt>
      <trkpt lat="44.8656" lon="5.08957">
        <ele>439.871887</ele>
        <time>2023-08-19T00:29:23.406Z</time>
      </trkpt>
      <trkpt lat="44.8653" lon="5.08946">
        <ele>441.595424</ele>
        <time>2023-08-19T00:29:31.124Z</time>
      </trkpt>
      <trkpt lat="44.86435" lon="5.08893">
        <ele>447.339462</ele>
        <time>2023-08-19T00:30:01.621Z</time>
      </trkpt>
      <trkpt lat="44.86307" lon="5.08836">
        <ele>457.010986</ele>
        <time>2023-08-19T00:30:50.927Z</time>
      </trkpt>
      <trkpt lat="44.86046" lon="5.08745">
        <ele>477.586525</ele>
        <time>2023-08-19T00:32:29.880Z</time>
      </trkpt>
      <trkpt lat="44.85988" lon="5.08735">
        <ele>481.578129</ele>
        <time>2023-08-19T00:32:50.202Z</time>
      </trkpt>
      <trkpt lat="44.85895" lon="5.0874">
        <ele>488.034234</ele>
        <time>2023-08-19T00:33:19.226Z</time>
      </trkpt>
      <trkpt lat="44.85857" lon="5.08767">
        <ele>491.453905</ele>
        <time>2023-08-19T00:33:34.231Z</time>
      </trkpt>
      <trkpt lat="44.85783" lon="5.08789">
        <ele>498.032128</ele>
        <time>2023-08-19T00:34:04.212Z</time>
      </trkpt>
      <trkpt lat="44.85756" lon="5.08775">
        <ele>500.62067</ele>
        <time>2023-08-19T00:34:16.242Z</time>
      </trkpt>
      <trkpt lat="44.85696" lon="5.08737">
        <ele>506.79155</ele>
        <time>2023-08-19T00:34:43.402Z</time>
      </trkpt>
      <trkpt lat="44.85641" lon="5.08721">
        <ele>512.96736</ele>
        <time>2023-08-19T00:35:11.612Z</time>
      </trkpt>
      <trkpt lat="44.85623" lon="5.08729">
        <ele>515.035486</ele>
        <time>2023-08-19T00:35:22.580Z</time>
      </trkpt>
      <trkpt lat="44.85625" lon="5.08756">
        <ele>517.147316</ele>
        <time>2023-08-19T00:35:33.558Z</time>
      </trkpt>
      <trkpt lat="44.85624" lon="5.08782">
        <ele>519.248562</ele>
        <time>2023-08-19T00:35:44.120Z</time>
      </trkpt>
      <trkpt lat="44.85605" lon="5.08793">
        <ele>521.514547</ele>
        <time>2023-08-19T00:35:54.013Z</time>
      </trkpt>
      <trkpt lat="44.85564" lon="5.08798">
        <ele>525.692804</ele>
        <time>2023-08-19T00:36:10.102Z</time>
      </trkpt>
      <trkpt lat="44.8552" lon="5.08792">
        <ele>529.15867</ele>
        <time>2023-08-19T00:36:24.131Z</time>
      </trkpt>
      <trkpt lat="44.855" lon="5.08808">
        <ele>530.92846</ele>
        <time>2023-08-19T00:36:30.914Z</time>
      </trkpt>
      <trkpt lat="44.85491" lon="5.08842">
        <ele>532.946021</ele>
        <time>2023-08-19T00:36:40.124Z</time>
      </trkpt>
      <trkpt lat="44.85478" lon="5.08922">
        <ele>537.438466</ele>
        <time>2023-08-19T00:37:02.595Z</time>
      </trkpt>
      <trkpt lat="44.85459" lon="5.08947">
        <ele>539.752344</ele>
        <time>2023-08-19T00:37:12.672Z</time>
      </trkpt>
      <trkpt lat="44.85431" lon="5.0896">
        <ele>543.017196</ele>
        <time>2023-08-19T00:37:23.976Z</time>
      </trkpt>
      <trkpt lat="44.85393" lon="5.08952">
        <ele>547.152277</ele>
        <time>2023-08-19T00:37:38.359Z</time>
      </trkpt>
      <trkpt lat="44.85365" lon="5.08958">
        <ele>550.191291</ele>
        <time>2023-08-19T00:37:50.784Z</time>
      </trkpt>
      <trkpt lat="44.85337" lon="5.08998">
        <ele>554.446926</ele>
        <time>2023-08-19T00:38:11.535Z</time>
      </trkpt>
      <trkpt lat="44.85312" lon="5.09021">
        <ele>557.676258</ele>
        <time>2023-08-19T00:38:30.071Z</time>
      </trkpt>
      <trkpt lat="44.85249" lon="5.09103">
        <ele>566.731969</ele>
        <time>2023-08-19T00:39:19.096Z</time>
      </trkpt>
      <trkpt lat="44.85232" lon="5.09187">
        <ele>573.255089</ele>
        <time>2023-08-19T00:39:44.339Z</time>
      </trkpt>
      <trkpt lat="44.85226" lon="5.09187">
        <ele>573.889084</ele>
        <time>2023-08-19T00:39:47.192Z</time>
      </trkpt>
      <trkpt lat="44.85225" lon="5.09184">
        <ele>574.164401</ele>
        <time>2023-08-19T00:39:48.236Z</time>
      </trkpt>
      <trkpt lat="44.85236" lon="5.09138">
        <ele>577.192028</ele>
        <time>2023-08-19T00:39:59.434Z</time>
      </trkpt>
      <trkpt lat="44.85239" lon="5.09089">
        <ele>577.737146</ele>
        <time>2023-08-19T00:40:08.544Z</time>
      </trkpt>
      <trkpt lat="44.85257" lon="5.09043">
        <ele>578.315411</ele>
        <time>2023-08-19T00:40:15.337Z</time>
      </trkpt>
      <trkpt lat="44.85314" lon="5.08937">
        <ele>579.791437</ele>
        <time>2023-08-19T00:40:24.063Z</time>
      </trkpt>
      <trkpt lat="44.8534" lon="5.08883">
        <ele>581.034622</ele>
        <time>2023-08-19T00:40:30.400Z</time>
      </trkpt>
      <trkpt lat="44.85364" lon="5.08863">
        <ele>581.853796</ele>
        <time>2023-08-19T00:40:35.939Z</time>
      </trkpt>
      <trkpt lat="44.85397" lon="5.08853">
        <ele>582.832641</ele>
        <time>2023-08-19T00:40:43.182Z</time>
      </trkpt>
      <trkpt lat="44.85412" lon="5.08835">
        <ele>583.421833</ele>
        <time>2023-08-19T00:40:47.768Z</time>
      </trkpt>
      <trkpt lat="44.85416" lon="5.08801">
        <ele>584.136783</ele>
        <time>2023-08-19T00:40:53.903Z</time>
      </trkpt>
      <trkpt lat="44.85426" lon="5.08757">
        <ele>585.09815</ele>
        <time>2023-08-19T00:41:02.870Z</time>
      </trkpt>
      <trkpt lat="44.85442" lon="5.08717">
        <ele>587.07755</ele>
        <time>2023-08-19T00:41:13.167Z</time>
      </trkpt>
      <trkpt lat="44.85468" lon="5.08679">
        <ele>589.348156</ele>
        <time>2023-08-19T00:41:25.997Z</time>
      </trkpt>
      <trkpt lat="44.85492" lon="5.08662">
        <ele>591.025838</ele>
        <time>2023-08-19T00:41:35.720Z</time>
      </trkpt>
      <trkpt lat="44.85521" lon="5.08594">
        <ele>594.522689</ele>
        <time>2023-08-19T00:41:55.027Z</time>
      </trkpt>
      <trkpt lat="44.85539" lon="5.08573">
        <ele>595.926249</ele>
        <time>2023-08-19T00:42:01.876Z</time>
      </trkpt>
      <trkpt lat="44.85541" lon="5.08558">
        <ele>596.495548</ele>
        <time>2023-08-19T00:42:04.858Z</time>
      </trkpt>
      <trkpt lat="44.85528" lon="5.08558">
        <ele>597.06235</ele>
        <time>2023-08-19T00:42:08.418Z</time>
      </trkpt>
      <trkpt lat="44.85509" lon="5.08586">
        <ele>598.208781</ele>
        <time>2023-08-19T00:42:15.145Z</time>
      </trkpt>
      <trkpt lat="44.85486" lon="5.08628">
        <ele>599.787992</ele>
        <time>2023-08-19T00:42:23.785Z</time>
      </trkpt>
      <trkpt lat="44.85464" lon="5.08648">
        <ele>600.916819</ele>
        <time>2023-08-19T00:42:29.703Z</time>
      </trkpt>
      <trkpt lat="44.85432" lon="5.08668">
        <ele>602.387524</ele>
        <time>2023-08-19T00:42:37.444Z</time>
      </trkpt>
      <trkpt lat="44.85409" lon="5.08691">
        <ele>603.547365</ele>
        <time>2023-08-19T00:42:44.002Z</time>
      </trkpt>
      <trkpt lat="44.85398" lon="5.08709">
        <ele>604.756396</ele>
        <time>2023-08-19T00:42:48.422Z</time>
      </trkpt>
      <trkpt lat="44.85375" lon="5.08755">
        <ele>608.153747</ele>
        <time>2023-08-19T00:43:00.773Z</time>
      </trkpt>
      <trkpt lat="44.85368" lon="5.08764">
        <ele>608.985648</ele>
        <time>2023-08-19T00:43:04.327Z</time>
      </trkpt>
      <trkpt lat="44.85359" lon="5.08769">
        <ele>609.74359</ele>
        <time>2023-08-19T00:43:07.750Z</time>
      </trkpt>
      <trkpt lat="44.8533" lon="5.0877">
        <ele>612.27081</ele>
        <time>2023-08-19T00:43:20.320Z</time>
      </trkpt>
      <trkpt lat="44.85312" lon="5.08775">
        <ele>613.839503</ele>
        <time>2023-08-19T00:43:28.604Z</time>
      </trkpt>
      <trkpt lat="44.85288" lon="5.08791">
        <ele>616.100049</ele>
        <time>2023-08-19T00:43:40.855Z</time>
      </trkpt>
      <trkpt lat="44.85264" lon="5.08818">
        <ele>618.733356</ele>
        <time>2023-08-19T00:43:55.770Z</time>
      </trkpt>
      <trkpt lat="44.85248" lon="5.0883">
        <ele>620.357479</ele>
        <time>2023-08-19T00:44:04.421Z</time>
      </trkpt>
      <trkpt lat="44.85215" lon="5.08837">
        <ele>623.328339</ele>
        <time>2023-08-19T00:44:19.858Z</time>
      </trkpt>
      <trkpt lat="44.85191" lon="5.08836">
        <ele>625.511274</ele>
        <time>2023-08-19T00:44:30.773Z</time>
      </trkpt>
      <trkpt lat="44.85125" lon="5.08803">
        <ele>631.761012</ele>
        <time>2023-08-19T00:44:59.343Z</time>
      </trkpt>
      <trkpt lat="44.8506" lon="5.08781">
        <ele>637.318655</ele>
        <time>2023-08-19T00:45:20.975Z</time>
      </trkpt>
      <trkpt lat="44.8503" lon="5.08781">
        <ele>639.513771</ele>
        <time>2023-08-19T00:45:27.953Z</time>
      </trkpt>
      <trkpt lat="44.84887" lon="5.08882">
        <ele>652.583136</ele>
        <time>2023-08-19T00:46:27.177Z</time>
      </trkpt>
      <trkpt lat="44.84806" lon="5.0896">
        <ele>663.239377</ele>
        <time>2023-08-19T00:47:18.576Z</time>
      </trkpt>
      <trkpt lat="44.84776" lon="5.08967">
        <ele>666.532202</ele>
        <time>2023-08-19T00:47:33.968Z</time>
      </trkpt>
      <trkpt lat="44.84712" lon="5.08925">
        <ele>671.768534</ele>
        <time>2023-08-19T00:48:05.342Z</time>
      </trkpt>
      <trkpt lat="44.84646" lon="5.08904">
        <ele>676.181509</ele>
        <time>2023-08-19T00:48:24.812Z</time>
      </trkpt>
      <trkpt lat="44.84594" lon="5.08863">
        <ele>680.020684</ele>
        <time>2023-08-19T00:48:37.808Z</time>
      </trkpt>
      <trkpt lat="44.8456" lon="5.08844">
        <ele>682.156256</ele>
        <time>2023-08-19T00:48:46.657Z</time>
      </trkpt>
      <trkpt lat="44.84517" lon="5.08846">
        <ele>684.681307</ele>
        <time>2023-08-19T00:48:58.689Z</time>
      </trkpt>
      <trkpt lat="44.84448" lon="5.08863">
        <ele>688.833472</ele>
        <time>2023-08-19T00:49:21.662Z</time>
      </trkpt>
      <trkpt lat="44.84396" lon="5.08888">
        <ele>692.553074</ele>
        <time>2023-08-19T00:49:43.061Z</time>
      </trkpt>
      <trkpt lat="44.84356" lon="5.0889">
        <ele>695.585572</ele>
        <time>2023-08-19T00:49:59.465Z</time>
      </trkpt>
      <trkpt lat="44.84236" lon="5.0886">
        <ele>704.778872</ele>
        <time>2023-08-19T00:50:42.456Z</time>
      </trkpt>
      <trkpt lat="44.84128" lon="5.08809">
        <ele>712.374021</ele>
        <time>2023-08-19T00:51:17.159Z</time>
      </trkpt>
      <trkpt lat="44.84091" lon="5.08783">
        <ele>715.147962</ele>
        <time>2023-08-19T00:51:31.952Z</time>
      </trkpt>
      <trkpt lat="44.84085" lon="5.08784">
        <ele>715.529536</ele>
        <time>2023-08-19T00:51:34.080Z</time>
      </trkpt>
      <trkpt lat="44.84081" lon="5.08789">
        <ele>715.912472</ele>
        <time>2023-08-19T00:51:36.217Z</time>
      </trkpt>
      <trkpt lat="44.84082" lon="5.08798">
        <ele>716.35364</ele>
        <time>2023-08-19T00:51:38.563Z</time>
      </trkpt>
      <trkpt lat="44.84169" lon="5.08863">
        <ele>723.647382</ele>
        <time>2023-08-19T00:52:15.946Z</time>
      </trkpt>
      <trkpt lat="44.84208" lon="5.08904">
        <ele>727.245572</ele>
        <time>2023-08-19T00:52:34.803Z</time>
      </trkpt>
      <trkpt lat="44.84381" lon="5.08976">
        <ele>736.838872</ele>
        <time>2023-08-19T00:53:25.321Z</time>
      </trkpt>
      <trkpt lat="44.84447" lon="5.08982">
        <ele>739.720302</ele>
        <time>2023-08-19T00:53:40.013Z</time>
      </trkpt>
      <trkpt lat="44.84517" lon="5.08995">
        <ele>742.534381</ele>
        <time>2023-08-19T00:53:57.866Z</time>
      </trkpt>
      <trkpt lat="44.84634" lon="5.09046">
        <ele>746.181461</ele>
        <time>2023-08-19T00:54:28.698Z</time>
      </trkpt>
      <trkpt lat="44.84669" lon="5.09066">
        <ele>746.737653</ele>
        <time>2023-08-19T00:54:35.975Z</time>
      </trkpt>
      <trkpt lat="44.84725" lon="5.09132">
        <ele>747.806568</ele>
        <time>2023-08-19T00:54:45.529Z</time>
      </trkpt>
      <trkpt lat="44.84753" lon="5.09148">
        <ele>747.982379</ele>
        <time>2023-08-19T00:54:48.310Z</time>
      </trkpt>
      <trkpt lat="44.84803" lon="5.09154">
        <ele>747.446884</ele>
        <time>2023-08-19T00:54:52.645Z</time>
      </trkpt>
      <trkpt lat="44.84887" lon="5.0913">
        <ele>746.541873</ele>
        <time>2023-08-19T00:55:00.768Z</time>
      </trkpt>
      <trkpt lat="44.84931" lon="5.0911">
        <ele>746.366595</ele>
        <time>2023-08-19T00:55:05.583Z</time>
      </trkpt>
      <trkpt lat="44.84946" lon="5.09109">
        <ele>746.566349</ele>
        <time>2023-08-19T00:55:07.181Z</time>
      </trkpt>
      <trkpt lat="44.84949" lon="5.09118">
        <ele>746.656547</ele>
        <time>2023-08-19T00:55:08.639Z</time>
      </trkpt>
      <trkpt lat="44.84948" lon="5.09129">
        <ele>746.764617</ele>
        <time>2023-08-19T00:55:10.199Z</time>
      </trkpt>
      <trkpt lat="44.84939" lon="5.09155">
        <ele>747.032422</ele>
        <time>2023-08-19T00:55:12.806Z</time>
      </trkpt>
      <trkpt lat="44.84931" lon="5.09166">
        <ele>747.184639</ele>
        <time>2023-08-19T00:55:15.256Z</time>
      </trkpt>
      <trkpt lat="44.84914" lon="5.09187">
        <ele>747.483988</ele>
        <time>2023-08-19T00:55:18.861Z</time>
      </trkpt>
      <trkpt lat="44.84881" lon="5.09214">
        <ele>747.992292</ele>
        <time>2023-08-19T00:55:26.205Z</time>
      </trkpt>
      <trkpt lat="44.84823" lon="5.09251">
        <ele>748.733588</ele>
        <time>2023-08-19T00:55:39.158Z</time>
      </trkpt>
      <trkpt lat="44.84705" lon="5.09318">
        <ele>749.770469</ele>
        <time>2023-08-19T00:55:55.627Z</time>
      </trkpt>
      <trkpt lat="44.84623" lon="5.09368">
        <ele>751.133077</ele>
        <time>2023-08-19T00:56:07.619Z</time>
      </trkpt>
      <trkpt lat="44.84597" lon="5.09389">
        <ele>751.711211</ele>
        <time>2023-08-19T00:56:12.728Z</time>
      </trkpt>
      <trkpt lat="44.8457" lon="5.09418">
        <ele>752.379673</ele>
        <time>2023-08-19T00:56:19.133Z</time>
      </trkpt>
      <trkpt lat="44.84551" lon="5.09445">
        <ele>752.898854</ele>
        <time>2023-08-19T00:56:24.479Z</time>
      </trkpt>
      <trkpt lat="44.84514" lon="5.09515">
        <ele>755.004674</ele>
        <time>2023-08-19T00:56:38.638Z</time>
      </trkpt>
      <trkpt lat="44.845" lon="5.09535">
        <ele>756.006488</ele>
        <time>2023-08-19T00:56:43.839Z</time>
      </trkpt>
      <trkpt lat="44.84483" lon="5.09547">
        <ele>756.933165</ele>
        <time>2023-08-19T00:56:48.861Z</time>
      </trkpt>
      <trkpt lat="44.84442" lon="5.0957">
        <ele>759.202826</ele>
        <time>2023-08-19T00:57:02.001Z</time>
      </trkpt>
      <trkpt lat="44.84415" lon="5.09587">
        <ele>760.682649</ele>
        <time>2023-08-19T00:57:10.949Z</time>
      </trkpt>
      <trkpt lat="44.84373" lon="5.09629">
        <ele>763.564383</ele>
        <time>2023-08-19T00:57:26.910Z</time>
      </trkpt>
      <trkpt lat="44.84338" lon="5.09679">
        <ele>767.29546</ele>
        <time>2023-08-19T00:57:43.258Z</time>
      </trkpt>
      <trkpt lat="44.84325" lon="5.09704">
        <ele>768.863786</ele>
        <time>2023-08-19T00:57:50.582Z</time>
      </trkpt>
      <trkpt lat="44.84279" lon="5.0975">
        <ele>773.083734</ele>
        <time>2023-08-19T00:58:11.624Z</time>
      </trkpt>
      <trkpt lat="44.84248" lon="5.09786">
        <ele>776.10261</ele>
        <time>2023-08-19T00:58:27.404Z</time>
      </trkpt>
      <trkpt lat="44.84232" lon="5.09818">
        <ele>778.743475</ele>
        <time>2023-08-19T00:58:38.576Z</time>
      </trkpt>
      <trkpt lat="44.84203" lon="5.09846">
        <ele>782.127852</ele>
        <time>2023-08-19T00:58:53.072Z</time>
      </trkpt>
      <trkpt lat="44.8414" lon="5.0989">
        <ele>788.838351</ele>
        <time>2023-08-19T00:59:23.704Z</time>
      </trkpt>
      <trkpt lat="44.84063" lon="5.09924">
        <ele>795.803556</ele>
        <time>2023-08-19T01:00:00.172Z</time>
      </trkpt>
      <trkpt lat="44.8395" lon="5.09991">
        <ele>805.15544</ele>
        <time>2023-08-19T01:00:45.781Z</time>
      </trkpt>
      <trkpt lat="44.8389" lon="5.10009">
        <ele>807.81731</ele>
        <time>2023-08-19T01:01:00.213Z</time>
      </trkpt>
      <trkpt lat="44.8386" lon="5.10005">
        <ele>808.551782</ele>
        <time>2023-08-19T01:01:06.117Z</time>
      </trkpt>
      <trkpt lat="44.83778" lon="5.0998">
        <ele>810.652056</ele>
        <time>2023-08-19T01:01:20.140Z</time>
      </trkpt>
      <trkpt lat="44.8374" lon="5.09979">
        <ele>811.796748</ele>
        <time>2023-08-19T01:01:25.743Z</time>
      </trkpt>
      <trkpt lat="44.83724" lon="5.09989">
        <ele>812.531338</ele>
        <time>2023-08-19T01:01:28.490Z</time>
      </trkpt>
      <trkpt lat="44.83729" lon="5.10011">
        <ele>813.218031</ele>
        <time>2023-08-19T01:01:31.036Z</time>
      </trkpt>
      <trkpt lat="44.83776" lon="5.10109">
        <ele>816.804012</ele>
        <time>2023-08-19T01:01:52.318Z</time>
      </trkpt>
      <trkpt lat="44.83789" lon="5.10158">
        <ele>818.37074</ele>
        <time>2023-08-19T01:02:05.001Z</time>
      </trkpt>
      <trkpt lat="44.83789" lon="5.10203">
        <ele>820.176884</ele>
        <time>2023-08-19T01:02:16.347Z</time>
      </trkpt>
      <trkpt lat="44.83783" lon="5.10268">
        <ele>823.328088</ele>
        <time>2023-08-19T01:02:32.862Z</time>
      </trkpt>
      <trkpt lat="44.83789" lon="5.1036">
        <ele>827.673783</ele>
        <time>2023-08-19T01:02:54.714Z</time>
      </trkpt>
      <trkpt lat="44.8376" lon="5.10473">
        <ele>832.828255</ele>
        <time>2023-08-19T01:03:22.035Z</time>
      </trkpt>
      <trkpt lat="44.83738" lon="5.10543">
        <ele>835.602514</ele>
        <time>2023-08-19T01:03:37.839Z</time>
      </trkpt>
      <trkpt lat="44.83711" lon="5.10581">
        <ele>837.554876</ele>
        <time>2023-08-19T01:03:48.015Z</time>
      </trkpt>
      <trkpt lat="44.83688" lon="5.10601">
        <ele>838.959232</ele>
        <time>2023-08-19T01:03:55.171Z</time>
      </trkpt>
      <trkpt lat="44.83613" lon="5.10622">
        <ele>842.166118</ele>
        <time>2023-08-19T01:04:14.280Z</time>
      </trkpt>
      <trkpt lat="44.83613" lon="5.10622">
        <ele>842.170782</ele>
        <time>2023-08-19T01:04:14.306Z</time>
      </trkpt>
      <trkpt lat="44.83592" lon="5.10639">
        <ele>843.06878</ele>
        <time>2023-08-19T01:04:20.366Z</time>
      </trkpt>
      <trkpt lat="44.83604" lon="5.10662">
        <ele>843.834643</ele>
        <time>2023-08-19T01:04:25.406Z</time>
      </trkpt>
      <trkpt lat="44.83795" lon="5.10847">
        <ele>850.64709</ele>
        <time>2023-08-19T01:05:17.751Z</time>
      </trkpt>
      <trkpt lat="44.83827" lon="5.10885">
        <ele>851.283594</ele>
        <time>2023-08-19T01:05:23.195Z</time>
      </trkpt>
      <trkpt lat="44.83918" lon="5.11012">
        <ele>849.207944</ele>
        <time>2023-08-19T01:05:34.529Z</time>
      </trkpt>
      <trkpt lat="44.83931" lon="5.11056">
        <ele>848.663891</ele>
        <time>2023-08-19T01:05:37.310Z</time>
      </trkpt>
      <trkpt lat="44.8394" lon="5.11127">
        <ele>848.260742</ele>
        <time>2023-08-19T01:05:41.651Z</time>
      </trkpt>
      <trkpt lat="44.83957" lon="5.11172">
        <ele>848.033344</ele>
        <time>2023-08-19T01:05:44.900Z</time>
      </trkpt>
      <trkpt lat="44.83989" lon="5.11219">
        <ele>847.739252</ele>
        <time>2023-08-19T01:05:49.508Z</time>
      </trkpt>
      <trkpt lat="44.84022" lon="5.11246">
        <ele>847.497575</ele>
        <time>2023-08-19T01:05:54.218Z</time>
      </trkpt>
      <trkpt lat="44.84145" lon="5.11318">
        <ele>852.292664</ele>
        <time>2023-08-19T01:06:23.162Z</time>
      </trkpt>
      <trkpt lat="44.84252" lon="5.1149">
        <ele>863.201633</ele>
        <time>2023-08-19T01:07:17.960Z</time>
      </trkpt>
      <trkpt lat="44.84339" lon="5.11576">
        <ele>872.455172</ele>
        <time>2023-08-19T01:08:05.442Z</time>
      </trkpt>
      <trkpt lat="44.84367" lon="5.11618">
        <ele>876.338445</ele>
        <time>2023-08-19T01:08:24.405Z</time>
      </trkpt>
      <trkpt lat="44.844" lon="5.117">
        <ele>882.790183</ele>
        <time>2023-08-19T01:08:54.322Z</time>
      </trkpt>
      <trkpt lat="44.84428" lon="5.11798">
        <ele>888.496772</ele>
        <time>2023-08-19T01:09:24.080Z</time>
      </trkpt>
      <trkpt lat="44.84524" lon="5.11994">
        <ele>895.028546</ele>
        <time>2023-08-19T01:10:04.737Z</time>
      </trkpt>
      <trkpt lat="44.84542" lon="5.12022">
        <ele>894.631522</ele>
        <time>2023-08-19T01:10:07.301Z</time>
      </trkpt>
      <trkpt lat="44.84568" lon="5.12062">
        <ele>894.054404</ele>
        <time>2023-08-19T01:10:10.690Z</time>
      </trkpt>
      <trkpt lat="44.84592" lon="5.12124">
        <ele>893.305744</ele>
        <time>2023-08-19T01:10:14.828Z</time>
      </trkpt>
      <trkpt lat="44.84593" lon="5.12216">
        <ele>892.088198</ele>
        <time>2023-08-19T01:10:20.030Z</time>
      </trkpt>
      <trkpt lat="44.84608" lon="5.12244">
        <ele>891.385857</ele>
        <time>2023-08-19T01:10:21.984Z</time>
      </trkpt>
      <trkpt lat="44.84626" lon="5.12261">
        <ele>890.756723</ele>
        <time>2023-08-19T01:10:23.733Z</time>
      </trkpt>
      <trkpt lat="44.8475" lon="5.12326">
        <ele>887.315822</ele>
        <time>2023-08-19T01:10:34.817Z</time>
      </trkpt>
      <trkpt lat="44.84845" lon="5.1241">
        <ele>886.215308</ele>
        <time>2023-08-19T01:10:45.601Z</time>
      </trkpt>
      <trkpt lat="44.84856" lon="5.12424">
        <ele>886.065697</ele>
        <time>2023-08-19T01:10:47.207Z</time>
      </trkpt>
      <trkpt lat="44.84874" lon="5.1246">
        <ele>885.762804</ele>
        <time>2023-08-19T01:10:50.608Z</time>
      </trkpt>
      <trkpt lat="44.84929" lon="5.12553">
        <ele>886.558951</ele>
        <time>2023-08-19T01:11:02.933Z</time>
      </trkpt>
      <trkpt lat="44.8495" lon="5.12593">
        <ele>886.925784</ele>
        <time>2023-08-19T01:11:08.915Z</time>
      </trkpt>
      <trkpt lat="44.8497" lon="5.12617">
        <ele>887.202149</ele>
        <time>2023-08-19T01:11:13.447Z</time>
      </trkpt>
      <trkpt lat="44.85016" lon="5.12655">
        <ele>887.557486</ele>
        <time>2023-08-19T01:11:22.735Z</time>
      </trkpt>
      <trkpt lat="44.85027" lon="5.1266">
        <ele>887.536283</ele>
        <time>2023-08-19T01:11:24.672Z</time>
      </trkpt>
      <trkpt lat="44.85041" lon="5.12664">
        <ele>887.510463</ele>
        <time>2023-08-19T01:11:26.974Z</time>
      </trkpt>
      <trkpt lat="44.85072" lon="5.12652">
        <ele>887.452215</ele>
        <time>2023-08-19T01:11:31.650Z</time>
      </trkpt>
      <trkpt lat="44.85181" lon="5.12594">
        <ele>886.916591</ele>
        <time>2023-08-19T01:11:43.196Z</time>
      </trkpt>
      <trkpt lat="44.85214" lon="5.12592">
        <ele>885.814759</ele>
        <time>2023-08-19T01:11:45.937Z</time>
      </trkpt>
      <trkpt lat="44.8536" lon="5.12617">
        <ele>880.911115</ele>
        <time>2023-08-19T01:11:57.499Z</time>
      </trkpt>
      <trkpt lat="44.85446" lon="5.12649">
        <ele>877.768334</ele>
        <time>2023-08-19T01:12:04.482Z</time>
      </trkpt>
      <trkpt lat="44.85469" lon="5.12658">
        <ele>876.945721</ele>
        <time>2023-08-19T01:12:06.325Z</time>
      </trkpt>
      <trkpt lat="44.85659" lon="5.12686">
        <ele>872.382527</ele>
        <time>2023-08-19T01:12:22.354Z</time>
      </trkpt>
      <trkpt lat="44.85765" lon="5.12723">
        <ele>871.612769</ele>
        <time>2023-08-19T01:12:35.094Z</time>
      </trkpt>
      <trkpt lat="44.85809" lon="5.12716">
        <ele>871.677839</ele>
        <time>2023-08-19T01:12:41.540Z</time>
      </trkpt>
      <trkpt lat="44.85845" lon="5.12727">
        <ele>871.731821</ele>
        <time>2023-08-19T01:12:46.986Z</time>
      </trkpt>
      <trkpt lat="44.8597" lon="5.12793">
        <ele>870.719177</ele>
        <time>2023-08-19T01:13:01.200Z</time>
      </trkpt>
      <trkpt lat="44.86065" lon="5.12816">
        <ele>869.722225</ele>
        <time>2023-08-19T01:13:09.586Z</time>
      </trkpt>
      <trkpt lat="44.8621" lon="5.12838">
        <ele>868.593983</ele>
        <time>2023-08-19T01:13:24.208Z</time>
      </trkpt>
      <trkpt lat="44.86248" lon="5.12845">
        <ele>868.557831</ele>
        <time>2023-08-19T01:13:29.572Z</time>
      </trkpt>
      <trkpt lat="44.86281" lon="5.12857">
        <ele>868.737215</ele>
        <time>2023-08-19T01:13:34.434Z</time>
      </trkpt>
      <trkpt lat="44.86323" lon="5.12902">
        <ele>869.01858</ele>
        <time>2023-08-19T01:13:42.046Z</time>
      </trkpt>
      <trkpt lat="44.86395" lon="5.12941">
        <ele>869.453549</ele>
        <time>2023-08-19T01:13:52.684Z</time>
      </trkpt>
      <trkpt lat="44.86424" lon="5.12995">
        <ele>870.052325</ele>
        <time>2023-08-19T01:13:58.659Z</time>
      </trkpt>
      <trkpt lat="44.86463" lon="5.13042">
        <ele>870.682766</ele>
        <time>2023-08-19T01:14:06.122Z</time>
      </trkpt>
      <trkpt lat="44.86509" lon="5.13072">
        <ele>871.316502</ele>
        <time>2023-08-19T01:14:14.830Z</time>
      </trkpt>
      <trkpt lat="44.86546" lon="5.13113">
        <ele>872.506347</ele>
        <time>2023-08-19T01:14:23.634Z</time>
      </trkpt>
      <trkpt lat="44.86589" lon="5.13177">
        <ele>875.012384</ele>
        <time>2023-08-19T01:14:37.654Z</time>
      </trkpt>
      <trkpt lat="44.86618" lon="5.13209">
        <ele>876.504975</ele>
        <time>2023-08-19T01:14:47.203Z</time>
      </trkpt>
      <trkpt lat="44.8671" lon="5.13278">
        <ele>881.642551</ele>
        <time>2023-08-19T01:15:18.001Z</time>
      </trkpt>
      <trkpt lat="44.86755" lon="5.13331">
        <ele>885.232676</ele>
        <time>2023-08-19T01:15:36.000Z</time>
      </trkpt>
      <trkpt lat="44.86848" lon="5.13481">
        <ele>895.457496</ele>
        <time>2023-08-19T01:16:22.820Z</time>
      </trkpt>
      <trkpt lat="44.86882" lon="5.13513">
        <ele>898.982224</ele>
        <time>2023-08-19T01:16:38.637Z</time>
      </trkpt>
      <trkpt lat="44.86931" lon="5.13534">
        <ele>903.311524</ele>
        <time>2023-08-19T01:16:59.673Z</time>
      </trkpt>
      <trkpt lat="44.86982" lon="5.13558">
        <ele>909.433206</ele>
        <time>2023-08-19T01:17:25.477Z</time>
      </trkpt>
      <trkpt lat="44.87026" lon="5.13586">
        <ele>915.936889</ele>
        <time>2023-08-19T01:17:50.923Z</time>
      </trkpt>
      <trkpt lat="44.87062" lon="5.13599">
        <ele>920.929015</ele>
        <time>2023-08-19T01:18:12.794Z</time>
      </trkpt>
      <trkpt lat="44.87082" lon="5.13619">
        <ele>924.269722</ele>
        <time>2023-08-19T01:18:28.672Z</time>
      </trkpt>
      <trkpt lat="44.87116" lon="5.13668">
        <ele>930.57115</ele>
        <time>2023-08-19T01:18:59.890Z</time>
      </trkpt>
      <trkpt lat="44.87177" lon="5.13796">
        <ele>942.009857</ele>
        <time>2023-08-19T01:19:53.833Z</time>
      </trkpt>
      <trkpt lat="44.87205" lon="5.13841">
        <ele>946.453392</ele>
        <time>2023-08-19T01:20:08.746Z</time>
      </trkpt>
      <trkpt lat="44.87236" lon="5.13861">
        <ele>949.153871</ele>
        <time>2023-08-19T01:20:19.380Z</time>
      </trkpt>
      <trkpt lat="44.87282" lon="5.13856">
        <ele>951.381732</ele>
        <time>2023-08-19T01:20:32.224Z</time>
      </trkpt>
      <trkpt lat="44.87323" lon="5.13871">
        <ele>953.412659</ele>
        <time>2023-08-19T01:20:42.311Z</time>
      </trkpt>
      <trkpt lat="44.87361" lon="5.13906">
        <ele>955.559981</ele>
        <time>2023-08-19T01:20:52.388Z</time>
      </trkpt>
      <trkpt lat="44.87403" lon="5.1397">
        <ele>959.38162</ele>
        <time>2023-08-19T01:21:09.179Z</time>
      </trkpt>
      <trkpt lat="44.87448" lon="5.13996">
        <ele>963.066833</ele>
        <time>2023-08-19T01:21:26.474Z</time>
      </trkpt>
      <trkpt lat="44.8749" lon="5.14009">
        <ele>966.251895</ele>
        <time>2023-08-19T01:21:43.052Z</time>
      </trkpt>
      <trkpt lat="44.87545" lon="5.14015">
        <ele>970.463628</ele>
        <time>2023-08-19T01:22:05.867Z</time>
      </trkpt>
      <trkpt lat="44.87585" lon="5.14022">
        <ele>973.948678</ele>
        <time>2023-08-19T01:22:22.486Z</time>
      </trkpt>
      <trkpt lat="44.87608" lon="5.14049">
        <ele>976.496051</ele>
        <time>2023-08-19T01:22:34.610Z</time>
      </trkpt>
      <trkpt lat="44.87617" lon="5.14084">
        <ele>978.837763</ele>
        <time>2023-08-19T01:22:45.854Z</time>
      </trkpt>
      <trkpt lat="44.8762" lon="5.14135">
        <ele>981.968899</ele>
        <time>2023-08-19T01:23:00.629Z</time>
      </trkpt>
      <trkpt lat="44.87609" lon="5.1421">
        <ele>986.461617</ele>
        <time>2023-08-19T01:23:21.701Z</time>
      </trkpt>
      <trkpt lat="44.8762" lon="5.14259">
        <ele>987.929234</ele>
        <time>2023-08-19T01:23:34.134Z</time>
      </trkpt>
      <trkpt lat="44.8766" lon="5.14345">
        <ele>990.895252</ele>
        <time>2023-08-19T01:23:53.705Z</time>
      </trkpt>
      <trkpt lat="44.87693" lon="5.14373">
        <ele>992.470533</ele>
        <time>2023-08-19T01:24:00.904Z</time>
      </trkpt>
      <trkpt lat="44.8773" lon="5.14375">
        <ele>993.415379</ele>
        <time>2023-08-19T01:24:06.036Z</time>
      </trkpt>
      <trkpt lat="44.87776" lon="5.14405">
        <ele>992.606813</ele>
        <time>2023-08-19T01:24:11.186Z</time>
      </trkpt>
      <trkpt lat="44.87831" lon="5.14409">
        <ele>991.745465</ele>
        <time>2023-08-19T01:24:15.931Z</time>
      </trkpt>
      <trkpt lat="44.87877" lon="5.14435">
        <ele>990.953658</ele>
        <time>2023-08-19T01:24:20.017Z</time>
      </trkpt>
      <trkpt lat="44.87913" lon="5.1444">
        <ele>990.437023</ele>
        <time>2023-08-19T01:24:22.973Z</time>
      </trkpt>
      <trkpt lat="44.87957" lon="5.14424">
        <ele>989.827826</ele>
        <time>2023-08-19T01:24:26.979Z</time>
      </trkpt>
      <trkpt lat="44.88013" lon="5.1435">
        <ele>988.808122</ele>
        <time>2023-08-19T01:24:35.172Z</time>
      </trkpt>
      <trkpt lat="44.88046" lon="5.14345">
        <ele>988.360188</ele>
        <time>2023-08-19T01:24:38.597Z</time>
      </trkpt>
      <trkpt lat="44.88087" lon="5.14382">
        <ele>988.58639</ele>
        <time>2023-08-19T01:24:43.223Z</time>
      </trkpt>
      <trkpt lat="44.88119" lon="5.14401">
        <ele>988.785598</ele>
        <time>2023-08-19T01:24:46.561Z</time>
      </trkpt>
      <trkpt lat="44.88139" lon="5.1439">
        <ele>988.909205</ele>
        <time>2023-08-19T01:24:48.977Z</time>
      </trkpt>
      <trkpt lat="44.8815" lon="5.14369">
        <ele>989.013496</ele>
        <time>2023-08-19T01:24:51.969Z</time>
      </trkpt>
      <trkpt lat="44.88143" lon="5.14345">
        <ele>989.120344</ele>
        <time>2023-08-19T01:24:55.171Z</time>
      </trkpt>
      <trkpt lat="44.88118" lon="5.14313">
        <ele>989.315143</ele>
        <time>2023-08-19T01:25:02.226Z</time>
      </trkpt>
      <trkpt lat="44.88111" lon="5.14275">
        <ele>990.098582</ele>
        <time>2023-08-19T01:25:08.252Z</time>
      </trkpt>
      <trkpt lat="44.88116" lon="5.14244">
        <ele>990.958224</ele>
        <time>2023-08-19T01:25:13.424Z</time>
      </trkpt>
      <trkpt lat="44.88134" lon="5.14221">
        <ele>991.82574</ele>
        <time>2023-08-19T01:25:18.596Z</time>
      </trkpt>
      <trkpt lat="44.88197" lon="5.142">
        <ele>994.246709</ele>
        <time>2023-08-19T01:25:33.972Z</time>
      </trkpt>
      <trkpt lat="44.88237" lon="5.142">
        <ele>995.718931</ele>
        <time>2023-08-19T01:25:45.075Z</time>
      </trkpt>
      <trkpt lat="44.88272" lon="5.14212">
        <ele>996.354192</ele>
        <time>2023-08-19T01:25:55.307Z</time>
      </trkpt>
      <trkpt lat="44.8829" lon="5.14232">
        <ele>996.649087</ele>
        <time>2023-08-19T01:26:00.965Z</time>
      </trkpt>
      <trkpt lat="44.88322" lon="5.14249">
        <ele>997.074073</ele>
        <time>2023-08-19T01:26:07.349Z</time>
      </trkpt>
      <trkpt lat="44.8837" lon="5.14264">
        <ele>997.684634</ele>
        <time>2023-08-19T01:26:12.651Z</time>
      </trkpt>
      <trkpt lat="44.88407" lon="5.14285">
        <ele>998.183376</ele>
        <time>2023-08-19T01:26:16.144Z</time>
      </trkpt>
      <trkpt lat="44.88442" lon="5.14283">
        <ele>999.00807</ele>
        <time>2023-08-19T01:26:19.161Z</time>
      </trkpt>
      <trkpt lat="44.88517" lon="5.1424">
        <ele>1001.126218</ele>
        <time>2023-08-19T01:26:30.059Z</time>
      </trkpt>
      <trkpt lat="44.8857" lon="5.14227">
        <ele>1002.52991</ele>
        <time>2023-08-19T01:26:45.417Z</time>
      </trkpt>
      <trkpt lat="44.8858" lon="5.14228">
        <ele>1002.789314</ele>
        <time>2023-08-19T01:26:49.143Z</time>
      </trkpt>
      <trkpt lat="44.88616" lon="5.14252">
        <ele>1006.344443</ele>
        <time>2023-08-19T01:27:05.835Z</time>
      </trkpt>
      <trkpt lat="44.88656" lon="5.14272">
        <ele>1010.621639</ele>
        <time>2023-08-19T01:27:25.863Z</time>
      </trkpt>
      <trkpt lat="44.88663" lon="5.1428">
        <ele>1011.504018</ele>
        <time>2023-08-19T01:27:30.126Z</time>
      </trkpt>
      <trkpt lat="44.88688" lon="5.14317">
        <ele>1015.14124</ele>
        <time>2023-08-19T01:27:47.975Z</time>
      </trkpt>
      <trkpt lat="44.88706" lon="5.14331">
        <ele>1017.252056</ele>
        <time>2023-08-19T01:27:57.923Z</time>
      </trkpt>
      <trkpt lat="44.88706" lon="5.14336">
        <ele>1017.629258</ele>
        <time>2023-08-19T01:27:59.988Z</time>
      </trkpt>
      <trkpt lat="44.8871" lon="5.14343">
        <ele>1018.210844</ele>
        <time>2023-08-19T01:28:02.778Z</time>
      </trkpt>
      <trkpt lat="44.88743" lon="5.14354">
        <ele>1021.465599</ele>
        <time>2023-08-19T01:28:17.933Z</time>
      </trkpt>
      <trkpt lat="44.88785" lon="5.1439">
        <ele>1024.973567</ele>
        <time>2023-08-19T01:28:37.655Z</time>
      </trkpt>
      <trkpt lat="44.88801" lon="5.14399">
        <ele>1026.240238</ele>
        <time>2023-08-19T01:28:44.499Z</time>
      </trkpt>
      <trkpt lat="44.8883" lon="5.14401">
        <ele>1028.296071</ele>
        <time>2023-08-19T01:28:54.318Z</time>
      </trkpt>
      <trkpt lat="44.88873" lon="5.14392">
        <ele>1031.447859</ele>
        <time>2023-08-19T01:29:07.234Z</time>
      </trkpt>
      <trkpt lat="44.88894" lon="5.14396">
        <ele>1032.912782</ele>
        <time>2023-08-19T01:29:12.819Z</time>
      </trkpt>
      <trkpt lat="44.88942" lon="5.14427">
        <ele>1035.881302</ele>
        <time>2023-08-19T01:29:27.389Z</time>
      </trkpt>
      <trkpt lat="44.8895" lon="5.14435">
        <ele>1036.344434</ele>
        <time>2023-08-19T01:29:29.992Z</time>
      </trkpt>
      <trkpt lat="44.8897" lon="5.14465">
        <ele>1037.808389</ele>
        <time>2023-08-19T01:29:38.285Z</time>
      </trkpt>
      <trkpt lat="44.8898" lon="5.14473">
        <ele>1038.393983</ele>
        <time>2023-08-19T01:29:41.661Z</time>
      </trkpt>
      <trkpt lat="44.89009" lon="5.14476">
        <ele>1039.838209</ele>
        <time>2023-08-19T01:29:50.405Z</time>
      </trkpt>
      <trkpt lat="44.89021" lon="5.14485">
        <ele>1040.496825</ele>
        <time>2023-08-19T01:29:54.321Z</time>
      </trkpt>
      <trkpt lat="44.89029" lon="5.14509">
        <ele>1041.42424</ele>
        <time>2023-08-19T01:30:00.126Z</time>
      </trkpt>
      <trkpt lat="44.89029" lon="5.14523">
        <ele>1041.907193</ele>
        <time>2023-08-19T01:30:03.004Z</time>
      </trkpt>
      <trkpt lat="44.89019" lon="5.14666">
        <ele>1044.604758</ele>
        <time>2023-08-19T01:30:26.697Z</time>
      </trkpt>
      <trkpt lat="44.89013" lon="5.147">
        <ele>1045.124434</ele>
        <time>2023-08-19T01:30:30.576Z</time>
      </trkpt>
      <trkpt lat="44.88997" lon="5.14752">
        <ele>1045.977228</ele>
        <time>2023-08-19T01:30:35.928Z</time>
      </trkpt>
      <trkpt lat="44.8899" lon="5.14795">
        <ele>1046.627008</ele>
        <time>2023-08-19T01:30:39.931Z</time>
      </trkpt>
      <trkpt lat="44.88981" lon="5.14819">
        <ele>1046.941562</ele>
        <time>2023-08-19T01:30:42.234Z</time>
      </trkpt>
      <trkpt lat="44.88943" lon="5.14894">
        <ele>1047.986299</ele>
        <time>2023-08-19T01:30:50.726Z</time>
      </trkpt>
      <trkpt lat="44.88937" lon="5.14916">
        <ele>1048.257383</ele>
        <time>2023-08-19T01:30:53.088Z</time>
      </trkpt>
      <trkpt lat="44.88932" lon="5.14944">
        <ele>1048.580416</ele>
        <time>2023-08-19T01:30:55.589Z</time>
      </trkpt>
      <trkpt lat="44.88898" lon="5.15204">
        <ele>1055.823832</ele>
        <time>2023-08-19T01:31:41.610Z</time>
      </trkpt>
      <trkpt lat="44.88878" lon="5.15313">
        <ele>1060.63547</ele>
        <time>2023-08-19T01:32:09.316Z</time>
      </trkpt>
      <trkpt lat="44.88874" lon="5.15361">
        <ele>1063.392983</ele>
        <time>2023-08-19T01:32:21.465Z</time>
      </trkpt>
      <trkpt lat="44.88865" lon="5.154">
        <ele>1065.775437</ele>
        <time>2023-08-19T01:32:32.560Z</time>
      </trkpt>
      <trkpt lat="44.88854" lon="5.15431">
        <ele>1067.744907</ele>
        <time>2023-08-19T01:32:42.394Z</time>
      </trkpt>
      <trkpt lat="44.88841" lon="5.15453">
        <ele>1069.38481</ele>
        <time>2023-08-19T01:32:50.987Z</time>
      </trkpt>
      <trkpt lat="44.8881" lon="5.15482">
        <ele>1072.420734</ele>
        <time>2023-08-19T01:33:06.476Z</time>
      </trkpt>
      <trkpt lat="44.88802" lon="5.15495">
        <ele>1073.281134</ele>
        <time>2023-08-19T01:33:11.201Z</time>
      </trkpt>
      <trkpt lat="44.88789" lon="5.15547">
        <ele>1075.692553</ele>
        <time>2023-08-19T01:33:26.003Z</time>
      </trkpt>
      <trkpt lat="44.88785" lon="5.15593">
        <ele>1077.724661</ele>
        <time>2023-08-19T01:33:37.419Z</time>
      </trkpt>
      <trkpt lat="44.88779" lon="5.15625">
        <ele>1079.189103</ele>
        <time>2023-08-19T01:33:45.121Z</time>
      </trkpt>
      <trkpt lat="44.88768" lon="5.15643">
        <ele>1080.226851</ele>
        <time>2023-08-19T01:33:50.064Z</time>
      </trkpt>
      <trkpt lat="44.88747" lon="5.15659">
        <ele>1081.67692</ele>
        <time>2023-08-19T01:33:56.772Z</time>
      </trkpt>
      <trkpt lat="44.88739" lon="5.15671">
        <ele>1082.396757</ele>
        <time>2023-08-19T01:33:59.797Z</time>
      </trkpt>
      <trkpt lat="44.88733" lon="5.15697">
        <ele>1083.578074</ele>
        <time>2023-08-19T01:34:04.791Z</time>
      </trkpt>
      <trkpt lat="44.88726" lon="5.15761">
        <ele>1083.699845</ele>
        <time>2023-08-19T01:34:15.003Z</time>
      </trkpt>
      <trkpt lat="44.88714" lon="5.1579">
        <ele>1083.516145</ele>
        <time>2023-08-19T01:34:19.163Z</time>
      </trkpt>
      <trkpt lat="44.88691" lon="5.15829">
        <ele>1083.235373</ele>
        <time>2023-08-19T01:34:23.633Z</time>
      </trkpt>
      <trkpt lat="44.88678" lon="5.15857">
        <ele>1083.048791</ele>
        <time>2023-08-19T01:34:25.695Z</time>
      </trkpt>
      <trkpt lat="44.88667" lon="5.15881">
        <ele>1082.895896</ele>
        <time>2023-08-19T01:34:27.254Z</time>
      </trkpt>
      <trkpt lat="44.88651" lon="5.15934">
        <ele>1082.35883</ele>
        <time>2023-08-19T01:34:30.336Z</time>
      </trkpt>
      <trkpt lat="44.88619" lon="5.15997">
        <ele>1078.486893</ele>
        <time>2023-08-19T01:34:34.360Z</time>
      </trkpt>
      <trkpt lat="44.88583" lon="5.16056">
        <ele>1074.638521</ele>
        <time>2023-08-19T01:34:38.288Z</time>
      </trkpt>
      <trkpt lat="44.8858" lon="5.16062">
        <ele>1074.257387</ele>
        <time>2023-08-19T01:34:38.679Z</time>
      </trkpt>
      <trkpt lat="44.88577" lon="5.16075">
        <ele>1073.593281</ele>
        <time>2023-08-19T01:34:39.360Z</time>
      </trkpt>
      <trkpt lat="44.8858" lon="5.16092">
        <ele>1072.715992</ele>
        <time>2023-08-19T01:34:40.240Z</time>
      </trkpt>
      <trkpt lat="44.88626" lon="5.16184">
        <ele>1066.885908</ele>
        <time>2023-08-19T01:34:45.816Z</time>
      </trkpt>
      <trkpt lat="44.88635" lon="5.16208">
        <ele>1065.398716</ele>
        <time>2023-08-19T01:34:47.180Z</time>
      </trkpt>
      <trkpt lat="44.88638" lon="5.16223">
        <ele>1064.54145</ele>
        <time>2023-08-19T01:34:47.969Z</time>
      </trkpt>
      <trkpt lat="44.88637" lon="5.16261">
        <ele>1062.478887</ele>
        <time>2023-08-19T01:34:49.888Z</time>
      </trkpt>
      <trkpt lat="44.88625" lon="5.16316">
        <ele>1059.368274</ele>
        <time>2023-08-19T01:34:52.813Z</time>
      </trkpt>
      <trkpt lat="44.88622" lon="5.16342">
        <ele>1057.97485</ele>
        <time>2023-08-19T01:34:54.128Z</time>
      </trkpt>
      <trkpt lat="44.88621" lon="5.16371">
        <ele>1056.380715</ele>
        <time>2023-08-19T01:34:55.640Z</time>
      </trkpt>
      <trkpt lat="44.88621" lon="5.16444">
        <ele>1052.834297</ele>
        <time>2023-08-19T01:34:59.383Z</time>
      </trkpt>
      <trkpt lat="44.8862" lon="5.16461">
        <ele>1052.014182</ele>
        <time>2023-08-19T01:35:00.251Z</time>
      </trkpt>
      <trkpt lat="44.88615" lon="5.16479">
        <ele>1051.077722</ele>
        <time>2023-08-19T01:35:01.239Z</time>
      </trkpt>
      <trkpt lat="44.88592" lon="5.16528">
        <ele>1048.212849</ele>
        <time>2023-08-19T01:35:04.255Z</time>
      </trkpt>
      <trkpt lat="44.88551" lon="5.16587">
        <ele>1044.190944</ele>
        <time>2023-08-19T01:35:08.475Z</time>
      </trkpt>
      <trkpt lat="44.88537" lon="5.16619">
        <ele>1042.204695</ele>
        <time>2023-08-19T01:35:10.379Z</time>
      </trkpt>
      <trkpt lat="44.88531" lon="5.16666">
        <ele>1039.635177</ele>
        <time>2023-08-19T01:35:12.800Z</time>
      </trkpt>
      <trkpt lat="44.88534" lon="5.16706">
        <ele>1037.517103</ele>
        <time>2023-08-19T01:35:14.783Z</time>
      </trkpt>
      <trkpt lat="44.88541" lon="5.16728">
        <ele>1036.19538</ele>
        <time>2023-08-19T01:35:16.019Z</time>
      </trkpt>
      <trkpt lat="44.88551" lon="5.16748">
        <ele>1034.882816</ele>
        <time>2023-08-19T01:35:17.246Z</time>
      </trkpt>
      <trkpt lat="44.88587" lon="5.16806">
        <ele>1030.742137</ele>
        <time>2023-08-19T01:35:21.116Z</time>
      </trkpt>
      <trkpt lat="44.88598" lon="5.16829">
        <ele>1029.525977</ele>
        <time>2023-08-19T01:35:22.522Z</time>
      </trkpt>
      <trkpt lat="44.88607" lon="5.16863">
        <ele>1028.092606</ele>
        <time>2023-08-19T01:35:24.359Z</time>
      </trkpt>
      <trkpt lat="44.8861" lon="5.16891">
        <ele>1026.965721</ele>
        <time>2023-08-19T01:35:25.822Z</time>
      </trkpt>
      <trkpt lat="44.88611" lon="5.16995">
        <ele>1022.825752</ele>
        <time>2023-08-19T01:35:31.319Z</time>
      </trkpt>
      <trkpt lat="44.88609" lon="5.17026">
        <ele>1021.603323</ele>
        <time>2023-08-19T01:35:32.992Z</time>
      </trkpt>
      <trkpt lat="44.88601" lon="5.1706">
        <ele>1020.235459</ele>
        <time>2023-08-19T01:35:34.948Z</time>
      </trkpt>
      <trkpt lat="44.88564" lon="5.17177">
        <ele>1018.053394</ele>
        <time>2023-08-19T01:35:42.570Z</time>
      </trkpt>
      <trkpt lat="44.8855" lon="5.17228">
        <ele>1017.12054</ele>
        <time>2023-08-19T01:35:46.274Z</time>
      </trkpt>
      <trkpt lat="44.88538" lon="5.17279">
        <ele>1016.202982</ele>
        <time>2023-08-19T01:35:49.938Z</time>
      </trkpt>
      <trkpt lat="44.88529" lon="5.17341">
        <ele>1014.508939</ele>
        <time>2023-08-19T01:35:53.835Z</time>
      </trkpt>
      <trkpt lat="44.88527" lon="5.17387">
        <ele>1013.17266</ele>
        <time>2023-08-19T01:35:56.368Z</time>
      </trkpt>
      <trkpt lat="44.88534" lon="5.17446">
        <ele>1011.404264</ele>
        <time>2023-08-19T01:35:59.738Z</time>
      </trkpt>
      <trkpt lat="44.8854" lon="5.1746">
        <ele>1010.924095</ele>
        <time>2023-08-19T01:36:00.611Z</time>
      </trkpt>
      <trkpt lat="44.88551" lon="5.17475">
        <ele>1010.252902</ele>
        <time>2023-08-19T01:36:01.815Z</time>
      </trkpt>
      <trkpt lat="44.88599" lon="5.17505">
        <ele>1007.857554</ele>
        <time>2023-08-19T01:36:05.602Z</time>
      </trkpt>
      <trkpt lat="44.88605" lon="5.1751">
        <ele>1007.344398</ele>
        <time>2023-08-19T01:36:06.115Z</time>
      </trkpt>
      <trkpt lat="44.88607" lon="5.17519">
        <ele>1006.881079</ele>
        <time>2023-08-19T01:36:06.574Z</time>
      </trkpt>
      <trkpt lat="44.88607" lon="5.17527">
        <ele>1006.442667</ele>
        <time>2023-08-19T01:36:07.017Z</time>
      </trkpt>
      <trkpt lat="44.88603" lon="5.17535">
        <ele>1005.992956</ele>
        <time>2023-08-19T01:36:07.477Z</time>
      </trkpt>
      <trkpt lat="44.88576" lon="5.17562">
        <ele>1003.623609</ele>
        <time>2023-08-19T01:36:09.846Z</time>
      </trkpt>
      <trkpt lat="44.88571" lon="5.1757">
        <ele>1003.085269</ele>
        <time>2023-08-19T01:36:10.395Z</time>
      </trkpt>
      <trkpt lat="44.88563" lon="5.17596">
        <ele>1001.637955</ele>
        <time>2023-08-19T01:36:11.837Z</time>
      </trkpt>
      <trkpt lat="44.8855" lon="5.17675">
        <ele>997.569387</ele>
        <time>2023-08-19T01:36:15.938Z</time>
      </trkpt>
      <trkpt lat="44.88539" lon="5.17702">
        <ele>995.954602</ele>
        <time>2023-08-19T01:36:17.554Z</time>
      </trkpt>
      <trkpt lat="44.88527" lon="5.17715">
        <ele>994.706912</ele>
        <time>2023-08-19T01:36:18.612Z</time>
      </trkpt>
      <trkpt lat="44.88517" lon="5.1772">
        <ele>993.735808</ele>
        <time>2023-08-19T01:36:19.375Z</time>
      </trkpt>
      <trkpt lat="44.88486" lon="5.1773">
        <ele>990.887004</ele>
        <time>2023-08-19T01:36:21.578Z</time>
      </trkpt>
      <trkpt lat="44.88478" lon="5.17741">
        <ele>989.88076</ele>
        <time>2023-08-19T01:36:22.347Z</time>
      </trkpt>
      <trkpt lat="44.88475" lon="5.17756">
        <ele>988.853682</ele>
        <time>2023-08-19T01:36:23.135Z</time>
      </trkpt>
      <trkpt lat="44.88476" lon="5.17771">
        <ele>987.899833</ele>
        <time>2023-08-19T01:36:23.869Z</time>
      </trkpt>
      <trkpt lat="44.8848" lon="5.17785">
        <ele>986.913364</ele>
        <time>2023-08-19T01:36:24.623Z</time>
      </trkpt>
      <trkpt lat="44.88491" lon="5.17806">
        <ele>985.240621</ele>
        <time>2023-08-19T01:36:25.902Z</time>
      </trkpt>
      <trkpt lat="44.88506" lon="5.17827">
        <ele>983.353351</ele>
        <time>2023-08-19T01:36:27.348Z</time>
      </trkpt>
      <trkpt lat="44.88522" lon="5.17842">
        <ele>981.548497</ele>
        <time>2023-08-19T01:36:28.725Z</time>
      </trkpt>
      <trkpt lat="44.88546" lon="5.17858">
        <ele>979.14329</ele>
        <time>2023-08-19T01:36:30.543Z</time>
      </trkpt>
      <trkpt lat="44.8859" lon="5.17878">
        <ele>974.377384</ele>
        <time>2023-08-19T01:36:33.727Z</time>
      </trkpt>
      <trkpt lat="44.88594" lon="5.17882">
        <ele>973.985513</ele>
        <time>2023-08-19T01:36:33.993Z</time>
      </trkpt>
      <trkpt lat="44.88596" lon="5.17889">
        <ele>973.38905</ele>
        <time>2023-08-19T01:36:34.387Z</time>
      </trkpt>
      <trkpt lat="44.88593" lon="5.17904">
        <ele>972.313764</ele>
        <time>2023-08-19T01:36:35.101Z</time>
      </trkpt>
      <trkpt lat="44.8848" lon="5.17979">
        <ele>959.971033</ele>
        <time>2023-08-19T01:36:43.686Z</time>
      </trkpt>
      <trkpt lat="44.88379" lon="5.18018">
        <ele>952.49977</ele>
        <time>2023-08-19T01:36:51.097Z</time>
      </trkpt>
      <trkpt lat="44.88324" lon="5.18035">
        <ele>948.424332</ele>
        <time>2023-08-19T01:36:55.340Z</time>
      </trkpt>
      <trkpt lat="44.88316" lon="5.1804">
        <ele>947.930648</ele>
        <time>2023-08-19T01:36:55.945Z</time>
      </trkpt>
      <trkpt lat="44.88314" lon="5.18049">
        <ele>947.64805</ele>
        <time>2023-08-19T01:36:56.441Z</time>
      </trkpt>
      <trkpt lat="44.8833" lon="5.18052">
        <ele>946.95613</ele>
        <time>2023-08-19T01:36:57.733Z</time>
      </trkpt>
      <trkpt lat="44.88449" lon="5.18056">
        <ele>942.03036</ele>
        <time>2023-08-19T01:37:06.894Z</time>
      </trkpt>
      <trkpt lat="44.88483" lon="5.1806">
        <ele>940.614747</ele>
        <time>2023-08-19T01:37:09.619Z</time>
      </trkpt>
      <trkpt lat="44.88536" lon="5.18077">
        <ele>939.430136</ele>
        <time>2023-08-19T01:37:14.235Z</time>
      </trkpt>
      <trkpt lat="44.88561" lon="5.18088">
        <ele>938.870482</ele>
        <time>2023-08-19T01:37:16.566Z</time>
      </trkpt>
      <trkpt lat="44.88602" lon="5.18119">
        <ele>937.906207</ele>
        <time>2023-08-19T01:37:20.645Z</time>
      </trkpt>
      <trkpt lat="44.88637" lon="5.18155">
        <ele>936.981643</ele>
        <time>2023-08-19T01:37:24.603Z</time>
      </trkpt>
      <trkpt lat="44.88652" lon="5.1818">
        <ele>936.659486</ele>
        <time>2023-08-19T01:37:26.751Z</time>
      </trkpt>
      <trkpt lat="44.88665" lon="5.18209">
        <ele>936.471378</ele>
        <time>2023-08-19T01:37:28.952Z</time>
      </trkpt>
      <trkpt lat="44.88684" lon="5.18252">
        <ele>936.188306</ele>
        <time>2023-08-19T01:37:32.440Z</time>
      </trkpt>
      <trkpt lat="44.88698" lon="5.18276">
        <ele>936.021154</ele>
        <time>2023-08-19T01:37:34.604Z</time>
      </trkpt>
      <trkpt lat="44.88728" lon="5.18306">
        <ele>935.728208</ele>
        <time>2023-08-19T01:37:39.009Z</time>
      </trkpt>
      <trkpt lat="44.88734" lon="5.18315">
        <ele>935.663557</ele>
        <time>2023-08-19T01:37:39.991Z</time>
      </trkpt>
      <trkpt lat="44.88738" lon="5.18342">
        <ele>935.511437</ele>
        <time>2023-08-19T01:37:42.267Z</time>
      </trkpt>
      <trkpt lat="44.88738" lon="5.18365">
        <ele>935.386349</ele>
        <time>2023-08-19T01:37:44.069Z</time>
      </trkpt>
      <trkpt lat="44.88733" lon="5.18393">
        <ele>935.243785</ele>
        <time>2023-08-19T01:37:46.300Z</time>
      </trkpt>
      <trkpt lat="44.88732" lon="5.18399">
        <ele>935.215484</ele>
        <time>2023-08-19T01:37:46.752Z</time>
      </trkpt>
      <trkpt lat="44.88714" lon="5.18453">
        <ele>934.932595</ele>
        <time>2023-08-19T01:37:51.101Z</time>
      </trkpt>
      <trkpt lat="44.88711" lon="5.18468">
        <ele>934.859718</ele>
        <time>2023-08-19T01:37:52.191Z</time>
      </trkpt>
      <trkpt lat="44.88712" lon="5.1848">
        <ele>934.801201</ele>
        <time>2023-08-19T01:37:53.094Z</time>
      </trkpt>
      <trkpt lat="44.88722" lon="5.18496">
        <ele>934.705472</ele>
        <time>2023-08-19T01:37:54.512Z</time>
      </trkpt>
      <trkpt lat="44.888" lon="5.18563">
        <ele>934.059877</ele>
        <time>2023-08-19T01:38:03.874Z</time>
      </trkpt>
      <trkpt lat="44.88886" lon="5.1863">
        <ele>932.980972</ele>
        <time>2023-08-19T01:38:13.371Z</time>
      </trkpt>
      <trkpt lat="44.8897" lon="5.18706">
        <ele>931.990259</ele>
        <time>2023-08-19T01:38:22.848Z</time>
      </trkpt>
      <trkpt lat="44.89172" lon="5.18894">
        <ele>930.316375</ele>
        <time>2023-08-19T01:38:47.861Z</time>
      </trkpt>
      <trkpt lat="44.89221" lon="5.18936">
        <ele>929.967582</ele>
        <time>2023-08-19T01:38:54.007Z</time>
      </trkpt>
      <trkpt lat="44.89294" lon="5.18987">
        <ele>929.352941</ele>
        <time>2023-08-19T01:39:02.314Z</time>
      </trkpt>
      <trkpt lat="44.89312" lon="5.18999">
        <ele>929.177338</ele>
        <time>2023-08-19T01:39:04.388Z</time>
      </trkpt>
      <trkpt lat="44.89512" lon="5.1911">
        <ele>927.26032</ele>
        <time>2023-08-19T01:39:25.372Z</time>
      </trkpt>
      <trkpt lat="44.89566" lon="5.19143">
        <ele>926.720553</ele>
        <time>2023-08-19T01:39:31.162Z</time>
      </trkpt>
      <trkpt lat="44.89704" lon="5.19234">
        <ele>925.727509</ele>
        <time>2023-08-19T01:39:47.061Z</time>
      </trkpt>
      <trkpt lat="44.89778" lon="5.19278">
        <ele>925.168774</ele>
        <time>2023-08-19T01:39:55.639Z</time>
      </trkpt>
      <trkpt lat="44.89887" lon="5.19332">
        <ele>924.240953</ele>
        <time>2023-08-19T01:40:07.208Z</time>
      </trkpt>
      <trkpt lat="44.89925" lon="5.19346">
        <ele>923.937557</ele>
        <time>2023-08-19T01:40:10.973Z</time>
      </trkpt>
      <trkpt lat="44.89955" lon="5.19356">
        <ele>923.702163</ele>
        <time>2023-08-19T01:40:13.986Z</time>
      </trkpt>
      <trkpt lat="44.90099" lon="5.19391">
        <ele>922.619952</ele>
        <time>2023-08-19T01:40:28.944Z</time>
      </trkpt>
      <trkpt lat="44.9012" lon="5.19393">
        <ele>922.521807</ele>
        <time>2023-08-19T01:40:31.280Z</time>
      </trkpt>
      <trkpt lat="44.90144" lon="5.1939">
        <ele>922.411252</ele>
        <time>2023-08-19T01:40:33.842Z</time>
      </trkpt>
      <trkpt lat="44.90169" lon="5.19385">
        <ele>922.289447</ele>
        <time>2023-08-19T01:40:36.650Z</time>
      </trkpt>
      <trkpt lat="44.90229" lon="5.19364">
        <ele>922.0012</ele>
        <time>2023-08-19T01:40:43.221Z</time>
      </trkpt>
      <trkpt lat="44.9026" lon="5.1936">
        <ele>921.856626</ele>
        <time>2023-08-19T01:40:46.533Z</time>
      </trkpt>
      <trkpt lat="44.90365" lon="5.19363">
        <ele>921.144612</ele>
        <time>2023-08-19T01:40:57.460Z</time>
      </trkpt>
      <trkpt lat="44.90465" lon="5.19347">
        <ele>920.410524</ele>
        <time>2023-08-19T01:41:07.532Z</time>
      </trkpt>
      <trkpt lat="44.90651" lon="5.19283">
        <ele>918.524406</ele>
        <time>2023-08-19T01:41:26.646Z</time>
      </trkpt>
      <trkpt lat="44.90719" lon="5.19264">
        <ele>917.40291</ele>
        <time>2023-08-19T01:41:33.149Z</time>
      </trkpt>
      <trkpt lat="44.90909" lon="5.19224">
        <ele>914.227683</ele>
        <time>2023-08-19T01:41:49.914Z</time>
      </trkpt>
      <trkpt lat="44.9096" lon="5.19209">
        <ele>913.35926</ele>
        <time>2023-08-19T01:41:54.585Z</time>
      </trkpt>
      <trkpt lat="44.90988" lon="5.19211">
        <ele>913.03215</ele>
        <time>2023-08-19T01:41:57.386Z</time>
      </trkpt>
      <trkpt lat="44.91038" lon="5.19224">
        <ele>912.942874</ele>
        <time>2023-08-19T01:42:03.057Z</time>
      </trkpt>
      <trkpt lat="44.91065" lon="5.19232">
        <ele>912.892742</ele>
        <time>2023-08-19T01:42:06.735Z</time>
      </trkpt>
      <trkpt lat="44.91112" lon="5.19246">
        <ele>912.808897</ele>
        <time>2023-08-19T01:42:12.257Z</time>
      </trkpt>
      <trkpt lat="44.91203" lon="5.19261">
        <ele>913.594698</ele>
        <time>2023-08-19T01:42:23.331Z</time>
      </trkpt>
      <trkpt lat="44.91205" lon="5.19318">
        <ele>914.31915</ele>
        <time>2023-08-19T01:42:29.888Z</time>
      </trkpt>
      <trkpt lat="44.91205" lon="5.19361">
        <ele>914.862476</ele>
        <time>2023-08-19T01:42:36.102Z</time>
      </trkpt>
      <trkpt lat="44.91202" lon="5.19385">
        <ele>915.183265</ele>
        <time>2023-08-19T01:42:39.807Z</time>
      </trkpt>
      <trkpt lat="44.91193" lon="5.19423">
        <ele>915.687698</ele>
        <time>2023-08-19T01:42:45.745Z</time>
      </trkpt>
      <trkpt lat="44.91189" lon="5.19452">
        <ele>916.258544</ele>
        <time>2023-08-19T01:42:50.024Z</time>
      </trkpt>
      <trkpt lat="44.91186" lon="5.19504">
        <ele>918.169976</ele>
        <time>2023-08-19T01:42:57.937Z</time>
      </trkpt>
      <trkpt lat="44.9119" lon="5.19538">
        <ele>919.444018</ele>
        <time>2023-08-19T01:43:04.328Z</time>
      </trkpt>
      <trkpt lat="44.91196" lon="5.19551">
        <ele>920.001784</ele>
        <time>2023-08-19T01:43:07.134Z</time>
      </trkpt>
      <trkpt lat="44.91211" lon="5.19565">
        <ele>920.968465</ele>
        <time>2023-08-19T01:43:12.885Z</time>
      </trkpt>
      <trkpt lat="44.91245" lon="5.19572">
        <ele>922.74956</ele>
        <time>2023-08-19T01:43:23.988Z</time>
      </trkpt>
      <trkpt lat="44.913" lon="5.19581">
        <ele>925.768694</ele>
        <time>2023-08-19T01:43:42.711Z</time>
      </trkpt>
      <trkpt lat="44.91315" lon="5.19586">
        <ele>926.909894</ele>
        <time>2023-08-19T01:43:48.224Z</time>
      </trkpt>
      <trkpt lat="44.91368" lon="5.19624">
        <ele>931.397655</ele>
        <time>2023-08-19T01:44:07.400Z</time>
      </trkpt>
      <trkpt lat="44.91378" lon="5.19625">
        <ele>932.130918</ele>
        <time>2023-08-19T01:44:10.741Z</time>
      </trkpt>
      <trkpt lat="44.91414" lon="5.19613">
        <ele>934.966574</ele>
        <time>2023-08-19T01:44:23.912Z</time>
      </trkpt>
      <trkpt lat="44.91438" lon="5.1961">
        <ele>936.742546</ele>
        <time>2023-08-19T01:44:32.481Z</time>
      </trkpt>
      <trkpt lat="44.91511" lon="5.19623">
        <ele>943.961091</ele>
        <time>2023-08-19T01:45:03.732Z</time>
      </trkpt>
      <trkpt lat="44.91589" lon="5.19641">
        <ele>952.685631</ele>
        <time>2023-08-19T01:45:42.030Z</time>
      </trkpt>
      <trkpt lat="44.91656" lon="5.19677">
        <ele>960.603443</ele>
        <time>2023-08-19T01:46:19.019Z</time>
      </trkpt>
      <trkpt lat="44.91726" lon="5.19731">
        <ele>969.852439</ele>
        <time>2023-08-19T01:46:59.709Z</time>
      </trkpt>
      <trkpt lat="44.91744" lon="5.19741">
        <ele>972.04849</ele>
        <time>2023-08-19T01:47:09.222Z</time>
      </trkpt>
      <trkpt lat="44.91773" lon="5.19751">
        <ele>975.44983</ele>
        <time>2023-08-19T01:47:24.073Z</time>
      </trkpt>
      <trkpt lat="44.91826" lon="5.19778">
        <ele>981.312587</ele>
        <time>2023-08-19T01:47:49.015Z</time>
      </trkpt>
      <trkpt lat="44.9185" lon="5.19786">
        <ele>983.355692</ele>
        <time>2023-08-19T01:47:58.530Z</time>
      </trkpt>
      <trkpt lat="44.91854" lon="5.19791">
        <ele>983.776917</ele>
        <time>2023-08-19T01:48:00.295Z</time>
      </trkpt>
      <trkpt lat="44.91855" lon="5.19798">
        <ele>984.227635</ele>
        <time>2023-08-19T01:48:02.724Z</time>
      </trkpt>
      <trkpt lat="44.91854" lon="5.19807">
        <ele>984.732741</ele>
        <time>2023-08-19T01:48:05.688Z</time>
      </trkpt>
      <trkpt lat="44.91851" lon="5.19812">
        <ele>985.150182</ele>
        <time>2023-08-19T01:48:07.630Z</time>
      </trkpt>
      <trkpt lat="44.91845" lon="5.19813">
        <ele>985.665254</ele>
        <time>2023-08-19T01:48:09.629Z</time>
      </trkpt>
      <trkpt lat="44.91814" lon="5.19802">
        <ele>988.306389</ele>
        <time>2023-08-19T01:48:21.225Z</time>
      </trkpt>
      <trkpt lat="44.91709" lon="5.19793">
        <ele>996.413767</ele>
        <time>2023-08-19T01:48:59.767Z</time>
      </trkpt>
      <trkpt lat="44.91666" lon="5.19794">
        <ele>999.040155</ele>
        <time>2023-08-19T01:49:13.221Z</time>
      </trkpt>
      <trkpt lat="44.91548" lon="5.19817">
        <ele>1006.237003</ele>
        <time>2023-08-19T01:49:48.094Z</time>
      </trkpt>
      <trkpt lat="44.91491" lon="5.19816">
        <ele>1009.631695</ele>
        <time>2023-08-19T01:50:04.427Z</time>
      </trkpt>
      <trkpt lat="44.91342" lon="5.19859">
        <ele>1019.689948</ele>
        <time>2023-08-19T01:50:52.586Z</time>
      </trkpt>
      <trkpt lat="44.91337" lon="5.19864">
        <ele>1020.191039</ele>
        <time>2023-08-19T01:50:54.847Z</time>
      </trkpt>
      <trkpt lat="44.91338" lon="5.19882">
        <ele>1021.217833</ele>
        <time>2023-08-19T01:50:59.493Z</time>
      </trkpt>
      <trkpt lat="44.91342" lon="5.19886">
        <ele>1021.634434</ele>
        <time>2023-08-19T01:51:01.408Z</time>
      </trkpt>
      <trkpt lat="44.91348" lon="5.19887">
        <ele>1022.141852</ele>
        <time>2023-08-19T01:51:03.718Z</time>
      </trkpt>
      <trkpt lat="44.91376" lon="5.19871">
        <ele>1024.685385</ele>
        <time>2023-08-19T01:51:15.678Z</time>
      </trkpt>
      <trkpt lat="44.91417" lon="5.19871">
        <ele>1028.112135</ele>
        <time>2023-08-19T01:51:32.520Z</time>
      </trkpt>
      <trkpt lat="44.91436" lon="5.19873">
        <ele>1029.747656</ele>
        <time>2023-08-19T01:51:40.883Z</time>
      </trkpt>
      <trkpt lat="44.91472" lon="5.19881">
        <ele>1033.248118</ele>
        <time>2023-08-19T01:51:56.887Z</time>
      </trkpt>
      <trkpt lat="44.91532" lon="5.19883">
        <ele>1039.829952</ele>
        <time>2023-08-19T01:52:25.295Z</time>
      </trkpt>
      <trkpt lat="44.91617" lon="5.19894">
        <ele>1049.122943</ele>
        <time>2023-08-19T01:53:06.029Z</time>
      </trkpt>
      <trkpt lat="44.91641" lon="5.19903">
        <ele>1051.970142</ele>
        <time>2023-08-19T01:53:18.172Z</time>
      </trkpt>
      <trkpt lat="44.91756" lon="5.19959">
        <ele>1066.061407</ele>
        <time>2023-08-19T01:54:16.695Z</time>
      </trkpt>
      <trkpt lat="44.91815" lon="5.19977">
        <ele>1072.787168</ele>
        <time>2023-08-19T01:54:47.389Z</time>
      </trkpt>
      <trkpt lat="44.91893" lon="5.20025">
        <ele>1081.290763</ele>
        <time>2023-08-19T01:55:30.778Z</time>
      </trkpt>
      <trkpt lat="44.91946" lon="5.20067">
        <ele>1087.328448</ele>
        <time>2023-08-19T01:55:55.756Z</time>
      </trkpt>
      <trkpt lat="44.92003" lon="5.2012">
        <ele>1090.974264</ele>
        <time>2023-08-19T01:56:16.353Z</time>
      </trkpt>
      <trkpt lat="44.92129" lon="5.20205">
        <ele>1095.156228</ele>
        <time>2023-08-19T01:56:39.394Z</time>
      </trkpt>
      <trkpt lat="44.92145" lon="5.20213">
        <ele>1095.932316</ele>
        <time>2023-08-19T01:56:42.029Z</time>
      </trkpt>
      <trkpt lat="44.92155" lon="5.20223">
        <ele>1096.453242</ele>
        <time>2023-08-19T01:56:44.047Z</time>
      </trkpt>
      <trkpt lat="44.92166" lon="5.20243">
        <ele>1097.248918</ele>
        <time>2023-08-19T01:56:47.502Z</time>
      </trkpt>
      <trkpt lat="44.92166" lon="5.20254">
        <ele>1097.595796</ele>
        <time>2023-08-19T01:56:49.115Z</time>
      </trkpt>
      <trkpt lat="44.92163" lon="5.20265">
        <ele>1097.938995</ele>
        <time>2023-08-19T01:56:50.905Z</time>
      </trkpt>
      <trkpt lat="44.92156" lon="5.20276">
        <ele>1098.408607</ele>
        <time>2023-08-19T01:56:53.654Z</time>
      </trkpt>
      <trkpt lat="44.92127" lon="5.20282">
        <ele>1099.680328</ele>
        <time>2023-08-19T01:57:01.075Z</time>
      </trkpt>
      <trkpt lat="44.92119" lon="5.20288">
        <ele>1100.071824</ele>
        <time>2023-08-19T01:57:03.735Z</time>
      </trkpt>
      <trkpt lat="44.9211" lon="5.20304">
        <ele>1100.708628</ele>
        <time>2023-08-19T01:57:07.850Z</time>
      </trkpt>
      <trkpt lat="44.92086" lon="5.20372">
        <ele>1103.222015</ele>
        <time>2023-08-19T01:57:25.966Z</time>
      </trkpt>
      <trkpt lat="44.92057" lon="5.2043">
        <ele>1106.794214</ele>
        <time>2023-08-19T01:57:45.981Z</time>
      </trkpt>
      <trkpt lat="44.92025" lon="5.20582">
        <ele>1114.726734</ele>
        <time>2023-08-19T01:58:25.312Z</time>
      </trkpt>
      <trkpt lat="44.92018" lon="5.20602">
        <ele>1115.827836</ele>
        <time>2023-08-19T01:58:30.020Z</time>
      </trkpt>
      <trkpt lat="44.91999" lon="5.20631">
        <ele>1117.478527</ele>
        <time>2023-08-19T01:58:37.946Z</time>
      </trkpt>
      <trkpt lat="44.91979" lon="5.2065">
        <ele>1118.852743</ele>
        <time>2023-08-19T01:58:44.514Z</time>
      </trkpt>
      <trkpt lat="44.91959" lon="5.20676">
        <ele>1120.465629</ele>
        <time>2023-08-19T01:58:52.428Z</time>
      </trkpt>
      <trkpt lat="44.91922" lon="5.20751">
        <ele>1124.262949</ele>
        <time>2023-08-19T01:59:12.151Z</time>
      </trkpt>
      <trkpt lat="44.91895" lon="5.20783">
        <ele>1126.355609</ele>
        <time>2023-08-19T01:59:23.588Z</time>
      </trkpt>
      <trkpt lat="44.91841" lon="5.20816">
        <ele>1130.327768</ele>
        <time>2023-08-19T01:59:42.711Z</time>
      </trkpt>
      <trkpt lat="44.91769" lon="5.20868">
        <ele>1135.777582</ele>
        <time>2023-08-19T02:00:09.805Z</time>
      </trkpt>
      <trkpt lat="44.91685" lon="5.20936">
        <ele>1142.786378</ele>
        <time>2023-08-19T02:00:44.090Z</time>
      </trkpt>
      <trkpt lat="44.91663" lon="5.20949">
        <ele>1144.630942</ele>
        <time>2023-08-19T02:00:52.788Z</time>
      </trkpt>
      <trkpt lat="44.91642" lon="5.20957">
        <ele>1146.214888</ele>
        <time>2023-08-19T02:01:00.205Z</time>
      </trkpt>
      <trkpt lat="44.91624" lon="5.2096">
        <ele>1147.615175</ele>
        <time>2023-08-19T02:01:06.785Z</time>
      </trkpt>
      <trkpt lat="44.91572" lon="5.20956">
        <ele>1151.559831</ele>
        <time>2023-08-19T02:01:25.858Z</time>
      </trkpt>
      <trkpt lat="44.91485" lon="5.20959">
        <ele>1159.207262</ele>
        <time>2023-08-19T02:01:59.434Z</time>
      </trkpt>
      <trkpt lat="44.91465" lon="5.20954">
        <ele>1160.93572</ele>
        <time>2023-08-19T02:02:07.293Z</time>
      </trkpt>
      <trkpt lat="44.9137" lon="5.20894">
        <ele>1170.317008</ele>
        <time>2023-08-19T02:02:51.442Z</time>
      </trkpt>
      <trkpt lat="44.91325" lon="5.20864">
        <ele>1175.033808</ele>
        <time>2023-08-19T02:03:13.322Z</time>
      </trkpt>
      <trkpt lat="44.91264" lon="5.20825">
        <ele>1181.276248</ele>
        <time>2023-08-19T02:03:41.414Z</time>
      </trkpt>
      <trkpt lat="44.91238" lon="5.20816">
        <ele>1183.8044</ele>
        <time>2023-08-19T02:03:52.468Z</time>
      </trkpt>
      <trkpt lat="44.91216" lon="5.20814">
        <ele>1185.555879</ele>
        <time>2023-08-19T02:04:01.304Z</time>
      </trkpt>
      <trkpt lat="44.91194" lon="5.20815">
        <ele>1187.067442</ele>
        <time>2023-08-19T02:04:09.999Z</time>
      </trkpt>
      <trkpt lat="44.91167" lon="5.20821">
        <ele>1188.994676</ele>
        <time>2023-08-19T02:04:20.632Z</time>
      </trkpt>
      <trkpt lat="44.91145" lon="5.20833">
        <ele>1190.604567</ele>
        <time>2023-08-19T02:04:28.993Z</time>
      </trkpt>
      <trkpt lat="44.9112" lon="5.20859">
        <ele>1192.748594</ele>
        <time>2023-08-19T02:04:39.496Z</time>
      </trkpt>
      <trkpt lat="44.911" lon="5.20892">
        <ele>1194.859625</ele>
        <time>2023-08-19T02:04:49.049Z</time>
      </trkpt>
      <trkpt lat="44.91086" lon="5.20925">
        <ele>1196.78772</ele>
        <time>2023-08-19T02:04:56.920Z</time>
      </trkpt>
      <trkpt lat="44.91075" lon="5.20979">
        <ele>1198.195108</ele>
        <time>2023-08-19T02:05:06.847Z</time>
      </trkpt>
      <trkpt lat="44.91061" lon="5.21072">
        <ele>1200.267227</ele>
        <time>2023-08-19T02:05:22.024Z</time>
      </trkpt>
      <trkpt lat="44.91063" lon="5.21155">
        <ele>1202.069652</ele>
        <time>2023-08-19T02:05:32.888Z</time>
      </trkpt>
      <trkpt lat="44.91062" lon="5.21179">
        <ele>1202.60035</ele>
        <time>2023-08-19T02:05:35.633Z</time>
      </trkpt>
      <trkpt lat="44.91056" lon="5.21209">
        <ele>1203.59982</ele>
        <time>2023-08-19T02:05:39.237Z</time>
      </trkpt>
      <trkpt lat="44.91048" lon="5.21231">
        <ele>1204.412846</ele>
        <time>2023-08-19T02:05:42.097Z</time>
      </trkpt>
      <trkpt lat="44.91034" lon="5.21257">
        <ele>1205.495157</ele>
        <time>2023-08-19T02:05:46.443Z</time>
      </trkpt>
      <trkpt lat="44.91015" lon="5.21284">
        <ele>1206.749618</ele>
        <time>2023-08-19T02:05:52.731Z</time>
      </trkpt>
      <trkpt lat="44.90981" lon="5.21334">
        <ele>1209.077856</ele>
        <time>2023-08-19T02:06:06.136Z</time>
      </trkpt>
      <trkpt lat="44.9095" lon="5.21369">
        <ele>1210.937801</ele>
        <time>2023-08-19T02:06:21.045Z</time>
      </trkpt>
      <trkpt lat="44.90927" lon="5.21382">
        <ele>1213.308602</ele>
        <time>2023-08-19T02:06:31.451Z</time>
      </trkpt>
      <trkpt lat="44.90901" lon="5.21391">
        <ele>1216.11626</ele>
        <time>2023-08-19T02:06:43.427Z</time>
      </trkpt>
      <trkpt lat="44.90891" lon="5.21397">
        <ele>1217.241289</ele>
        <time>2023-08-19T02:06:48.073Z</time>
      </trkpt>
      <trkpt lat="44.90881" lon="5.21409">
        <ele>1218.615108</ele>
        <time>2023-08-19T02:06:53.722Z</time>
      </trkpt>
      <trkpt lat="44.90873" lon="5.21422">
        <ele>1219.863726</ele>
        <time>2023-08-19T02:06:59.197Z</time>
      </trkpt>
      <trkpt lat="44.90864" lon="5.21444">
        <ele>1221.774367</ele>
        <time>2023-08-19T02:07:07.368Z</time>
      </trkpt>
      <trkpt lat="44.90861" lon="5.21458">
        <ele>1222.833588</ele>
        <time>2023-08-19T02:07:11.851Z</time>
      </trkpt>
      <trkpt lat="44.90864" lon="5.21491">
        <ele>1225.320519</ele>
        <time>2023-08-19T02:07:23.308Z</time>
      </trkpt>
      <trkpt lat="44.90873" lon="5.21516">
        <ele>1227.355289</ele>
        <time>2023-08-19T02:07:32.609Z</time>
      </trkpt>
      <trkpt lat="44.90893" lon="5.21546">
        <ele>1230.342496</ele>
        <time>2023-08-19T02:07:47.310Z</time>
      </trkpt>
      <trkpt lat="44.90913" lon="5.21566">
        <ele>1232.765528</ele>
        <time>2023-08-19T02:08:01.110Z</time>
      </trkpt>
      <trkpt lat="44.90933" lon="5.21579">
        <ele>1234.957436</ele>
        <time>2023-08-19T02:08:13.301Z</time>
      </trkpt>
      <trkpt lat="44.90974" lon="5.21596">
        <ele>1239.185206</ele>
        <time>2023-08-19T02:08:33.628Z</time>
      </trkpt>
      <trkpt lat="44.9099" lon="5.21617">
        <ele>1241.335595</ele>
        <time>2023-08-19T02:08:42.970Z</time>
      </trkpt>
      <trkpt lat="44.90993" lon="5.21631">
        <ele>1242.341819</ele>
        <time>2023-08-19T02:08:46.207Z</time>
      </trkpt>
      <trkpt lat="44.90992" lon="5.2165">
        <ele>1243.684284</ele>
        <time>2023-08-19T02:08:50.825Z</time>
      </trkpt>
      <trkpt lat="44.90979" lon="5.21698">
        <ele>1247.26284</ele>
        <time>2023-08-19T02:09:02.778Z</time>
      </trkpt>
      <trkpt lat="44.90979" lon="5.21711">
        <ele>1248.005502</ele>
        <time>2023-08-19T02:09:06.265Z</time>
      </trkpt>
      <trkpt lat="44.90984" lon="5.21721">
        <ele>1248.60136</ele>
        <time>2023-08-19T02:09:08.924Z</time>
      </trkpt>
      <trkpt lat="44.90991" lon="5.21728">
        <ele>1249.23317</ele>
        <time>2023-08-19T02:09:11.485Z</time>
      </trkpt>
      <trkpt lat="44.91042" lon="5.21746">
        <ele>1252.826373</ele>
        <time>2023-08-19T02:09:29.927Z</time>
      </trkpt>
      <trkpt lat="44.91057" lon="5.21755">
        <ele>1253.968714</ele>
        <time>2023-08-19T02:09:35.690Z</time>
      </trkpt>
      <trkpt lat="44.91145" lon="5.2183">
        <ele>1261.505207</ele>
        <time>2023-08-19T02:10:09.221Z</time>
      </trkpt>
      <trkpt lat="44.91161" lon="5.21875">
        <ele>1264.991049</ele>
        <time>2023-08-19T02:10:21.953Z</time>
      </trkpt>
      <trkpt lat="44.91206" lon="5.21968">
        <ele>1272.701035</ele>
        <time>2023-08-19T02:10:58.521Z</time>
      </trkpt>
      <trkpt lat="44.91214" lon="5.21987">
        <ele>1274.204262</ele>
        <time>2023-08-19T02:11:06.465Z</time>
      </trkpt>
      <trkpt lat="44.91218" lon="5.22014">
        <ele>1276.085444</ele>
        <time>2023-08-19T02:11:15.951Z</time>
      </trkpt>
      <trkpt lat="44.91216" lon="5.221">
        <ele>1281.542226</ele>
        <time>2023-08-19T02:11:44.839Z</time>
      </trkpt>
      <trkpt lat="44.91221" lon="5.22182">
        <ele>1286.644975</ele>
        <time>2023-08-19T02:12:09.947Z</time>
      </trkpt>
      <trkpt lat="44.91229" lon="5.22204">
        <ele>1288.206054</ele>
        <time>2023-08-19T02:12:16.757Z</time>
      </trkpt>
      <trkpt lat="44.9131" lon="5.22309">
        <ele>1294.270604</ele>
        <time>2023-08-19T02:12:51.096Z</time>
      </trkpt>
      <trkpt lat="44.91324" lon="5.22341">
        <ele>1294.834198</ele>
        <time>2023-08-19T02:12:56.523Z</time>
      </trkpt>
      <trkpt lat="44.91385" lon="5.22524">
        <ele>1295.628427</ele>
        <time>2023-08-19T02:13:13.069Z</time>
      </trkpt>
      <trkpt lat="44.91393" lon="5.22574">
        <ele>1294.499828</ele>
        <time>2023-08-19T02:13:15.998Z</time>
      </trkpt>
      <trkpt lat="44.91395" lon="5.22609">
        <ele>1293.718152</ele>
        <time>2023-08-19T02:13:17.941Z</time>
      </trkpt>
      <trkpt lat="44.91391" lon="5.22636">
        <ele>1293.102075</ele>
        <time>2023-08-19T02:13:19.451Z</time>
      </trkpt>
      <trkpt lat="44.91383" lon="5.22657">
        <ele>1292.582787</ele>
        <time>2023-08-19T02:13:20.721Z</time>
      </trkpt>
      <trkpt lat="44.91349" lon="5.22703">
        <ele>1291.181415</ele>
        <time>2023-08-19T02:13:24.279Z</time>
      </trkpt>
      <trkpt lat="44.91332" lon="5.22735">
        <ele>1290.533344</ele>
        <time>2023-08-19T02:13:26.484Z</time>
      </trkpt>
      <trkpt lat="44.9132" lon="5.22746">
        <ele>1290.22824</ele>
        <time>2023-08-19T02:13:27.532Z</time>
      </trkpt>
      <trkpt lat="44.91308" lon="5.22751">
        <ele>1289.932457</ele>
        <time>2023-08-19T02:13:28.550Z</time>
      </trkpt>
      <trkpt lat="44.91293" lon="5.22748">
        <ele>1289.602231</ele>
        <time>2023-08-19T02:13:29.713Z</time>
      </trkpt>
      <trkpt lat="44.91239" lon="5.22729">
        <ele>1288.340899</ele>
        <time>2023-08-19T02:13:34.427Z</time>
      </trkpt>
      <trkpt lat="44.91165" lon="5.22693">
        <ele>1288.127282</ele>
        <time>2023-08-19T02:13:46.024Z</time>
      </trkpt>
      <trkpt lat="44.91119" lon="5.22664">
        <ele>1289.400708</ele>
        <time>2023-08-19T02:13:57.865Z</time>
      </trkpt>
      <trkpt lat="44.91101" lon="5.22655">
        <ele>1289.893302</ele>
        <time>2023-08-19T02:14:02.229Z</time>
      </trkpt>
      <trkpt lat="44.91081" lon="5.2265">
        <ele>1290.407142</ele>
        <time>2023-08-19T02:14:06.801Z</time>
      </trkpt>
      <trkpt lat="44.91035" lon="5.22647">
        <ele>1291.59781</ele>
        <time>2023-08-19T02:14:16.628Z</time>
      </trkpt>
      <trkpt lat="44.91" lon="5.22649">
        <ele>1292.282327</ele>
        <time>2023-08-19T02:14:23.774Z</time>
      </trkpt>
      <trkpt lat="44.90988" lon="5.22654">
        <ele>1292.492421</ele>
        <time>2023-08-19T02:14:26.133Z</time>
      </trkpt>
      <trkpt lat="44.90973" lon="5.22667">
        <ele>1292.794765</ele>
        <time>2023-08-19T02:14:29.668Z</time>
      </trkpt>
      <trkpt lat="44.90951" lon="5.22698">
        <ele>1293.31305</ele>
        <time>2023-08-19T02:14:35.384Z</time>
      </trkpt>
      <trkpt lat="44.90934" lon="5.2271">
        <ele>1293.634565</ele>
        <time>2023-08-19T02:14:38.694Z</time>
      </trkpt>
      <trkpt lat="44.90914" lon="5.22714">
        <ele>1293.975747</ele>
        <time>2023-08-19T02:14:41.975Z</time>
      </trkpt>
      <trkpt lat="44.90896" lon="5.22713">
        <ele>1294.280894</ele>
        <time>2023-08-19T02:14:44.743Z</time>
      </trkpt>
      <trkpt lat="44.90839" lon="5.22688">
        <ele>1295.220525</ele>
        <time>2023-08-19T02:14:52.446Z</time>
      </trkpt>
      <trkpt lat="44.90767" lon="5.22695">
        <ele>1296.209458</ele>
        <time>2023-08-19T02:15:03.091Z</time>
      </trkpt>
      <trkpt lat="44.90706" lon="5.22696">
        <ele>1297.047761</ele>
        <time>2023-08-19T02:15:13.692Z</time>
      </trkpt>
      <trkpt lat="44.90649" lon="5.22703">
        <ele>1298.516178</ele>
        <time>2023-08-19T02:15:24.662Z</time>
      </trkpt>
      <trkpt lat="44.90622" lon="5.22701">
        <ele>1299.471911</ele>
        <time>2023-08-19T02:15:30.466Z</time>
      </trkpt>
      <trkpt lat="44.90599" lon="5.22694">
        <ele>1300.277537</ele>
        <time>2023-08-19T02:15:35.602Z</time>
      </trkpt>
      <trkpt lat="44.90542" lon="5.22658">
        <ele>1302.468792</ele>
        <time>2023-08-19T02:15:50.964Z</time>
      </trkpt>
      <trkpt lat="44.90532" lon="5.22648">
        <ele>1302.903095</ele>
        <time>2023-08-19T02:15:54.113Z</time>
      </trkpt>
      <trkpt lat="44.90513" lon="5.22615">
        <ele>1304.042936</ele>
        <time>2023-08-19T02:16:01.843Z</time>
      </trkpt>
      <trkpt lat="44.90504" lon="5.22605">
        <ele>1304.637132</ele>
        <time>2023-08-19T02:16:05.052Z</time>
      </trkpt>
      <trkpt lat="44.90494" lon="5.226">
        <ele>1305.192027</ele>
        <time>2023-08-19T02:16:08.148Z</time>
      </trkpt>
      <trkpt lat="44.90458" lon="5.22592">
        <ele>1306.982754</ele>
        <time>2023-08-19T02:16:18.255Z</time>
      </trkpt>
      <trkpt lat="44.90414" lon="5.22563">
        <ele>1309.41358</ele>
        <time>2023-08-19T02:16:32.384Z</time>
      </trkpt>
      <trkpt lat="44.90345" lon="5.22558">
        <ele>1312.848652</ele>
        <time>2023-08-19T02:16:52.113Z</time>
      </trkpt>
      <trkpt lat="44.90328" lon="5.2255">
        <ele>1313.680956</ele>
        <time>2023-08-19T02:16:56.930Z</time>
      </trkpt>
      <trkpt lat="44.90301" lon="5.22518">
        <ele>1315.345605</ele>
        <time>2023-08-19T02:17:06.118Z</time>
      </trkpt>
      <trkpt lat="44.90285" lon="5.2249">
        <ele>1316.529308</ele>
        <time>2023-08-19T02:17:12.758Z</time>
      </trkpt>
      <trkpt lat="44.90269" lon="5.22474">
        <ele>1317.463987</ele>
        <time>2023-08-19T02:17:18.093Z</time>
      </trkpt>
      <trkpt lat="44.9023" lon="5.22464">
        <ele>1319.295876</ele>
        <time>2023-08-19T02:17:28.685Z</time>
      </trkpt>
      <trkpt lat="44.90216" lon="5.22457">
        <ele>1319.982785</ele>
        <time>2023-08-19T02:17:32.640Z</time>
      </trkpt>
      <trkpt lat="44.90181" lon="5.22428">
        <ele>1321.954032</ele>
        <time>2023-08-19T02:17:43.401Z</time>
      </trkpt>
      <trkpt lat="44.9014" lon="5.22385">
        <ele>1324.547278</ele>
        <time>2023-08-19T02:17:56.734Z</time>
      </trkpt>
      <trkpt lat="44.90119" lon="5.22369">
        <ele>1325.773472</ele>
        <time>2023-08-19T02:18:03.286Z</time>
      </trkpt>
      <trkpt lat="44.90096" lon="5.22352">
        <ele>1327.121639</ele>
        <time>2023-08-19T02:18:10.749Z</time>
      </trkpt>
      <trkpt lat="44.90075" lon="5.22342">
        <ele>1328.252092</ele>
        <time>2023-08-19T02:18:17.123Z</time>
      </trkpt>
      <trkpt lat="44.9004" lon="5.2233">
        <ele>1330.090881</ele>
        <time>2023-08-19T02:18:28.057Z</time>
      </trkpt>
      <trkpt lat="44.90026" lon="5.22329">
        <ele>1330.820844</ele>
        <time>2023-08-19T02:18:32.506Z</time>
      </trkpt>
      <trkpt lat="44.89998" lon="5.22334">
        <ele>1332.288217</ele>
        <time>2023-08-19T02:18:41.286Z</time>
      </trkpt>
      <trkpt lat="44.89973" lon="5.22351">
        <ele>1333.770625</ele>
        <time>2023-08-19T02:18:50.343Z</time>
      </trkpt>
      <trkpt lat="44.89955" lon="5.22379">
        <ele>1335.185418</ele>
        <time>2023-08-19T02:18:59.025Z</time>
      </trkpt>
      <trkpt lat="44.89908" lon="5.22529">
        <ele>1339.74327</ele>
        <time>2023-08-19T02:19:30.403Z</time>
      </trkpt>
      <trkpt lat="44.89901" lon="5.22582">
        <ele>1339.734516</ele>
        <time>2023-08-19T02:19:36.808Z</time>
      </trkpt>
      <trkpt lat="44.89899" lon="5.22682">
        <ele>1339.718179</ele>
        <time>2023-08-19T02:19:44.482Z</time>
      </trkpt>
      <trkpt lat="44.89907" lon="5.22729">
        <ele>1339.710233</ele>
        <time>2023-08-19T02:19:47.417Z</time>
      </trkpt>
      <trkpt lat="44.89912" lon="5.22746">
        <ele>1339.1341</ele>
        <time>2023-08-19T02:19:48.452Z</time>
      </trkpt>
      <trkpt lat="44.89932" lon="5.22803">
        <ele>1335.146088</ele>
        <time>2023-08-19T02:19:51.738Z</time>
      </trkpt>
      <trkpt lat="44.89937" lon="5.22826">
        <ele>1333.675875</ele>
        <time>2023-08-19T02:19:52.900Z</time>
      </trkpt>
      <trkpt lat="44.89939" lon="5.22864">
        <ele>1331.266494</ele>
        <time>2023-08-19T02:19:54.765Z</time>
      </trkpt>
      <trkpt lat="44.89935" lon="5.22899">
        <ele>1328.989154</ele>
        <time>2023-08-19T02:19:56.510Z</time>
      </trkpt>
      <trkpt lat="44.89931" lon="5.22917">
        <ele>1327.840481</ele>
        <time>2023-08-19T02:19:57.388Z</time>
      </trkpt>
      <trkpt lat="44.89915" lon="5.2297">
        <ele>1324.209022</ele>
        <time>2023-08-19T02:20:00.162Z</time>
      </trkpt>
      <trkpt lat="44.89888" lon="5.23068">
        <ele>1318.398844</ele>
        <time>2023-08-19T02:20:05.217Z</time>
      </trkpt>
      <trkpt lat="44.89857" lon="5.23205">
        <ele>1310.597022</ele>
        <time>2023-08-19T02:20:12.361Z</time>
      </trkpt>
      <trkpt lat="44.89818" lon="5.23324">
        <ele>1315.326917</ele>
        <time>2023-08-19T02:20:36.715Z</time>
      </trkpt>
      <trkpt lat="44.89811" lon="5.23339">
        <ele>1316.181078</ele>
        <time>2023-08-19T02:20:41.634Z</time>
      </trkpt>
      <trkpt lat="44.89783" lon="5.23374">
        <ele>1318.56929</ele>
        <time>2023-08-19T02:20:58.241Z</time>
      </trkpt>
      <trkpt lat="44.89777" lon="5.23385">
        <ele>1319.236814</ele>
        <time>2023-08-19T02:21:03.629Z</time>
      </trkpt>
      <trkpt lat="44.89789" lon="5.23441">
        <ele>1321.987832</ele>
        <time>2023-08-19T02:21:24.256Z</time>
      </trkpt>
      <trkpt lat="44.89788" lon="5.23495">
        <ele>1324.876457</ele>
        <time>2023-08-19T02:21:42.490Z</time>
      </trkpt>
      <trkpt lat="44.89792" lon="5.23567">
        <ele>1328.732189</ele>
        <time>2023-08-19T02:22:04.845Z</time>
      </trkpt>
      <trkpt lat="44.89801" lon="5.2364">
        <ele>1332.702436</ele>
        <time>2023-08-19T02:22:21.385Z</time>
      </trkpt>
      <trkpt lat="44.89777" lon="5.23713">
        <ele>1334.92221</ele>
        <time>2023-08-19T02:22:32.519Z</time>
      </trkpt>
      <trkpt lat="44.89774" lon="5.23731">
        <ele>1334.817213</ele>
        <time>2023-08-19T02:22:34.540Z</time>
      </trkpt>
      <trkpt lat="44.89782" lon="5.23804">
        <ele>1334.396918</ele>
        <time>2023-08-19T02:22:40.934Z</time>
      </trkpt>
      <trkpt lat="44.89783" lon="5.23829">
        <ele>1334.254038</ele>
        <time>2023-08-19T02:22:42.548Z</time>
      </trkpt>
      <trkpt lat="44.89781" lon="5.23847">
        <ele>1334.148258</ele>
        <time>2023-08-19T02:22:43.690Z</time>
      </trkpt>
      <trkpt lat="44.89776" lon="5.23859">
        <ele>1334.072906</ele>
        <time>2023-08-19T02:22:44.437Z</time>
      </trkpt>
      <trkpt lat="44.89765" lon="5.23875">
        <ele>1333.943398</ele>
        <time>2023-08-19T02:22:45.754Z</time>
      </trkpt>
      <trkpt lat="44.89756" lon="5.23898">
        <ele>1333.796181</ele>
        <time>2023-08-19T02:22:47.205Z</time>
      </trkpt>
      <trkpt lat="44.8975" lon="5.23923">
        <ele>1333.407383</ele>
        <time>2023-08-19T02:22:48.698Z</time>
      </trkpt>
      <trkpt lat="44.89751" lon="5.23937">
        <ele>1332.721841</ele>
        <time>2023-08-19T02:22:49.506Z</time>
      </trkpt>
      <trkpt lat="44.89771" lon="5.23975">
        <ele>1330.490885</ele>
        <time>2023-08-19T02:22:52.092Z</time>
      </trkpt>
      <trkpt lat="44.89782" lon="5.24001">
        <ele>1329.034662</ele>
        <time>2023-08-19T02:22:53.755Z</time>
      </trkpt>
      <trkpt lat="44.89791" lon="5.24035">
        <ele>1327.320256</ele>
        <time>2023-08-19T02:22:55.675Z</time>
      </trkpt>
      <trkpt lat="44.89795" lon="5.24061">
        <ele>1326.077268</ele>
        <time>2023-08-19T02:22:57.029Z</time>
      </trkpt>
      <trkpt lat="44.89794" lon="5.24118">
        <ele>1323.382528</ele>
        <time>2023-08-19T02:22:59.864Z</time>
      </trkpt>
      <trkpt lat="44.89795" lon="5.24151">
        <ele>1321.855249</ele>
        <time>2023-08-19T02:23:01.431Z</time>
      </trkpt>
      <trkpt lat="44.89798" lon="5.24176">
        <ele>1320.547266</ele>
        <time>2023-08-19T02:23:02.654Z</time>
      </trkpt>
      <trkpt lat="44.89806" lon="5.24214">
        <ele>1318.433655</ele>
        <time>2023-08-19T02:23:04.607Z</time>
      </trkpt>
      <trkpt lat="44.89829" lon="5.24277">
        <ele>1314.773506</ele>
        <time>2023-08-19T02:23:08.052Z</time>
      </trkpt>
      <trkpt lat="44.89865" lon="5.24345">
        <ele>1310.336484</ele>
        <time>2023-08-19T02:23:12.534Z</time>
      </trkpt>
      <trkpt lat="44.89867" lon="5.24363">
        <ele>1309.36542</ele>
        <time>2023-08-19T02:23:13.556Z</time>
      </trkpt>
      <trkpt lat="44.89859" lon="5.24424">
        <ele>1307.633598</ele>
        <time>2023-08-19T02:23:17.136Z</time>
      </trkpt>
      <trkpt lat="44.89861" lon="5.2444">
        <ele>1307.340522</ele>
        <time>2023-08-19T02:23:18.093Z</time>
      </trkpt>
      <trkpt lat="44.8987" lon="5.24456">
        <ele>1306.968123</ele>
        <time>2023-08-19T02:23:19.269Z</time>
      </trkpt>
      <trkpt lat="44.89864" lon="5.24534">
        <ele>1305.522948</ele>
        <time>2023-08-19T02:23:23.971Z</time>
      </trkpt>
      <trkpt lat="44.89865" lon="5.24557">
        <ele>1305.109642</ele>
        <time>2023-08-19T02:23:25.381Z</time>
      </trkpt>
      <trkpt lat="44.89869" lon="5.2458">
        <ele>1304.662017</ele>
        <time>2023-08-19T02:23:27.129Z</time>
      </trkpt>
      <trkpt lat="44.8988" lon="5.24602">
        <ele>1304.179996</ele>
        <time>2023-08-19T02:23:29.073Z</time>
      </trkpt>
      <trkpt lat="44.89894" lon="5.24623">
        <ele>1303.003898</ele>
        <time>2023-08-19T02:23:31.380Z</time>
      </trkpt>
      <trkpt lat="44.89944" lon="5.24677">
        <ele>1295.063497</ele>
        <time>2023-08-19T02:23:36.507Z</time>
      </trkpt>
      <trkpt lat="44.89961" lon="5.247">
        <ele>1292.095999</ele>
        <time>2023-08-19T02:23:38.124Z</time>
      </trkpt>
      <trkpt lat="44.8999" lon="5.24758">
        <ele>1285.72095</ele>
        <time>2023-08-19T02:23:41.447Z</time>
      </trkpt>
      <trkpt lat="44.90005" lon="5.24779">
        <ele>1283.027591</ele>
        <time>2023-08-19T02:23:42.836Z</time>
      </trkpt>
      <trkpt lat="44.90043" lon="5.24823">
        <ele>1271.3405</ele>
        <time>2023-08-19T02:23:46.064Z</time>
      </trkpt>
      <trkpt lat="44.90071" lon="5.24866">
        <ele>1259.247514</ele>
        <time>2023-08-19T02:23:48.799Z</time>
      </trkpt>
      <trkpt lat="44.901" lon="5.24895">
        <ele>1248.911355</ele>
        <time>2023-08-19T02:23:51.159Z</time>
      </trkpt>
      <trkpt lat="44.90112" lon="5.24905">
        <ele>1244.719906</ele>
        <time>2023-08-19T02:23:52.111Z</time>
      </trkpt>
      <trkpt lat="44.9013" lon="5.24913">
        <ele>1239.140313</ele>
        <time>2023-08-19T02:23:53.381Z</time>
      </trkpt>
      <trkpt lat="44.90161" lon="5.24915">
        <ele>1230.346948</ele>
        <time>2023-08-19T02:23:55.379Z</time>
      </trkpt>
      <trkpt lat="44.90174" lon="5.24909">
        <ele>1227.069364</ele>
        <time>2023-08-19T02:23:56.310Z</time>
      </trkpt>
      <trkpt lat="44.90196" lon="5.24888">
        <ele>1222.12176</ele>
        <time>2023-08-19T02:23:58.053Z</time>
      </trkpt>
      <trkpt lat="44.90205" lon="5.24886">
        <ele>1220.393376</ele>
        <time>2023-08-19T02:23:58.665Z</time>
      </trkpt>
      <trkpt lat="44.90211" lon="5.24887">
        <ele>1219.299376</ele>
        <time>2023-08-19T02:23:59.044Z</time>
      </trkpt>
      <trkpt lat="44.90216" lon="5.24891">
        <ele>1218.184074</ele>
        <time>2023-08-19T02:23:59.437Z</time>
      </trkpt>
      <trkpt lat="44.90223" lon="5.24904">
        <ele>1215.906567</ele>
        <time>2023-08-19T02:24:00.234Z</time>
      </trkpt>
      <trkpt lat="44.90226" lon="5.24917">
        <ele>1214.135675</ele>
        <time>2023-08-19T02:24:00.856Z</time>
      </trkpt>
      <trkpt lat="44.90226" lon="5.24936">
        <ele>1211.648744</ele>
        <time>2023-08-19T02:24:01.731Z</time>
      </trkpt>
      <trkpt lat="44.90221" lon="5.24954">
        <ele>1209.073732</ele>
        <time>2023-08-19T02:24:02.638Z</time>
      </trkpt>
      <trkpt lat="44.90211" lon="5.24968">
        <ele>1206.478844</ele>
        <time>2023-08-19T02:24:03.569Z</time>
      </trkpt>
      <trkpt lat="44.90191" lon="5.2499">
        <ele>1201.815622</ele>
        <time>2023-08-19T02:24:05.263Z</time>
      </trkpt>
      <trkpt lat="44.90074" lon="5.25073">
        <ele>1186.43306</ele>
        <time>2023-08-19T02:24:14.485Z</time>
      </trkpt>
      <trkpt lat="44.90059" lon="5.25088">
        <ele>1184.749653</ele>
        <time>2023-08-19T02:24:15.794Z</time>
      </trkpt>
      <trkpt lat="44.9002" lon="5.25145">
        <ele>1179.710946</ele>
        <time>2023-08-19T02:24:19.672Z</time>
      </trkpt>
      <trkpt lat="44.90007" lon="5.25157">
        <ele>1178.322589</ele>
        <time>2023-08-19T02:24:20.747Z</time>
      </trkpt>
      <trkpt lat="44.89993" lon="5.25167">
        <ele>1176.940905</ele>
        <time>2023-08-19T02:24:21.839Z</time>
      </trkpt>
      <trkpt lat="44.89921" lon="5.25207">
        <ele>1170.184317</ele>
        <time>2023-08-19T02:24:27.160Z</time>
      </trkpt>
      <trkpt lat="44.89896" lon="5.25214">
        <ele>1167.974834</ele>
        <time>2023-08-19T02:24:28.913Z</time>
      </trkpt>
      <trkpt lat="44.8974" lon="5.2524">
        <ele>1156.879032</ele>
        <time>2023-08-19T02:24:40.258Z</time>
      </trkpt>
      <trkpt lat="44.896" lon="5.25254">
        <ele>1149.351778</ele>
        <time>2023-08-19T02:24:50.768Z</time>
      </trkpt>
      <trkpt lat="44.89532" lon="5.25273">
        <ele>1146.249095</ele>
        <time>2023-08-19T02:24:56.143Z</time>
      </trkpt>
      <trkpt lat="44.89505" lon="5.25285">
        <ele>1145.012906</ele>
        <time>2023-08-19T02:24:58.322Z</time>
      </trkpt>
      <trkpt lat="44.89468" lon="5.25307">
        <ele>1144.026231</ele>
        <time>2023-08-19T02:25:01.476Z</time>
      </trkpt>
      <trkpt lat="44.89437" lon="5.25318">
        <ele>1143.951385</ele>
        <time>2023-08-19T02:25:04.156Z</time>
      </trkpt>
      <trkpt lat="44.89377" lon="5.25331">
        <ele>1143.813644</ele>
        <time>2023-08-19T02:25:09.827Z</time>
      </trkpt>
      <trkpt lat="44.89348" lon="5.25333">
        <ele>1143.74605</ele>
        <time>2023-08-19T02:25:14.261Z</time>
      </trkpt>
      <trkpt lat="44.89309" lon="5.25327">
        <ele>1143.662358</ele>
        <time>2023-08-19T02:25:23.255Z</time>
      </trkpt>
      <trkpt lat="44.8928" lon="5.25328">
        <ele>1145.565773</ele>
        <time>2023-08-19T02:25:31.002Z</time>
      </trkpt>
      <trkpt lat="44.89258" lon="5.25335">
        <ele>1147.042428</ele>
        <time>2023-08-19T02:25:37.768Z</time>
      </trkpt>
      <trkpt lat="44.89242" lon="5.25346">
        <ele>1148.200499</ele>
        <time>2023-08-19T02:25:42.937Z</time>
      </trkpt>
      <trkpt lat="44.89219" lon="5.25374">
        <ele>1150.19275</ele>
        <time>2023-08-19T02:25:52.695Z</time>
      </trkpt>
      <trkpt lat="44.89211" lon="5.25396">
        <ele>1151.3816</ele>
        <time>2023-08-19T02:25:59.082Z</time>
      </trkpt>
      <trkpt lat="44.89209" lon="5.25424">
        <ele>1152.702655</ele>
        <time>2023-08-19T02:26:06.194Z</time>
      </trkpt>
      <trkpt lat="44.8921" lon="5.25429">
        <ele>1152.932722</ele>
        <time>2023-08-19T02:26:07.552Z</time>
      </trkpt>
      <trkpt lat="44.89211" lon="5.25434">
        <ele>1153.161371</ele>
        <time>2023-08-19T02:26:08.937Z</time>
      </trkpt>
      <trkpt lat="44.89217" lon="5.25448">
        <ele>1153.94418</ele>
        <time>2023-08-19T02:26:13.654Z</time>
      </trkpt>
      <trkpt lat="44.89227" lon="5.25457">
        <ele>1154.723427</ele>
        <time>2023-08-19T02:26:18.324Z</time>
      </trkpt>
      <trkpt lat="44.89286" lon="5.25483">
        <ele>1160.421901</ele>
        <time>2023-08-19T02:26:45.061Z</time>
      </trkpt>
      <trkpt lat="44.89321" lon="5.25507">
        <ele>1164.296008</ele>
        <time>2023-08-19T02:27:02.461Z</time>
      </trkpt>
      <trkpt lat="44.89347" lon="5.2553">
        <ele>1167.330777</ele>
        <time>2023-08-19T02:27:15.877Z</time>
      </trkpt>
      <trkpt lat="44.89365" lon="5.25553">
        <ele>1169.738602</ele>
        <time>2023-08-19T02:27:26.165Z</time>
      </trkpt>
      <trkpt lat="44.89442" lon="5.25674">
        <ele>1180.952466</ele>
        <time>2023-08-19T02:28:18.412Z</time>
      </trkpt>
      <trkpt lat="44.8947" lon="5.25704">
        <ele>1184.331275</ele>
        <time>2023-08-19T02:28:34.251Z</time>
      </trkpt>
      <trkpt lat="44.89564" lon="5.25771">
        <ele>1193.510399</ele>
        <time>2023-08-19T02:29:15.631Z</time>
      </trkpt>
      <trkpt lat="44.89598" lon="5.25785">
        <ele>1196.105331</ele>
        <time>2023-08-19T02:29:28.232Z</time>
      </trkpt>
      <trkpt lat="44.89673" lon="5.25803">
        <ele>1201.624962</ele>
        <time>2023-08-19T02:29:53.339Z</time>
      </trkpt>
      <trkpt lat="44.89899" lon="5.25913">
        <ele>1216.950346</ele>
        <time>2023-08-19T02:31:12.215Z</time>
      </trkpt>
      <trkpt lat="44.89936" lon="5.25925">
        <ele>1218.727451</ele>
        <time>2023-08-19T02:31:24.449Z</time>
      </trkpt>
      <trkpt lat="44.90118" lon="5.25971">
        <ele>1225.619702</ele>
        <time>2023-08-19T02:32:07.719Z</time>
      </trkpt>
      <trkpt lat="44.90172" lon="5.25992">
        <ele>1226.894185</ele>
        <time>2023-08-19T02:32:16.815Z</time>
      </trkpt>
      <trkpt lat="44.90182" lon="5.26001">
        <ele>1227.15549</ele>
        <time>2023-08-19T02:32:18.810Z</time>
      </trkpt>
      <trkpt lat="44.9019" lon="5.26013">
        <ele>1227.42</ele>
        <time>2023-08-19T02:32:20.689Z</time>
      </trkpt>
      <trkpt lat="44.90194" lon="5.26024">
        <ele>1227.626115</ele>
        <time>2023-08-19T02:32:22.118Z</time>
      </trkpt>
      <trkpt lat="44.90196" lon="5.26038">
        <ele>1227.846833</ele>
        <time>2023-08-19T02:32:23.754Z</time>
      </trkpt>
      <trkpt lat="44.90195" lon="5.2607">
        <ele>1228.197628</ele>
        <time>2023-08-19T02:32:27.321Z</time>
      </trkpt>
      <trkpt lat="44.90179" lon="5.26102">
        <ele>1228.502984</ele>
        <time>2023-08-19T02:32:31.511Z</time>
      </trkpt>
      <trkpt lat="44.90167" lon="5.26118">
        <ele>1228.700146</ele>
        <time>2023-08-19T02:32:33.909Z</time>
      </trkpt>
      <trkpt lat="44.90158" lon="5.26141">
        <ele>1228.905548</ele>
        <time>2023-08-19T02:32:36.392Z</time>
      </trkpt>
      <trkpt lat="44.90156" lon="5.26156">
        <ele>1229.027647</ele>
        <time>2023-08-19T02:32:37.902Z</time>
      </trkpt>
      <trkpt lat="44.90158" lon="5.26171">
        <ele>1229.152534</ele>
        <time>2023-08-19T02:32:39.467Z</time>
      </trkpt>
      <trkpt lat="44.90166" lon="5.26193">
        <ele>1229.351732</ele>
        <time>2023-08-19T02:32:41.944Z</time>
      </trkpt>
      <trkpt lat="44.90212" lon="5.26276">
        <ele>1230.135739</ele>
        <time>2023-08-19T02:32:54.467Z</time>
      </trkpt>
      <trkpt lat="44.90221" lon="5.26299">
        <ele>1230.259979</ele>
        <time>2023-08-19T02:32:57.781Z</time>
      </trkpt>
      <trkpt lat="44.90225" lon="5.26323">
        <ele>1230.376672</ele>
        <time>2023-08-19T02:33:00.903Z</time>
      </trkpt>
      <trkpt lat="44.90224" lon="5.26352">
        <ele>1230.508185</ele>
        <time>2023-08-19T02:33:04.140Z</time>
      </trkpt>
      <trkpt lat="44.90214" lon="5.26374">
        <ele>1230.630684</ele>
        <time>2023-08-19T02:33:06.938Z</time>
      </trkpt>
      <trkpt lat="44.90183" lon="5.26426">
        <ele>1230.947554</ele>
        <time>2023-08-19T02:33:13.240Z</time>
      </trkpt>
      <trkpt lat="44.90145" lon="5.26514">
        <ele>1231.231438</ele>
        <time>2023-08-19T02:33:20.883Z</time>
      </trkpt>
      <trkpt lat="44.90099" lon="5.2663">
        <ele>1231.214249</ele>
        <time>2023-08-19T02:33:31.523Z</time>
      </trkpt>
      <trkpt lat="44.90072" lon="5.26725">
        <ele>1231.61454</ele>
        <time>2023-08-19T02:33:41.085Z</time>
      </trkpt>
      <trkpt lat="44.90062" lon="5.2675">
        <ele>1232.12241</ele>
        <time>2023-08-19T02:33:43.729Z</time>
      </trkpt>
      <trkpt lat="44.90053" lon="5.26772">
        <ele>1232.583688</ele>
        <time>2023-08-19T02:33:46.314Z</time>
      </trkpt>
      <trkpt lat="44.90031" lon="5.26808">
        <ele>1233.461062</ele>
        <time>2023-08-19T02:33:52.073Z</time>
      </trkpt>
      <trkpt lat="44.89948" lon="5.26909">
        <ele>1236.805996</ele>
        <time>2023-08-19T02:34:18.877Z</time>
      </trkpt>
      <trkpt lat="44.89836" lon="5.26997">
        <ele>1244.003878</ele>
        <time>2023-08-19T02:34:57.038Z</time>
      </trkpt>
      <trkpt lat="44.8981" lon="5.27026">
        <ele>1245.864684</ele>
        <time>2023-08-19T02:35:07.873Z</time>
      </trkpt>
      <trkpt lat="44.89744" lon="5.27124">
        <ele>1252.056218</ele>
        <time>2023-08-19T02:35:41.604Z</time>
      </trkpt>
      <trkpt lat="44.8972" lon="5.27143">
        <ele>1253.867881</ele>
        <time>2023-08-19T02:35:51.176Z</time>
      </trkpt>
      <trkpt lat="44.89695" lon="5.27149">
        <ele>1255.494991</ele>
        <time>2023-08-19T02:35:59.152Z</time>
      </trkpt>
      <trkpt lat="44.89666" lon="5.27148">
        <ele>1257.380663</ele>
        <time>2023-08-19T02:36:07.754Z</time>
      </trkpt>
      <trkpt lat="44.89657" lon="5.27153">
        <ele>1257.894733</ele>
        <time>2023-08-19T02:36:10.554Z</time>
      </trkpt>
      <trkpt lat="44.8965" lon="5.27167">
        <ele>1258.406631</ele>
        <time>2023-08-19T02:36:13.900Z</time>
      </trkpt>
      <trkpt lat="44.89647" lon="5.27184">
        <ele>1258.938398</ele>
        <time>2023-08-19T02:36:17.093Z</time>
      </trkpt>
      <trkpt lat="44.8965" lon="5.272">
        <ele>1259.453419</ele>
        <time>2023-08-19T02:36:20.169Z</time>
      </trkpt>
      <trkpt lat="44.89657" lon="5.27209">
        <ele>1259.881134</ele>
        <time>2023-08-19T02:36:22.894Z</time>
      </trkpt>
      <trkpt lat="44.89667" lon="5.27215">
        <ele>1260.329558</ele>
        <time>2023-08-19T02:36:25.555Z</time>
      </trkpt>
      <trkpt lat="44.89694" lon="5.27221">
        <ele>1261.501953</ele>
        <time>2023-08-19T02:36:32.704Z</time>
      </trkpt>
      <trkpt lat="44.89725" lon="5.2722">
        <ele>1262.84082</ele>
        <time>2023-08-19T02:36:40.784Z</time>
      </trkpt>
      <trkpt lat="44.89783" lon="5.27187">
        <ele>1265.542284</ele>
        <time>2023-08-19T02:36:55.474Z</time>
      </trkpt>
      <trkpt lat="44.89811" lon="5.27185">
        <ele>1266.830982</ele>
        <time>2023-08-19T02:37:01.465Z</time>
      </trkpt>
      <trkpt lat="44.89838" lon="5.27197">
        <ele>1268.133906</ele>
        <time>2023-08-19T02:37:07.431Z</time>
      </trkpt>
      <trkpt lat="44.89868" lon="5.27201">
        <ele>1269.487296</ele>
        <time>2023-08-19T02:37:14.017Z</time>
      </trkpt>
      <trkpt lat="44.89936" lon="5.27185">
        <ele>1272.659018</ele>
        <time>2023-08-19T02:37:33.372Z</time>
      </trkpt>
      <trkpt lat="44.89973" lon="5.27184">
        <ele>1274.866005</ele>
        <time>2023-08-19T02:37:45.796Z</time>
      </trkpt>
      <trkpt lat="44.90122" lon="5.27203">
        <ele>1286.346734</ele>
        <time>2023-08-19T02:38:41.792Z</time>
      </trkpt>
      <trkpt lat="44.90258" lon="5.27199">
        <ele>1296.815257</ele>
        <time>2023-08-19T02:39:34.000Z</time>
      </trkpt>
      <trkpt lat="44.90328" lon="5.27205">
        <ele>1301.954249</ele>
        <time>2023-08-19T02:39:57.940Z</time>
      </trkpt>
      <trkpt lat="44.90352" lon="5.27211">
        <ele>1303.277788</ele>
        <time>2023-08-19T02:40:05.806Z</time>
      </trkpt>
      <trkpt lat="44.90369" lon="5.27218">
        <ele>1304.22844</ele>
        <time>2023-08-19T02:40:11.307Z</time>
      </trkpt>
      <trkpt lat="44.9039" lon="5.27235">
        <ele>1305.496685</ele>
        <time>2023-08-19T02:40:18.350Z</time>
      </trkpt>
      <trkpt lat="44.9041" lon="5.2726">
        <ele>1306.903498</ele>
        <time>2023-08-19T02:40:25.771Z</time>
      </trkpt>
      <trkpt lat="44.90467" lon="5.27362">
        <ele>1311.706618</ele>
        <time>2023-08-19T02:40:49.857Z</time>
      </trkpt>
      <trkpt lat="44.90492" lon="5.27397">
        <ele>1313.324582</ele>
        <time>2023-08-19T02:40:58.827Z</time>
      </trkpt>
      <trkpt lat="44.90524" lon="5.27423">
        <ele>1315.003408</ele>
        <time>2023-08-19T02:41:08.307Z</time>
      </trkpt>
      <trkpt lat="44.90561" lon="5.27462">
        <ele>1317.141421</ele>
        <time>2023-08-19T02:41:20.878Z</time>
      </trkpt>
      <trkpt lat="44.90633" lon="5.27545">
        <ele>1321.027211</ele>
        <time>2023-08-19T02:41:46.717Z</time>
      </trkpt>
      <trkpt lat="44.9068" lon="5.27589">
        <ele>1323.184217</ele>
        <time>2023-08-19T02:42:01.376Z</time>
      </trkpt>
      <trkpt lat="44.90714" lon="5.2761">
        <ele>1324.581274</ele>
        <time>2023-08-19T02:42:09.840Z</time>
      </trkpt>
      <trkpt lat="44.90752" lon="5.27622">
        <ele>1325.997954</ele>
        <time>2023-08-19T02:42:17.817Z</time>
      </trkpt>
      <trkpt lat="44.90778" lon="5.27627">
        <ele>1325.672728</ele>
        <time>2023-08-19T02:42:22.626Z</time>
      </trkpt>
      <trkpt lat="44.90811" lon="5.27623">
        <ele>1325.277091</ele>
        <time>2023-08-19T02:42:27.412Z</time>
      </trkpt>
      <trkpt lat="44.90848" lon="5.27623">
        <ele>1324.830629</ele>
        <time>2023-08-19T02:42:31.254Z</time>
      </trkpt>
      <trkpt lat="44.90872" lon="5.27628">
        <ele>1324.533186</ele>
        <time>2023-08-19T02:42:33.358Z</time>
      </trkpt>
      <trkpt lat="44.90897" lon="5.27642">
        <ele>1324.20833</ele>
        <time>2023-08-19T02:42:35.506Z</time>
      </trkpt>
      <trkpt lat="44.90929" lon="5.2767">
        <ele>1323.439364</ele>
        <time>2023-08-19T02:42:38.411Z</time>
      </trkpt>
      <trkpt lat="44.90976" lon="5.27719">
        <ele>1320.310841</ele>
        <time>2023-08-19T02:42:42.764Z</time>
      </trkpt>
      <trkpt lat="44.90987" lon="5.27744">
        <ele>1319.187388</ele>
        <time>2023-08-19T02:42:44.332Z</time>
      </trkpt>
      <trkpt lat="44.90993" lon="5.27777">
        <ele>1317.890066</ele>
        <time>2023-08-19T02:42:46.143Z</time>
      </trkpt>
      <trkpt lat="44.90994" lon="5.27805">
        <ele>1316.807727</ele>
        <time>2023-08-19T02:42:47.647Z</time>
      </trkpt>
      <trkpt lat="44.90987" lon="5.27833">
        <ele>1315.672519</ele>
        <time>2023-08-19T02:42:49.206Z</time>
      </trkpt>
      <trkpt lat="44.90971" lon="5.27858">
        <ele>1314.375508</ele>
        <time>2023-08-19T02:42:50.967Z</time>
      </trkpt>
      <trkpt lat="44.90918" lon="5.27914">
        <ele>1309.1513</ele>
        <time>2023-08-19T02:42:55.672Z</time>
      </trkpt>
      <trkpt lat="44.90898" lon="5.27943">
        <ele>1306.836313</ele>
        <time>2023-08-19T02:42:57.688Z</time>
      </trkpt>
      <trkpt lat="44.90888" lon="5.27965">
        <ele>1305.259605</ele>
        <time>2023-08-19T02:42:59.052Z</time>
      </trkpt>
      <trkpt lat="44.90881" lon="5.27989">
        <ele>1303.818958</ele>
        <time>2023-08-19T02:43:00.294Z</time>
      </trkpt>
      <trkpt lat="44.9088" lon="5.28022">
        <ele>1301.917918</ele>
        <time>2023-08-19T02:43:01.930Z</time>
      </trkpt>
      <trkpt lat="44.90894" lon="5.28146">
        <ele>1293.814534</ele>
        <time>2023-08-19T02:43:08.042Z</time>
      </trkpt>
      <trkpt lat="44.90894" lon="5.28168">
        <ele>1292.256211</ele>
        <time>2023-08-19T02:43:09.147Z</time>
      </trkpt>
      <trkpt lat="44.90889" lon="5.28188">
        <ele>1290.825861</ele>
        <time>2023-08-19T02:43:10.164Z</time>
      </trkpt>
      <trkpt lat="44.90877" lon="5.28207">
        <ele>1289.131788</ele>
        <time>2023-08-19T02:43:11.369Z</time>
      </trkpt>
      <trkpt lat="44.90849" lon="5.28232">
        <ele>1285.969589</ele>
        <time>2023-08-19T02:43:13.629Z</time>
      </trkpt>
      <trkpt lat="44.90833" lon="5.28256">
        <ele>1283.701497</ele>
        <time>2023-08-19T02:43:15.274Z</time>
      </trkpt>
      <trkpt lat="44.90822" lon="5.28281">
        <ele>1281.958519</ele>
        <time>2023-08-19T02:43:16.771Z</time>
      </trkpt>
      <trkpt lat="44.90806" lon="5.28333">
        <ele>1280.189952</ele>
        <time>2023-08-19T02:43:19.673Z</time>
      </trkpt>
      <trkpt lat="44.90794" lon="5.28358">
        <ele>1279.258776</ele>
        <time>2023-08-19T02:43:21.247Z</time>
      </trkpt>
      <trkpt lat="44.90771" lon="5.28389">
        <ele>1277.853865</ele>
        <time>2023-08-19T02:43:23.700Z</time>
      </trkpt>
      <trkpt lat="44.90757" lon="5.28414">
        <ele>1276.867644</ele>
        <time>2023-08-19T02:43:25.495Z</time>
      </trkpt>
      <trkpt lat="44.9075" lon="5.28444">
        <ele>1275.872925</ele>
        <time>2023-08-19T02:43:27.383Z</time>
      </trkpt>
      <trkpt lat="44.90748" lon="5.28472">
        <ele>1274.988228</ele>
        <time>2023-08-19T02:43:29.123Z</time>
      </trkpt>
      <trkpt lat="44.9075" lon="5.28498">
        <ele>1274.297375</ele>
        <time>2023-08-19T02:43:30.797Z</time>
      </trkpt>
      <trkpt lat="44.90757" lon="5.2852">
        <ele>1274.347853</ele>
        <time>2023-08-19T02:43:32.585Z</time>
      </trkpt>
      <trkpt lat="44.9077" lon="5.2854">
        <ele>1274.403767</ele>
        <time>2023-08-19T02:43:34.822Z</time>
      </trkpt>
      <trkpt lat="44.90783" lon="5.28552">
        <ele>1274.448684</ele>
        <time>2023-08-19T02:43:37.102Z</time>
      </trkpt>
      <trkpt lat="44.90873" lon="5.28599">
        <ele>1274.732051</ele>
        <time>2023-08-19T02:43:50.775Z</time>
      </trkpt>
      <trkpt lat="44.9092" lon="5.28628">
        <ele>1275.104959</ele>
        <time>2023-08-19T02:43:58.413Z</time>
      </trkpt>
      <trkpt lat="44.90932" lon="5.28631">
        <ele>1275.272242</ele>
        <time>2023-08-19T02:44:00.145Z</time>
      </trkpt>
      <trkpt lat="44.90946" lon="5.28628">
        <ele>1275.464058</ele>
        <time>2023-08-19T02:44:02.425Z</time>
      </trkpt>
      <trkpt lat="44.91008" lon="5.2858">
        <ele>1276.417862</ele>
        <time>2023-08-19T02:44:13.919Z</time>
      </trkpt>
      <trkpt lat="44.91025" lon="5.28575">
        <ele>1276.648117</ele>
        <time>2023-08-19T02:44:16.987Z</time>
      </trkpt>
      <trkpt lat="44.91155" lon="5.28553">
        <ele>1280.092066</ele>
        <time>2023-08-19T02:44:39.407Z</time>
      </trkpt>
      <trkpt lat="44.91243" lon="5.28524">
        <ele>1283.038634</ele>
        <time>2023-08-19T02:45:02.457Z</time>
      </trkpt>
      <trkpt lat="44.91262" lon="5.28521">
        <ele>1284.046715</ele>
        <time>2023-08-19T02:45:08.179Z</time>
      </trkpt>
      <trkpt lat="44.91282" lon="5.28523">
        <ele>1285.200534</ele>
        <time>2023-08-19T02:45:14.716Z</time>
      </trkpt>
      <trkpt lat="44.91299" lon="5.28527">
        <ele>1286.181541</ele>
        <time>2023-08-19T02:45:20.537Z</time>
      </trkpt>
      <trkpt lat="44.91319" lon="5.28538">
        <ele>1287.387358</ele>
        <time>2023-08-19T02:45:28.023Z</time>
      </trkpt>
      <trkpt lat="44.91338" lon="5.28553">
        <ele>1288.602248</ele>
        <time>2023-08-19T02:45:35.181Z</time>
      </trkpt>
      <trkpt lat="44.91382" lon="5.28608">
        <ele>1291.980754</ele>
        <time>2023-08-19T02:45:53.296Z</time>
      </trkpt>
      <trkpt lat="44.91422" lon="5.28676">
        <ele>1294.65947</ele>
        <time>2023-08-19T02:46:09.194Z</time>
      </trkpt>
      <trkpt lat="44.91436" lon="5.28694">
        <ele>1295.322647</ele>
        <time>2023-08-19T02:46:13.763Z</time>
      </trkpt>
      <trkpt lat="44.91447" lon="5.287">
        <ele>1295.735864</ele>
        <time>2023-08-19T02:46:16.639Z</time>
      </trkpt>
      <trkpt lat="44.91461" lon="5.28701">
        <ele>1296.23665</ele>
        <time>2023-08-19T02:46:20.055Z</time>
      </trkpt>
      <trkpt lat="44.915" lon="5.2869">
        <ele>1297.607448</ele>
        <time>2023-08-19T02:46:29.082Z</time>
      </trkpt>
      <trkpt lat="44.91517" lon="5.28689">
        <ele>1298.209277</ele>
        <time>2023-08-19T02:46:32.857Z</time>
      </trkpt>
      <trkpt lat="44.91538" lon="5.28693">
        <ele>1298.9513</ele>
        <time>2023-08-19T02:46:37.223Z</time>
      </trkpt>
      <trkpt lat="44.91561" lon="5.28704">
        <ele>1299.704759</ele>
        <time>2023-08-19T02:46:41.779Z</time>
      </trkpt>
      <trkpt lat="44.91635" lon="5.28756">
        <ele>1301.278092</ele>
        <time>2023-08-19T02:46:56.332Z</time>
      </trkpt>
      <trkpt lat="44.91663" lon="5.2877">
        <ele>1301.845368</ele>
        <time>2023-08-19T02:47:02.140Z</time>
      </trkpt>
      <trkpt lat="44.91781" lon="5.28799">
        <ele>1303.006291</ele>
        <time>2023-08-19T02:47:22.455Z</time>
      </trkpt>
      <trkpt lat="44.91809" lon="5.28812">
        <ele>1302.998096</ele>
        <time>2023-08-19T02:47:25.905Z</time>
      </trkpt>
      <trkpt lat="44.91829" lon="5.28826">
        <ele>1302.992069</ele>
        <time>2023-08-19T02:47:28.161Z</time>
      </trkpt>
      <trkpt lat="44.91842" lon="5.2884">
        <ele>1302.98765</ele>
        <time>2023-08-19T02:47:29.801Z</time>
      </trkpt>
      <trkpt lat="44.91847" lon="5.28855">
        <ele>1302.98449</ele>
        <time>2023-08-19T02:47:30.924Z</time>
      </trkpt>
      <trkpt lat="44.91851" lon="5.28875">
        <ele>1302.980536</ele>
        <time>2023-08-19T02:47:32.336Z</time>
      </trkpt>
      <trkpt lat="44.91851" lon="5.28894">
        <ele>1302.976845</ele>
        <time>2023-08-19T02:47:33.649Z</time>
      </trkpt>
      <trkpt lat="44.91846" lon="5.28911">
        <ele>1302.973295</ele>
        <time>2023-08-19T02:47:34.872Z</time>
      </trkpt>
      <trkpt lat="44.91833" lon="5.2893">
        <ele>1302.695958</ele>
        <time>2023-08-19T02:47:36.615Z</time>
      </trkpt>
      <trkpt lat="44.91783" lon="5.28965">
        <ele>1301.829853</ele>
        <time>2023-08-19T02:47:41.686Z</time>
      </trkpt>
      <trkpt lat="44.91688" lon="5.29073">
        <ele>1299.659875</ele>
        <time>2023-08-19T02:47:52.829Z</time>
      </trkpt>
      <trkpt lat="44.9168" lon="5.29094">
        <ele>1299.064635</ele>
        <time>2023-08-19T02:47:54.362Z</time>
      </trkpt>
      <trkpt lat="44.91678" lon="5.29108">
        <ele>1298.721829</ele>
        <time>2023-08-19T02:47:55.225Z</time>
      </trkpt>
      <trkpt lat="44.91678" lon="5.29123">
        <ele>1298.359228</ele>
        <time>2023-08-19T02:47:56.112Z</time>
      </trkpt>
      <trkpt lat="44.91682" lon="5.29138">
        <ele>1297.968255</ele>
        <time>2023-08-19T02:47:57.081Z</time>
      </trkpt>
      <trkpt lat="44.91691" lon="5.29155">
        <ele>1297.452315</ele>
        <time>2023-08-19T02:47:58.325Z</time>
      </trkpt>
      <trkpt lat="44.91727" lon="5.29197">
        <ele>1295.85254</ele>
        <time>2023-08-19T02:48:02.051Z</time>
      </trkpt>
      <trkpt lat="44.91758" lon="5.29241">
        <ele>1294.369987</ele>
        <time>2023-08-19T02:48:05.388Z</time>
      </trkpt>
      <trkpt lat="44.9177" lon="5.29252">
        <ele>1293.710742</ele>
        <time>2023-08-19T02:48:06.493Z</time>
      </trkpt>
      <trkpt lat="44.91785" lon="5.29259">
        <ele>1292.675196</ele>
        <time>2023-08-19T02:48:07.682Z</time>
      </trkpt>
      <trkpt lat="44.91804" lon="5.2926">
        <ele>1291.487381</ele>
        <time>2023-08-19T02:48:09.043Z</time>
      </trkpt>
      <trkpt lat="44.9194" lon="5.2925">
        <ele>1282.610373</ele>
        <time>2023-08-19T02:48:18.909Z</time>
      </trkpt>
      <trkpt lat="44.91967" lon="5.29246">
        <ele>1280.660234</ele>
        <time>2023-08-19T02:48:20.790Z</time>
      </trkpt>
      <trkpt lat="44.91995" lon="5.29235">
        <ele>1278.49969</ele>
        <time>2023-08-19T02:48:22.845Z</time>
      </trkpt>
      <trkpt lat="44.9207" lon="5.29195">
        <ele>1272.46511</ele>
        <time>2023-08-19T02:48:28.573Z</time>
      </trkpt>
      <trkpt lat="44.92135" lon="5.29171">
        <ele>1267.492896</ele>
        <time>2023-08-19T02:48:33.351Z</time>
      </trkpt>
      <trkpt lat="44.92201" lon="5.29134">
        <ele>1262.295845</ele>
        <time>2023-08-19T02:48:38.467Z</time>
      </trkpt>
      <trkpt lat="44.92244" lon="5.29117">
        <ele>1259.039987</ele>
        <time>2023-08-19T02:48:41.700Z</time>
      </trkpt>
      <trkpt lat="44.92333" lon="5.29095">
        <ele>1251.640769</ele>
        <time>2023-08-19T02:48:48.130Z</time>
      </trkpt>
      <trkpt lat="44.92349" lon="5.29094">
        <ele>1250.251272</ele>
        <time>2023-08-19T02:48:49.204Z</time>
      </trkpt>
      <trkpt lat="44.92422" lon="5.29109">
        <ele>1243.555229</ele>
        <time>2023-08-19T02:48:54.302Z</time>
      </trkpt>
      <trkpt lat="44.92437" lon="5.29109">
        <ele>1242.214305</ele>
        <time>2023-08-19T02:48:55.319Z</time>
      </trkpt>
      <trkpt lat="44.92449" lon="5.29103">
        <ele>1241.024257</ele>
        <time>2023-08-19T02:48:56.235Z</time>
      </trkpt>
      <trkpt lat="44.92464" lon="5.29088">
        <ele>1239.345448</ele>
        <time>2023-08-19T02:48:57.509Z</time>
      </trkpt>
      <trkpt lat="44.92489" lon="5.29051">
        <ele>1235.991638</ele>
        <time>2023-08-19T02:48:59.987Z</time>
      </trkpt>
      <trkpt lat="44.92504" lon="5.29041">
        <ele>1234.411958</ele>
        <time>2023-08-19T02:49:01.157Z</time>
      </trkpt>
      <trkpt lat="44.9252" lon="5.29037">
        <ele>1232.908205</ele>
        <time>2023-08-19T02:49:02.262Z</time>
      </trkpt>
      <trkpt lat="44.92638" lon="5.29027">
        <ele>1221.904336</ele>
        <time>2023-08-19T02:49:10.477Z</time>
      </trkpt>
      <trkpt lat="44.9271" lon="5.29011">
        <ele>1215.889384</ele>
        <time>2023-08-19T02:49:15.648Z</time>
      </trkpt>
      <trkpt lat="44.92765" lon="5.28999">
        <ele>1211.286888</ele>
        <time>2023-08-19T02:49:19.577Z</time>
      </trkpt>
      <trkpt lat="44.92854" lon="5.28984">
        <ele>1204.051762</ele>
        <time>2023-08-19T02:49:25.888Z</time>
      </trkpt>
      <trkpt lat="44.92894" lon="5.28983">
        <ele>1200.855914</ele>
        <time>2023-08-19T02:49:28.723Z</time>
      </trkpt>
      <trkpt lat="44.92918" lon="5.28985">
        <ele>1198.964923</ele>
        <time>2023-08-19T02:49:30.415Z</time>
      </trkpt>
      <trkpt lat="44.92945" lon="5.28995">
        <ele>1196.744794</ele>
        <time>2023-08-19T02:49:32.405Z</time>
      </trkpt>
      <trkpt lat="44.92986" lon="5.29016">
        <ele>1193.355602</ele>
        <time>2023-08-19T02:49:35.467Z</time>
      </trkpt>
      <trkpt lat="44.92999" lon="5.29016">
        <ele>1192.404538</ele>
        <time>2023-08-19T02:49:36.425Z</time>
      </trkpt>
      <trkpt lat="44.93015" lon="5.29009">
        <ele>1191.23444</ele>
        <time>2023-08-19T02:49:37.610Z</time>
      </trkpt>
      <trkpt lat="44.93109" lon="5.28913">
        <ele>1183.074125</ele>
        <time>2023-08-19T02:49:45.897Z</time>
      </trkpt>
      <trkpt lat="44.93133" lon="5.28883">
        <ele>1180.844448</ele>
        <time>2023-08-19T02:49:48.233Z</time>
      </trkpt>
      <trkpt lat="44.93156" lon="5.28845">
        <ele>1179.17546</ele>
        <time>2023-08-19T02:49:50.845Z</time>
      </trkpt>
      <trkpt lat="44.93178" lon="5.2882">
        <ele>1177.837679</ele>
        <time>2023-08-19T02:49:52.972Z</time>
      </trkpt>
      <trkpt lat="44.93203" lon="5.28801">
        <ele>1176.482464</ele>
        <time>2023-08-19T02:49:55.163Z</time>
      </trkpt>
      <trkpt lat="44.93298" lon="5.28742">
        <ele>1171.831316</ele>
        <time>2023-08-19T02:50:03.326Z</time>
      </trkpt>
      <trkpt lat="44.93387" lon="5.28697">
        <ele>1168.639916</ele>
        <time>2023-08-19T02:50:10.929Z</time>
      </trkpt>
      <trkpt lat="44.93454" lon="5.28678">
        <ele>1166.317688</ele>
        <time>2023-08-19T02:50:16.421Z</time>
      </trkpt>
      <trkpt lat="44.93521" lon="5.2867">
        <ele>1163.790219</ele>
        <time>2023-08-19T02:50:21.882Z</time>
      </trkpt>
      <trkpt lat="44.93611" lon="5.28676">
        <ele>1160.388752</ele>
        <time>2023-08-19T02:50:29.135Z</time>
      </trkpt>
      <trkpt lat="44.93665" lon="5.28696">
        <ele>1157.170061</ele>
        <time>2023-08-19T02:50:33.308Z</time>
      </trkpt>
      <trkpt lat="44.93746" lon="5.28746">
        <ele>1150.747301</ele>
        <time>2023-08-19T02:50:39.666Z</time>
      </trkpt>
      <trkpt lat="44.93783" lon="5.2876">
        <ele>1148.010798</ele>
        <time>2023-08-19T02:50:42.306Z</time>
      </trkpt>
      <trkpt lat="44.93807" lon="5.28759">
        <ele>1146.219366</ele>
        <time>2023-08-19T02:50:43.996Z</time>
      </trkpt>
      <trkpt lat="44.93814" lon="5.28751">
        <ele>1145.511552</ele>
        <time>2023-08-19T02:50:44.604Z</time>
      </trkpt>
      <trkpt lat="44.93822" lon="5.28737">
        <ele>1144.472247</ele>
        <time>2023-08-19T02:50:45.506Z</time>
      </trkpt>
      <trkpt lat="44.93832" lon="5.2871">
        <ele>1142.734509</ele>
        <time>2023-08-19T02:50:47.023Z</time>
      </trkpt>
      <trkpt lat="44.93845" lon="5.28688">
        <ele>1141.166006</ele>
        <time>2023-08-19T02:50:48.387Z</time>
      </trkpt>
      <trkpt lat="44.93862" lon="5.28667">
        <ele>1139.33699</ele>
        <time>2023-08-19T02:50:49.988Z</time>
      </trkpt>
      <trkpt lat="44.9391" lon="5.28619">
        <ele>1134.66642</ele>
        <time>2023-08-19T02:50:54.122Z</time>
      </trkpt>
      <trkpt lat="44.93946" lon="5.28571">
        <ele>1131.446287</ele>
        <time>2023-08-19T02:50:57.770Z</time>
      </trkpt>
      <trkpt lat="44.93967" lon="5.28554">
        <ele>1130.468443</ele>
        <time>2023-08-19T02:50:59.624Z</time>
      </trkpt>
      <trkpt lat="44.94001" lon="5.28537">
        <ele>1129.028963</ele>
        <time>2023-08-19T02:51:02.456Z</time>
      </trkpt>
      <trkpt lat="44.94041" lon="5.28522">
        <ele>1127.369706</ele>
        <time>2023-08-19T02:51:05.831Z</time>
      </trkpt>
      <trkpt lat="44.94086" lon="5.28512">
        <ele>1125.539146</ele>
        <time>2023-08-19T02:51:09.604Z</time>
      </trkpt>
      <trkpt lat="44.94111" lon="5.28511">
        <ele>1124.678507</ele>
        <time>2023-08-19T02:51:11.595Z</time>
      </trkpt>
      <trkpt lat="44.9418" lon="5.28516">
        <ele>1122.587852</ele>
        <time>2023-08-19T02:51:17.176Z</time>
      </trkpt>
      <trkpt lat="44.9424" lon="5.2853">
        <ele>1120.727426</ele>
        <time>2023-08-19T02:51:22.249Z</time>
      </trkpt>
      <trkpt lat="44.94295" lon="5.28551">
        <ele>1119.141741</ele>
        <time>2023-08-19T02:51:26.934Z</time>
      </trkpt>
      <trkpt lat="44.94311" lon="5.2856">
        <ele>1118.736178</ele>
        <time>2023-08-19T02:51:28.339Z</time>
      </trkpt>
      <trkpt lat="44.94334" lon="5.28586">
        <ele>1118.056477</ele>
        <time>2023-08-19T02:51:30.733Z</time>
      </trkpt>
      <trkpt lat="44.94352" lon="5.28618">
        <ele>1117.388306</ele>
        <time>2023-08-19T02:51:33.096Z</time>
      </trkpt>
      <trkpt lat="44.94363" lon="5.28632">
        <ele>1117.039848</ele>
        <time>2023-08-19T02:51:34.307Z</time>
      </trkpt>
      <trkpt lat="44.94377" lon="5.28641">
        <ele>1116.690811</ele>
        <time>2023-08-19T02:51:35.587Z</time>
      </trkpt>
      <trkpt lat="44.94392" lon="5.28644">
        <ele>1116.327678</ele>
        <time>2023-08-19T02:51:36.899Z</time>
      </trkpt>
      <trkpt lat="44.94509" lon="5.28626">
        <ele>1115.441829</ele>
        <time>2023-08-19T02:51:49.191Z</time>
      </trkpt>
      <trkpt lat="44.94533" lon="5.28627">
        <ele>1115.455502</ele>
        <time>2023-08-19T02:51:52.231Z</time>
      </trkpt>
      <trkpt lat="44.94555" lon="5.28634">
        <ele>1115.468628</ele>
        <time>2023-08-19T02:51:55.471Z</time>
      </trkpt>
      <trkpt lat="44.94643" lon="5.28686">
        <ele>1116.690891</ele>
        <time>2023-08-19T02:52:08.841Z</time>
      </trkpt>
      <trkpt lat="44.94685" lon="5.28718">
        <ele>1118.111723</ele>
        <time>2023-08-19T02:52:17.462Z</time>
      </trkpt>
      <trkpt lat="44.94711" lon="5.2873">
        <ele>1118.945911</ele>
        <time>2023-08-19T02:52:23.506Z</time>
      </trkpt>
      <trkpt lat="44.9474" lon="5.28736">
        <ele>1119.832065</ele>
        <time>2023-08-19T02:52:30.477Z</time>
      </trkpt>
      <trkpt lat="44.94773" lon="5.28755">
        <ele>1120.879641</ele>
        <time>2023-08-19T02:52:40.727Z</time>
      </trkpt>
      <trkpt lat="44.94786" lon="5.28767">
        <ele>1122.015392</ele>
        <time>2023-08-19T02:52:46.247Z</time>
      </trkpt>
      <trkpt lat="44.94809" lon="5.28799">
        <ele>1124.393832</ele>
        <time>2023-08-19T02:52:56.456Z</time>
      </trkpt>
      <trkpt lat="44.94822" lon="5.28823">
        <ele>1125.970389</ele>
        <time>2023-08-19T02:53:03.228Z</time>
      </trkpt>
      <trkpt lat="44.94832" lon="5.2885">
        <ele>1127.559482</ele>
        <time>2023-08-19T02:53:10.803Z</time>
      </trkpt>
      <trkpt lat="44.94839" lon="5.28885">
        <ele>1129.449513</ele>
        <time>2023-08-19T02:53:19.412Z</time>
      </trkpt>
      <trkpt lat="44.94843" lon="5.28933">
        <ele>1131.952928</ele>
        <time>2023-08-19T02:53:32.398Z</time>
      </trkpt>
      <trkpt lat="44.94848" lon="5.2895">
        <ele>1132.905996</ele>
        <time>2023-08-19T02:53:38.211Z</time>
      </trkpt>
      <trkpt lat="44.94857" lon="5.28961">
        <ele>1133.804355</ele>
        <time>2023-08-19T02:53:43.097Z</time>
      </trkpt>
      <trkpt lat="44.94884" lon="5.28979">
        <ele>1136.68353</ele>
        <time>2023-08-19T02:53:55.967Z</time>
      </trkpt>
      <trkpt lat="44.94915" lon="5.28993">
        <ele>1139.949659</ele>
        <time>2023-08-19T02:54:10.718Z</time>
      </trkpt>
      <trkpt lat="44.94977" lon="5.29014">
        <ele>1146.37773</ele>
        <time>2023-08-19T02:54:40.056Z</time>
      </trkpt>
      <trkpt lat="44.95018" lon="5.29033">
        <ele>1150.739237</ele>
        <time>2023-08-19T02:54:58.417Z</time>
      </trkpt>
      <trkpt lat="44.95044" lon="5.29051">
        <ele>1153.527611</ele>
        <time>2023-08-19T02:55:11.364Z</time>
      </trkpt>
      <trkpt lat="44.95074" lon="5.29081">
        <ele>1157.006106</ele>
        <time>2023-08-19T02:55:27.862Z</time>
      </trkpt>
      <trkpt lat="44.95151" lon="5.29172">
        <ele>1166.488361</ele>
        <time>2023-08-19T02:56:10.796Z</time>
      </trkpt>
      <trkpt lat="44.95174" lon="5.2919">
        <ele>1169.030002</ele>
        <time>2023-08-19T02:56:21.470Z</time>
      </trkpt>
      <trkpt lat="44.95271" lon="5.2923">
        <ele>1176.763842</ele>
        <time>2023-08-19T02:56:57.808Z</time>
      </trkpt>
      <trkpt lat="44.95379" lon="5.29284">
        <ele>1185.565774</ele>
        <time>2023-08-19T02:57:37.833Z</time>
      </trkpt>
      <trkpt lat="44.95491" lon="5.29369">
        <ele>1195.500832</ele>
        <time>2023-08-19T02:58:26.106Z</time>
      </trkpt>
      <trkpt lat="44.95596" lon="5.29434">
        <ele>1204.446372</ele>
        <time>2023-08-19T02:59:07.816Z</time>
      </trkpt>
      <trkpt lat="44.95642" lon="5.29453">
        <ele>1208.12293</ele>
        <time>2023-08-19T02:59:27.106Z</time>
      </trkpt>
      <trkpt lat="44.9566" lon="5.29462">
        <ele>1209.60364</ele>
        <time>2023-08-19T02:59:34.283Z</time>
      </trkpt>
      <trkpt lat="44.9567" lon="5.29475">
        <ele>1210.66973</ele>
        <time>2023-08-19T02:59:39.485Z</time>
      </trkpt>
      <trkpt lat="44.95674" lon="5.2949">
        <ele>1211.193231</ele>
        <time>2023-08-19T02:59:43.448Z</time>
      </trkpt>
      <trkpt lat="44.95678" lon="5.29539">
        <ele>1212.235874</ele>
        <time>2023-08-19T02:59:54.082Z</time>
      </trkpt>
      <trkpt lat="44.95687" lon="5.2958">
        <ele>1213.135932</ele>
        <time>2023-08-19T03:00:01.636Z</time>
      </trkpt>
      <trkpt lat="44.95715" lon="5.29667">
        <ele>1215.162834</ele>
        <time>2023-08-19T03:00:15.406Z</time>
      </trkpt>
      <trkpt lat="44.95726" lon="5.29731">
        <ele>1216.012112</ele>
        <time>2023-08-19T03:00:22.349Z</time>
      </trkpt>
      <trkpt lat="44.95726" lon="5.29758">
        <ele>1215.135169</ele>
        <time>2023-08-19T03:00:23.901Z</time>
      </trkpt>
      <trkpt lat="44.95698" lon="5.299">
        <ele>1210.296825</ele>
        <time>2023-08-19T03:00:31.602Z</time>
      </trkpt>
      <trkpt lat="44.9567" lon="5.3">
        <ele>1206.693369</ele>
        <time>2023-08-19T03:00:37.176Z</time>
      </trkpt>
      <trkpt lat="44.95539" lon="5.30343">
        <ele>1194.185232</ele>
        <time>2023-08-19T03:00:58.240Z</time>
      </trkpt>
      <trkpt lat="44.95519" lon="5.3039">
        <ele>1192.607843</ele>
        <time>2023-08-19T03:01:01.448Z</time>
      </trkpt>
      <trkpt lat="44.95496" lon="5.30426">
        <ele>1191.326075</ele>
        <time>2023-08-19T03:01:04.264Z</time>
      </trkpt>
      <trkpt lat="44.95452" lon="5.30479">
        <ele>1189.337264</ele>
        <time>2023-08-19T03:01:08.961Z</time>
      </trkpt>
      <trkpt lat="44.95415" lon="5.30529">
        <ele>1187.561742</ele>
        <time>2023-08-19T03:01:13.114Z</time>
      </trkpt>
      <trkpt lat="44.95391" lon="5.30577">
        <ele>1186.137626</ele>
        <time>2023-08-19T03:01:16.450Z</time>
      </trkpt>
      <trkpt lat="44.95366" lon="5.30617">
        <ele>1184.222582</ele>
        <time>2023-08-19T03:01:19.373Z</time>
      </trkpt>
      <trkpt lat="44.95348" lon="5.30663">
        <ele>1181.990573</ele>
        <time>2023-08-19T03:01:22.159Z</time>
      </trkpt>
      <trkpt lat="44.95331" lon="5.30682">
        <ele>1180.72697</ele>
        <time>2023-08-19T03:01:23.700Z</time>
      </trkpt>
      <trkpt lat="44.95295" lon="5.30692">
        <ele>1178.532975</ele>
        <time>2023-08-19T03:01:26.339Z</time>
      </trkpt>
      <trkpt lat="44.95283" lon="5.307">
        <ele>1177.697275</ele>
        <time>2023-08-19T03:01:27.340Z</time>
      </trkpt>
      <trkpt lat="44.95271" lon="5.30713">
        <ele>1176.803322</ele>
        <time>2023-08-19T03:01:28.417Z</time>
      </trkpt>
      <trkpt lat="44.95244" lon="5.30756">
        <ele>1174.407826</ele>
        <time>2023-08-19T03:01:31.348Z</time>
      </trkpt>
      <trkpt lat="44.95226" lon="5.30777">
        <ele>1173.127647</ele>
        <time>2023-08-19T03:01:32.984Z</time>
      </trkpt>
      <trkpt lat="44.95202" lon="5.30798">
        <ele>1171.519567</ele>
        <time>2023-08-19T03:01:35.062Z</time>
      </trkpt>
      <trkpt lat="44.95185" lon="5.30809">
        <ele>1170.432486</ele>
        <time>2023-08-19T03:01:36.483Z</time>
      </trkpt>
      <trkpt lat="44.95176" lon="5.30814">
        <ele>1169.888139</ele>
        <time>2023-08-19T03:01:37.192Z</time>
      </trkpt>
      <trkpt lat="44.95147" lon="5.30832">
        <ele>1168.109862</ele>
        <time>2023-08-19T03:01:39.526Z</time>
      </trkpt>
      <trkpt lat="44.95103" lon="5.3087">
        <ele>1165.187803</ele>
        <time>2023-08-19T03:01:43.437Z</time>
      </trkpt>
      <trkpt lat="44.95083" lon="5.30881">
        <ele>1164.044575</ele>
        <time>2023-08-19T03:01:45.083Z</time>
      </trkpt>
      <trkpt lat="44.95017" lon="5.30904">
        <ele>1160.503083</ele>
        <time>2023-08-19T03:01:50.353Z</time>
      </trkpt>
      <trkpt lat="44.94992" lon="5.309">
        <ele>1159.210566</ele>
        <time>2023-08-19T03:01:52.242Z</time>
      </trkpt>
      <trkpt lat="44.94969" lon="5.30903">
        <ele>1158.026569</ele>
        <time>2023-08-19T03:01:53.946Z</time>
      </trkpt>
      <trkpt lat="44.94951" lon="5.30913">
        <ele>1157.035711</ele>
        <time>2023-08-19T03:01:55.375Z</time>
      </trkpt>
      <trkpt lat="44.94905" lon="5.30951">
        <ele>1153.743716</ele>
        <time>2023-08-19T03:01:59.289Z</time>
      </trkpt>
      <trkpt lat="44.94839" lon="5.30986">
        <ele>1148.502013</ele>
        <time>2023-08-19T03:02:04.302Z</time>
      </trkpt>
      <trkpt lat="44.94657" lon="5.31021">
        <ele>1135.740412</ele>
        <time>2023-08-19T03:02:17.317Z</time>
      </trkpt>
      <trkpt lat="44.94614" lon="5.31023">
        <ele>1132.911785</ele>
        <time>2023-08-19T03:02:20.520Z</time>
      </trkpt>
      <trkpt lat="44.94537" lon="5.30996">
        <ele>1129.204945</ele>
        <time>2023-08-19T03:02:26.587Z</time>
      </trkpt>
      <trkpt lat="44.94385" lon="5.30907">
        <ele>1125.298519</ele>
        <time>2023-08-19T03:02:40.573Z</time>
      </trkpt>
      <trkpt lat="44.94358" lon="5.30888">
        <ele>1125.446978</ele>
        <time>2023-08-19T03:02:43.604Z</time>
      </trkpt>
      <trkpt lat="44.94335" lon="5.30884">
        <ele>1125.557595</ele>
        <time>2023-08-19T03:02:45.997Z</time>
      </trkpt>
      <trkpt lat="44.94267" lon="5.3088">
        <ele>1125.889109</ele>
        <time>2023-08-19T03:02:55.293Z</time>
      </trkpt>
      <trkpt lat="44.94169" lon="5.3088">
        <ele>1130.231493</ele>
        <time>2023-08-19T03:03:19.155Z</time>
      </trkpt>
      <trkpt lat="44.94146" lon="5.30877">
        <ele>1131.728656</ele>
        <time>2023-08-19T03:03:26.676Z</time>
      </trkpt>
      <trkpt lat="44.94139" lon="5.30878">
        <ele>1132.206281</ele>
        <time>2023-08-19T03:03:29.192Z</time>
      </trkpt>
      <trkpt lat="44.94134" lon="5.30882">
        <ele>1132.568417</ele>
        <time>2023-08-19T03:03:31.116Z</time>
      </trkpt>
      <trkpt lat="44.9413" lon="5.30895">
        <ele>1133.241226</ele>
        <time>2023-08-19T03:03:34.790Z</time>
      </trkpt>
      <trkpt lat="44.94059" lon="5.30865">
        <ele>1138.11418</ele>
        <time>2023-08-19T03:04:04.645Z</time>
      </trkpt>
      <trkpt lat="44.94029" lon="5.30857">
        <ele>1140.574573</ele>
        <time>2023-08-19T03:04:18.029Z</time>
      </trkpt>
      <trkpt lat="44.93996" lon="5.30864">
        <ele>1143.191551</ele>
        <time>2023-08-19T03:04:32.185Z</time>
      </trkpt>
      <trkpt lat="44.93943" lon="5.30903">
        <ele>1147.940111</ele>
        <time>2023-08-19T03:04:55.444Z</time>
      </trkpt>
      <trkpt lat="44.93919" lon="5.30912">
        <ele>1149.94086</ele>
        <time>2023-08-19T03:05:03.910Z</time>
      </trkpt>
      <trkpt lat="44.93903" lon="5.30913">
        <ele>1151.200022</ele>
        <time>2023-08-19T03:05:08.859Z</time>
      </trkpt>
      <trkpt lat="44.93887" lon="5.30909">
        <ele>1152.296319</ele>
        <time>2023-08-19T03:05:13.798Z</time>
      </trkpt>
      <trkpt lat="44.93866" lon="5.3088">
        <ele>1153.381909</ele>
        <time>2023-08-19T03:05:21.796Z</time>
      </trkpt>
      <trkpt lat="44.93834" lon="5.3082">
        <ele>1155.353624</ele>
        <time>2023-08-19T03:05:34.130Z</time>
      </trkpt>
      <trkpt lat="44.93806" lon="5.30783">
        <ele>1156.756685</ele>
        <time>2023-08-19T03:05:41.847Z</time>
      </trkpt>
      <trkpt lat="44.93732" lon="5.30708">
        <ele>1160.626078</ele>
        <time>2023-08-19T03:06:00.521Z</time>
      </trkpt>
      <trkpt lat="44.93726" lon="5.30704">
        <ele>1160.990481</ele>
        <time>2023-08-19T03:06:02.206Z</time>
      </trkpt>
      <trkpt lat="44.93704" lon="5.3069">
        <ele>1162.195475</ele>
        <time>2023-08-19T03:06:08.193Z</time>
      </trkpt>
      <trkpt lat="44.93684" lon="5.30683">
        <ele>1163.232193</ele>
        <time>2023-08-19T03:06:13.681Z</time>
      </trkpt>
      <trkpt lat="44.93671" lon="5.30682">
        <ele>1163.908546</ele>
        <time>2023-08-19T03:06:17.519Z</time>
      </trkpt>
      <trkpt lat="44.9366" lon="5.30686">
        <ele>1164.467701</ele>
        <time>2023-08-19T03:06:20.697Z</time>
      </trkpt>
      <trkpt lat="44.93507" lon="5.30778">
        <ele>1174.923358</ele>
        <time>2023-08-19T03:07:18.341Z</time>
      </trkpt>
      <trkpt lat="44.93493" lon="5.3079">
        <ele>1176.064898</ele>
        <time>2023-08-19T03:07:24.308Z</time>
      </trkpt>
      <trkpt lat="44.93484" lon="5.30805">
        <ele>1177.073167</ele>
        <time>2023-08-19T03:07:29.529Z</time>
      </trkpt>
      <trkpt lat="44.93447" lon="5.30911">
        <ele>1181.783424</ele>
        <time>2023-08-19T03:07:58.040Z</time>
      </trkpt>
      <trkpt lat="44.93442" lon="5.3093">
        <ele>1182.288534</ele>
        <time>2023-08-19T03:08:02.491Z</time>
      </trkpt>
      <trkpt lat="44.9344" lon="5.30946">
        <ele>1182.685985</ele>
        <time>2023-08-19T03:08:05.785Z</time>
      </trkpt>
      <trkpt lat="44.93442" lon="5.30961">
        <ele>1183.066049</ele>
        <time>2023-08-19T03:08:08.870Z</time>
      </trkpt>
      <trkpt lat="44.93448" lon="5.30978">
        <ele>1183.523111</ele>
        <time>2023-08-19T03:08:12.483Z</time>
      </trkpt>
      <trkpt lat="44.93476" lon="5.31022">
        <ele>1184.989041</ele>
        <time>2023-08-19T03:08:22.008Z</time>
      </trkpt>
      <trkpt lat="44.93484" lon="5.31041">
        <ele>1185.516755</ele>
        <time>2023-08-19T03:08:24.593Z</time>
      </trkpt>
      <trkpt lat="44.9349" lon="5.31062">
        <ele>1186.097287</ele>
        <time>2023-08-19T03:08:27.188Z</time>
      </trkpt>
      <trkpt lat="44.93514" lon="5.31165">
        <ele>1186.365798</ele>
        <time>2023-08-19T03:08:34.430Z</time>
      </trkpt>
      <trkpt lat="44.93514" lon="5.31177">
        <ele>1186.285588</ele>
        <time>2023-08-19T03:08:35.114Z</time>
      </trkpt>
      <trkpt lat="44.93494" lon="5.31338">
        <ele>1185.168755</ele>
        <time>2023-08-19T03:08:45.635Z</time>
      </trkpt>
      <trkpt lat="44.93488" lon="5.31363">
        <ele>1185.380432</ele>
        <time>2023-08-19T03:08:48.550Z</time>
      </trkpt>
      <trkpt lat="44.93479" lon="5.31376">
        <ele>1185.539769</ele>
        <time>2023-08-19T03:08:50.165Z</time>
      </trkpt>
      <trkpt lat="44.93462" lon="5.31388">
        <ele>1185.79876</ele>
        <time>2023-08-19T03:08:53.500Z</time>
      </trkpt>
      <trkpt lat="44.9345" lon="5.31394">
        <ele>1185.967825</ele>
        <time>2023-08-19T03:08:55.568Z</time>
      </trkpt>
      <trkpt lat="44.9341" lon="5.314">
        <ele>1186.491931</ele>
        <time>2023-08-19T03:09:03.038Z</time>
      </trkpt>
      <trkpt lat="44.93395" lon="5.31405">
        <ele>1186.696737</ele>
        <time>2023-08-19T03:09:06.137Z</time>
      </trkpt>
      <trkpt lat="44.93386" lon="5.31411">
        <ele>1186.828178</ele>
        <time>2023-08-19T03:09:07.711Z</time>
      </trkpt>
      <trkpt lat="44.93375" lon="5.31428">
        <ele>1187.049341</ele>
        <time>2023-08-19T03:09:10.575Z</time>
      </trkpt>
      <trkpt lat="44.93369" lon="5.31447">
        <ele>1187.237671</ele>
        <time>2023-08-19T03:09:12.943Z</time>
      </trkpt>
      <trkpt lat="44.93347" lon="5.31533">
        <ele>1187.727203</ele>
        <time>2023-08-19T03:09:24.149Z</time>
      </trkpt>
      <trkpt lat="44.93346" lon="5.31551">
        <ele>1187.787012</ele>
        <time>2023-08-19T03:09:26.262Z</time>
      </trkpt>
      <trkpt lat="44.93351" lon="5.31572">
        <ele>1187.85775</ele>
        <time>2023-08-19T03:09:28.991Z</time>
      </trkpt>
      <trkpt lat="44.93379" lon="5.31606">
        <ele>1188.025792</ele>
        <time>2023-08-19T03:09:34.968Z</time>
      </trkpt>
      <trkpt lat="44.93387" lon="5.31635">
        <ele>1188.126326</ele>
        <time>2023-08-19T03:09:37.676Z</time>
      </trkpt>
      <trkpt lat="44.93387" lon="5.31648">
        <ele>1188.168376</ele>
        <time>2023-08-19T03:09:38.588Z</time>
      </trkpt>
      <trkpt lat="44.93383" lon="5.31669">
        <ele>1188.239339</ele>
        <time>2023-08-19T03:09:40.117Z</time>
      </trkpt>
      <trkpt lat="44.93372" lon="5.31688">
        <ele>1188.317075</ele>
        <time>2023-08-19T03:09:41.667Z</time>
      </trkpt>
      <trkpt lat="44.93346" lon="5.31699">
        <ele>1188.351161</ele>
        <time>2023-08-19T03:09:44.049Z</time>
      </trkpt>
      <trkpt lat="44.93329" lon="5.31703">
        <ele>1188.347536</ele>
        <time>2023-08-19T03:09:45.558Z</time>
      </trkpt>
      <trkpt lat="44.93308" lon="5.31714">
        <ele>1188.342911</ele>
        <time>2023-08-19T03:09:47.514Z</time>
      </trkpt>
      <trkpt lat="44.93292" lon="5.31729">
        <ele>1188.339021</ele>
        <time>2023-08-19T03:09:49.298Z</time>
      </trkpt>
      <trkpt lat="44.9328" lon="5.31747">
        <ele>1188.3354</ele>
        <time>2023-08-19T03:09:51.171Z</time>
      </trkpt>
      <trkpt lat="44.93223" lon="5.31862">
        <ele>1188.774467</ele>
        <time>2023-08-19T03:10:07.920Z</time>
      </trkpt>
      <trkpt lat="44.93209" lon="5.31879">
        <ele>1189.328538</ele>
        <time>2023-08-19T03:10:11.184Z</time>
      </trkpt>
      <trkpt lat="44.93176" lon="5.31896">
        <ele>1190.36998</ele>
        <time>2023-08-19T03:10:17.226Z</time>
      </trkpt>
      <trkpt lat="44.93149" lon="5.31901">
        <ele>1191.175804</ele>
        <time>2023-08-19T03:10:22.141Z</time>
      </trkpt>
      <trkpt lat="44.9309" lon="5.31887">
        <ele>1192.95751</ele>
        <time>2023-08-19T03:10:35.555Z</time>
      </trkpt>
      <trkpt lat="44.92968" lon="5.31893">
        <ele>1199.696998</ele>
        <time>2023-08-19T03:11:13.186Z</time>
      </trkpt>
      <trkpt lat="44.92921" lon="5.31915">
        <ele>1202.725517</ele>
        <time>2023-08-19T03:11:30.431Z</time>
      </trkpt>
      <trkpt lat="44.92875" lon="5.31943">
        <ele>1205.361759</ele>
        <time>2023-08-19T03:11:48.252Z</time>
      </trkpt>
      <trkpt lat="44.92837" lon="5.31997">
        <ele>1207.325486</ele>
        <time>2023-08-19T03:12:02.600Z</time>
      </trkpt>
      <trkpt lat="44.92795" lon="5.32039">
        <ele>1209.238893</ele>
        <time>2023-08-19T03:12:13.807Z</time>
      </trkpt>
      <trkpt lat="44.92776" lon="5.32065">
        <ele>1210.200038</ele>
        <time>2023-08-19T03:12:18.570Z</time>
      </trkpt>
      <trkpt lat="44.92769" lon="5.3208">
        <ele>1210.6765</ele>
        <time>2023-08-19T03:12:20.802Z</time>
      </trkpt>
      <trkpt lat="44.92767" lon="5.32091">
        <ele>1210.971288</ele>
        <time>2023-08-19T03:12:22.102Z</time>
      </trkpt>
      <trkpt lat="44.92767" lon="5.32099">
        <ele>1211.187412</ele>
        <time>2023-08-19T03:12:23.008Z</time>
      </trkpt>
      <trkpt lat="44.92772" lon="5.32118">
        <ele>1211.526976</ele>
        <time>2023-08-19T03:12:25.077Z</time>
      </trkpt>
      <trkpt lat="44.92778" lon="5.32126">
        <ele>1211.682801</ele>
        <time>2023-08-19T03:12:26.376Z</time>
      </trkpt>
      <trkpt lat="44.92785" lon="5.32128">
        <ele>1211.814668</ele>
        <time>2023-08-19T03:12:27.481Z</time>
      </trkpt>
      <trkpt lat="44.92794" lon="5.32126">
        <ele>1212.000787</ele>
        <time>2023-08-19T03:12:28.997Z</time>
      </trkpt>
      <trkpt lat="44.92859" lon="5.32087">
        <ele>1213.370388</ele>
        <time>2023-08-19T03:12:40.389Z</time>
      </trkpt>
      <trkpt lat="44.92913" lon="5.32069">
        <ele>1214.449496</ele>
        <time>2023-08-19T03:12:49.522Z</time>
      </trkpt>
      <trkpt lat="44.92944" lon="5.32069">
        <ele>1215.582109</ele>
        <time>2023-08-19T03:12:56.929Z</time>
      </trkpt>
      <trkpt lat="44.93006" lon="5.32079">
        <ele>1219.542429</ele>
        <time>2023-08-19T03:13:13.925Z</time>
      </trkpt>
      <trkpt lat="44.9305" lon="5.32089">
        <ele>1222.323974</ele>
        <time>2023-08-19T03:13:28.976Z</time>
      </trkpt>
      <trkpt lat="44.93107" lon="5.3212">
        <ele>1226.152059</ele>
        <time>2023-08-19T03:13:53.504Z</time>
      </trkpt>
      <trkpt lat="44.9314" lon="5.32144">
        <ele>1228.804374</ele>
        <time>2023-08-19T03:14:08.861Z</time>
      </trkpt>
      <trkpt lat="44.93148" lon="5.3216">
        <ele>1229.760398</ele>
        <time>2023-08-19T03:14:14.136Z</time>
      </trkpt>
      <trkpt lat="44.93154" lon="5.32175">
        <ele>1230.60523</ele>
        <time>2023-08-19T03:14:18.515Z</time>
      </trkpt>
      <trkpt lat="44.93166" lon="5.32252">
        <ele>1234.477322</ele>
        <time>2023-08-19T03:14:35.716Z</time>
      </trkpt>
      <trkpt lat="44.93173" lon="5.32275">
        <ele>1235.731936</ele>
        <time>2023-08-19T03:14:40.682Z</time>
      </trkpt>
      <trkpt lat="44.93188" lon="5.323">
        <ele>1237.361412</ele>
        <time>2023-08-19T03:14:47.383Z</time>
      </trkpt>
      <trkpt lat="44.93198" lon="5.3231">
        <ele>1238.202624</ele>
        <time>2023-08-19T03:14:51.886Z</time>
      </trkpt>
      <trkpt lat="44.9322" lon="5.32318">
        <ele>1239.566721</ele>
        <time>2023-08-19T03:14:58.814Z</time>
      </trkpt>
      <trkpt lat="44.93271" lon="5.32313">
        <ele>1242.471286</ele>
        <time>2023-08-19T03:15:17.068Z</time>
      </trkpt>
      <trkpt lat="44.933" lon="5.32318">
        <ele>1244.17409</ele>
        <time>2023-08-19T03:15:26.642Z</time>
      </trkpt>
      <trkpt lat="44.93319" lon="5.32324">
        <ele>1245.256543</ele>
        <time>2023-08-19T03:15:31.676Z</time>
      </trkpt>
      <trkpt lat="44.93325" lon="5.32335">
        <ele>1245.833014</ele>
        <time>2023-08-19T03:15:34.692Z</time>
      </trkpt>
      <trkpt lat="44.93325" lon="5.32341">
        <ele>1246.070998</ele>
        <time>2023-08-19T03:15:36.261Z</time>
      </trkpt>
      <trkpt lat="44.93315" lon="5.32345">
        <ele>1246.654197</ele>
        <time>2023-08-19T03:15:39.138Z</time>
      </trkpt>
      <trkpt lat="44.93294" lon="5.32338">
        <ele>1247.92478</ele>
        <time>2023-08-19T03:15:44.536Z</time>
      </trkpt>
      <trkpt lat="44.93218" lon="5.32346">
        <ele>1251.117883</ele>
        <time>2023-08-19T03:16:04.097Z</time>
      </trkpt>
      <trkpt lat="44.9314" lon="5.32326">
        <ele>1254.075328</ele>
        <time>2023-08-19T03:16:23.769Z</time>
      </trkpt>
      <trkpt lat="44.93126" lon="5.32317">
        <ele>1254.665808</ele>
        <time>2023-08-19T03:16:26.998Z</time>
      </trkpt>
      <trkpt lat="44.93085" lon="5.32254">
        <ele>1256.351281</ele>
        <time>2023-08-19T03:16:39.101Z</time>
      </trkpt>
      <trkpt lat="44.93061" lon="5.32233">
        <ele>1256.927057</ele>
        <time>2023-08-19T03:16:44.225Z</time>
      </trkpt>
      <trkpt lat="44.93043" lon="5.32229">
        <ele>1257.295498</ele>
        <time>2023-08-19T03:16:47.256Z</time>
      </trkpt>
      <trkpt lat="44.92988" lon="5.32241">
        <ele>1258.399754</ele>
        <time>2023-08-19T03:16:55.335Z</time>
      </trkpt>
      <trkpt lat="44.92931" lon="5.32263">
        <ele>1260.065161</ele>
        <time>2023-08-19T03:17:06.304Z</time>
      </trkpt>
      <trkpt lat="44.92883" lon="5.32275">
        <ele>1262.61364</ele>
        <time>2023-08-19T03:17:18.226Z</time>
      </trkpt>
      <trkpt lat="44.92852" lon="5.32288">
        <ele>1264.286258</ele>
        <time>2023-08-19T03:17:27.498Z</time>
      </trkpt>
      <trkpt lat="44.92839" lon="5.32297">
        <ele>1265.039014</ele>
        <time>2023-08-19T03:17:31.881Z</time>
      </trkpt>
      <trkpt lat="44.92798" lon="5.32335">
        <ele>1267.617477</ele>
        <time>2023-08-19T03:17:48.077Z</time>
      </trkpt>
      <trkpt lat="44.92772" lon="5.32365">
        <ele>1269.914693</ele>
        <time>2023-08-19T03:17:59.641Z</time>
      </trkpt>
      <trkpt lat="44.92746" lon="5.32403">
        <ele>1273.301301</ele>
        <time>2023-08-19T03:18:13.784Z</time>
      </trkpt>
      <trkpt lat="44.92691" lon="5.32476">
        <ele>1280.21711</ele>
        <time>2023-08-19T03:18:46.872Z</time>
      </trkpt>
      <trkpt lat="44.92673" lon="5.32486">
        <ele>1281.972759</ele>
        <time>2023-08-19T03:18:55.791Z</time>
      </trkpt>
      <trkpt lat="44.92622" lon="5.32471">
        <ele>1286.419636</ele>
        <time>2023-08-19T03:19:19.326Z</time>
      </trkpt>
      <trkpt lat="44.92546" lon="5.32494">
        <ele>1292.055059</ele>
        <time>2023-08-19T03:19:48.741Z</time>
      </trkpt>
      <trkpt lat="44.92521" lon="5.32493">
        <ele>1293.881097</ele>
        <time>2023-08-19T03:19:56.866Z</time>
      </trkpt>
      <trkpt lat="44.92483" lon="5.32477">
        <ele>1296.712905</ele>
        <time>2023-08-19T03:20:08.604Z</time>
      </trkpt>
      <trkpt lat="44.92441" lon="5.32449">
        <ele>1299.168186</ele>
        <time>2023-08-19T03:20:21.326Z</time>
      </trkpt>
      <trkpt lat="44.92399" lon="5.32436">
        <ele>1300.750024</ele>
        <time>2023-08-19T03:20:31.875Z</time>
      </trkpt>
      <trkpt lat="44.92241" lon="5.32444">
        <ele>1306.485669</ele>
        <time>2023-08-19T03:21:06.350Z</time>
      </trkpt>
      <trkpt lat="44.92229" lon="5.32441">
        <ele>1306.90476</ele>
        <time>2023-08-19T03:21:08.946Z</time>
      </trkpt>
      <trkpt lat="44.92162" lon="5.32401">
        <ele>1309.44883</ele>
        <time>2023-08-19T03:21:24.317Z</time>
      </trkpt>
      <trkpt lat="44.92129" lon="5.32389">
        <ele>1310.633168</ele>
        <time>2023-08-19T03:21:32.518Z</time>
      </trkpt>
      <trkpt lat="44.92114" lon="5.32384">
        <ele>1311.272969</ele>
        <time>2023-08-19T03:21:36.569Z</time>
      </trkpt>
      <trkpt lat="44.92071" lon="5.32377">
        <ele>1314.345771</ele>
        <time>2023-08-19T03:21:49.090Z</time>
      </trkpt>
      <trkpt lat="44.92053" lon="5.32384">
        <ele>1315.64943</ele>
        <time>2023-08-19T03:21:55.249Z</time>
      </trkpt>
      <trkpt lat="44.92038" lon="5.32401">
        <ele>1317.06197</ele>
        <time>2023-08-19T03:22:01.681Z</time>
      </trkpt>
      <trkpt lat="44.92019" lon="5.32447">
        <ele>1319.726074</ele>
        <time>2023-08-19T03:22:15.053Z</time>
      </trkpt>
      <trkpt lat="44.92" lon="5.32481">
        <ele>1321.919631</ele>
        <time>2023-08-19T03:22:26.703Z</time>
      </trkpt>
      <trkpt lat="44.91951" lon="5.3252">
        <ele>1326.588716</ele>
        <time>2023-08-19T03:22:50.966Z</time>
      </trkpt>
      <trkpt lat="44.91921" lon="5.32529">
        <ele>1329.393967</ele>
        <time>2023-08-19T03:23:04.728Z</time>
      </trkpt>
      <trkpt lat="44.91892" lon="5.32527">
        <ele>1332.114087</ele>
        <time>2023-08-19T03:23:18.278Z</time>
      </trkpt>
      <trkpt lat="44.91826" lon="5.32512">
        <ele>1338.385414</ele>
        <time>2023-08-19T03:23:47.601Z</time>
      </trkpt>
      <trkpt lat="44.91727" lon="5.32534">
        <ele>1345.651517</ele>
        <time>2023-08-19T03:24:21.598Z</time>
      </trkpt>
      <trkpt lat="44.91715" lon="5.32533">
        <ele>1346.411767</ele>
        <time>2023-08-19T03:24:25.217Z</time>
      </trkpt>
      <trkpt lat="44.91663" lon="5.32496">
        <ele>1350.231659</ele>
        <time>2023-08-19T03:24:43.275Z</time>
      </trkpt>
      <trkpt lat="44.91636" lon="5.32483">
        <ele>1352.03376</ele>
        <time>2023-08-19T03:24:51.609Z</time>
      </trkpt>
      <trkpt lat="44.91626" lon="5.32484">
        <ele>1352.703709</ele>
        <time>2023-08-19T03:24:54.892Z</time>
      </trkpt>
      <trkpt lat="44.91619" lon="5.32484">
        <ele>1353.201988</ele>
        <time>2023-08-19T03:24:57.130Z</time>
      </trkpt>
      <trkpt lat="44.91531" lon="5.32521">
        <ele>1359.357942</ele>
        <time>2023-08-19T03:25:25.805Z</time>
      </trkpt>
      <trkpt lat="44.91426" lon="5.32555">
        <ele>1366.693419</ele>
        <time>2023-08-19T03:26:04.667Z</time>
      </trkpt>
      <trkpt lat="44.9141" lon="5.32556">
        <ele>1367.889041</ele>
        <time>2023-08-19T03:26:11.037Z</time>
      </trkpt>
      <trkpt lat="44.91392" lon="5.3255">
        <ele>1369.153433</ele>
        <time>2023-08-19T03:26:17.748Z</time>
      </trkpt>
      <trkpt lat="44.91347" lon="5.32524">
        <ele>1372.612343</ele>
        <time>2023-08-19T03:26:35.731Z</time>
      </trkpt>
      <trkpt lat="44.91323" lon="5.32516">
        <ele>1374.420833</ele>
        <time>2023-08-19T03:26:44.500Z</time>
      </trkpt>
      <trkpt lat="44.91299" lon="5.32514">
        <ele>1376.072123</ele>
        <time>2023-08-19T03:26:51.913Z</time>
      </trkpt>
      <trkpt lat="44.91249" lon="5.32526">
        <ele>1378.635282</ele>
        <time>2023-08-19T03:27:06.742Z</time>
      </trkpt>
      <trkpt lat="44.91223" lon="5.32528">
        <ele>1379.676293</ele>
        <time>2023-08-19T03:27:13.956Z</time>
      </trkpt>
      <trkpt lat="44.91052" lon="5.32521">
        <ele>1385.866298</ele>
        <time>2023-08-19T03:27:51.256Z</time>
      </trkpt>
      <trkpt lat="44.91034" lon="5.32527">
        <ele>1386.400152</ele>
        <time>2023-08-19T03:27:54.381Z</time>
      </trkpt>
      <trkpt lat="44.91024" lon="5.32535">
        <ele>1386.757666</ele>
        <time>2023-08-19T03:27:56.555Z</time>
      </trkpt>
      <trkpt lat="44.91005" lon="5.32562">
        <ele>1387.534611</ele>
        <time>2023-08-19T03:28:01.544Z</time>
      </trkpt>
      <trkpt lat="44.90993" lon="5.32597">
        <ele>1388.363991</ele>
        <time>2023-08-19T03:28:07.396Z</time>
      </trkpt>
      <trkpt lat="44.90967" lon="5.32645">
        <ele>1389.619364</ele>
        <time>2023-08-19T03:28:17.021Z</time>
      </trkpt>
      <trkpt lat="44.90963" lon="5.32664">
        <ele>1390.317066</ele>
        <time>2023-08-19T03:28:20.516Z</time>
      </trkpt>
      <trkpt lat="44.90964" lon="5.32683">
        <ele>1391.006648</ele>
        <time>2023-08-19T03:28:23.769Z</time>
      </trkpt>
      <trkpt lat="44.90979" lon="5.32737">
        <ele>1393.202582</ele>
        <time>2023-08-19T03:28:34.873Z</time>
      </trkpt>
      <trkpt lat="44.90987" lon="5.32755">
        <ele>1394.010735</ele>
        <time>2023-08-19T03:28:39.233Z</time>
      </trkpt>
      <trkpt lat="44.91015" lon="5.32797">
        <ele>1396.179903</ele>
        <time>2023-08-19T03:28:51.381Z</time>
      </trkpt>
      <trkpt lat="44.91032" lon="5.32831">
        <ele>1397.750544</ele>
        <time>2023-08-19T03:29:00.783Z</time>
      </trkpt>
      <trkpt lat="44.9105" lon="5.32899">
        <ele>1400.621401</ele>
        <time>2023-08-19T03:29:18.172Z</time>
      </trkpt>
      <trkpt lat="44.91086" lon="5.33007">
        <ele>1405.534471</ele>
        <time>2023-08-19T03:29:45.610Z</time>
      </trkpt>
      <trkpt lat="44.91092" lon="5.33035">
        <ele>1406.778949</ele>
        <time>2023-08-19T03:29:51.902Z</time>
      </trkpt>
      <trkpt lat="44.91094" lon="5.33045">
        <ele>1407.175767</ele>
        <time>2023-08-19T03:29:53.855Z</time>
      </trkpt>
      <trkpt lat="44.91094" lon="5.33057">
        <ele>1407.67764</ele>
        <time>2023-08-19T03:29:56.359Z</time>
      </trkpt>
      <trkpt lat="44.91089" lon="5.33106">
        <ele>1409.732875</ele>
        <time>2023-08-19T03:30:05.941Z</time>
      </trkpt>
      <trkpt lat="44.91081" lon="5.33147">
        <ele>1410.93687</ele>
        <time>2023-08-19T03:30:13.734Z</time>
      </trkpt>
      <trkpt lat="44.91077" lon="5.33157">
        <ele>1411.268146</ele>
        <time>2023-08-19T03:30:15.877Z</time>
      </trkpt>
      <trkpt lat="44.91064" lon="5.33173">
        <ele>1411.938605</ele>
        <time>2023-08-19T03:30:19.996Z</time>
      </trkpt>
      <trkpt lat="44.91017" lon="5.33201">
        <ele>1413.912209</ele>
        <time>2023-08-19T03:30:31.674Z</time>
      </trkpt>
      <trkpt lat="44.91004" lon="5.33223">
        <ele>1414.73595</ele>
        <time>2023-08-19T03:30:36.271Z</time>
      </trkpt>
      <trkpt lat="44.90986" lon="5.33252">
        <ele>1415.785333</ele>
        <time>2023-08-19T03:30:42.434Z</time>
      </trkpt>
      <trkpt lat="44.90963" lon="5.33264">
        <ele>1416.755544</ele>
        <time>2023-08-19T03:30:48.237Z</time>
      </trkpt>
      <trkpt lat="44.90933" lon="5.33262">
        <ele>1418.404463</ele>
        <time>2023-08-19T03:30:55.790Z</time>
      </trkpt>
      <trkpt lat="44.90915" lon="5.33257">
        <ele>1419.41216</ele>
        <time>2023-08-19T03:31:00.554Z</time>
      </trkpt>
      <trkpt lat="44.90897" lon="5.33273">
        <ele>1420.610318</ele>
        <time>2023-08-19T03:31:06.693Z</time>
      </trkpt>
      <trkpt lat="44.90886" lon="5.33297">
        <ele>1421.767417</ele>
        <time>2023-08-19T03:31:12.824Z</time>
      </trkpt>
      <trkpt lat="44.90875" lon="5.33319">
        <ele>1422.785547</ele>
        <time>2023-08-19T03:31:18.710Z</time>
      </trkpt>
      <trkpt lat="44.90863" lon="5.33367">
        <ele>1424.818466</ele>
        <time>2023-08-19T03:31:31.013Z</time>
      </trkpt>
      <trkpt lat="44.90819" lon="5.33413">
        <ele>1427.912236</ele>
        <time>2023-08-19T03:31:48.800Z</time>
      </trkpt>
      <trkpt lat="44.90769" lon="5.33467">
        <ele>1431.612018</ele>
        <time>2023-08-19T03:32:09.283Z</time>
      </trkpt>
      <trkpt lat="44.90747" lon="5.3349">
        <ele>1433.216036</ele>
        <time>2023-08-19T03:32:18.233Z</time>
      </trkpt>
      <trkpt lat="44.90718" lon="5.33498">
        <ele>1434.930719</ele>
        <time>2023-08-19T03:32:28.196Z</time>
      </trkpt>
      <trkpt lat="44.90634" lon="5.33492">
        <ele>1437.386871</ele>
        <time>2023-08-19T03:32:50.063Z</time>
      </trkpt>
      <trkpt lat="44.90611" lon="5.33506">
        <ele>1437.377083</ele>
        <time>2023-08-19T03:32:54.201Z</time>
      </trkpt>
      <trkpt lat="44.90591" lon="5.33531">
        <ele>1437.366422</ele>
        <time>2023-08-19T03:32:57.120Z</time>
      </trkpt>
      <trkpt lat="44.90588" lon="5.33542">
        <ele>1437.36318</ele>
        <time>2023-08-19T03:32:57.919Z</time>
      </trkpt>
      <trkpt lat="44.90577" lon="5.33635">
        <ele>1437.336712</ele>
        <time>2023-08-19T03:33:03.609Z</time>
      </trkpt>
      <trkpt lat="44.90569" lon="5.33706">
        <ele>1435.371259</ele>
        <time>2023-08-19T03:33:07.542Z</time>
      </trkpt>
      <trkpt lat="44.90566" lon="5.3376">
        <ele>1433.487539</ele>
        <time>2023-08-19T03:33:10.381Z</time>
      </trkpt>
      <trkpt lat="44.9057" lon="5.33841">
        <ele>1430.637151</ele>
        <time>2023-08-19T03:33:14.639Z</time>
      </trkpt>
      <trkpt lat="44.90577" lon="5.33923">
        <ele>1427.744546</ele>
        <time>2023-08-19T03:33:19.037Z</time>
      </trkpt>
      <trkpt lat="44.90583" lon="5.3394">
        <ele>1427.10146</ele>
        <time>2023-08-19T03:33:20.051Z</time>
      </trkpt>
      <trkpt lat="44.90593" lon="5.33951">
        <ele>1426.525457</ele>
        <time>2023-08-19T03:33:20.964Z</time>
      </trkpt>
      <trkpt lat="44.9062" lon="5.33965">
        <ele>1425.144057</ele>
        <time>2023-08-19T03:33:23.158Z</time>
      </trkpt>
      <trkpt lat="44.90629" lon="5.33973">
        <ele>1424.621393</ele>
        <time>2023-08-19T03:33:23.995Z</time>
      </trkpt>
      <trkpt lat="44.90635" lon="5.33985">
        <ele>1424.137685</ele>
        <time>2023-08-19T03:33:24.765Z</time>
      </trkpt>
      <trkpt lat="44.90639" lon="5.33998">
        <ele>1423.654379</ele>
        <time>2023-08-19T03:33:25.544Z</time>
      </trkpt>
      <trkpt lat="44.90639" lon="5.34012">
        <ele>1423.193538</ele>
        <time>2023-08-19T03:33:26.290Z</time>
      </trkpt>
      <trkpt lat="44.90637" lon="5.34024">
        <ele>1422.759166</ele>
        <time>2023-08-19T03:33:26.991Z</time>
      </trkpt>
      <trkpt lat="44.90631" lon="5.34038">
        <ele>1422.219051</ele>
        <time>2023-08-19T03:33:27.866Z</time>
      </trkpt>
      <trkpt lat="44.90623" lon="5.34047">
        <ele>1421.734073</ele>
        <time>2023-08-19T03:33:28.648Z</time>
      </trkpt>
      <trkpt lat="44.9061" lon="5.34058">
        <ele>1421.025071</ele>
        <time>2023-08-19T03:33:29.784Z</time>
      </trkpt>
      <trkpt lat="44.90574" lon="5.34078">
        <ele>1419.020349</ele>
        <time>2023-08-19T03:33:32.798Z</time>
      </trkpt>
      <trkpt lat="44.90551" lon="5.34098">
        <ele>1417.534361</ele>
        <time>2023-08-19T03:33:34.799Z</time>
      </trkpt>
      <trkpt lat="44.90545" lon="5.34112">
        <ele>1416.891806</ele>
        <time>2023-08-19T03:33:35.655Z</time>
      </trkpt>
      <trkpt lat="44.90531" lon="5.34172">
        <ele>1414.360895</ele>
        <time>2023-08-19T03:33:38.958Z</time>
      </trkpt>
      <trkpt lat="44.90533" lon="5.34195">
        <ele>1413.424901</ele>
        <time>2023-08-19T03:33:40.167Z</time>
      </trkpt>
      <trkpt lat="44.90545" lon="5.34216">
        <ele>1412.370886</ele>
        <time>2023-08-19T03:33:41.533Z</time>
      </trkpt>
      <trkpt lat="44.90555" lon="5.34225">
        <ele>1411.736478</ele>
        <time>2023-08-19T03:33:42.362Z</time>
      </trkpt>
      <trkpt lat="44.90688" lon="5.3432">
        <ele>1404.316494</ele>
        <time>2023-08-19T03:33:53.557Z</time>
      </trkpt>
      <trkpt lat="44.90745" lon="5.34388">
        <ele>1400.829573</ele>
        <time>2023-08-19T03:33:59.423Z</time>
      </trkpt>
      <trkpt lat="44.90756" lon="5.34405">
        <ele>1400.206799</ele>
        <time>2023-08-19T03:34:00.694Z</time>
      </trkpt>
      <trkpt lat="44.90763" lon="5.34421">
        <ele>1399.670238</ele>
        <time>2023-08-19T03:34:01.764Z</time>
      </trkpt>
      <trkpt lat="44.90776" lon="5.34504">
        <ele>1397.331705</ele>
        <time>2023-08-19T03:34:06.465Z</time>
      </trkpt>
      <trkpt lat="44.90781" lon="5.34519">
        <ele>1396.884479</ele>
        <time>2023-08-19T03:34:07.357Z</time>
      </trkpt>
      <trkpt lat="44.90801" lon="5.34542">
        <ele>1395.862637</ele>
        <time>2023-08-19T03:34:09.429Z</time>
      </trkpt>
      <trkpt lat="44.90819" lon="5.34554">
        <ele>1395.084938</ele>
        <time>2023-08-19T03:34:11.002Z</time>
      </trkpt>
      <trkpt lat="44.90829" lon="5.34565">
        <ele>1394.587345</ele>
        <time>2023-08-19T03:34:12.010Z</time>
      </trkpt>
      <trkpt lat="44.90837" lon="5.34578">
        <ele>1394.087273</ele>
        <time>2023-08-19T03:34:12.968Z</time>
      </trkpt>
      <trkpt lat="44.90856" lon="5.34624">
        <ele>1392.108861</ele>
        <time>2023-08-19T03:34:15.921Z</time>
      </trkpt>
      <trkpt lat="44.90867" lon="5.34638">
        <ele>1391.339518</ele>
        <time>2023-08-19T03:34:17.061Z</time>
      </trkpt>
      <trkpt lat="44.90883" lon="5.34644">
        <ele>1390.481598</ele>
        <time>2023-08-19T03:34:18.311Z</time>
      </trkpt>
      <trkpt lat="44.90927" lon="5.3463">
        <ele>1388.07528</ele>
        <time>2023-08-19T03:34:21.771Z</time>
      </trkpt>
      <trkpt lat="44.90939" lon="5.34632">
        <ele>1387.447782</ele>
        <time>2023-08-19T03:34:22.665Z</time>
      </trkpt>
      <trkpt lat="44.90949" lon="5.34638">
        <ele>1386.844845</ele>
        <time>2023-08-19T03:34:23.497Z</time>
      </trkpt>
      <trkpt lat="44.90958" lon="5.34648">
        <ele>1386.25577</ele>
        <time>2023-08-19T03:34:24.307Z</time>
      </trkpt>
      <trkpt lat="44.90968" lon="5.34678">
        <ele>1385.034611</ele>
        <time>2023-08-19T03:34:25.979Z</time>
      </trkpt>
      <trkpt lat="44.90983" lon="5.34814">
        <ele>1377.801355</ele>
        <time>2023-08-19T03:34:32.892Z</time>
      </trkpt>
      <trkpt lat="44.90998" lon="5.3487">
        <ele>1374.619286</ele>
        <time>2023-08-19T03:34:35.860Z</time>
      </trkpt>
      <trkpt lat="44.90999" lon="5.34895">
        <ele>1373.270028</ele>
        <time>2023-08-19T03:34:37.116Z</time>
      </trkpt>
      <trkpt lat="44.9099" lon="5.34984">
        <ele>1369.638217</ele>
        <time>2023-08-19T03:34:41.705Z</time>
      </trkpt>
      <trkpt lat="44.90991" lon="5.35">
        <ele>1369.170695</ele>
        <time>2023-08-19T03:34:42.525Z</time>
      </trkpt>
      <trkpt lat="44.91007" lon="5.35122">
        <ele>1365.526214</ele>
        <time>2023-08-19T03:34:49.195Z</time>
      </trkpt>
      <trkpt lat="44.9101" lon="5.35179">
        <ele>1363.873661</ele>
        <time>2023-08-19T03:34:52.801Z</time>
      </trkpt>
      <trkpt lat="44.91009" lon="5.35209">
        <ele>1363.921382</ele>
        <time>2023-08-19T03:34:55.559Z</time>
      </trkpt>
      <trkpt lat="44.90999" lon="5.35291">
        <ele>1365.039642</ele>
        <time>2023-08-19T03:35:06.715Z</time>
      </trkpt>
      <trkpt lat="44.90999" lon="5.35307">
        <ele>1365.258839</ele>
        <time>2023-08-19T03:35:09.377Z</time>
      </trkpt>
      <trkpt lat="44.91001" lon="5.35329">
        <ele>1365.55602</ele>
        <time>2023-08-19T03:35:13.021Z</time>
      </trkpt>
      <trkpt lat="44.91022" lon="5.35428">
        <ele>1366.948297</ele>
        <time>2023-08-19T03:35:29.477Z</time>
      </trkpt>
      <trkpt lat="44.91024" lon="5.35461">
        <ele>1366.551095</ele>
        <time>2023-08-19T03:35:33.553Z</time>
      </trkpt>
      <trkpt lat="44.91019" lon="5.3548">
        <ele>1366.168232</ele>
        <time>2023-08-19T03:35:35.440Z</time>
      </trkpt>
      <trkpt lat="44.91013" lon="5.35497">
        <ele>1365.799392</ele>
        <time>2023-08-19T03:35:37.359Z</time>
      </trkpt>
      <trkpt lat="44.91002" lon="5.35514">
        <ele>1365.365178</ele>
        <time>2023-08-19T03:35:39.055Z</time>
      </trkpt>
      <trkpt lat="44.90988" lon="5.35528">
        <ele>1364.904857</ele>
        <time>2023-08-19T03:35:40.720Z</time>
      </trkpt>
      <trkpt lat="44.90971" lon="5.35538">
        <ele>1364.398179</ele>
        <time>2023-08-19T03:35:42.345Z</time>
      </trkpt>
      <trkpt lat="44.90949" lon="5.35545">
        <ele>1363.803984</ele>
        <time>2023-08-19T03:35:44.088Z</time>
      </trkpt>
      <trkpt lat="44.90909" lon="5.35554">
        <ele>1362.692227</ele>
        <time>2023-08-19T03:35:47.154Z</time>
      </trkpt>
      <trkpt lat="44.90873" lon="5.35577">
        <ele>1360.071668</ele>
        <time>2023-08-19T03:35:49.934Z</time>
      </trkpt>
      <trkpt lat="44.90863" lon="5.3558">
        <ele>1358.981508</ele>
        <time>2023-08-19T03:35:50.672Z</time>
      </trkpt>
      <trkpt lat="44.90853" lon="5.3558">
        <ele>1358.033228</ele>
        <time>2023-08-19T03:35:51.309Z</time>
      </trkpt>
      <trkpt lat="44.90823" lon="5.35571">
        <ele>1354.875357</ele>
        <time>2023-08-19T03:35:53.396Z</time>
      </trkpt>
      <trkpt lat="44.90814" lon="5.35575">
        <ele>1353.838694</ele>
        <time>2023-08-19T03:35:54.083Z</time>
      </trkpt>
      <trkpt lat="44.9077" lon="5.35612">
        <ele>1348.549424</ele>
        <time>2023-08-19T03:35:57.563Z</time>
      </trkpt>
      <trkpt lat="44.90746" lon="5.35631">
        <ele>1345.756458</ele>
        <time>2023-08-19T03:35:59.408Z</time>
      </trkpt>
      <trkpt lat="44.90729" lon="5.35665">
        <ele>1342.351494</ele>
        <time>2023-08-19T03:36:01.421Z</time>
      </trkpt>
      <trkpt lat="44.90728" lon="5.35668">
        <ele>1342.016749</ele>
        <time>2023-08-19T03:36:01.584Z</time>
      </trkpt>
      <trkpt lat="44.90724" lon="5.35691">
        <ele>1339.618746</ele>
        <time>2023-08-19T03:36:02.727Z</time>
      </trkpt>
      <trkpt lat="44.90727" lon="5.35736">
        <ele>1335.078194</ele>
        <time>2023-08-19T03:36:04.894Z</time>
      </trkpt>
      <trkpt lat="44.90731" lon="5.3576">
        <ele>1332.546409</ele>
        <time>2023-08-19T03:36:06.104Z</time>
      </trkpt>
      <trkpt lat="44.90744" lon="5.35799">
        <ele>1328.179218</ele>
        <time>2023-08-19T03:36:08.145Z</time>
      </trkpt>
      <trkpt lat="44.90748" lon="5.35819">
        <ele>1326.168198</ele>
        <time>2023-08-19T03:36:09.083Z</time>
      </trkpt>
      <trkpt lat="44.90747" lon="5.3583">
        <ele>1324.980033</ele>
        <time>2023-08-19T03:36:09.631Z</time>
      </trkpt>
      <trkpt lat="44.90734" lon="5.35879">
        <ele>1319.793236</ele>
        <time>2023-08-19T03:36:12.025Z</time>
      </trkpt>
      <trkpt lat="44.90733" lon="5.35894">
        <ele>1318.219693</ele>
        <time>2023-08-19T03:36:12.752Z</time>
      </trkpt>
      <trkpt lat="44.90734" lon="5.35955">
        <ele>1309.998013</ele>
        <time>2023-08-19T03:36:15.593Z</time>
      </trkpt>
      <trkpt lat="44.90731" lon="5.35972">
        <ele>1307.624585</ele>
        <time>2023-08-19T03:36:16.402Z</time>
      </trkpt>
      <trkpt lat="44.90724" lon="5.3599">
        <ele>1304.823618</ele>
        <time>2023-08-19T03:36:17.353Z</time>
      </trkpt>
      <trkpt lat="44.90722" lon="5.36008">
        <ele>1302.365366</ele>
        <time>2023-08-19T03:36:18.193Z</time>
      </trkpt>
      <trkpt lat="44.90725" lon="5.36052">
        <ele>1296.40191</ele>
        <time>2023-08-19T03:36:20.220Z</time>
      </trkpt>
      <trkpt lat="44.9073" lon="5.36069">
        <ele>1293.93284</ele>
        <time>2023-08-19T03:36:21.061Z</time>
      </trkpt>
      <trkpt lat="44.90737" lon="5.36084">
        <ele>1291.499474</ele>
        <time>2023-08-19T03:36:21.891Z</time>
      </trkpt>
      <trkpt lat="44.9076" lon="5.36117">
        <ele>1285.142472</ele>
        <time>2023-08-19T03:36:24.054Z</time>
      </trkpt>
      <trkpt lat="44.9077" lon="5.36137">
        <ele>1282.420783</ele>
        <time>2023-08-19T03:36:25.171Z</time>
      </trkpt>
      <trkpt lat="44.90782" lon="5.36172">
        <ele>1278.918237</ele>
        <time>2023-08-19T03:36:26.987Z</time>
      </trkpt>
      <trkpt lat="44.908" lon="5.36208">
        <ele>1274.979611</ele>
        <time>2023-08-19T03:36:29.063Z</time>
      </trkpt>
      <trkpt lat="44.90869" lon="5.36298">
        <ele>1263.125066</ele>
        <time>2023-08-19T03:36:35.516Z</time>
      </trkpt>
      <trkpt lat="44.90896" lon="5.36322">
        <ele>1259.842609</ele>
        <time>2023-08-19T03:36:37.815Z</time>
      </trkpt>
      <trkpt lat="44.90939" lon="5.36351">
        <ele>1256.676558</ele>
        <time>2023-08-19T03:36:41.297Z</time>
      </trkpt>
      <trkpt lat="44.91045" lon="5.36433">
        <ele>1248.574708</ele>
        <time>2023-08-19T03:36:50.167Z</time>
      </trkpt>
      <trkpt lat="44.91101" lon="5.36482">
        <ele>1243.767933</ele>
        <time>2023-08-19T03:36:54.819Z</time>
      </trkpt>
      <trkpt lat="44.91119" lon="5.36501">
        <ele>1242.094935</ele>
        <time>2023-08-19T03:36:56.432Z</time>
      </trkpt>
      <trkpt lat="44.91151" lon="5.36542">
        <ele>1238.95445</ele>
        <time>2023-08-19T03:36:59.459Z</time>
      </trkpt>
      <trkpt lat="44.9119" lon="5.36573">
        <ele>1235.647063</ele>
        <time>2023-08-19T03:37:02.682Z</time>
      </trkpt>
      <trkpt lat="44.91242" lon="5.36629">
        <ele>1232.009081</ele>
        <time>2023-08-19T03:37:07.448Z</time>
      </trkpt>
      <trkpt lat="44.91273" lon="5.36653">
        <ele>1230.039177</ele>
        <time>2023-08-19T03:37:10.097Z</time>
      </trkpt>
      <trkpt lat="44.91348" lon="5.3672">
        <ele>1225.000528</ele>
        <time>2023-08-19T03:37:16.868Z</time>
      </trkpt>
      <trkpt lat="44.91381" lon="5.36758">
        <ele>1222.27581</ele>
        <time>2023-08-19T03:37:20.044Z</time>
      </trkpt>
      <trkpt lat="44.91412" lon="5.36809">
        <ele>1219.190138</ele>
        <time>2023-08-19T03:37:23.573Z</time>
      </trkpt>
      <trkpt lat="44.91486" lon="5.36893">
        <ele>1212.86962</ele>
        <time>2023-08-19T03:37:30.330Z</time>
      </trkpt>
      <trkpt lat="44.91513" lon="5.36918">
        <ele>1210.356903</ele>
        <time>2023-08-19T03:37:32.599Z</time>
      </trkpt>
      <trkpt lat="44.9153" lon="5.36939">
        <ele>1208.615283</ele>
        <time>2023-08-19T03:37:34.175Z</time>
      </trkpt>
      <trkpt lat="44.91561" lon="5.36988">
        <ele>1205.048705</ele>
        <time>2023-08-19T03:37:37.415Z</time>
      </trkpt>
      <trkpt lat="44.91596" lon="5.37024">
        <ele>1201.661971</ele>
        <time>2023-08-19T03:37:40.498Z</time>
      </trkpt>
      <trkpt lat="44.91631" lon="5.37054">
        <ele>1198.634556</ele>
        <time>2023-08-19T03:37:43.412Z</time>
      </trkpt>
      <trkpt lat="44.91672" lon="5.37079">
        <ele>1195.495364</ele>
        <time>2023-08-19T03:37:46.731Z</time>
      </trkpt>
      <trkpt lat="44.91741" lon="5.37132">
        <ele>1190.080373</ele>
        <time>2023-08-19T03:37:52.349Z</time>
      </trkpt>
      <trkpt lat="44.91771" lon="5.37142">
        <ele>1187.947104</ele>
        <time>2023-08-19T03:37:54.576Z</time>
      </trkpt>
      <trkpt lat="44.91802" lon="5.37137">
        <ele>1185.706272</ele>
        <time>2023-08-19T03:37:56.790Z</time>
      </trkpt>
      <trkpt lat="44.9181" lon="5.37143">
        <ele>1185.050731</ele>
        <time>2023-08-19T03:37:57.446Z</time>
      </trkpt>
      <trkpt lat="44.91811" lon="5.37152">
        <ele>1184.578969</ele>
        <time>2023-08-19T03:37:57.886Z</time>
      </trkpt>
      <trkpt lat="44.91808" lon="5.37157">
        <ele>1184.275227</ele>
        <time>2023-08-19T03:37:58.172Z</time>
      </trkpt>
      <trkpt lat="44.918" lon="5.37161">
        <ele>1183.616428</ele>
        <time>2023-08-19T03:37:58.815Z</time>
      </trkpt>
      <trkpt lat="44.91759" lon="5.37155">
        <ele>1180.60002</ele>
        <time>2023-08-19T03:38:01.732Z</time>
      </trkpt>
      <trkpt lat="44.91717" lon="5.37145">
        <ele>1177.389259</ele>
        <time>2023-08-19T03:38:04.826Z</time>
      </trkpt>
      <trkpt lat="44.91677" lon="5.37128">
        <ele>1174.328227</ele>
        <time>2023-08-19T03:38:07.752Z</time>
      </trkpt>
      <trkpt lat="44.91603" lon="5.37114">
        <ele>1169.66629</ele>
        <time>2023-08-19T03:38:13.091Z</time>
      </trkpt>
      <trkpt lat="44.91557" lon="5.371">
        <ele>1166.75735</ele>
        <time>2023-08-19T03:38:16.599Z</time>
      </trkpt>
      <trkpt lat="44.9152" lon="5.37077">
        <ele>1164.272465</ele>
        <time>2023-08-19T03:38:19.633Z</time>
      </trkpt>
      <trkpt lat="44.91448" lon="5.3701">
        <ele>1158.400367</ele>
        <time>2023-08-19T03:38:26.044Z</time>
      </trkpt>
      <trkpt lat="44.9143" lon="5.36998">
        <ele>1157.005569</ele>
        <time>2023-08-19T03:38:27.485Z</time>
      </trkpt>
      <trkpt lat="44.91393" lon="5.36981">
        <ele>1154.275652</ele>
        <time>2023-08-19T03:38:30.268Z</time>
      </trkpt>
      <trkpt lat="44.91375" lon="5.36979">
        <ele>1153.054799</ele>
        <time>2023-08-19T03:38:31.510Z</time>
      </trkpt>
      <trkpt lat="44.91355" lon="5.36983">
        <ele>1151.590867</ele>
        <time>2023-08-19T03:38:32.991Z</time>
      </trkpt>
      <trkpt lat="44.91298" lon="5.37006">
        <ele>1146.525542</ele>
        <time>2023-08-19T03:38:37.073Z</time>
      </trkpt>
      <trkpt lat="44.91286" lon="5.37007">
        <ele>1145.390261</ele>
        <time>2023-08-19T03:38:37.927Z</time>
      </trkpt>
      <trkpt lat="44.91252" lon="5.36999">
        <ele>1142.220578</ele>
        <time>2023-08-19T03:38:40.286Z</time>
      </trkpt>
      <trkpt lat="44.91236" lon="5.36987">
        <ele>1140.546999</ele>
        <time>2023-08-19T03:38:41.523Z</time>
      </trkpt>
      <trkpt lat="44.9119" lon="5.36919">
        <ele>1134.366869</ele>
        <time>2023-08-19T03:38:46.129Z</time>
      </trkpt>
      <trkpt lat="44.91161" lon="5.36897">
        <ele>1131.529953</ele>
        <time>2023-08-19T03:38:48.458Z</time>
      </trkpt>
      <trkpt lat="44.9112" lon="5.36881">
        <ele>1127.925824</ele>
        <time>2023-08-19T03:38:51.532Z</time>
      </trkpt>
      <trkpt lat="44.9107" lon="5.36877">
        <ele>1123.776141</ele>
        <time>2023-08-19T03:38:55.061Z</time>
      </trkpt>
      <trkpt lat="44.9098" lon="5.36831">
        <ele>1115.852825</ele>
        <time>2023-08-19T03:39:01.730Z</time>
      </trkpt>
      <trkpt lat="44.9096" lon="5.36826">
        <ele>1114.237372</ele>
        <time>2023-08-19T03:39:03.120Z</time>
      </trkpt>
      <trkpt lat="44.90882" lon="5.36826">
        <ele>1108.019231</ele>
        <time>2023-08-19T03:39:08.610Z</time>
      </trkpt>
      <trkpt lat="44.90869" lon="5.36823">
        <ele>1106.956371</ele>
        <time>2023-08-19T03:39:09.574Z</time>
      </trkpt>
      <trkpt lat="44.90848" lon="5.36807">
        <ele>1105.045327</ele>
        <time>2023-08-19T03:39:11.335Z</time>
      </trkpt>
      <trkpt lat="44.90823" lon="5.36778">
        <ele>1103.145684</ele>
        <time>2023-08-19T03:39:13.675Z</time>
      </trkpt>
      <trkpt lat="44.90741" lon="5.36694">
        <ele>1097.811541</ele>
        <time>2023-08-19T03:39:21.282Z</time>
      </trkpt>
      <trkpt lat="44.9073" lon="5.36688">
        <ele>1097.163719</ele>
        <time>2023-08-19T03:39:22.226Z</time>
      </trkpt>
      <trkpt lat="44.90717" lon="5.36688">
        <ele>1096.488493</ele>
        <time>2023-08-19T03:39:23.222Z</time>
      </trkpt>
      <trkpt lat="44.90705" lon="5.36694">
        <ele>1095.799703</ele>
        <time>2023-08-19T03:39:24.226Z</time>
      </trkpt>
      <trkpt lat="44.90682" lon="5.36717">
        <ele>1094.146459</ele>
        <time>2023-08-19T03:39:26.370Z</time>
      </trkpt>
      <trkpt lat="44.90617" lon="5.36797">
        <ele>1088.152053</ele>
        <time>2023-08-19T03:39:32.665Z</time>
      </trkpt>
      <trkpt lat="44.90579" lon="5.36848">
        <ele>1084.510861</ele>
        <time>2023-08-19T03:39:36.328Z</time>
      </trkpt>
      <trkpt lat="44.90399" lon="5.371">
        <ele>1066.13848</ele>
        <time>2023-08-19T03:39:54.372Z</time>
      </trkpt>
      <trkpt lat="44.90374" lon="5.37137">
        <ele>1064.077498</ele>
        <time>2023-08-19T03:39:57.017Z</time>
      </trkpt>
      <trkpt lat="44.90367" lon="5.3715">
        <ele>1063.385144</ele>
        <time>2023-08-19T03:39:57.913Z</time>
      </trkpt>
      <trkpt lat="44.90361" lon="5.37169">
        <ele>1062.545063</ele>
        <time>2023-08-19T03:39:58.991Z</time>
      </trkpt>
      <trkpt lat="44.90314" lon="5.3716">
        <ele>1059.833316</ele>
        <time>2023-08-19T03:40:02.542Z</time>
      </trkpt>
      <trkpt lat="44.90137" lon="5.37148">
        <ele>1052.134307</ele>
        <time>2023-08-19T03:40:16.300Z</time>
      </trkpt>
      <trkpt lat="44.90104" lon="5.37136">
        <ele>1050.78684</ele>
        <time>2023-08-19T03:40:19.001Z</time>
      </trkpt>
      <trkpt lat="44.90069" lon="5.37105">
        <ele>1049.516998</ele>
        <time>2023-08-19T03:40:22.307Z</time>
      </trkpt>
      <trkpt lat="44.89996" lon="5.37018">
        <ele>1046.590405</ele>
        <time>2023-08-19T03:40:30.053Z</time>
      </trkpt>
      <trkpt lat="44.89963" lon="5.36989">
        <ele>1045.412919</ele>
        <time>2023-08-19T03:40:33.374Z</time>
      </trkpt>
      <trkpt lat="44.89897" lon="5.36939">
        <ele>1045.16782</ele>
        <time>2023-08-19T03:40:40.111Z</time>
      </trkpt>
      <trkpt lat="44.89847" lon="5.3691">
        <ele>1044.989895</ele>
        <time>2023-08-19T03:40:45.596Z</time>
      </trkpt>
      <trkpt lat="44.89812" lon="5.36899">
        <ele>1044.873973</ele>
        <time>2023-08-19T03:40:51.019Z</time>
      </trkpt>
      <trkpt lat="44.8978" lon="5.36896">
        <ele>1045.530095</ele>
        <time>2023-08-19T03:40:57.722Z</time>
      </trkpt>
      <trkpt lat="44.89736" lon="5.36904">
        <ele>1047.30281</ele>
        <time>2023-08-19T03:41:08.600Z</time>
      </trkpt>
      <trkpt lat="44.89688" lon="5.36917">
        <ele>1049.254044</ele>
        <time>2023-08-19T03:41:21.736Z</time>
      </trkpt>
      <trkpt lat="44.89674" lon="5.36923">
        <ele>1049.855192</ele>
        <time>2023-08-19T03:41:25.858Z</time>
      </trkpt>
      <trkpt lat="44.89663" lon="5.3693">
        <ele>1050.336403</ele>
        <time>2023-08-19T03:41:28.981Z</time>
      </trkpt>
      <trkpt lat="44.89644" lon="5.36947">
        <ele>1051.213696</ele>
        <time>2023-08-19T03:41:34.872Z</time>
      </trkpt>
      <trkpt lat="44.89631" lon="5.36972">
        <ele>1052.092307</ele>
        <time>2023-08-19T03:41:40.797Z</time>
      </trkpt>
      <trkpt lat="44.89614" lon="5.37038">
        <ele>1053.611008</ele>
        <time>2023-08-19T03:41:54.118Z</time>
      </trkpt>
      <trkpt lat="44.89606" lon="5.37056">
        <ele>1054.069535</ele>
        <time>2023-08-19T03:41:57.883Z</time>
      </trkpt>
      <trkpt lat="44.89596" lon="5.37067">
        <ele>1054.462453</ele>
        <time>2023-08-19T03:42:01.039Z</time>
      </trkpt>
      <trkpt lat="44.89574" lon="5.37074">
        <ele>1055.158757</ele>
        <time>2023-08-19T03:42:06.289Z</time>
      </trkpt>
      <trkpt lat="44.8955" lon="5.37075">
        <ele>1055.886497</ele>
        <time>2023-08-19T03:42:11.118Z</time>
      </trkpt>
      <trkpt lat="44.89547" lon="5.37068">
        <ele>1056.064825</ele>
        <time>2023-08-19T03:42:12.147Z</time>
      </trkpt>
      <trkpt lat="44.89542" lon="5.37065">
        <ele>1056.245031</ele>
        <time>2023-08-19T03:42:13.218Z</time>
      </trkpt>
      <trkpt lat="44.89541" lon="5.3705">
        <ele>1056.565651</ele>
        <time>2023-08-19T03:42:15.147Z</time>
      </trkpt>
      <trkpt lat="44.8954" lon="5.37019">
        <ele>1057.241838</ele>
        <time>2023-08-19T03:42:18.492Z</time>
      </trkpt>
      <trkpt lat="44.89541" lon="5.3705">
        <ele>1057.594814</ele>
        <time>2023-08-19T03:42:21.811Z</time>
      </trkpt>
      <trkpt lat="44.89542" lon="5.37065">
        <ele>1057.647146</ele>
        <time>2023-08-19T03:42:23.144Z</time>
      </trkpt>
      <trkpt lat="44.89535" lon="5.37072">
        <ele>1057.688318</ele>
        <time>2023-08-19T03:42:24.255Z</time>
      </trkpt>
      <trkpt lat="44.89536" lon="5.37082">
        <ele>1057.725292</ele>
        <time>2023-08-19T03:42:25.248Z</time>
      </trkpt>
      <trkpt lat="44.89522" lon="5.37107">
        <ele>1057.834669</ele>
        <time>2023-08-19T03:42:27.947Z</time>
      </trkpt>
      <trkpt lat="44.89516" lon="5.3712">
        <ele>1057.891219</ele>
        <time>2023-08-19T03:42:29.440Z</time>
      </trkpt>
      <trkpt lat="44.89473" lon="5.37198">
        <ele>1058.240385</ele>
        <time>2023-08-19T03:42:38.315Z</time>
      </trkpt>
      <trkpt lat="44.89428" lon="5.37284">
        <ele>1058.683355</ele>
        <time>2023-08-19T03:42:48.132Z</time>
      </trkpt>
      <trkpt lat="44.89414" lon="5.37309">
        <ele>1058.837486</ele>
        <time>2023-08-19T03:42:51.297Z</time>
      </trkpt>
      <trkpt lat="44.8939" lon="5.37357">
        <ele>1059.117247</ele>
        <time>2023-08-19T03:42:56.776Z</time>
      </trkpt>
      <trkpt lat="44.89224" lon="5.37658">
        <ele>1062.208045</ele>
        <time>2023-08-19T03:43:37.868Z</time>
      </trkpt>
      <trkpt lat="44.89209" lon="5.37698">
        <ele>1063.056576</ele>
        <time>2023-08-19T03:43:44.807Z</time>
      </trkpt>
      <trkpt lat="44.89205" lon="5.37724">
        <ele>1063.539232</ele>
        <time>2023-08-19T03:43:49.076Z</time>
      </trkpt>
      <trkpt lat="44.89205" lon="5.37749">
        <ele>1064.00221</ele>
        <time>2023-08-19T03:43:52.743Z</time>
      </trkpt>
      <trkpt lat="44.89202" lon="5.37771">
        <ele>1064.412659</ele>
        <time>2023-08-19T03:43:56.253Z</time>
      </trkpt>
      <trkpt lat="44.89197" lon="5.3779">
        <ele>1064.789046</ele>
        <time>2023-08-19T03:43:59.247Z</time>
      </trkpt>
      <trkpt lat="44.89192" lon="5.37803">
        <ele>1065.058997</ele>
        <time>2023-08-19T03:44:01.372Z</time>
      </trkpt>
      <trkpt lat="44.89159" lon="5.37864">
        <ele>1066.473047</ele>
        <time>2023-08-19T03:44:12.921Z</time>
      </trkpt>
      <trkpt lat="44.89143" lon="5.37901">
        <ele>1067.065392</ele>
        <time>2023-08-19T03:44:19.167Z</time>
      </trkpt>
      <trkpt lat="44.89139" lon="5.37921">
        <ele>1067.340511</ele>
        <time>2023-08-19T03:44:21.958Z</time>
      </trkpt>
      <trkpt lat="44.89136" lon="5.37954">
        <ele>1067.767638</ele>
        <time>2023-08-19T03:44:26.393Z</time>
      </trkpt>
      <trkpt lat="44.89134" lon="5.38014">
        <ele>1068.547915</ele>
        <time>2023-08-19T03:44:34.368Z</time>
      </trkpt>
      <trkpt lat="44.8913" lon="5.38039">
        <ele>1068.877817</ele>
        <time>2023-08-19T03:44:37.459Z</time>
      </trkpt>
      <trkpt lat="44.88992" lon="5.38372">
        <ele>1071.78337</ele>
        <time>2023-08-19T03:45:17.780Z</time>
      </trkpt>
      <trkpt lat="44.88981" lon="5.38396">
        <ele>1071.924067</ele>
        <time>2023-08-19T03:45:20.498Z</time>
      </trkpt>
      <trkpt lat="44.88963" lon="5.38422">
        <ele>1072.106117</ele>
        <time>2023-08-19T03:45:24.057Z</time>
      </trkpt>
      <trkpt lat="44.88913" lon="5.38467">
        <ele>1072.522865</ele>
        <time>2023-08-19T03:45:32.297Z</time>
      </trkpt>
      <trkpt lat="44.88889" lon="5.38486">
        <ele>1072.714945</ele>
        <time>2023-08-19T03:45:36.131Z</time>
      </trkpt>
      <trkpt lat="44.88803" lon="5.38532">
        <ele>1073.63246</ele>
        <time>2023-08-19T03:45:49.241Z</time>
      </trkpt>
      <trkpt lat="44.8877" lon="5.38553">
        <ele>1074.00157</ele>
        <time>2023-08-19T03:45:54.789Z</time>
      </trkpt>
      <trkpt lat="44.88738" lon="5.38584">
        <ele>1074.39475</ele>
        <time>2023-08-19T03:46:00.977Z</time>
      </trkpt>
      <trkpt lat="44.88499" lon="5.38889">
        <ele>1079.576778</ele>
        <time>2023-08-19T03:46:53.765Z</time>
      </trkpt>
      <trkpt lat="44.88468" lon="5.38926">
        <ele>1080.401645</ele>
        <time>2023-08-19T03:47:01.726Z</time>
      </trkpt>
      <trkpt lat="44.88346" lon="5.39054">
        <ele>1086.643467</ele>
        <time>2023-08-19T03:47:39.274Z</time>
      </trkpt>
      <trkpt lat="44.88312" lon="5.39089">
        <ele>1088.48936</ele>
        <time>2023-08-19T03:47:51.696Z</time>
      </trkpt>
      <trkpt lat="44.88299" lon="5.39107">
        <ele>1089.698858</ele>
        <time>2023-08-19T03:47:57.408Z</time>
      </trkpt>
      <trkpt lat="44.88261" lon="5.39179">
        <ele>1094.085782</ele>
        <time>2023-08-19T03:48:17.761Z</time>
      </trkpt>
      <trkpt lat="44.88235" lon="5.39236">
        <ele>1097.383955</ele>
        <time>2023-08-19T03:48:34.083Z</time>
      </trkpt>
      <trkpt lat="44.88219" lon="5.39437">
        <ele>1108.010594</ele>
        <time>2023-08-19T03:49:28.662Z</time>
      </trkpt>
      <trkpt lat="44.88213" lon="5.39468">
        <ele>1109.740572</ele>
        <time>2023-08-19T03:49:37.190Z</time>
      </trkpt>
      <trkpt lat="44.88201" lon="5.39497">
        <ele>1111.59008</ele>
        <time>2023-08-19T03:49:46.040Z</time>
      </trkpt>
      <trkpt lat="44.88185" lon="5.39517">
        <ele>1113.206733</ele>
        <time>2023-08-19T03:49:53.541Z</time>
      </trkpt>
      <trkpt lat="44.88116" lon="5.39569">
        <ele>1118.627294</ele>
        <time>2023-08-19T03:50:19.218Z</time>
      </trkpt>
      <trkpt lat="44.88072" lon="5.39615">
        <ele>1122.225337</ele>
        <time>2023-08-19T03:50:36.294Z</time>
      </trkpt>
      <trkpt lat="44.88021" lon="5.39659">
        <ele>1126.205749</ele>
        <time>2023-08-19T03:50:55.457Z</time>
      </trkpt>
      <trkpt lat="44.88" lon="5.39683">
        <ele>1128.526483</ele>
        <time>2023-08-19T03:51:04.614Z</time>
      </trkpt>
      <trkpt lat="44.8797" lon="5.39734">
        <ele>1133.097046</ele>
        <time>2023-08-19T03:51:22.655Z</time>
      </trkpt>
      <trkpt lat="44.87952" lon="5.39758">
        <ele>1135.447504</ele>
        <time>2023-08-19T03:51:33.396Z</time>
      </trkpt>
      <trkpt lat="44.87871" lon="5.39837">
        <ele>1144.927005</ele>
        <time>2023-08-19T03:52:21.103Z</time>
      </trkpt>
      <trkpt lat="44.87852" lon="5.39861">
        <ele>1147.150641</ele>
        <time>2023-08-19T03:52:33.005Z</time>
      </trkpt>
      <trkpt lat="44.87843" lon="5.39873">
        <ele>1148.318193</ele>
        <time>2023-08-19T03:52:38.896Z</time>
      </trkpt>
      <trkpt lat="44.87823" lon="5.39889">
        <ele>1150.344734</ele>
        <time>2023-08-19T03:52:49.138Z</time>
      </trkpt>
      <trkpt lat="44.87794" lon="5.39907">
        <ele>1153.227318</ele>
        <time>2023-08-19T03:53:02.735Z</time>
      </trkpt>
      <trkpt lat="44.87744" lon="5.3992">
        <ele>1157.82305</ele>
        <time>2023-08-19T03:53:22.174Z</time>
      </trkpt>
      <trkpt lat="44.87677" lon="5.39926">
        <ele>1162.301468</ele>
        <time>2023-08-19T03:53:43.393Z</time>
      </trkpt>
      <trkpt lat="44.87587" lon="5.39962">
        <ele>1167.031715</ele>
        <time>2023-08-19T03:54:06.789Z</time>
      </trkpt>
      <trkpt lat="44.87545" lon="5.39989">
        <ele>1169.32361</ele>
        <time>2023-08-19T03:54:18.365Z</time>
      </trkpt>
      <trkpt lat="44.87523" lon="5.39988">
        <ele>1171.003882</ele>
        <time>2023-08-19T03:54:24.710Z</time>
      </trkpt>
      <trkpt lat="44.87511" lon="5.39976">
        <ele>1172.054512</ele>
        <time>2023-08-19T03:54:29.105Z</time>
      </trkpt>
      <trkpt lat="44.87504" lon="5.39965">
        <ele>1172.858456</ele>
        <time>2023-08-19T03:54:32.598Z</time>
      </trkpt>
      <trkpt lat="44.87496" lon="5.39947">
        <ele>1173.978839</ele>
        <time>2023-08-19T03:54:38.084Z</time>
      </trkpt>
      <trkpt lat="44.87485" lon="5.39906">
        <ele>1176.320123</ele>
        <time>2023-08-19T03:54:49.915Z</time>
      </trkpt>
      <trkpt lat="44.87482" lon="5.39899">
        <ele>1176.732255</ele>
        <time>2023-08-19T03:54:52.131Z</time>
      </trkpt>
      <trkpt lat="44.87474" lon="5.39894">
        <ele>1177.363201</ele>
        <time>2023-08-19T03:54:55.503Z</time>
      </trkpt>
      <trkpt lat="44.87467" lon="5.39906">
        <ele>1178.169557</ele>
        <time>2023-08-19T03:54:59.887Z</time>
      </trkpt>
      <trkpt lat="44.87463" lon="5.39931">
        <ele>1179.533911</ele>
        <time>2023-08-19T03:55:07.520Z</time>
      </trkpt>
      <trkpt lat="44.87455" lon="5.39965">
        <ele>1181.437061</ele>
        <time>2023-08-19T03:55:16.738Z</time>
      </trkpt>
      <trkpt lat="44.8745" lon="5.39978">
        <ele>1182.265324</ele>
        <time>2023-08-19T03:55:21.291Z</time>
      </trkpt>
      <trkpt lat="44.8743" lon="5.40024">
        <ele>1185.384886</ele>
        <time>2023-08-19T03:55:35.950Z</time>
      </trkpt>
      <trkpt lat="44.87425" lon="5.40057">
        <ele>1187.45075</ele>
        <time>2023-08-19T03:55:45.774Z</time>
      </trkpt>
      <trkpt lat="44.87425" lon="5.40077">
        <ele>1188.654963</ele>
        <time>2023-08-19T03:55:51.770Z</time>
      </trkpt>
      <trkpt lat="44.87429" lon="5.40096">
        <ele>1189.852715</ele>
        <time>2023-08-19T03:55:57.484Z</time>
      </trkpt>
      <trkpt lat="44.87438" lon="5.40115">
        <ele>1191.252692</ele>
        <time>2023-08-19T03:56:04.494Z</time>
      </trkpt>
      <trkpt lat="44.87461" lon="5.40148">
        <ele>1194.034501</ele>
        <time>2023-08-19T03:56:17.991Z</time>
      </trkpt>
      <trkpt lat="44.87469" lon="5.40177">
        <ele>1195.951505</ele>
        <time>2023-08-19T03:56:27.307Z</time>
      </trkpt>
      <trkpt lat="44.87471" lon="5.40198">
        <ele>1197.188956</ele>
        <time>2023-08-19T03:56:32.786Z</time>
      </trkpt>
      <trkpt lat="44.87469" lon="5.40218">
        <ele>1198.369663</ele>
        <time>2023-08-19T03:56:37.545Z</time>
      </trkpt>
      <trkpt lat="44.87466" lon="5.40238">
        <ele>1199.411265</ele>
        <time>2023-08-19T03:56:42.342Z</time>
      </trkpt>
      <trkpt lat="44.87446" lon="5.40313">
        <ele>1203.337147</ele>
        <time>2023-08-19T03:56:59.543Z</time>
      </trkpt>
      <trkpt lat="44.87444" lon="5.40326">
        <ele>1204.013997</ele>
        <time>2023-08-19T03:57:02.628Z</time>
      </trkpt>
      <trkpt lat="44.87445" lon="5.4034">
        <ele>1204.681717</ele>
        <time>2023-08-19T03:57:06.012Z</time>
      </trkpt>
      <trkpt lat="44.87448" lon="5.40353">
        <ele>1205.363586</ele>
        <time>2023-08-19T03:57:09.557Z</time>
      </trkpt>
      <trkpt lat="44.87462" lon="5.40382">
        <ele>1207.068769</ele>
        <time>2023-08-19T03:57:18.505Z</time>
      </trkpt>
      <trkpt lat="44.8747" lon="5.40406">
        <ele>1208.376634</ele>
        <time>2023-08-19T03:57:25.180Z</time>
      </trkpt>
      <trkpt lat="44.87482" lon="5.40452">
        <ele>1210.850941</ele>
        <time>2023-08-19T03:57:37.604Z</time>
      </trkpt>
      <trkpt lat="44.87485" lon="5.40464">
        <ele>1211.516462</ele>
        <time>2023-08-19T03:57:40.605Z</time>
      </trkpt>
      <trkpt lat="44.87492" lon="5.40486">
        <ele>1212.78874</ele>
        <time>2023-08-19T03:57:46.610Z</time>
      </trkpt>
      <trkpt lat="44.87499" lon="5.40498">
        <ele>1213.584866</ele>
        <time>2023-08-19T03:57:49.809Z</time>
      </trkpt>
      <trkpt lat="44.87534" lon="5.40523">
        <ele>1216.529905</ele>
        <time>2023-08-19T03:58:02.589Z</time>
      </trkpt>
      <trkpt lat="44.87564" lon="5.40557">
        <ele>1219.403958</ele>
        <time>2023-08-19T03:58:16.933Z</time>
      </trkpt>
      <trkpt lat="44.87574" lon="5.40564">
        <ele>1220.210345</ele>
        <time>2023-08-19T03:58:21.293Z</time>
      </trkpt>
      <trkpt lat="44.87608" lon="5.40569">
        <ele>1222.795402</ele>
        <time>2023-08-19T03:58:35.076Z</time>
      </trkpt>
      <trkpt lat="44.87661" lon="5.40614">
        <ele>1226.468233</ele>
        <time>2023-08-19T03:58:57.340Z</time>
      </trkpt>
      <trkpt lat="44.87665" lon="5.40621">
        <ele>1226.838314</ele>
        <time>2023-08-19T03:58:59.388Z</time>
      </trkpt>
      <trkpt lat="44.87667" lon="5.40629">
        <ele>1227.1634</ele>
        <time>2023-08-19T03:59:01.382Z</time>
      </trkpt>
      <trkpt lat="44.87665" lon="5.40635">
        <ele>1227.396775</ele>
        <time>2023-08-19T03:59:02.991Z</time>
      </trkpt>
      <trkpt lat="44.87658" lon="5.40638">
        <ele>1227.768044</ele>
        <time>2023-08-19T03:59:05.246Z</time>
      </trkpt>
      <trkpt lat="44.87652" lon="5.40635">
        <ele>1228.108963</ele>
        <time>2023-08-19T03:59:06.953Z</time>
      </trkpt>
      <trkpt lat="44.87624" lon="5.40615">
        <ele>1229.788884</ele>
        <time>2023-08-19T03:59:16.010Z</time>
      </trkpt>
      <trkpt lat="44.8761" lon="5.40607">
        <ele>1230.637418</ele>
        <time>2023-08-19T03:59:19.803Z</time>
      </trkpt>
      <trkpt lat="44.8756" lon="5.406">
        <ele>1233.285802</ele>
        <time>2023-08-19T03:59:32.433Z</time>
      </trkpt>
      <trkpt lat="44.87522" lon="5.40586">
        <ele>1233.844469</ele>
        <time>2023-08-19T03:59:41.054Z</time>
      </trkpt>
      <trkpt lat="44.87492" lon="5.40584">
        <ele>1233.898246</ele>
        <time>2023-08-19T03:59:45.771Z</time>
      </trkpt>
      <trkpt lat="44.87438" lon="5.40598">
        <ele>1233.993869</ele>
        <time>2023-08-19T03:59:52.565Z</time>
      </trkpt>
      <trkpt lat="44.87408" lon="5.40596">
        <ele>1234.045393</ele>
        <time>2023-08-19T03:59:55.591Z</time>
      </trkpt>
      <trkpt lat="44.87375" lon="5.40605">
        <ele>1234.105411</ele>
        <time>2023-08-19T03:59:58.735Z</time>
      </trkpt>
      <trkpt lat="44.87322" lon="5.40634">
        <ele>1230.726144</ele>
        <time>2023-08-19T04:00:03.107Z</time>
      </trkpt>
      <trkpt lat="44.87293" lon="5.40655">
        <ele>1228.732202</ele>
        <time>2023-08-19T04:00:05.500Z</time>
      </trkpt>
      <trkpt lat="44.87277" lon="5.40671">
        <ele>1227.536293</ele>
        <time>2023-08-19T04:00:06.901Z</time>
      </trkpt>
      <trkpt lat="44.87256" lon="5.40697">
        <ele>1225.833398</ele>
        <time>2023-08-19T04:00:08.877Z</time>
      </trkpt>
      <trkpt lat="44.87248" lon="5.40709">
        <ele>1225.143811</ele>
        <time>2023-08-19T04:00:09.680Z</time>
      </trkpt>
      <trkpt lat="44.87229" lon="5.40723">
        <ele>1223.847463</ele>
        <time>2023-08-19T04:00:11.176Z</time>
      </trkpt>
      <trkpt lat="44.87135" lon="5.40749">
        <ele>1218.575299</ele>
        <time>2023-08-19T04:00:17.949Z</time>
      </trkpt>
      <trkpt lat="44.87122" lon="5.40749">
        <ele>1217.845867</ele>
        <time>2023-08-19T04:00:18.904Z</time>
      </trkpt>
      <trkpt lat="44.86917" lon="5.40726">
        <ele>1213.248247</ele>
        <time>2023-08-19T04:00:36.914Z</time>
      </trkpt>
      <trkpt lat="44.86852" lon="5.40696">
        <ele>1213.336815</ele>
        <time>2023-08-19T04:00:53.871Z</time>
      </trkpt>
      <trkpt lat="44.86833" lon="5.40685">
        <ele>1213.631511</ele>
        <time>2023-08-19T04:00:58.486Z</time>
      </trkpt>
      <trkpt lat="44.86822" lon="5.40674">
        <ele>1213.825151</ele>
        <time>2023-08-19T04:01:01.073Z</time>
      </trkpt>
      <trkpt lat="44.86809" lon="5.40665">
        <ele>1214.027844</ele>
        <time>2023-08-19T04:01:03.883Z</time>
      </trkpt>
      <trkpt lat="44.86793" lon="5.40659">
        <ele>1214.26817</ele>
        <time>2023-08-19T04:01:06.988Z</time>
      </trkpt>
      <trkpt lat="44.86773" lon="5.40654">
        <ele>1214.550226</ele>
        <time>2023-08-19T04:01:10.210Z</time>
      </trkpt>
      <trkpt lat="44.86756" lon="5.40655">
        <ele>1214.797167</ele>
        <time>2023-08-19T04:01:12.906Z</time>
      </trkpt>
      <trkpt lat="44.86703" lon="5.4067">
        <ele>1215.574744</ele>
        <time>2023-08-19T04:01:20.403Z</time>
      </trkpt>
      <trkpt lat="44.86611" lon="5.40662">
        <ele>1214.768563</ele>
        <time>2023-08-19T04:01:29.184Z</time>
      </trkpt>
      <trkpt lat="44.86579" lon="5.4065">
        <ele>1214.376469</ele>
        <time>2023-08-19T04:01:31.983Z</time>
      </trkpt>
      <trkpt lat="44.86548" lon="5.40626">
        <ele>1213.959236</ele>
        <time>2023-08-19T04:01:35.121Z</time>
      </trkpt>
      <trkpt lat="44.86489" lon="5.40599">
        <ele>1213.404745</ele>
        <time>2023-08-19T04:01:41.469Z</time>
      </trkpt>
      <trkpt lat="44.86473" lon="5.40595">
        <ele>1213.304094</ele>
        <time>2023-08-19T04:01:43.249Z</time>
      </trkpt>
      <trkpt lat="44.86417" lon="5.406">
        <ele>1212.948499</ele>
        <time>2023-08-19T04:01:50.780Z</time>
      </trkpt>
      <trkpt lat="44.8623" lon="5.40556">
        <ele>1211.869537</ele>
        <time>2023-08-19T04:02:08.891Z</time>
      </trkpt>
      <trkpt lat="44.8614" lon="5.40524">
        <ele>1211.903802</ele>
        <time>2023-08-19T04:02:20.725Z</time>
      </trkpt>
      <trkpt lat="44.86097" lon="5.40504">
        <ele>1212.548825</ele>
        <time>2023-08-19T04:02:28.912Z</time>
      </trkpt>
      <trkpt lat="44.86032" lon="5.40495">
        <ele>1213.480031</ele>
        <time>2023-08-19T04:02:41.184Z</time>
      </trkpt>
      <trkpt lat="44.86018" lon="5.40488">
        <ele>1213.680732</ele>
        <time>2023-08-19T04:02:43.641Z</time>
      </trkpt>
      <trkpt lat="44.85989" lon="5.40465">
        <ele>1214.091143</ele>
        <time>2023-08-19T04:02:49.045Z</time>
      </trkpt>
      <trkpt lat="44.85979" lon="5.4046">
        <ele>1214.122712</ele>
        <time>2023-08-19T04:02:50.693Z</time>
      </trkpt>
      <trkpt lat="44.85954" lon="5.40457">
        <ele>1214.193482</ele>
        <time>2023-08-19T04:02:54.342Z</time>
      </trkpt>
      <trkpt lat="44.85853" lon="5.40456">
        <ele>1214.487359</ele>
        <time>2023-08-19T04:03:05.606Z</time>
      </trkpt>
      <trkpt lat="44.85838" lon="5.40452">
        <ele>1214.531643</ele>
        <time>2023-08-19T04:03:07.217Z</time>
      </trkpt>
      <trkpt lat="44.85812" lon="5.40438">
        <ele>1214.639225</ele>
        <time>2023-08-19T04:03:10.637Z</time>
      </trkpt>
      <trkpt lat="44.85787" lon="5.40434">
        <ele>1214.825635</ele>
        <time>2023-08-19T04:03:14.017Z</time>
      </trkpt>
      <trkpt lat="44.85734" lon="5.40449">
        <ele>1215.230719</ele>
        <time>2023-08-19T04:03:22.968Z</time>
      </trkpt>
      <trkpt lat="44.85709" lon="5.40447">
        <ele>1215.417753</ele>
        <time>2023-08-19T04:03:27.235Z</time>
      </trkpt>
      <trkpt lat="44.85699" lon="5.40443">
        <ele>1215.501572</ele>
        <time>2023-08-19T04:03:28.773Z</time>
      </trkpt>
      <trkpt lat="44.85661" lon="5.40409">
        <ele>1215.836622</ele>
        <time>2023-08-19T04:03:34.687Z</time>
      </trkpt>
      <trkpt lat="44.85639" lon="5.40401">
        <ele>1215.89738</ele>
        <time>2023-08-19T04:03:37.543Z</time>
      </trkpt>
      <trkpt lat="44.85611" lon="5.40404">
        <ele>1215.741722</ele>
        <time>2023-08-19T04:03:40.827Z</time>
      </trkpt>
      <trkpt lat="44.85572" lon="5.40429">
        <ele>1215.495696</ele>
        <time>2023-08-19T04:03:46.366Z</time>
      </trkpt>
      <trkpt lat="44.85539" lon="5.40442">
        <ele>1215.305402</ele>
        <time>2023-08-19T04:03:50.363Z</time>
      </trkpt>
      <trkpt lat="44.85481" lon="5.4045">
        <ele>1214.971419</ele>
        <time>2023-08-19T04:03:55.605Z</time>
      </trkpt>
      <trkpt lat="44.85459" lon="5.40451">
        <ele>1214.830321</ele>
        <time>2023-08-19T04:03:57.453Z</time>
      </trkpt>
      <trkpt lat="44.85374" lon="5.40433">
        <ele>1214.252817</ele>
        <time>2023-08-19T04:04:05.636Z</time>
      </trkpt>
      <trkpt lat="44.85309" lon="5.40427">
        <ele>1213.818594</ele>
        <time>2023-08-19T04:04:14.473Z</time>
      </trkpt>
      <trkpt lat="44.8529" lon="5.40423">
        <ele>1213.692639</ele>
        <time>2023-08-19T04:04:17.172Z</time>
      </trkpt>
      <trkpt lat="44.85249" lon="5.404">
        <ele>1213.410744</ele>
        <time>2023-08-19T04:04:22.218Z</time>
      </trkpt>
      <trkpt lat="44.85238" lon="5.404">
        <ele>1213.338307</ele>
        <time>2023-08-19T04:04:23.295Z</time>
      </trkpt>
      <trkpt lat="44.85226" lon="5.40404">
        <ele>1213.260807</ele>
        <time>2023-08-19T04:04:24.803Z</time>
      </trkpt>
      <trkpt lat="44.85184" lon="5.40434">
        <ele>1212.954423</ele>
        <time>2023-08-19T04:04:29.795Z</time>
      </trkpt>
      <trkpt lat="44.85169" lon="5.4044">
        <ele>1212.858677</ele>
        <time>2023-08-19T04:04:31.180Z</time>
      </trkpt>
      <trkpt lat="44.85133" lon="5.40447">
        <ele>1212.623708</ele>
        <time>2023-08-19T04:04:34.796Z</time>
      </trkpt>
      <trkpt lat="44.85058" lon="5.40454">
        <ele>1211.964051</ele>
        <time>2023-08-19T04:04:41.420Z</time>
      </trkpt>
      <trkpt lat="44.84938" lon="5.40455">
        <ele>1211.053899</ele>
        <time>2023-08-19T04:04:53.465Z</time>
      </trkpt>
      <trkpt lat="44.84887" lon="5.40447">
        <ele>1212.031112</ele>
        <time>2023-08-19T04:05:02.063Z</time>
      </trkpt>
      <trkpt lat="44.84801" lon="5.40456">
        <ele>1213.655531</ele>
        <time>2023-08-19T04:05:18.373Z</time>
      </trkpt>
      <trkpt lat="44.84759" lon="5.40446">
        <ele>1214.604414</ele>
        <time>2023-08-19T04:05:27.095Z</time>
      </trkpt>
      <trkpt lat="44.84713" lon="5.40461">
        <ele>1216.677285</ele>
        <time>2023-08-19T04:05:38.280Z</time>
      </trkpt>
      <trkpt lat="44.84674" lon="5.40461">
        <ele>1218.383232</ele>
        <time>2023-08-19T04:05:48.155Z</time>
      </trkpt>
      <trkpt lat="44.84669" lon="5.40468">
        <ele>1218.685347</ele>
        <time>2023-08-19T04:05:49.653Z</time>
      </trkpt>
      <trkpt lat="44.84669" lon="5.40473">
        <ele>1218.840015</ele>
        <time>2023-08-19T04:05:50.066Z</time>
      </trkpt>
      <trkpt lat="44.84515" lon="5.40494">
        <ele>1227.109498</ele>
        <time>2023-08-19T04:06:36.342Z</time>
      </trkpt>
      <trkpt lat="44.84464" lon="5.40494">
        <ele>1230.335822</ele>
        <time>2023-08-19T04:06:53.580Z</time>
      </trkpt>
      <trkpt lat="44.84387" lon="5.40508">
        <ele>1235.333503</ele>
        <time>2023-08-19T04:07:20.097Z</time>
      </trkpt>
      <trkpt lat="44.84297" lon="5.4051">
        <ele>1241.31338</ele>
        <time>2023-08-19T04:07:50.421Z</time>
      </trkpt>
      <trkpt lat="44.84213" lon="5.4053">
        <ele>1246.427948</ele>
        <time>2023-08-19T04:08:18.357Z</time>
      </trkpt>
      <trkpt lat="44.84148" lon="5.40558">
        <ele>1249.13034</ele>
        <time>2023-08-19T04:08:37.933Z</time>
      </trkpt>
      <trkpt lat="44.84104" lon="5.40579">
        <ele>1251.008563</ele>
        <time>2023-08-19T04:08:49.031Z</time>
      </trkpt>
      <trkpt lat="44.8409" lon="5.40586">
        <ele>1251.577278</ele>
        <time>2023-08-19T04:08:51.818Z</time>
      </trkpt>
      <trkpt lat="44.84087" lon="5.40588">
        <ele>1251.725601</ele>
        <time>2023-08-19T04:08:52.497Z</time>
      </trkpt>
      <trkpt lat="44.84062" lon="5.40591">
        <ele>1252.713714</ele>
        <time>2023-08-19T04:08:56.920Z</time>
      </trkpt>
      <trkpt lat="44.84059" lon="5.40589">
        <ele>1252.640459</ele>
        <time>2023-08-19T04:08:57.332Z</time>
      </trkpt>
      <trkpt lat="44.8404" lon="5.40557">
        <ele>1251.838248</ele>
        <time>2023-08-19T04:09:01.586Z</time>
      </trkpt>
      <trkpt lat="44.84036" lon="5.40543">
        <ele>1251.550343</ele>
        <time>2023-08-19T04:09:02.943Z</time>
      </trkpt>
      <trkpt lat="44.83816" lon="5.39752">
        <ele>1234.510773</ele>
        <time>2023-08-19T04:09:52.081Z</time>
      </trkpt>
      <trkpt lat="44.83813" lon="5.39729">
        <ele>1233.930979</ele>
        <time>2023-08-19T04:09:53.316Z</time>
      </trkpt>
      <trkpt lat="44.83811" lon="5.3971">
        <ele>1233.454116</ele>
        <time>2023-08-19T04:09:54.399Z</time>
      </trkpt>
      <trkpt lat="44.8381" lon="5.39695">
        <ele>1233.060956</ele>
        <time>2023-08-19T04:09:55.233Z</time>
      </trkpt>
      <trkpt lat="44.8381" lon="5.39674">
        <ele>1232.540622</ele>
        <time>2023-08-19T04:09:56.381Z</time>
      </trkpt>
      <trkpt lat="44.83811" lon="5.39653">
        <ele>1232.012318</ele>
        <time>2023-08-19T04:09:57.578Z</time>
      </trkpt>
      <trkpt lat="44.83811" lon="5.39646">
        <ele>1231.785811</ele>
        <time>2023-08-19T04:09:57.954Z</time>
      </trkpt>
      <trkpt lat="44.83813" lon="5.39634">
        <ele>1231.312074</ele>
        <time>2023-08-19T04:09:58.607Z</time>
      </trkpt>
      <trkpt lat="44.83815" lon="5.39623">
        <ele>1230.823101</ele>
        <time>2023-08-19T04:09:59.287Z</time>
      </trkpt>
      <trkpt lat="44.83818" lon="5.39615">
        <ele>1230.492132</ele>
        <time>2023-08-19T04:09:59.781Z</time>
      </trkpt>
      <trkpt lat="44.8383" lon="5.39588">
        <ele>1229.172131</ele>
        <time>2023-08-19T04:10:01.570Z</time>
      </trkpt>
      <trkpt lat="44.83857" lon="5.39514">
        <ele>1225.786335</ele>
        <time>2023-08-19T04:10:06.014Z</time>
      </trkpt>
      <trkpt lat="44.83869" lon="5.39491">
        <ele>1224.646103</ele>
        <time>2023-08-19T04:10:07.432Z</time>
      </trkpt>
      <trkpt lat="44.83897" lon="5.39449">
        <ele>1222.332146</ele>
        <time>2023-08-19T04:10:10.369Z</time>
      </trkpt>
      <trkpt lat="44.83904" lon="5.39434">
        <ele>1221.533667</ele>
        <time>2023-08-19T04:10:11.324Z</time>
      </trkpt>
      <trkpt lat="44.83917" lon="5.39392">
        <ele>1218.223774</ele>
        <time>2023-08-19T04:10:13.613Z</time>
      </trkpt>
      <trkpt lat="44.83917" lon="5.39372">
        <ele>1216.766374</ele>
        <time>2023-08-19T04:10:14.601Z</time>
      </trkpt>
      <trkpt lat="44.83911" lon="5.39352">
        <ele>1215.177351</ele>
        <time>2023-08-19T04:10:15.674Z</time>
      </trkpt>
      <trkpt lat="44.83887" lon="5.39308">
        <ele>1211.122245</ele>
        <time>2023-08-19T04:10:18.376Z</time>
      </trkpt>
      <trkpt lat="44.83874" lon="5.39288">
        <ele>1209.118917</ele>
        <time>2023-08-19T04:10:19.692Z</time>
      </trkpt>
      <trkpt lat="44.83836" lon="5.39248">
        <ele>1204.267236</ele>
        <time>2023-08-19T04:10:22.866Z</time>
      </trkpt>
      <trkpt lat="44.83728" lon="5.39153">
        <ele>1192.366374</ele>
        <time>2023-08-19T04:10:31.520Z</time>
      </trkpt>
      <trkpt lat="44.83711" lon="5.39132">
        <ele>1190.277795</ele>
        <time>2023-08-19T04:10:33.118Z</time>
      </trkpt>
      <trkpt lat="44.837" lon="5.39112">
        <ele>1188.638722</ele>
        <time>2023-08-19T04:10:34.416Z</time>
      </trkpt>
      <trkpt lat="44.83692" lon="5.3911">
        <ele>1187.923899</ele>
        <time>2023-08-19T04:10:34.985Z</time>
      </trkpt>
      <trkpt lat="44.83688" lon="5.39112">
        <ele>1187.488248</ele>
        <time>2023-08-19T04:10:35.337Z</time>
      </trkpt>
      <trkpt lat="44.83686" lon="5.39116">
        <ele>1187.141681</ele>
        <time>2023-08-19T04:10:35.619Z</time>
      </trkpt>
      <trkpt lat="44.83686" lon="5.39129">
        <ele>1186.516717</ele>
        <time>2023-08-19T04:10:36.333Z</time>
      </trkpt>
      <trkpt lat="44.83709" lon="5.39149">
        <ele>1186.509372</ele>
        <time>2023-08-19T04:10:38.497Z</time>
      </trkpt>
      <trkpt lat="44.83758" lon="5.39211">
        <ele>1186.491139</ele>
        <time>2023-08-19T04:10:46.489Z</time>
      </trkpt>
      <trkpt lat="44.83797" lon="5.39255">
        <ele>1186.477509</ele>
        <time>2023-08-19T04:10:56.549Z</time>
      </trkpt>
      <trkpt lat="44.83838" lon="5.39309">
        <ele>1186.303529</ele>
        <time>2023-08-19T04:11:07.677Z</time>
      </trkpt>
      <trkpt lat="44.83853" lon="5.39339">
        <ele>1186.109678</ele>
        <time>2023-08-19T04:11:11.838Z</time>
      </trkpt>
      <trkpt lat="44.83858" lon="5.39355">
        <ele>1186.012248</ele>
        <time>2023-08-19T04:11:13.493Z</time>
      </trkpt>
      <trkpt lat="44.83858" lon="5.39367">
        <ele>1185.947815</ele>
        <time>2023-08-19T04:11:14.717Z</time>
      </trkpt>
      <trkpt lat="44.83856" lon="5.39379">
        <ele>1185.88091</ele>
        <time>2023-08-19T04:11:15.815Z</time>
      </trkpt>
      <trkpt lat="44.83841" lon="5.39414">
        <ele>1185.661325</ele>
        <time>2023-08-19T04:11:18.766Z</time>
      </trkpt>
      <trkpt lat="44.83803" lon="5.39467">
        <ele>1185.253739</ele>
        <time>2023-08-19T04:11:23.366Z</time>
      </trkpt>
      <trkpt lat="44.83774" lon="5.39519">
        <ele>1183.734433</ele>
        <time>2023-08-19T04:11:26.999Z</time>
      </trkpt>
      <trkpt lat="44.83743" lon="5.39557">
        <ele>1181.514569</ele>
        <time>2023-08-19T04:11:30.133Z</time>
      </trkpt>
      <trkpt lat="44.8373" lon="5.39587">
        <ele>1180.198085</ele>
        <time>2023-08-19T04:11:31.948Z</time>
      </trkpt>
      <trkpt lat="44.83721" lon="5.39618">
        <ele>1178.933902</ele>
        <time>2023-08-19T04:11:33.693Z</time>
      </trkpt>
      <trkpt lat="44.8371" lon="5.39694">
        <ele>1176.005405</ele>
        <time>2023-08-19T04:11:37.717Z</time>
      </trkpt>
      <trkpt lat="44.83685" lon="5.3973">
        <ele>1174.135914</ele>
        <time>2023-08-19T04:11:40.349Z</time>
      </trkpt>
      <trkpt lat="44.83674" lon="5.39765">
        <ele>1172.736555</ele>
        <time>2023-08-19T04:11:42.352Z</time>
      </trkpt>
      <trkpt lat="44.83668" lon="5.39769">
        <ele>1172.404061</ele>
        <time>2023-08-19T04:11:42.840Z</time>
      </trkpt>
      <trkpt lat="44.83663" lon="5.39769">
        <ele>1172.148851</ele>
        <time>2023-08-19T04:11:43.208Z</time>
      </trkpt>
      <trkpt lat="44.8366" lon="5.39766">
        <ele>1171.949093</ele>
        <time>2023-08-19T04:11:43.493Z</time>
      </trkpt>
      <trkpt lat="44.83659" lon="5.39754">
        <ele>1171.503586</ele>
        <time>2023-08-19T04:11:44.136Z</time>
      </trkpt>
      <trkpt lat="44.83692" lon="5.39693">
        <ele>1168.689256</ele>
        <time>2023-08-19T04:11:48.245Z</time>
      </trkpt>
      <trkpt lat="44.83695" lon="5.39683">
        <ele>1168.279084</ele>
        <time>2023-08-19T04:11:48.843Z</time>
      </trkpt>
      <trkpt lat="44.83698" lon="5.39606">
        <ele>1165.316629</ele>
        <time>2023-08-19T04:11:52.953Z</time>
      </trkpt>
      <trkpt lat="44.83715" lon="5.39541">
        <ele>1162.230523</ele>
        <time>2023-08-19T04:11:56.669Z</time>
      </trkpt>
      <trkpt lat="44.83751" lon="5.39468">
        <ele>1158.317225</ele>
        <time>2023-08-19T04:12:01.275Z</time>
      </trkpt>
      <trkpt lat="44.83774" lon="5.3941">
        <ele>1155.386113</ele>
        <time>2023-08-19T04:12:04.649Z</time>
      </trkpt>
      <trkpt lat="44.83784" lon="5.39376">
        <ele>1153.3325</ele>
        <time>2023-08-19T04:12:06.513Z</time>
      </trkpt>
      <trkpt lat="44.83782" lon="5.39355">
        <ele>1152.080546</ele>
        <time>2023-08-19T04:12:07.571Z</time>
      </trkpt>
      <trkpt lat="44.83775" lon="5.3934">
        <ele>1151.053115</ele>
        <time>2023-08-19T04:12:08.435Z</time>
      </trkpt>
      <trkpt lat="44.83764" lon="5.39324">
        <ele>1149.729484</ele>
        <time>2023-08-19T04:12:09.553Z</time>
      </trkpt>
      <trkpt lat="44.83655" lon="5.39216">
        <ele>1139.358131</ele>
        <time>2023-08-19T04:12:18.836Z</time>
      </trkpt>
      <trkpt lat="44.83448" lon="5.39002">
        <ele>1128.109051</ele>
        <time>2023-08-19T04:12:39.256Z</time>
      </trkpt>
      <trkpt lat="44.83437" lon="5.38995">
        <ele>1127.615334</ele>
        <time>2023-08-19T04:12:40.186Z</time>
      </trkpt>
      <trkpt lat="44.83423" lon="5.38992">
        <ele>1127.035824</ele>
        <time>2023-08-19T04:12:41.275Z</time>
      </trkpt>
      <trkpt lat="44.83408" lon="5.38994">
        <ele>1126.412537</ele>
        <time>2023-08-19T04:12:42.481Z</time>
      </trkpt>
      <trkpt lat="44.83393" lon="5.39001">
        <ele>1125.773126</ele>
        <time>2023-08-19T04:12:43.687Z</time>
      </trkpt>
      <trkpt lat="44.8336" lon="5.3904">
        <ele>1123.664014</ele>
        <time>2023-08-19T04:12:46.999Z</time>
      </trkpt>
      <trkpt lat="44.83349" lon="5.39047">
        <ele>1122.859851</ele>
        <time>2023-08-19T04:12:47.924Z</time>
      </trkpt>
      <trkpt lat="44.83334" lon="5.39046">
        <ele>1121.88531</ele>
        <time>2023-08-19T04:12:49.003Z</time>
      </trkpt>
      <trkpt lat="44.83308" lon="5.39017">
        <ele>1119.698421</ele>
        <time>2023-08-19T04:12:51.410Z</time>
      </trkpt>
      <trkpt lat="44.83295" lon="5.3901">
        <ele>1118.815349</ele>
        <time>2023-08-19T04:12:52.383Z</time>
      </trkpt>
      <trkpt lat="44.83278" lon="5.39012">
        <ele>1117.681692</ele>
        <time>2023-08-19T04:12:53.605Z</time>
      </trkpt>
      <trkpt lat="44.83257" lon="5.3902">
        <ele>1116.281879</ele>
        <time>2023-08-19T04:12:55.132Z</time>
      </trkpt>
      <trkpt lat="44.83217" lon="5.39044">
        <ele>1113.428582</ele>
        <time>2023-08-19T04:12:58.273Z</time>
      </trkpt>
      <trkpt lat="44.83197" lon="5.39052">
        <ele>1111.925564</ele>
        <time>2023-08-19T04:12:59.776Z</time>
      </trkpt>
      <trkpt lat="44.83132" lon="5.39066">
        <ele>1106.722565</ele>
        <time>2023-08-19T04:13:04.604Z</time>
      </trkpt>
      <trkpt lat="44.83092" lon="5.39058">
        <ele>1103.58716</ele>
        <time>2023-08-19T04:13:07.412Z</time>
      </trkpt>
      <trkpt lat="44.83034" lon="5.39054">
        <ele>1098.993601</ele>
        <time>2023-08-19T04:13:11.500Z</time>
      </trkpt>
      <trkpt lat="44.82911" lon="5.39015">
        <ele>1087.508093</ele>
        <time>2023-08-19T04:13:20.255Z</time>
      </trkpt>
      <trkpt lat="44.82837" lon="5.39016">
        <ele>1080.966019</ele>
        <time>2023-08-19T04:13:25.387Z</time>
      </trkpt>
      <trkpt lat="44.82817" lon="5.39013">
        <ele>1079.482776</ele>
        <time>2023-08-19T04:13:26.730Z</time>
      </trkpt>
      <trkpt lat="44.8275" lon="5.38995">
        <ele>1074.238908</ele>
        <time>2023-08-19T04:13:31.516Z</time>
      </trkpt>
      <trkpt lat="44.82701" lon="5.38967">
        <ele>1070.12224</ele>
        <time>2023-08-19T04:13:35.336Z</time>
      </trkpt>
      <trkpt lat="44.82689" lon="5.38954">
        <ele>1068.965514</ele>
        <time>2023-08-19T04:13:36.431Z</time>
      </trkpt>
      <trkpt lat="44.82678" lon="5.38939">
        <ele>1068.194906</ele>
        <time>2023-08-19T04:13:37.529Z</time>
      </trkpt>
      <trkpt lat="44.82604" lon="5.388">
        <ele>1064.784794</ele>
        <time>2023-08-19T04:13:47.551Z</time>
      </trkpt>
      <trkpt lat="44.82601" lon="5.3878">
        <ele>1064.37385</ele>
        <time>2023-08-19T04:13:49.128Z</time>
      </trkpt>
      <trkpt lat="44.826" lon="5.38705">
        <ele>1063.209347</ele>
        <time>2023-08-19T04:13:55.670Z</time>
      </trkpt>
      <trkpt lat="44.82595" lon="5.3867">
        <ele>1062.919868</ele>
        <time>2023-08-19T04:13:58.836Z</time>
      </trkpt>
      <trkpt lat="44.82581" lon="5.38612">
        <ele>1062.409662</ele>
        <time>2023-08-19T04:14:03.532Z</time>
      </trkpt>
      <trkpt lat="44.82571" lon="5.3856">
        <ele>1061.964566</ele>
        <time>2023-08-19T04:14:07.029Z</time>
      </trkpt>
      <trkpt lat="44.82566" lon="5.38538">
        <ele>1061.76766</ele>
        <time>2023-08-19T04:14:08.510Z</time>
      </trkpt>
      <trkpt lat="44.82558" lon="5.38519">
        <ele>1061.58722</ele>
        <time>2023-08-19T04:14:09.869Z</time>
      </trkpt>
      <trkpt lat="44.82535" lon="5.38482">
        <ele>1060.74681</ele>
        <time>2023-08-19T04:14:12.840Z</time>
      </trkpt>
      <trkpt lat="44.82527" lon="5.38473">
        <ele>1060.230481</ele>
        <time>2023-08-19T04:14:13.776Z</time>
      </trkpt>
      <trkpt lat="44.82517" lon="5.38466">
        <ele>1059.723814</ele>
        <time>2023-08-19T04:14:14.707Z</time>
      </trkpt>
      <trkpt lat="44.82487" lon="5.38454">
        <ele>1058.292031</ele>
        <time>2023-08-19T04:14:17.250Z</time>
      </trkpt>
      <trkpt lat="44.82471" lon="5.38427">
        <ele>1057.141818</ele>
        <time>2023-08-19T04:14:19.231Z</time>
      </trkpt>
      <trkpt lat="44.82461" lon="5.38427">
        <ele>1056.688516</ele>
        <time>2023-08-19T04:14:19.969Z</time>
      </trkpt>
      <trkpt lat="44.82458" lon="5.38439">
        <ele>1056.267933</ele>
        <time>2023-08-19T04:14:20.667Z</time>
      </trkpt>
      <trkpt lat="44.82466" lon="5.38454">
        <ele>1055.636315</ele>
        <time>2023-08-19T04:14:21.680Z</time>
      </trkpt>
      <trkpt lat="44.82479" lon="5.38466">
        <ele>1054.947357</ele>
        <time>2023-08-19T04:14:22.766Z</time>
      </trkpt>
      <trkpt lat="44.82511" lon="5.38484">
        <ele>1053.325566</ele>
        <time>2023-08-19T04:14:25.288Z</time>
      </trkpt>
      <trkpt lat="44.82524" lon="5.38497">
        <ele>1052.240921</ele>
        <time>2023-08-19T04:14:26.416Z</time>
      </trkpt>
      <trkpt lat="44.8254" lon="5.38529">
        <ele>1049.862437</ele>
        <time>2023-08-19T04:14:28.395Z</time>
      </trkpt>
      <trkpt lat="44.82547" lon="5.38553">
        <ele>1048.31446</ele>
        <time>2023-08-19T04:14:29.690Z</time>
      </trkpt>
      <trkpt lat="44.82557" lon="5.38608">
        <ele>1044.920861</ele>
        <time>2023-08-19T04:14:32.505Z</time>
      </trkpt>
      <trkpt lat="44.82567" lon="5.38715">
        <ele>1038.42985</ele>
        <time>2023-08-19T04:14:37.838Z</time>
      </trkpt>
      <trkpt lat="44.82566" lon="5.38738">
        <ele>1037.092361</ele>
        <time>2023-08-19T04:14:38.961Z</time>
      </trkpt>
      <trkpt lat="44.82553" lon="5.38797">
        <ele>1033.563105</ele>
        <time>2023-08-19T04:14:42.000Z</time>
      </trkpt>
      <trkpt lat="44.82553" lon="5.38814">
        <ele>1032.587452</ele>
        <time>2023-08-19T04:14:42.847Z</time>
      </trkpt>
      <trkpt lat="44.82564" lon="5.38849">
        <ele>1030.415226</ele>
        <time>2023-08-19T04:14:44.738Z</time>
      </trkpt>
      <trkpt lat="44.82603" lon="5.3893">
        <ele>1024.886651</ele>
        <time>2023-08-19T04:14:49.664Z</time>
      </trkpt>
      <trkpt lat="44.82626" lon="5.38988">
        <ele>1022.332634</ele>
        <time>2023-08-19T04:14:53.203Z</time>
      </trkpt>
      <trkpt lat="44.82645" lon="5.39027">
        <ele>1021.098864</ele>
        <time>2023-08-19T04:14:55.830Z</time>
      </trkpt>
      <trkpt lat="44.82656" lon="5.39042">
        <ele>1020.507152</ele>
        <time>2023-08-19T04:14:57.138Z</time>
      </trkpt>
      <trkpt lat="44.82668" lon="5.39052">
        <ele>1020.000833</ele>
        <time>2023-08-19T04:14:58.236Z</time>
      </trkpt>
      <trkpt lat="44.82787" lon="5.39118">
        <ele>1015.575494</ele>
        <time>2023-08-19T04:15:08.749Z</time>
      </trkpt>
      <trkpt lat="44.82831" lon="5.39154">
        <ele>1014.074545</ele>
        <time>2023-08-19T04:15:13.148Z</time>
      </trkpt>
      <trkpt lat="44.82851" lon="5.39159">
        <ele>1013.501837</ele>
        <time>2023-08-19T04:15:14.787Z</time>
      </trkpt>
      <trkpt lat="44.82879" lon="5.39159">
        <ele>1012.694121</ele>
        <time>2023-08-19T04:15:17.073Z</time>
      </trkpt>
      <trkpt lat="44.82901" lon="5.39166">
        <ele>1012.021668</ele>
        <time>2023-08-19T04:15:18.966Z</time>
      </trkpt>
      <trkpt lat="44.82982" lon="5.39214">
        <ele>1009.215954</ele>
        <time>2023-08-19T04:15:25.989Z</time>
      </trkpt>
      <trkpt lat="44.83027" lon="5.39246">
        <ele>1007.59914</ele>
        <time>2023-08-19T04:15:29.965Z</time>
      </trkpt>
      <trkpt lat="44.83048" lon="5.3925">
        <ele>1006.889313</ele>
        <time>2023-08-19T04:15:31.714Z</time>
      </trkpt>
      <trkpt lat="44.83068" lon="5.3925">
        <ele>1006.236805</ele>
        <time>2023-08-19T04:15:33.306Z</time>
      </trkpt>
      <trkpt lat="44.83102" lon="5.39273">
        <ele>1005.171613</ele>
        <time>2023-08-19T04:15:36.426Z</time>
      </trkpt>
      <trkpt lat="44.83117" lon="5.39279">
        <ele>1004.795421</ele>
        <time>2023-08-19T04:15:37.790Z</time>
      </trkpt>
      <trkpt lat="44.83172" lon="5.39289">
        <ele>1003.470212</ele>
        <time>2023-08-19T04:15:42.572Z</time>
      </trkpt>
      <trkpt lat="44.8321" lon="5.39307">
        <ele>1002.528934</ele>
        <time>2023-08-19T04:15:45.995Z</time>
      </trkpt>
      <trkpt lat="44.83231" lon="5.39304">
        <ele>1002.025599</ele>
        <time>2023-08-19T04:15:47.849Z</time>
      </trkpt>
      <trkpt lat="44.83261" lon="5.39286">
        <ele>1001.211044</ele>
        <time>2023-08-19T04:15:50.743Z</time>
      </trkpt>
      <trkpt lat="44.8327" lon="5.39284">
        <ele>1000.973456</ele>
        <time>2023-08-19T04:15:51.410Z</time>
      </trkpt>
      <trkpt lat="44.83287" lon="5.3929">
        <ele>1000.458869</ele>
        <time>2023-08-19T04:15:52.895Z</time>
      </trkpt>
      <trkpt lat="44.83299" lon="5.39299">
        <ele>1000.075377</ele>
        <time>2023-08-19T04:15:54.078Z</time>
      </trkpt>
      <trkpt lat="44.83311" lon="5.39303">
        <ele>999.715163</ele>
        <time>2023-08-19T04:15:55.090Z</time>
      </trkpt>
      <trkpt lat="44.83365" lon="5.3931">
        <ele>998.1479</ele>
        <time>2023-08-19T04:15:59.827Z</time>
      </trkpt>
      <trkpt lat="44.83376" lon="5.39314">
        <ele>997.84055</ele>
        <time>2023-08-19T04:16:00.685Z</time>
      </trkpt>
      <trkpt lat="44.83383" lon="5.3932">
        <ele>997.600105</ele>
        <time>2023-08-19T04:16:01.329Z</time>
      </trkpt>
      <trkpt lat="44.83389" lon="5.39332">
        <ele>997.307878</ele>
        <time>2023-08-19T04:16:02.162Z</time>
      </trkpt>
      <trkpt lat="44.83393" lon="5.39347">
        <ele>996.97775</ele>
        <time>2023-08-19T04:16:03.084Z</time>
      </trkpt>
      <trkpt lat="44.83395" lon="5.39367">
        <ele>996.560612</ele>
        <time>2023-08-19T04:16:04.189Z</time>
      </trkpt>
      <trkpt lat="44.83393" lon="5.3939">
        <ele>996.114492</ele>
        <time>2023-08-19T04:16:05.494Z</time>
      </trkpt>
      <trkpt lat="44.83385" lon="5.39441">
        <ele>995.378512</ele>
        <time>2023-08-19T04:16:08.396Z</time>
      </trkpt>
      <trkpt lat="44.83371" lon="5.39473">
        <ele>994.845062</ele>
        <time>2023-08-19T04:16:10.538Z</time>
      </trkpt>
      <trkpt lat="44.83338" lon="5.39528">
        <ele>993.836075</ele>
        <time>2023-08-19T04:16:15.219Z</time>
      </trkpt>
      <trkpt lat="44.833" lon="5.39572">
        <ele>992.846275</ele>
        <time>2023-08-19T04:16:20.586Z</time>
      </trkpt>
      <trkpt lat="44.83272" lon="5.3963">
        <ele>991.731776</ele>
        <time>2023-08-19T04:16:25.811Z</time>
      </trkpt>
      <trkpt lat="44.83258" lon="5.39648">
        <ele>991.290579</ele>
        <time>2023-08-19T04:16:27.669Z</time>
      </trkpt>
      <trkpt lat="44.83235" lon="5.39656">
        <ele>990.741851</ele>
        <time>2023-08-19T04:16:29.889Z</time>
      </trkpt>
      <trkpt lat="44.83217" lon="5.3967">
        <ele>990.261187</ele>
        <time>2023-08-19T04:16:31.880Z</time>
      </trkpt>
      <trkpt lat="44.83199" lon="5.39702">
        <ele>989.588309</ele>
        <time>2023-08-19T04:16:34.520Z</time>
      </trkpt>
      <trkpt lat="44.83187" lon="5.39712">
        <ele>989.26153</ele>
        <time>2023-08-19T04:16:35.730Z</time>
      </trkpt>
      <trkpt lat="44.83165" lon="5.39709">
        <ele>988.750679</ele>
        <time>2023-08-19T04:16:37.531Z</time>
      </trkpt>
      <trkpt lat="44.83135" lon="5.39711">
        <ele>987.072358</ele>
        <time>2023-08-19T04:16:39.745Z</time>
      </trkpt>
      <trkpt lat="44.8311" lon="5.39727">
        <ele>984.49068</ele>
        <time>2023-08-19T04:16:41.707Z</time>
      </trkpt>
      <trkpt lat="44.83063" lon="5.39773">
        <ele>979.150129</ele>
        <time>2023-08-19T04:16:45.580Z</time>
      </trkpt>
      <trkpt lat="44.83049" lon="5.39782">
        <ele>977.697892</ele>
        <time>2023-08-19T04:16:46.629Z</time>
      </trkpt>
      <trkpt lat="44.83004" lon="5.39802">
        <ele>973.328244</ele>
        <time>2023-08-19T04:16:49.813Z</time>
      </trkpt>
      <trkpt lat="44.82958" lon="5.39817">
        <ele>970.30714</ele>
        <time>2023-08-19T04:16:53.097Z</time>
      </trkpt>
      <trkpt lat="44.82931" lon="5.39838">
        <ele>968.878629</ele>
        <time>2023-08-19T04:16:55.394Z</time>
      </trkpt>
      <trkpt lat="44.82923" lon="5.39839">
        <ele>968.511841</ele>
        <time>2023-08-19T04:16:55.989Z</time>
      </trkpt>
      <trkpt lat="44.8292" lon="5.39836">
        <ele>968.351005</ele>
        <time>2023-08-19T04:16:56.264Z</time>
      </trkpt>
      <trkpt lat="44.82918" lon="5.39825">
        <ele>967.987794</ele>
        <time>2023-08-19T04:16:56.873Z</time>
      </trkpt>
      <trkpt lat="44.82919" lon="5.39821">
        <ele>967.839193</ele>
        <time>2023-08-19T04:16:57.119Z</time>
      </trkpt>
      <trkpt lat="44.82926" lon="5.39813">
        <ele>967.426864</ele>
        <time>2023-08-19T04:16:57.798Z</time>
      </trkpt>
      <trkpt lat="44.82965" lon="5.398">
        <ele>965.615273</ele>
        <time>2023-08-19T04:17:00.887Z</time>
      </trkpt>
      <trkpt lat="44.83026" lon="5.39757">
        <ele>962.895529</ele>
        <time>2023-08-19T04:17:07.720Z</time>
      </trkpt>
      <trkpt lat="44.83056" lon="5.39734">
        <ele>962.067692</ele>
        <time>2023-08-19T04:17:13.342Z</time>
      </trkpt>
      <trkpt lat="44.83085" lon="5.397">
        <ele>961.132019</ele>
        <time>2023-08-19T04:17:19.029Z</time>
      </trkpt>
      <trkpt lat="44.83122" lon="5.39667">
        <ele>960.076326</ele>
        <time>2023-08-19T04:17:22.866Z</time>
      </trkpt>
      <trkpt lat="44.83166" lon="5.39637">
        <ele>958.439318</ele>
        <time>2023-08-19T04:17:26.491Z</time>
      </trkpt>
      <trkpt lat="44.8318" lon="5.3962">
        <ele>956.454027</ele>
        <time>2023-08-19T04:17:27.736Z</time>
      </trkpt>
      <trkpt lat="44.83228" lon="5.39549">
        <ele>948.668363</ele>
        <time>2023-08-19T04:17:32.505Z</time>
      </trkpt>
      <trkpt lat="44.83233" lon="5.39537">
        <ele>947.553381</ele>
        <time>2023-08-19T04:17:33.182Z</time>
      </trkpt>
      <trkpt lat="44.83235" lon="5.39512">
        <ele>945.594214</ele>
        <time>2023-08-19T04:17:34.363Z</time>
      </trkpt>
      <trkpt lat="44.83226" lon="5.39487">
        <ele>943.369448</ele>
        <time>2023-08-19T04:17:35.708Z</time>
      </trkpt>
      <trkpt lat="44.83212" lon="5.39472">
        <ele>941.402927</ele>
        <time>2023-08-19T04:17:36.896Z</time>
      </trkpt>
      <trkpt lat="44.83105" lon="5.39446">
        <ele>929.532184</ele>
        <time>2023-08-19T04:17:44.191Z</time>
      </trkpt>
      <trkpt lat="44.83086" lon="5.39439">
        <ele>927.401713</ele>
        <time>2023-08-19T04:17:45.514Z</time>
      </trkpt>
      <trkpt lat="44.83055" lon="5.39419">
        <ele>923.724357</ele>
        <time>2023-08-19T04:17:47.827Z</time>
      </trkpt>
      <trkpt lat="44.83033" lon="5.39409">
        <ele>921.170795</ele>
        <time>2023-08-19T04:17:49.453Z</time>
      </trkpt>
      <trkpt lat="44.82947" lon="5.39388">
        <ele>915.36446</ele>
        <time>2023-08-19T04:17:55.749Z</time>
      </trkpt>
      <trkpt lat="44.82906" lon="5.39389">
        <ele>913.072613</ele>
        <time>2023-08-19T04:17:58.853Z</time>
      </trkpt>
      <trkpt lat="44.82872" lon="5.39369">
        <ele>910.980075</ele>
        <time>2023-08-19T04:18:01.765Z</time>
      </trkpt>
      <trkpt lat="44.82813" lon="5.39371">
        <ele>907.54346</ele>
        <time>2023-08-19T04:18:06.392Z</time>
      </trkpt>
      <trkpt lat="44.8279" lon="5.39357">
        <ele>906.006868</ele>
        <time>2023-08-19T04:18:08.296Z</time>
      </trkpt>
      <trkpt lat="44.82755" lon="5.39346">
        <ele>903.867329</ele>
        <time>2023-08-19T04:18:10.877Z</time>
      </trkpt>
      <trkpt lat="44.82713" lon="5.3931">
        <ele>900.896975</ele>
        <time>2023-08-19T04:18:14.430Z</time>
      </trkpt>
      <trkpt lat="44.82695" lon="5.39305">
        <ele>899.76674</ele>
        <time>2023-08-19T04:18:15.755Z</time>
      </trkpt>
      <trkpt lat="44.82679" lon="5.39309">
        <ele>898.784498</ele>
        <time>2023-08-19T04:18:16.936Z</time>
      </trkpt>
      <trkpt lat="44.82656" lon="5.39332">
        <ele>896.829019</ele>
        <time>2023-08-19T04:18:18.935Z</time>
      </trkpt>
      <trkpt lat="44.82644" lon="5.39337">
        <ele>895.904333</ele>
        <time>2023-08-19T04:18:19.855Z</time>
      </trkpt>
      <trkpt lat="44.82633" lon="5.39336">
        <ele>895.117564</ele>
        <time>2023-08-19T04:18:20.616Z</time>
      </trkpt>
      <trkpt lat="44.82556" lon="5.39282">
        <ele>888.786046</ele>
        <time>2023-08-19T04:18:26.727Z</time>
      </trkpt>
      <trkpt lat="44.82542" lon="5.39268">
        <ele>887.528297</ele>
        <time>2023-08-19T04:18:27.931Z</time>
      </trkpt>
      <trkpt lat="44.82508" lon="5.39223">
        <ele>884.362078</ele>
        <time>2023-08-19T04:18:31.270Z</time>
      </trkpt>
      <trkpt lat="44.82464" lon="5.39204">
        <ele>881.818283</ele>
        <time>2023-08-19T04:18:34.669Z</time>
      </trkpt>
      <trkpt lat="44.82444" lon="5.39187">
        <ele>880.519795</ele>
        <time>2023-08-19T04:18:36.420Z</time>
      </trkpt>
      <trkpt lat="44.8243" lon="5.39168">
        <ele>879.486702</ele>
        <time>2023-08-19T04:18:37.826Z</time>
      </trkpt>
      <trkpt lat="44.82413" lon="5.39135">
        <ele>877.900471</ele>
        <time>2023-08-19T04:18:40.014Z</time>
      </trkpt>
      <trkpt lat="44.82361" lon="5.39077">
        <ele>874.396445</ele>
        <time>2023-08-19T04:18:45.106Z</time>
      </trkpt>
      <trkpt lat="44.8234" lon="5.39048">
        <ele>873.061854</ele>
        <time>2023-08-19T04:18:47.346Z</time>
      </trkpt>
      <trkpt lat="44.82329" lon="5.39023">
        <ele>872.128008</ele>
        <time>2023-08-19T04:18:48.915Z</time>
      </trkpt>
      <trkpt lat="44.82325" lon="5.38997">
        <ele>871.27903</ele>
        <time>2023-08-19T04:18:50.340Z</time>
      </trkpt>
      <trkpt lat="44.82327" lon="5.38971">
        <ele>870.444049</ele>
        <time>2023-08-19T04:18:51.743Z</time>
      </trkpt>
      <trkpt lat="44.82338" lon="5.38921">
        <ele>868.756361</ele>
        <time>2023-08-19T04:18:54.618Z</time>
      </trkpt>
      <trkpt lat="44.82338" lon="5.38903">
        <ele>868.185352</ele>
        <time>2023-08-19T04:18:55.592Z</time>
      </trkpt>
      <trkpt lat="44.82336" lon="5.38884">
        <ele>867.585257</ele>
        <time>2023-08-19T04:18:56.646Z</time>
      </trkpt>
      <trkpt lat="44.82325" lon="5.38832">
        <ele>865.764273</ele>
        <time>2023-08-19T04:18:59.710Z</time>
      </trkpt>
      <trkpt lat="44.82323" lon="5.38799">
        <ele>864.646056</ele>
        <time>2023-08-19T04:19:01.559Z</time>
      </trkpt>
      <trkpt lat="44.82316" lon="5.38792">
        <ele>864.231535</ele>
        <time>2023-08-19T04:19:02.244Z</time>
      </trkpt>
      <trkpt lat="44.82308" lon="5.38797">
        <ele>863.837038</ele>
        <time>2023-08-19T04:19:02.882Z</time>
      </trkpt>
      <trkpt lat="44.82306" lon="5.38804">
        <ele>863.588936</ele>
        <time>2023-08-19T04:19:03.281Z</time>
      </trkpt>
      <trkpt lat="44.82325" lon="5.38872">
        <ele>861.123897</ele>
        <time>2023-08-19T04:19:07.194Z</time>
      </trkpt>
      <trkpt lat="44.82327" lon="5.38893">
        <ele>860.42699</ele>
        <time>2023-08-19T04:19:08.290Z</time>
      </trkpt>
      <trkpt lat="44.82326" lon="5.38912">
        <ele>859.793466</ele>
        <time>2023-08-19T04:19:09.283Z</time>
      </trkpt>
      <trkpt lat="44.82318" lon="5.38945">
        <ele>858.592902</ele>
        <time>2023-08-19T04:19:11.166Z</time>
      </trkpt>
      <trkpt lat="44.82298" lon="5.38995">
        <ele>856.456357</ele>
        <time>2023-08-19T04:19:14.214Z</time>
      </trkpt>
      <trkpt lat="44.82295" lon="5.39013">
        <ele>855.7556</ele>
        <time>2023-08-19T04:19:15.212Z</time>
      </trkpt>
      <trkpt lat="44.82296" lon="5.39032">
        <ele>855.060479</ele>
        <time>2023-08-19T04:19:16.202Z</time>
      </trkpt>
      <trkpt lat="44.82299" lon="5.3905">
        <ele>854.357452</ele>
        <time>2023-08-19T04:19:17.209Z</time>
      </trkpt>
      <trkpt lat="44.82307" lon="5.39075">
        <ele>853.336887</ele>
        <time>2023-08-19T04:19:18.650Z</time>
      </trkpt>
      <trkpt lat="44.82318" lon="5.39099">
        <ele>852.253395</ele>
        <time>2023-08-19T04:19:20.194Z</time>
      </trkpt>
      <trkpt lat="44.82366" lon="5.39181">
        <ele>848.033037</ele>
        <time>2023-08-19T04:19:25.807Z</time>
      </trkpt>
      <trkpt lat="44.82387" lon="5.39235">
        <ele>845.098505</ele>
        <time>2023-08-19T04:19:28.984Z</time>
      </trkpt>
      <trkpt lat="44.82398" lon="5.39254">
        <ele>843.915475</ele>
        <time>2023-08-19T04:19:30.266Z</time>
      </trkpt>
      <trkpt lat="44.82424" lon="5.39281">
        <ele>841.768304</ele>
        <time>2023-08-19T04:19:32.546Z</time>
      </trkpt>
      <trkpt lat="44.82455" lon="5.39301">
        <ele>839.429741</ele>
        <time>2023-08-19T04:19:35.004Z</time>
      </trkpt>
      <trkpt lat="44.82465" lon="5.39311">
        <ele>838.56573</ele>
        <time>2023-08-19T04:19:35.903Z</time>
      </trkpt>
      <trkpt lat="44.82517" lon="5.3938">
        <ele>834.542837</ele>
        <time>2023-08-19T04:19:40.876Z</time>
      </trkpt>
      <trkpt lat="44.82595" lon="5.39443">
        <ele>829.926863</ele>
        <time>2023-08-19T04:19:47.508Z</time>
      </trkpt>
      <trkpt lat="44.82611" lon="5.39449">
        <ele>829.071534</ele>
        <time>2023-08-19T04:19:48.862Z</time>
      </trkpt>
      <trkpt lat="44.82649" lon="5.39449">
        <ele>827.854062</ele>
        <time>2023-08-19T04:19:52.375Z</time>
      </trkpt>
      <trkpt lat="44.82671" lon="5.39453">
        <ele>828.224616</ele>
        <time>2023-08-19T04:19:55.417Z</time>
      </trkpt>
      <trkpt lat="44.8269" lon="5.3947">
        <ele>828.610577</ele>
        <time>2023-08-19T04:19:59.817Z</time>
      </trkpt>
      <trkpt lat="44.82699" lon="5.39474">
        <ele>828.772531</ele>
        <time>2023-08-19T04:20:02.227Z</time>
      </trkpt>
      <trkpt lat="44.82741" lon="5.39482">
        <ele>829.486468</ele>
        <time>2023-08-19T04:20:11.852Z</time>
      </trkpt>
      <trkpt lat="44.8276" lon="5.39489">
        <ele>829.827173</ele>
        <time>2023-08-19T04:20:16.486Z</time>
      </trkpt>
      <trkpt lat="44.82803" lon="5.39524">
        <ele>830.657671</ele>
        <time>2023-08-19T04:20:27.859Z</time>
      </trkpt>
      <trkpt lat="44.82808" lon="5.39533">
        <ele>830.536448</ele>
        <time>2023-08-19T04:20:28.960Z</time>
      </trkpt>
      <trkpt lat="44.8281" lon="5.39554">
        <ele>829.856483</ele>
        <time>2023-08-19T04:20:31.729Z</time>
      </trkpt>
      <trkpt lat="44.82807" lon="5.39563">
        <ele>829.529496</ele>
        <time>2023-08-19T04:20:33.142Z</time>
      </trkpt>
      <trkpt lat="44.82801" lon="5.39571">
        <ele>829.172856</ele>
        <time>2023-08-19T04:20:34.157Z</time>
      </trkpt>
      <trkpt lat="44.82726" lon="5.39641">
        <ele>825.056111</ele>
        <time>2023-08-19T04:20:41.290Z</time>
      </trkpt>
      <trkpt lat="44.82653" lon="5.39695">
        <ele>820.664386</ele>
        <time>2023-08-19T04:20:46.916Z</time>
      </trkpt>
      <trkpt lat="44.82616" lon="5.39744">
        <ele>817.146489</ele>
        <time>2023-08-19T04:20:50.437Z</time>
      </trkpt>
      <trkpt lat="44.82593" lon="5.39761">
        <ele>815.352653</ele>
        <time>2023-08-19T04:20:52.292Z</time>
      </trkpt>
      <trkpt lat="44.82569" lon="5.39789">
        <ele>813.20321</ele>
        <time>2023-08-19T04:20:54.616Z</time>
      </trkpt>
      <trkpt lat="44.82562" lon="5.39789">
        <ele>812.760529</ele>
        <time>2023-08-19T04:20:55.111Z</time>
      </trkpt>
      <trkpt lat="44.82557" lon="5.39777">
        <ele>812.056518</ele>
        <time>2023-08-19T04:20:55.932Z</time>
      </trkpt>
      <trkpt lat="44.82558" lon="5.39767">
        <ele>811.601567</ele>
        <time>2023-08-19T04:20:56.438Z</time>
      </trkpt>
      <trkpt lat="44.82564" lon="5.3976">
        <ele>811.061051</ele>
        <time>2023-08-19T04:20:57.049Z</time>
      </trkpt>
      <trkpt lat="44.82602" lon="5.39737">
        <ele>809.371241</ele>
        <time>2023-08-19T04:21:00.527Z</time>
      </trkpt>
      <trkpt lat="44.8261" lon="5.39728">
        <ele>809.087888</ele>
        <time>2023-08-19T04:21:01.604Z</time>
      </trkpt>
      <trkpt lat="44.82634" lon="5.39684">
        <ele>808.045862</ele>
        <time>2023-08-19T04:21:05.599Z</time>
      </trkpt>
      <trkpt lat="44.8265" lon="5.39663">
        <ele>807.465587</ele>
        <time>2023-08-19T04:21:07.867Z</time>
      </trkpt>
      <trkpt lat="44.82664" lon="5.39645">
        <ele>806.960339</ele>
        <time>2023-08-19T04:21:09.938Z</time>
      </trkpt>
      <trkpt lat="44.82708" lon="5.39606">
        <ele>805.573436</ele>
        <time>2023-08-19T04:21:14.370Z</time>
      </trkpt>
      <trkpt lat="44.82718" lon="5.39593">
        <ele>804.882143</ele>
        <time>2023-08-19T04:21:15.407Z</time>
      </trkpt>
      <trkpt lat="44.82723" lon="5.39582">
        <ele>803.818539</ele>
        <time>2023-08-19T04:21:16.099Z</time>
      </trkpt>
      <trkpt lat="44.82725" lon="5.39572">
        <ele>802.951222</ele>
        <time>2023-08-19T04:21:16.651Z</time>
      </trkpt>
      <trkpt lat="44.82721" lon="5.39549">
        <ele>801.089613</ele>
        <time>2023-08-19T04:21:17.821Z</time>
      </trkpt>
      <trkpt lat="44.82701" lon="5.39531">
        <ele>798.426429</ele>
        <time>2023-08-19T04:21:19.448Z</time>
      </trkpt>
      <trkpt lat="44.82677" lon="5.39517">
        <ele>795.4958</ele>
        <time>2023-08-19T04:21:21.207Z</time>
      </trkpt>
      <trkpt lat="44.82588" lon="5.39506">
        <ele>785.510384</ele>
        <time>2023-08-19T04:21:27.144Z</time>
      </trkpt>
      <trkpt lat="44.82561" lon="5.39497">
        <ele>782.852024</ele>
        <time>2023-08-19T04:21:28.997Z</time>
      </trkpt>
      <trkpt lat="44.82524" lon="5.39502">
        <ele>779.377438</ele>
        <time>2023-08-19T04:21:31.503Z</time>
      </trkpt>
      <trkpt lat="44.82507" lon="5.39501">
        <ele>777.740922</ele>
        <time>2023-08-19T04:21:32.709Z</time>
      </trkpt>
      <trkpt lat="44.82489" lon="5.39497">
        <ele>776.087894</ele>
        <time>2023-08-19T04:21:33.917Z</time>
      </trkpt>
      <trkpt lat="44.82452" lon="5.39481">
        <ele>772.443588</ele>
        <time>2023-08-19T04:21:36.652Z</time>
      </trkpt>
      <trkpt lat="44.8242" lon="5.39455">
        <ele>768.939528</ele>
        <time>2023-08-19T04:21:39.350Z</time>
      </trkpt>
      <trkpt lat="44.82408" lon="5.39448">
        <ele>767.960058</ele>
        <time>2023-08-19T04:21:40.357Z</time>
      </trkpt>
      <trkpt lat="44.82344" lon="5.39436">
        <ele>764.903303</ele>
        <time>2023-08-19T04:21:45.356Z</time>
      </trkpt>
      <trkpt lat="44.82306" lon="5.39421">
        <ele>763.055601</ele>
        <time>2023-08-19T04:21:48.437Z</time>
      </trkpt>
      <trkpt lat="44.8229" lon="5.39409">
        <ele>762.165872</ele>
        <time>2023-08-19T04:21:49.883Z</time>
      </trkpt>
      <trkpt lat="44.82262" lon="5.39377">
        <ele>760.482769</ele>
        <time>2023-08-19T04:21:52.561Z</time>
      </trkpt>
      <trkpt lat="44.82228" lon="5.3935">
        <ele>758.53882</ele>
        <time>2023-08-19T04:21:55.508Z</time>
      </trkpt>
      <trkpt lat="44.82217" lon="5.39338">
        <ele>757.846258</ele>
        <time>2023-08-19T04:21:56.533Z</time>
      </trkpt>
      <trkpt lat="44.82207" lon="5.3932">
        <ele>757.028377</ele>
        <time>2023-08-19T04:21:57.730Z</time>
      </trkpt>
      <trkpt lat="44.8218" lon="5.3926">
        <ele>754.496513</ele>
        <time>2023-08-19T04:22:01.447Z</time>
      </trkpt>
      <trkpt lat="44.82172" lon="5.39237">
        <ele>753.55665</ele>
        <time>2023-08-19T04:22:02.841Z</time>
      </trkpt>
      <trkpt lat="44.82158" lon="5.39189">
        <ele>751.710537</ele>
        <time>2023-08-19T04:22:05.623Z</time>
      </trkpt>
      <trkpt lat="44.82154" lon="5.39181">
        <ele>751.363715</ele>
        <time>2023-08-19T04:22:06.147Z</time>
      </trkpt>
      <trkpt lat="44.82149" lon="5.39178">
        <ele>751.065854</ele>
        <time>2023-08-19T04:22:06.610Z</time>
      </trkpt>
      <trkpt lat="44.82143" lon="5.39182">
        <ele>750.754161</ele>
        <time>2023-08-19T04:22:07.098Z</time>
      </trkpt>
      <trkpt lat="44.82141" lon="5.39191">
        <ele>750.471468</ele>
        <time>2023-08-19T04:22:07.620Z</time>
      </trkpt>
      <trkpt lat="44.82165" lon="5.39254">
        <ele>748.536752</ele>
        <time>2023-08-19T04:22:11.656Z</time>
      </trkpt>
      <trkpt lat="44.8219" lon="5.39365">
        <ele>745.354797</ele>
        <time>2023-08-19T04:22:18.301Z</time>
      </trkpt>
      <trkpt lat="44.822" lon="5.39386">
        <ele>744.676932</ele>
        <time>2023-08-19T04:22:19.694Z</time>
      </trkpt>
      <trkpt lat="44.82247" lon="5.39443">
        <ele>741.883062</ele>
        <time>2023-08-19T04:22:24.471Z</time>
      </trkpt>
      <trkpt lat="44.8228" lon="5.3947">
        <ele>739.990724</ele>
        <time>2023-08-19T04:22:27.373Z</time>
      </trkpt>
      <trkpt lat="44.82309" lon="5.3949">
        <ele>738.403301</ele>
        <time>2023-08-19T04:22:29.778Z</time>
      </trkpt>
      <trkpt lat="44.82345" lon="5.3951">
        <ele>736.437977</ele>
        <time>2023-08-19T04:22:32.720Z</time>
      </trkpt>
      <trkpt lat="44.82376" lon="5.3952">
        <ele>734.897567</ele>
        <time>2023-08-19T04:22:35.016Z</time>
      </trkpt>
      <trkpt lat="44.82399" lon="5.39522">
        <ele>733.600116</ele>
        <time>2023-08-19T04:22:36.748Z</time>
      </trkpt>
      <trkpt lat="44.82406" lon="5.39532">
        <ele>733.05834</ele>
        <time>2023-08-19T04:22:37.466Z</time>
      </trkpt>
      <trkpt lat="44.82405" lon="5.39539">
        <ele>732.787597</ele>
        <time>2023-08-19T04:22:37.828Z</time>
      </trkpt>
      <trkpt lat="44.82399" lon="5.39544">
        <ele>732.420892</ele>
        <time>2023-08-19T04:22:38.321Z</time>
      </trkpt>
      <trkpt lat="44.82262" lon="5.395">
        <ele>724.573835</ele>
        <time>2023-08-19T04:22:48.859Z</time>
      </trkpt>
      <trkpt lat="44.82207" lon="5.39496">
        <ele>721.275762</ele>
        <time>2023-08-19T04:22:52.802Z</time>
      </trkpt>
      <trkpt lat="44.82187" lon="5.39506">
        <ele>720.012935</ele>
        <time>2023-08-19T04:22:54.299Z</time>
      </trkpt>
      <trkpt lat="44.82153" lon="5.39524">
        <ele>717.830359</ele>
        <time>2023-08-19T04:22:56.914Z</time>
      </trkpt>
      <trkpt lat="44.82113" lon="5.39552">
        <ele>715.137265</ele>
        <time>2023-08-19T04:23:00.282Z</time>
      </trkpt>
      <trkpt lat="44.82086" lon="5.39562">
        <ele>713.662071</ele>
        <time>2023-08-19T04:23:02.448Z</time>
      </trkpt>
      <trkpt lat="44.82065" lon="5.3956">
        <ele>712.843555</ele>
        <time>2023-08-19T04:23:04.139Z</time>
      </trkpt>
      <trkpt lat="44.82053" lon="5.39555">
        <ele>712.36395</ele>
        <time>2023-08-19T04:23:05.113Z</time>
      </trkpt>
      <trkpt lat="44.82026" lon="5.39534">
        <ele>711.179094</ele>
        <time>2023-08-19T04:23:07.537Z</time>
      </trkpt>
      <trkpt lat="44.82018" lon="5.39512">
        <ele>710.494028</ele>
        <time>2023-08-19T04:23:08.915Z</time>
      </trkpt>
      <trkpt lat="44.82018" lon="5.39502">
        <ele>710.214101</ele>
        <time>2023-08-19T04:23:09.481Z</time>
      </trkpt>
      <trkpt lat="44.82024" lon="5.3948">
        <ele>709.580453</ele>
        <time>2023-08-19T04:23:10.740Z</time>
      </trkpt>
      <trkpt lat="44.82039" lon="5.39456">
        <ele>708.680504</ele>
        <time>2023-08-19T04:23:12.549Z</time>
      </trkpt>
      <trkpt lat="44.82066" lon="5.39432">
        <ele>707.465249</ele>
        <time>2023-08-19T04:23:15.021Z</time>
      </trkpt>
      <trkpt lat="44.82078" lon="5.39413">
        <ele>706.681215</ele>
        <time>2023-08-19T04:23:16.399Z</time>
      </trkpt>
      <trkpt lat="44.82084" lon="5.39377">
        <ele>705.298394</ele>
        <time>2023-08-19T04:23:18.728Z</time>
      </trkpt>
      <trkpt lat="44.82082" lon="5.39357">
        <ele>704.536768</ele>
        <time>2023-08-19T04:23:20.069Z</time>
      </trkpt>
      <trkpt lat="44.82074" lon="5.39327">
        <ele>703.376208</ele>
        <time>2023-08-19T04:23:22.201Z</time>
      </trkpt>
      <trkpt lat="44.82066" lon="5.39307">
        <ele>702.534644</ele>
        <time>2023-08-19T04:23:23.486Z</time>
      </trkpt>
      <trkpt lat="44.8206" lon="5.39295">
        <ele>701.983669</ele>
        <time>2023-08-19T04:23:24.341Z</time>
      </trkpt>
      <trkpt lat="44.82049" lon="5.39283">
        <ele>701.275456</ele>
        <time>2023-08-19T04:23:25.347Z</time>
      </trkpt>
      <trkpt lat="44.8201" lon="5.39254">
        <ele>698.952657</ele>
        <time>2023-08-19T04:23:28.533Z</time>
      </trkpt>
      <trkpt lat="44.82" lon="5.3924">
        <ele>698.253252</ele>
        <time>2023-08-19T04:23:29.475Z</time>
      </trkpt>
      <trkpt lat="44.81981" lon="5.392">
        <ele>695.699313</ele>
        <time>2023-08-19T04:23:31.820Z</time>
      </trkpt>
      <trkpt lat="44.81975" lon="5.39193">
        <ele>695.023412</ele>
        <time>2023-08-19T04:23:32.362Z</time>
      </trkpt>
      <trkpt lat="44.81966" lon="5.39192">
        <ele>694.227873</ele>
        <time>2023-08-19T04:23:33.007Z</time>
      </trkpt>
      <trkpt lat="44.81957" lon="5.39196">
        <ele>693.420289</ele>
        <time>2023-08-19T04:23:33.654Z</time>
      </trkpt>
      <trkpt lat="44.81892" lon="5.39259">
        <ele>686.693833</ele>
        <time>2023-08-19T04:23:39.217Z</time>
      </trkpt>
      <trkpt lat="44.81876" lon="5.39269">
        <ele>685.241757</ele>
        <time>2023-08-19T04:23:40.439Z</time>
      </trkpt>
      <trkpt lat="44.81859" lon="5.39275">
        <ele>683.75459</ele>
        <time>2023-08-19T04:23:41.681Z</time>
      </trkpt>
      <trkpt lat="44.81824" lon="5.39276">
        <ele>681.072668</ele>
        <time>2023-08-19T04:23:44.112Z</time>
      </trkpt>
      <trkpt lat="44.81728" lon="5.39259">
        <ele>674.372779</ele>
        <time>2023-08-19T04:23:50.963Z</time>
      </trkpt>
      <trkpt lat="44.81628" lon="5.39238">
        <ele>668.328934</ele>
        <time>2023-08-19T04:23:58.544Z</time>
      </trkpt>
      <trkpt lat="44.81584" lon="5.39235">
        <ele>666.446218</ele>
        <time>2023-08-19T04:24:01.863Z</time>
      </trkpt>
      <trkpt lat="44.81389" lon="5.39274">
        <ele>659.377324</ele>
        <time>2023-08-19T04:24:17.789Z</time>
      </trkpt>
      <trkpt lat="44.8138" lon="5.39273">
        <ele>659.097938</ele>
        <time>2023-08-19T04:24:18.858Z</time>
      </trkpt>
      <trkpt lat="44.81372" lon="5.39267">
        <ele>658.820199</ele>
        <time>2023-08-19T04:24:19.803Z</time>
      </trkpt>
      <trkpt lat="44.81351" lon="5.39229">
        <ele>657.820008</ele>
        <time>2023-08-19T04:24:22.864Z</time>
      </trkpt>
      <trkpt lat="44.81342" lon="5.39222">
        <ele>657.499926</ele>
        <time>2023-08-19T04:24:23.723Z</time>
      </trkpt>
      <trkpt lat="44.81332" lon="5.39223">
        <ele>657.19593</ele>
        <time>2023-08-19T04:24:24.532Z</time>
      </trkpt>
      <trkpt lat="44.81318" lon="5.39231">
        <ele>656.487897</ele>
        <time>2023-08-19T04:24:25.763Z</time>
      </trkpt>
      <trkpt lat="44.81249" lon="5.39328">
        <ele>649.166288</ele>
        <time>2023-08-19T04:24:32.951Z</time>
      </trkpt>
      <trkpt lat="44.81238" lon="5.39357">
        <ele>647.417685</ele>
        <time>2023-08-19T04:24:34.581Z</time>
      </trkpt>
      <trkpt lat="44.81226" lon="5.39406">
        <ele>644.671153</ele>
        <time>2023-08-19T04:24:37.089Z</time>
      </trkpt>
      <trkpt lat="44.81217" lon="5.39426">
        <ele>643.32223</ele>
        <time>2023-08-19T04:24:38.266Z</time>
      </trkpt>
      <trkpt lat="44.81201" lon="5.39439">
        <ele>641.249524</ele>
        <time>2023-08-19T04:24:39.484Z</time>
      </trkpt>
      <trkpt lat="44.81182" lon="5.39444">
        <ele>638.977448</ele>
        <time>2023-08-19T04:24:40.813Z</time>
      </trkpt>
      <trkpt lat="44.8116" lon="5.39439">
        <ele>636.44354</ele>
        <time>2023-08-19T04:24:42.294Z</time>
      </trkpt>
      <trkpt lat="44.81062" lon="5.39386">
        <ele>624.347139</ele>
        <time>2023-08-19T04:24:49.402Z</time>
      </trkpt>
      <trkpt lat="44.80959" lon="5.39382">
        <ele>614.845471</ele>
        <time>2023-08-19T04:24:56.577Z</time>
      </trkpt>
      <trkpt lat="44.80882" lon="5.39359">
        <ele>607.854154</ele>
        <time>2023-08-19T04:25:02.101Z</time>
      </trkpt>
      <trkpt lat="44.80824" lon="5.39357">
        <ele>604.727079</ele>
        <time>2023-08-19T04:25:06.198Z</time>
      </trkpt>
      <trkpt lat="44.80759" lon="5.39314">
        <ele>601.46398</ele>
        <time>2023-08-19T04:25:11.536Z</time>
      </trkpt>
      <trkpt lat="44.80739" lon="5.39309">
        <ele>600.537903</ele>
        <time>2023-08-19T04:25:13.226Z</time>
      </trkpt>
      <trkpt lat="44.807" lon="5.39307">
        <ele>598.79534</ele>
        <time>2023-08-19T04:25:17.133Z</time>
      </trkpt>
      <trkpt lat="44.80688" lon="5.39296">
        <ele>598.81746</ele>
        <time>2023-08-19T04:25:19.239Z</time>
      </trkpt>
      <trkpt lat="44.80683" lon="5.39287">
        <ele>598.896483</ele>
        <time>2023-08-19T04:25:20.466Z</time>
      </trkpt>
      <trkpt lat="44.80656" lon="5.39222">
        <ele>599.447482</ele>
        <time>2023-08-19T04:25:32.135Z</time>
      </trkpt>
      <trkpt lat="44.8065" lon="5.39201">
        <ele>599.603737</ele>
        <time>2023-08-19T04:25:35.480Z</time>
      </trkpt>
      <trkpt lat="44.80641" lon="5.3913">
        <ele>600.128182</ele>
        <time>2023-08-19T04:25:45.006Z</time>
      </trkpt>
      <trkpt lat="44.80643" lon="5.39116">
        <ele>600.233843</ele>
        <time>2023-08-19T04:25:46.624Z</time>
      </trkpt>
      <trkpt lat="44.80658" lon="5.39071">
        <ele>600.15046</ele>
        <time>2023-08-19T04:25:50.445Z</time>
      </trkpt>
      <trkpt lat="44.80656" lon="5.39056">
        <ele>599.428619</ele>
        <time>2023-08-19T04:25:51.491Z</time>
      </trkpt>
      <trkpt lat="44.80652" lon="5.39046">
        <ele>598.873081</ele>
        <time>2023-08-19T04:25:52.200Z</time>
      </trkpt>
      <trkpt lat="44.80646" lon="5.39042">
        <ele>598.438762</ele>
        <time>2023-08-19T04:25:52.757Z</time>
      </trkpt>
      <trkpt lat="44.80628" lon="5.39046">
        <ele>597.266912</ele>
        <time>2023-08-19T04:25:54.237Z</time>
      </trkpt>
      <trkpt lat="44.80593" lon="5.39064">
        <ele>594.828874</ele>
        <time>2023-08-19T04:25:57.040Z</time>
      </trkpt>
      <trkpt lat="44.80534" lon="5.391">
        <ele>590.587822</ele>
        <time>2023-08-19T04:26:01.521Z</time>
      </trkpt>
      <trkpt lat="44.80512" lon="5.39111">
        <ele>589.065743</ele>
        <time>2023-08-19T04:26:03.095Z</time>
      </trkpt>
      <trkpt lat="44.80497" lon="5.39115">
        <ele>587.736913</ele>
        <time>2023-08-19T04:26:04.158Z</time>
      </trkpt>
      <trkpt lat="44.80445" lon="5.39115">
        <ele>582.930495</ele>
        <time>2023-08-19T04:26:07.620Z</time>
      </trkpt>
      <trkpt lat="44.80405" lon="5.39112">
        <ele>579.111918</ele>
        <time>2023-08-19T04:26:10.399Z</time>
      </trkpt>
      <trkpt lat="44.80384" lon="5.39099">
        <ele>576.956236</ele>
        <time>2023-08-19T04:26:12.002Z</time>
      </trkpt>
      <trkpt lat="44.80361" lon="5.39069">
        <ele>574.003167</ele>
        <time>2023-08-19T04:26:14.241Z</time>
      </trkpt>
      <trkpt lat="44.80333" lon="5.39026">
        <ele>571.265044</ele>
        <time>2023-08-19T04:26:17.257Z</time>
      </trkpt>
      <trkpt lat="44.8032" lon="5.38983">
        <ele>570.237241</ele>
        <time>2023-08-19T04:26:19.803Z</time>
      </trkpt>
      <trkpt lat="44.80313" lon="5.38972">
        <ele>569.894405</ele>
        <time>2023-08-19T04:26:20.692Z</time>
      </trkpt>
      <trkpt lat="44.80285" lon="5.38945">
        <ele>568.8461</ele>
        <time>2023-08-19T04:26:23.522Z</time>
      </trkpt>
      <trkpt lat="44.80276" lon="5.38928">
        <ele>568.368513</ele>
        <time>2023-08-19T04:26:25.007Z</time>
      </trkpt>
      <trkpt lat="44.80261" lon="5.38887">
        <ele>567.368293</ele>
        <time>2023-08-19T04:26:28.431Z</time>
      </trkpt>
      <trkpt lat="44.80225" lon="5.38822">
        <ele>565.44999</ele>
        <time>2023-08-19T04:26:33.614Z</time>
      </trkpt>
      <trkpt lat="44.80218" lon="5.38787">
        <ele>564.547005</ele>
        <time>2023-08-19T04:26:35.731Z</time>
      </trkpt>
      <trkpt lat="44.80218" lon="5.3877">
        <ele>564.101544</ele>
        <time>2023-08-19T04:26:36.698Z</time>
      </trkpt>
      <trkpt lat="44.80221" lon="5.38755">
        <ele>563.719016</ele>
        <time>2023-08-19T04:26:37.545Z</time>
      </trkpt>
      <trkpt lat="44.80236" lon="5.38713">
        <ele>562.537271</ele>
        <time>2023-08-19T04:26:40.154Z</time>
      </trkpt>
      <trkpt lat="44.80236" lon="5.38694">
        <ele>562.051546</ele>
        <time>2023-08-19T04:26:41.285Z</time>
      </trkpt>
      <trkpt lat="44.8023" lon="5.38688">
        <ele>561.789142</ele>
        <time>2023-08-19T04:26:41.849Z</time>
      </trkpt>
      <trkpt lat="44.80216" lon="5.38685">
        <ele>561.319191</ele>
        <time>2023-08-19T04:26:42.859Z</time>
      </trkpt>
      <trkpt lat="44.80194" lon="5.38689">
        <ele>560.513153</ele>
        <time>2023-08-19T04:26:44.653Z</time>
      </trkpt>
      <trkpt lat="44.80166" lon="5.38691">
        <ele>559.375499</ele>
        <time>2023-08-19T04:26:46.828Z</time>
      </trkpt>
      <trkpt lat="44.80139" lon="5.38685">
        <ele>557.960588</ele>
        <time>2023-08-19T04:26:48.875Z</time>
      </trkpt>
      <trkpt lat="44.8011" lon="5.38665">
        <ele>556.278927</ele>
        <time>2023-08-19T04:26:51.292Z</time>
      </trkpt>
      <trkpt lat="44.80068" lon="5.38627">
        <ele>553.690504</ele>
        <time>2023-08-19T04:26:54.872Z</time>
      </trkpt>
      <trkpt lat="44.79932" lon="5.38475">
        <ele>545.764365</ele>
        <time>2023-08-19T04:27:08.271Z</time>
      </trkpt>
      <trkpt lat="44.79922" lon="5.38456">
        <ele>545.056202</ele>
        <time>2023-08-19T04:27:09.603Z</time>
      </trkpt>
      <trkpt lat="44.79914" lon="5.38432">
        <ele>544.248828</ele>
        <time>2023-08-19T04:27:11.094Z</time>
      </trkpt>
      <trkpt lat="44.799" lon="5.3841">
        <ele>543.376358</ele>
        <time>2023-08-19T04:27:12.703Z</time>
      </trkpt>
      <trkpt lat="44.79876" lon="5.38383">
        <ele>542.198209</ele>
        <time>2023-08-19T04:27:15.063Z</time>
      </trkpt>
      <trkpt lat="44.79848" lon="5.38355">
        <ele>540.930932</ele>
        <time>2023-08-19T04:27:17.722Z</time>
      </trkpt>
      <trkpt lat="44.79829" lon="5.38344">
        <ele>540.188518</ele>
        <time>2023-08-19T04:27:19.275Z</time>
      </trkpt>
      <trkpt lat="44.79775" lon="5.38323">
        <ele>538.135676</ele>
        <time>2023-08-19T04:27:23.619Z</time>
      </trkpt>
      <trkpt lat="44.79697" lon="5.38306">
        <ele>536.928747</ele>
        <time>2023-08-19T04:27:30.153Z</time>
      </trkpt>
      <trkpt lat="44.79648" lon="5.38295">
        <ele>537.934952</ele>
        <time>2023-08-19T04:27:37.492Z</time>
      </trkpt>
      <trkpt lat="44.79599" lon="5.38293">
        <ele>538.93416</ele>
        <time>2023-08-19T04:27:48.644Z</time>
      </trkpt>
      <trkpt lat="44.79547" lon="5.38298">
        <ele>540.009187</ele>
        <time>2023-08-19T04:28:03.303Z</time>
      </trkpt>
      <trkpt lat="44.79538" lon="5.38299">
        <ele>540.382034</ele>
        <time>2023-08-19T04:28:05.952Z</time>
      </trkpt>
      <trkpt lat="44.79534" lon="5.38298">
        <ele>540.524955</ele>
        <time>2023-08-19T04:28:07.120Z</time>
      </trkpt>
      <trkpt lat="44.79522" lon="5.38293">
        <ele>541.034246</ele>
        <time>2023-08-19T04:28:11.124Z</time>
      </trkpt>
      <trkpt lat="44.79515" lon="5.38283">
        <ele>541.453727</ele>
        <time>2023-08-19T04:28:14.129Z</time>
      </trkpt>
      <trkpt lat="44.79507" lon="5.38267">
        <ele>542.020037</ele>
        <time>2023-08-19T04:28:18.352Z</time>
      </trkpt>
      <trkpt lat="44.79496" lon="5.38225">
        <ele>543.300321</ele>
        <time>2023-08-19T04:28:27.784Z</time>
      </trkpt>
      <trkpt lat="44.79465" lon="5.38157">
        <ele>545.617964</ele>
        <time>2023-08-19T04:28:42.775Z</time>
      </trkpt>
      <trkpt lat="44.79453" lon="5.38118">
        <ele>546.84709</ele>
        <time>2023-08-19T04:28:49.107Z</time>
      </trkpt>
      <trkpt lat="44.79419" lon="5.38003">
        <ele>547.827014</ele>
        <time>2023-08-19T04:29:00.006Z</time>
      </trkpt>
      <trkpt lat="44.79414" lon="5.37976">
        <ele>547.967648</ele>
        <time>2023-08-19T04:29:02.109Z</time>
      </trkpt>
      <trkpt lat="44.79411" lon="5.37951">
        <ele>548.096206</ele>
        <time>2023-08-19T04:29:03.996Z</time>
      </trkpt>
      <trkpt lat="44.79413" lon="5.37793">
        <ele>549.916846</ele>
        <time>2023-08-19T04:29:21.027Z</time>
      </trkpt>
      <trkpt lat="44.79411" lon="5.37772">
        <ele>550.348695</ele>
        <time>2023-08-19T04:29:24.057Z</time>
      </trkpt>
      <trkpt lat="44.79396" lon="5.37687">
        <ele>552.132464</ele>
        <time>2023-08-19T04:29:37.953Z</time>
      </trkpt>
      <trkpt lat="44.79382" lon="5.37654">
        <ele>552.89178</ele>
        <time>2023-08-19T04:29:44.365Z</time>
      </trkpt>
      <trkpt lat="44.79369" lon="5.37598">
        <ele>554.170696</ele>
        <time>2023-08-19T04:29:55.116Z</time>
      </trkpt>
      <trkpt lat="44.79349" lon="5.37484">
        <ele>556.993506</ele>
        <time>2023-08-19T04:30:17.076Z</time>
      </trkpt>
      <trkpt lat="44.79344" lon="5.37391">
        <ele>559.229375</ele>
        <time>2023-08-19T04:30:31.267Z</time>
      </trkpt>
      <trkpt lat="44.79333" lon="5.37311">
        <ele>559.638442</ele>
        <time>2023-08-19T04:30:40.481Z</time>
      </trkpt>
      <trkpt lat="44.79323" lon="5.37256">
        <ele>559.498567</ele>
        <time>2023-08-19T04:30:45.402Z</time>
      </trkpt>
      <trkpt lat="44.79294" lon="5.37141">
        <ele>559.196895</ele>
        <time>2023-08-19T04:30:53.583Z</time>
      </trkpt>
      <trkpt lat="44.79251" lon="5.37059">
        <ele>557.876144</ele>
        <time>2023-08-19T04:30:59.819Z</time>
      </trkpt>
      <trkpt lat="44.79189" lon="5.36959">
        <ele>555.90831</ele>
        <time>2023-08-19T04:31:08.183Z</time>
      </trkpt>
      <trkpt lat="44.79172" lon="5.36937">
        <ele>555.426772</ele>
        <time>2023-08-19T04:31:10.184Z</time>
      </trkpt>
      <trkpt lat="44.79121" lon="5.3689">
        <ele>552.739254</ele>
        <time>2023-08-19T04:31:15.232Z</time>
      </trkpt>
      <trkpt lat="44.79105" lon="5.36871">
        <ele>551.788805</ele>
        <time>2023-08-19T04:31:16.921Z</time>
      </trkpt>
      <trkpt lat="44.79038" lon="5.36757">
        <ele>546.880729</ele>
        <time>2023-08-19T04:31:24.762Z</time>
      </trkpt>
      <trkpt lat="44.79028" lon="5.36736">
        <ele>545.503465</ele>
        <time>2023-08-19T04:31:26.005Z</time>
      </trkpt>
      <trkpt lat="44.79004" lon="5.36698">
        <ele>542.674092</ele>
        <time>2023-08-19T04:31:28.557Z</time>
      </trkpt>
      <trkpt lat="44.78989" lon="5.36684">
        <ele>541.252403</ele>
        <time>2023-08-19T04:31:29.844Z</time>
      </trkpt>
      <trkpt lat="44.78938" lon="5.36656">
        <ele>536.944674</ele>
        <time>2023-08-19T04:31:33.698Z</time>
      </trkpt>
      <trkpt lat="44.78921" lon="5.36652">
        <ele>535.575093</ele>
        <time>2023-08-19T04:31:34.934Z</time>
      </trkpt>
      <trkpt lat="44.78875" lon="5.36631">
        <ele>531.833114</ele>
        <time>2023-08-19T04:31:38.313Z</time>
      </trkpt>
      <trkpt lat="44.78862" lon="5.36632">
        <ele>530.843422</ele>
        <time>2023-08-19T04:31:39.233Z</time>
      </trkpt>
      <trkpt lat="44.78815" lon="5.36654">
        <ele>527.161038</ele>
        <time>2023-08-19T04:31:42.658Z</time>
      </trkpt>
      <trkpt lat="44.78789" lon="5.36654">
        <ele>525.215915</ele>
        <time>2023-08-19T04:31:44.495Z</time>
      </trkpt>
      <trkpt lat="44.78756" lon="5.36659">
        <ele>522.687616</ele>
        <time>2023-08-19T04:31:46.902Z</time>
      </trkpt>
      <trkpt lat="44.78727" lon="5.36654">
        <ele>520.453088</ele>
        <time>2023-08-19T04:31:49.044Z</time>
      </trkpt>
      <trkpt lat="44.78708" lon="5.36655">
        <ele>519.502099</ele>
        <time>2023-08-19T04:31:50.419Z</time>
      </trkpt>
      <trkpt lat="44.78692" lon="5.36663">
        <ele>519.16901</ele>
        <time>2023-08-19T04:31:51.682Z</time>
      </trkpt>
      <trkpt lat="44.78677" lon="5.36682">
        <ele>518.792519</ele>
        <time>2023-08-19T04:31:53.126Z</time>
      </trkpt>
      <trkpt lat="44.78649" lon="5.36735">
        <ele>517.88619</ele>
        <time>2023-08-19T04:31:56.832Z</time>
      </trkpt>
      <trkpt lat="44.78627" lon="5.36761">
        <ele>517.330097</ele>
        <time>2023-08-19T04:31:59.589Z</time>
      </trkpt>
      <trkpt lat="44.78613" lon="5.36775">
        <ele>516.993123</ele>
        <time>2023-08-19T04:32:02.088Z</time>
      </trkpt>
      <trkpt lat="44.78568" lon="5.36803">
        <ele>516.517216</ele>
        <time>2023-08-19T04:32:11.891Z</time>
      </trkpt>
      <trkpt lat="44.78547" lon="5.3681">
        <ele>517.550612</ele>
        <time>2023-08-19T04:32:17.014Z</time>
      </trkpt>
      <trkpt lat="44.78534" lon="5.36821">
        <ele>518.252002</ele>
        <time>2023-08-19T04:32:20.249Z</time>
      </trkpt>
      <trkpt lat="44.7852" lon="5.36839">
        <ele>519.118526</ele>
        <time>2023-08-19T04:32:24.406Z</time>
      </trkpt>
      <trkpt lat="44.78507" lon="5.36863">
        <ele>520.144079</ele>
        <time>2023-08-19T04:32:29.979Z</time>
      </trkpt>
      <trkpt lat="44.78495" lon="5.36874">
        <ele>520.817094</ele>
        <time>2023-08-19T04:32:33.968Z</time>
      </trkpt>
      <trkpt lat="44.7848" lon="5.36877">
        <ele>521.521082</ele>
        <time>2023-08-19T04:32:38.563Z</time>
      </trkpt>
      <trkpt lat="44.7847" lon="5.36874">
        <ele>522.006943</ele>
        <time>2023-08-19T04:32:42.061Z</time>
      </trkpt>
      <trkpt lat="44.78458" lon="5.36862">
        <ele>522.694652</ele>
        <time>2023-08-19T04:32:46.999Z</time>
      </trkpt>
      <trkpt lat="44.78448" lon="5.36828">
        <ele>523.91044</ele>
        <time>2023-08-19T04:32:56.615Z</time>
      </trkpt>
      <trkpt lat="44.78419" lon="5.36781">
        <ele>524.34198</ele>
        <time>2023-08-19T04:33:11.530Z</time>
      </trkpt>
      <trkpt lat="44.78403" lon="5.36765">
        <ele>524.167616</ele>
        <time>2023-08-19T04:33:16.245Z</time>
      </trkpt>
      <trkpt lat="44.78389" lon="5.36757">
        <ele>524.022683</ele>
        <time>2023-08-19T04:33:18.696Z</time>
      </trkpt>
      <trkpt lat="44.78371" lon="5.36763">
        <ele>523.860351</ele>
        <time>2023-08-19T04:33:20.862Z</time>
      </trkpt>
      <trkpt lat="44.78346" lon="5.36781">
        <ele>523.601423</ele>
        <time>2023-08-19T04:33:23.196Z</time>
      </trkpt>
      <trkpt lat="44.78328" lon="5.36782">
        <ele>523.432762</ele>
        <time>2023-08-19T04:33:24.566Z</time>
      </trkpt>
      <trkpt lat="44.78306" lon="5.36773">
        <ele>523.218</ele>
        <time>2023-08-19T04:33:26.327Z</time>
      </trkpt>
      <trkpt lat="44.78279" lon="5.36753">
        <ele>522.762172</ele>
        <time>2023-08-19T04:33:28.575Z</time>
      </trkpt>
      <trkpt lat="44.78239" lon="5.36739">
        <ele>519.088637</ele>
        <time>2023-08-19T04:33:31.481Z</time>
      </trkpt>
      <trkpt lat="44.78187" lon="5.36709">
        <ele>513.988163</ele>
        <time>2023-08-19T04:33:35.334Z</time>
      </trkpt>
      <trkpt lat="44.78091" lon="5.3669">
        <ele>505.286608</ele>
        <time>2023-08-19T04:33:42.012Z</time>
      </trkpt>
      <trkpt lat="44.78038" lon="5.36672">
        <ele>500.882247</ele>
        <time>2023-08-19T04:33:45.939Z</time>
      </trkpt>
      <trkpt lat="44.78006" lon="5.36667">
        <ele>498.334486</ele>
        <time>2023-08-19T04:33:48.270Z</time>
      </trkpt>
      <trkpt lat="44.77968" lon="5.36669">
        <ele>495.2286</ele>
        <time>2023-08-19T04:33:51.011Z</time>
      </trkpt>
      <trkpt lat="44.77949" lon="5.36664">
        <ele>493.698551</ele>
        <time>2023-08-19T04:33:52.329Z</time>
      </trkpt>
      <trkpt lat="44.77927" lon="5.36647">
        <ele>491.548558</ele>
        <time>2023-08-19T04:33:54.071Z</time>
      </trkpt>
      <trkpt lat="44.77878" lon="5.36599">
        <ele>485.234659</ele>
        <time>2023-08-19T04:33:58.209Z</time>
      </trkpt>
      <trkpt lat="44.77828" lon="5.3655">
        <ele>478.856141</ele>
        <time>2023-08-19T04:34:02.333Z</time>
      </trkpt>
      <trkpt lat="44.77813" lon="5.36539">
        <ele>477.045333</ele>
        <time>2023-08-19T04:34:03.508Z</time>
      </trkpt>
      <trkpt lat="44.77796" lon="5.3653">
        <ele>475.11735</ele>
        <time>2023-08-19T04:34:04.739Z</time>
      </trkpt>
      <trkpt lat="44.77765" lon="5.36524">
        <ele>471.964739</ele>
        <time>2023-08-19T04:34:06.851Z</time>
      </trkpt>
      <trkpt lat="44.77735" lon="5.3652">
        <ele>469.116082</ele>
        <time>2023-08-19T04:34:08.899Z</time>
      </trkpt>
      <trkpt lat="44.77718" lon="5.36511">
        <ele>467.409258</ele>
        <time>2023-08-19T04:34:10.123Z</time>
      </trkpt>
      <trkpt lat="44.77667" lon="5.36472">
        <ele>461.859431</ele>
        <time>2023-08-19T04:34:14.183Z</time>
      </trkpt>
      <trkpt lat="44.77655" lon="5.36466">
        <ele>460.655211</ele>
        <time>2023-08-19T04:34:15.077Z</time>
      </trkpt>
      <trkpt lat="44.77615" lon="5.36454">
        <ele>456.782321</ele>
        <time>2023-08-19T04:34:17.990Z</time>
      </trkpt>
      <trkpt lat="44.77603" lon="5.36446">
        <ele>455.520092</ele>
        <time>2023-08-19T04:34:18.945Z</time>
      </trkpt>
      <trkpt lat="44.77481" lon="5.36306">
        <ele>440.817538</ele>
        <time>2023-08-19T04:34:29.847Z</time>
      </trkpt>
      <trkpt lat="44.7746" lon="5.36289">
        <ele>438.594275</ele>
        <time>2023-08-19T04:34:31.493Z</time>
      </trkpt>
      <trkpt lat="44.7744" lon="5.36279">
        <ele>436.629265</ele>
        <time>2023-08-19T04:34:32.985Z</time>
      </trkpt>
      <trkpt lat="44.77339" lon="5.36245">
        <ele>427.335614</ele>
        <time>2023-08-19T04:34:40.147Z</time>
      </trkpt>
      <trkpt lat="44.77294" lon="5.36232">
        <ele>423.195983</ele>
        <time>2023-08-19T04:34:43.392Z</time>
      </trkpt>
      <trkpt lat="44.77258" lon="5.36215">
        <ele>420.938538</ele>
        <time>2023-08-19T04:34:46.171Z</time>
      </trkpt>
      <trkpt lat="44.77224" lon="5.36193">
        <ele>418.861418</ele>
        <time>2023-08-19T04:34:48.858Z</time>
      </trkpt>
      <trkpt lat="44.7722" lon="5.3619">
        <ele>418.591123</ele>
        <time>2023-08-19T04:34:49.209Z</time>
      </trkpt>
      <trkpt lat="44.7718" lon="5.3616">
        <ele>416.038501</ele>
        <time>2023-08-19T04:34:52.621Z</time>
      </trkpt>
      <trkpt lat="44.77174" lon="5.36156">
        <ele>415.699807</ele>
        <time>2023-08-19T04:34:53.081Z</time>
      </trkpt>
      <trkpt lat="44.77133" lon="5.36124">
        <ele>413.021905</ele>
        <time>2023-08-19T04:34:56.759Z</time>
      </trkpt>
      <trkpt lat="44.77114" lon="5.36114">
        <ele>412.568774</ele>
        <time>2023-08-19T04:34:58.288Z</time>
      </trkpt>
      <trkpt lat="44.77078" lon="5.36103">
        <ele>411.892419</ele>
        <time>2023-08-19T04:35:01.234Z</time>
      </trkpt>
      <trkpt lat="44.77071" lon="5.36103">
        <ele>411.754747</ele>
        <time>2023-08-19T04:35:01.858Z</time>
      </trkpt>
      <trkpt lat="44.77051" lon="5.36104">
        <ele>411.382097</ele>
        <time>2023-08-19T04:35:03.583Z</time>
      </trkpt>
      <trkpt lat="44.76998" lon="5.36118">
        <ele>410.392757</ele>
        <time>2023-08-19T04:35:08.698Z</time>
      </trkpt>
      <trkpt lat="44.76979" lon="5.36123">
        <ele>410.050636</ele>
        <time>2023-08-19T04:35:10.746Z</time>
      </trkpt>
      <trkpt lat="44.76927" lon="5.36138">
        <ele>409.797395</ele>
        <time>2023-08-19T04:35:17.813Z</time>
      </trkpt>
      <trkpt lat="44.7692" lon="5.3614">
        <ele>409.856756</ele>
        <time>2023-08-19T04:35:18.964Z</time>
      </trkpt>
      <trkpt lat="44.76857" lon="5.36157">
        <ele>410.345714</ele>
        <time>2023-08-19T04:35:28.667Z</time>
      </trkpt>
      <trkpt lat="44.76836" lon="5.36166">
        <ele>410.511028</ele>
        <time>2023-08-19T04:35:31.927Z</time>
      </trkpt>
      <trkpt lat="44.76759" lon="5.36211">
        <ele>410.900856</ele>
        <time>2023-08-19T04:35:44.304Z</time>
      </trkpt>
      <trkpt lat="44.76733" lon="5.36227">
        <ele>410.826018</ele>
        <time>2023-08-19T04:35:48.109Z</time>
      </trkpt>
      <trkpt lat="44.76681" lon="5.36255">
        <ele>410.683394</ele>
        <time>2023-08-19T04:35:54.473Z</time>
      </trkpt>
      <trkpt lat="44.76659" lon="5.36259">
        <ele>410.627377</ele>
        <time>2023-08-19T04:35:56.793Z</time>
      </trkpt>
      <trkpt lat="44.76633" lon="5.36257">
        <ele>410.558667</ele>
        <time>2023-08-19T04:35:59.527Z</time>
      </trkpt>
      <trkpt lat="44.76623" lon="5.36257">
        <ele>410.534739</ele>
        <time>2023-08-19T04:36:00.439Z</time>
      </trkpt>
      <trkpt lat="44.76618" lon="5.36256">
        <ele>410.522125</ele>
        <time>2023-08-19T04:36:00.902Z</time>
      </trkpt>
      <trkpt lat="44.76485" lon="5.36241">
        <ele>408.552647</ele>
        <time>2023-08-19T04:36:12.872Z</time>
      </trkpt>
      <trkpt lat="44.76391" lon="5.36232">
        <ele>407.27333</ele>
        <time>2023-08-19T04:36:21.563Z</time>
      </trkpt>
      <trkpt lat="44.7638" lon="5.36231">
        <ele>407.154062</ele>
        <time>2023-08-19T04:36:22.554Z</time>
      </trkpt>
      <trkpt lat="44.76382" lon="5.36238">
        <ele>407.093456</ele>
        <time>2023-08-19T04:36:23.112Z</time>
      </trkpt>
      <trkpt lat="44.7638" lon="5.36267">
        <ele>406.868236</ele>
        <time>2023-08-19T04:36:25.040Z</time>
      </trkpt>
      <trkpt lat="44.76373" lon="5.36284">
        <ele>406.719381</ele>
        <time>2023-08-19T04:36:26.324Z</time>
      </trkpt>
      <trkpt lat="44.76361" lon="5.36296">
        <ele>406.561709</ele>
        <time>2023-08-19T04:36:27.665Z</time>
      </trkpt>
      <trkpt lat="44.76288" lon="5.36357">
        <ele>405.772692</ele>
        <time>2023-08-19T04:36:36.159Z</time>
      </trkpt>
      <trkpt lat="44.76248" lon="5.36389">
        <ele>405.921705</ele>
        <time>2023-08-19T04:36:41.923Z</time>
      </trkpt>
      <trkpt lat="44.7622" lon="5.36416">
        <ele>406.030467</ele>
        <time>2023-08-19T04:36:46.101Z</time>
      </trkpt>
      <trkpt lat="44.76166" lon="5.36482">
        <ele>406.258994</ele>
        <time>2023-08-19T04:36:55.810Z</time>
      </trkpt>
      <trkpt lat="44.76114" lon="5.36548">
        <ele>406.905073</ele>
        <time>2023-08-19T04:37:06.869Z</time>
      </trkpt>
      <trkpt lat="44.76094" lon="5.36574">
        <ele>407.212657</ele>
        <time>2023-08-19T04:37:11.673Z</time>
      </trkpt>
      <trkpt lat="44.76055" lon="5.36622">
        <ele>407.793927</ele>
        <time>2023-08-19T04:37:19.608Z</time>
      </trkpt>
      <trkpt lat="44.76013" lon="5.36668">
        <ele>408.379318</ele>
        <time>2023-08-19T04:37:27.836Z</time>
      </trkpt>
      <trkpt lat="44.75978" lon="5.36689">
        <ele>408.586303</ele>
        <time>2023-08-19T04:37:33.391Z</time>
      </trkpt>
      <trkpt lat="44.75976" lon="5.36689">
        <ele>408.596108</ele>
        <time>2023-08-19T04:37:33.621Z</time>
      </trkpt>
      <trkpt lat="44.75947" lon="5.36689">
        <ele>408.750873</ele>
        <time>2023-08-19T04:37:37.405Z</time>
      </trkpt>
      <trkpt lat="44.75914" lon="5.36675">
        <ele>408.939871</ele>
        <time>2023-08-19T04:37:41.927Z</time>
      </trkpt>
      <trkpt lat="44.75883" lon="5.36689">
        <ele>409.1174</ele>
        <time>2023-08-19T04:37:46.223Z</time>
      </trkpt>
      <trkpt lat="44.75858" lon="5.36705">
        <ele>409.264267</ele>
        <time>2023-08-19T04:37:49.677Z</time>
      </trkpt>
      <trkpt lat="44.75837" lon="5.36718">
        <ele>409.428794</ele>
        <time>2023-08-19T04:37:52.642Z</time>
      </trkpt>
      <trkpt lat="44.75788" lon="5.36769">
        <ele>409.971755</ele>
        <time>2023-08-19T04:38:00.558Z</time>
      </trkpt>
      <trkpt lat="44.75693" lon="5.36877">
        <ele>411.296324</ele>
        <time>2023-08-19T04:38:19.116Z</time>
      </trkpt>
      <trkpt lat="44.75654" lon="5.36804">
        <ele>412.957629</ele>
        <time>2023-08-19T04:38:32.483Z</time>
      </trkpt>
      <trkpt lat="44.75621" lon="5.36761">
        <ele>414.090907</ele>
        <time>2023-08-19T04:38:42.184Z</time>
      </trkpt>
      <trkpt lat="44.75615" lon="5.36772">
        <ele>414.344516</ele>
        <time>2023-08-19T04:38:44.296Z</time>
      </trkpt>
      <trkpt lat="44.75602" lon="5.36796">
        <ele>414.883622</ele>
        <time>2023-08-19T04:38:48.936Z</time>
      </trkpt>
      <trkpt lat="44.75592" lon="5.36814">
        <ele>415.287978</ele>
        <time>2023-08-19T04:38:52.095Z</time>
      </trkpt>
      <trkpt lat="44.75583" lon="5.36831">
        <ele>415.670828</ele>
        <time>2023-08-19T04:38:55.212Z</time>
      </trkpt>
      <trkpt lat="44.75576" lon="5.36843">
        <ele>415.954884</ele>
        <time>2023-08-19T04:38:57.374Z</time>
      </trkpt>
      <trkpt lat="44.75574" lon="5.36848">
        <ele>416.064278</ele>
        <time>2023-08-19T04:38:58.234Z</time>
      </trkpt>
      <trkpt lat="44.75556" lon="5.36876">
        <ele>416.759081</ele>
        <time>2023-08-19T04:39:03.783Z</time>
      </trkpt>
      <trkpt lat="44.75532" lon="5.36916">
        <ele>417.723713</ele>
        <time>2023-08-19T04:39:11.785Z</time>
      </trkpt>
      <trkpt lat="44.75518" lon="5.36941">
        <ele>418.298933</ele>
        <time>2023-08-19T04:39:16.775Z</time>
      </trkpt>
      <trkpt lat="44.75512" lon="5.36951">
        <ele>418.542776</ele>
        <time>2023-08-19T04:39:18.931Z</time>
      </trkpt>
      <trkpt lat="44.75487" lon="5.37">
        <ele>419.630813</ele>
        <time>2023-08-19T04:39:27.638Z</time>
      </trkpt>
      <trkpt lat="44.75471" lon="5.37028">
        <ele>420.102587</ele>
        <time>2023-08-19T04:39:32.495Z</time>
      </trkpt>
      <trkpt lat="44.75465" lon="5.37037">
        <ele>420.035633</ele>
        <time>2023-08-19T04:39:33.972Z</time>
      </trkpt>
      <trkpt lat="44.75449" lon="5.37064">
        <ele>419.854202</ele>
        <time>2023-08-19T04:39:37.482Z</time>
      </trkpt>
      <trkpt lat="44.75432" lon="5.37092">
        <ele>419.665391</ele>
        <time>2023-08-19T04:39:40.289Z</time>
      </trkpt>
      <trkpt lat="44.75431" lon="5.37094">
        <ele>419.646092</ele>
        <time>2023-08-19T04:39:40.558Z</time>
      </trkpt>
      <trkpt lat="44.75412" lon="5.37126">
        <ele>419.429592</ele>
        <time>2023-08-19T04:39:43.335Z</time>
      </trkpt>
      <trkpt lat="44.75392" lon="5.3716">
        <ele>419.205192</ele>
        <time>2023-08-19T04:39:46.060Z</time>
      </trkpt>
      <trkpt lat="44.75381" lon="5.37189">
        <ele>419.028552</ele>
        <time>2023-08-19T04:39:48.180Z</time>
      </trkpt>
      <trkpt lat="44.75363" lon="5.3723">
        <ele>418.696065</ele>
        <time>2023-08-19T04:39:51.150Z</time>
      </trkpt>
      <trkpt lat="44.75355" lon="5.37261">
        <ele>418.223152</ele>
        <time>2023-08-19T04:39:53.137Z</time>
      </trkpt>
      <trkpt lat="44.7534" lon="5.37305">
        <ele>417.520332</ele>
        <time>2023-08-19T04:39:56.093Z</time>
      </trkpt>
      <trkpt lat="44.75337" lon="5.37311">
        <ele>417.42563</ele>
        <time>2023-08-19T04:39:56.697Z</time>
      </trkpt>
      <trkpt lat="44.75313" lon="5.37343">
        <ele>416.75707</ele>
        <time>2023-08-19T04:39:59.560Z</time>
      </trkpt>
      <trkpt lat="44.75306" lon="5.37351">
        <ele>416.578428</ele>
        <time>2023-08-19T04:40:00.345Z</time>
      </trkpt>
      <trkpt lat="44.75239" lon="5.37438">
        <ele>414.992049</ele>
        <time>2023-08-19T04:40:08.452Z</time>
      </trkpt>
      <trkpt lat="44.75218" lon="5.37466">
        <ele>414.728872</ele>
        <time>2023-08-19T04:40:11.521Z</time>
      </trkpt>
      <trkpt lat="44.75208" lon="5.37481">
        <ele>414.599129</ele>
        <time>2023-08-19T04:40:13.068Z</time>
      </trkpt>
      <trkpt lat="44.75201" lon="5.37485">
        <ele>414.533109</ele>
        <time>2023-08-19T04:40:13.878Z</time>
      </trkpt>
      <trkpt lat="44.75202" lon="5.37493">
        <ele>414.478542</ele>
        <time>2023-08-19T04:40:14.599Z</time>
      </trkpt>
      <trkpt lat="44.75191" lon="5.37502">
        <ele>414.368386</ele>
        <time>2023-08-19T04:40:16.061Z</time>
      </trkpt>
      <trkpt lat="44.75168" lon="5.37531">
        <ele>414.085604</ele>
        <time>2023-08-19T04:40:19.633Z</time>
      </trkpt>
      <trkpt lat="44.75161" lon="5.37541">
        <ele>413.99123</ele>
        <time>2023-08-19T04:40:20.721Z</time>
      </trkpt>
      <trkpt lat="44.75113" lon="5.37601">
        <ele>413.056365</ele>
        <time>2023-08-19T04:40:27.020Z</time>
      </trkpt>
      <trkpt lat="44.75071" lon="5.37655">
        <ele>411.321217</ele>
        <time>2023-08-19T04:40:31.865Z</time>
      </trkpt>
      <trkpt lat="44.75016" lon="5.37745">
        <ele>408.788344</ele>
        <time>2023-08-19T04:40:38.487Z</time>
      </trkpt>
      <trkpt lat="44.75012" lon="5.37752">
        <ele>408.594261</ele>
        <time>2023-08-19T04:40:38.979Z</time>
      </trkpt>
      <trkpt lat="44.75007" lon="5.37759">
        <ele>408.389962</ele>
        <time>2023-08-19T04:40:39.510Z</time>
      </trkpt>
    </trkseg>
  </trk>
</gpx>